
Distance (Route):
Temperature : 14.8°C
Humidity : 53.9%
Pressure : 0hPa| Receiver | Frames | First received | Last received |
|---|---|---|---|
| OM5KV | 710 | 2026-09-02 23:27:30 | 2026-09-03 01:15:13 |
| PETON7-10 | 408 | 2026-09-02 23:22:09 | 2026-09-03 01:15:36 |
| OE5MMP-10 | 215 | 2026-09-02 23:56:40 | 2026-09-03 00:48:14 |
| DO3MHA-11 | 196 | 2026-09-02 23:51:31 | 2026-09-03 00:50:10 |
| OE5DRO-10 | 178 | 2026-09-02 23:37:13 | 2026-09-03 01:01:12 |
| POL1PZ | 166 | 2026-09-02 23:27:18 | 2026-09-03 01:01:51 |
| PG1ADW-2 | 166 | 2026-09-02 23:37:17 | 2026-09-03 00:59:46 |
| OE3OSB-13 | 156 | 2026-09-02 23:24:11 | 2026-09-03 01:14:28 |
| OE3JTB-15 | 151 | 2026-09-02 23:19:41 | 2026-09-03 01:16:18 |
| OE5DXL-15 | 125 | 2026-09-02 23:40:04 | 2026-09-03 00:58:26 |
| HA6NAB-11 | 84 | 2026-09-02 23:46:07 | 2026-09-03 00:54:05 |
| S52SK | 68 | 2026-09-02 23:38:11 | 2026-09-03 01:07:50 |
| OK1ALN | 39 | 2026-09-03 00:10:25 | 2026-09-03 00:43:29 |
| SP3WXH-11 | 28 | 2026-09-03 00:28:53 | 2026-09-03 00:50:05 |
| GYPAP8-17 | 16 | 2026-09-03 00:10:21 | 2026-09-03 00:51:53 |
| OK1SLM-15 | 16 | 2026-09-03 00:18:07 | 2026-09-03 00:36:02 |
| NBG1-10 | 12 | 2026-09-03 00:16:15 | 2026-09-03 00:40:27 |
| SQ9EZE-14 | 7 | 2026-09-03 00:08:23 | 2026-09-03 00:40:04 |
| SP3BTT-10 | 2 | 2026-09-03 00:27:30 | 2026-09-03 00:33:32 |
| Receiver | Date | Latitude | Longitude | Direction | Speed | Altitude | Climb | Temperature | Humidity | Pressure | Voltage | Killtimer | Uptime | BKT | XDATA |
|---|---|---|---|---|---|---|---|---|---|---|---|---|---|---|---|
| OE3JTB-15 | 2026-09-03 01:16:18 | 49.07969 | 18.11467 | 121° | 20km/h | 1234m | -4.9m/s | 14.8°C | 53.9% | 0hPa | 2.7V | 00:00:00 | 00:00:00 | 00:00:00 | |
| OE3JTB-15 | 2026-09-03 01:16:16 | 49.07974 | 18.11454 | 114° | 20km/h | 1248m | -9.0m/s | 14.7°C | 54.4% | 0hPa | 2.6V | 00:00:00 | 00:00:00 | 00:00:00 | |
| OE3JTB-15 | 2026-09-03 01:16:14 | 49.07978 | 18.11440 | 117° | 18km/h | 1267m | -9.8m/s | 14.6°C | 54.9% | 0hPa | 2.6V | 00:00:00 | 02:30:42 | 00:00:00 | |
| OE3JTB-15 | 2026-09-03 01:16:12 | 49.07983 | 18.11428 | 124° | 20km/h | 1284m | -9.5m/s | 14.5°C | 53.4% | 0hPa | 2.6V | 00:00:00 | 00:00:00 | 00:00:00 | |
| OE3JTB-15 | 2026-09-03 01:16:10 | 49.07989 | 18.11415 | 120° | 22km/h | 1300m | -8.8m/s | 14.3°C | 53.6% | 0hPa | 2.7V | 00:00:00 | 00:00:00 | 00:00:00 | |
| OE3JTB-15 | 2026-09-03 01:16:08 | 49.07994 | 18.11401 | 119° | 20km/h | 1317m | -9.8m/s | 14.2°C | 53.9% | 0hPa | 2.7V | 00:00:00 | 02:30:36 | 00:00:00 | |
| OE3JTB-15 | 2026-09-03 01:16:04 | 49.08004 | 18.11375 | 121° | 20km/h | 1351m | -6.9m/s | 13.9°C | 55.1% | 0hPa | 2.7V | 00:00:00 | 00:00:00 | 00:00:00 | |
| OE3JTB-15 | 2026-09-03 01:16:02 | 49.08010 | 18.11361 | 123° | 20km/h | 1363m | -4.2m/s | 13.8°C | 55.6% | 0hPa | 2.7V | 00:00:00 | 02:30:30 | 00:00:00 | |
| OE3JTB-15 | 2026-09-03 01:16:00 | 49.08015 | 18.11348 | 124° | 18km/h | 1376m | -9.3m/s | 13.7°C | 56.0% | 0hPa | 2.7V | 00:00:00 | 00:00:00 | 00:00:00 | |
| OE3JTB-15 | 2026-09-03 01:15:58 | 49.08020 | 18.11336 | 127° | 20km/h | 1395m | -7.4m/s | 13.5°C | 56.9% | 0hPa | 2.7V | 00:00:00 | 00:00:00 | 00:00:00 | |
| OE3JTB-15 | 2026-09-03 01:15:56 | 49.08026 | 18.11323 | 129° | 18km/h | 1411m | -7.3m/s | 13.3°C | 57.6% | 0hPa | 2.7V | 00:00:00 | 02:30:24 | 00:00:00 | |
| OE3JTB-15 | 2026-09-03 01:15:54 | 49.08032 | 18.11310 | 126° | 22km/h | 1430m | -10.3m/s | 13.2°C | 58.0% | 0hPa | 2.7V | 00:00:00 | 00:00:00 | 00:00:00 | |
| OE3JTB-15 | 2026-09-03 01:15:52 | 49.08038 | 18.11297 | 124° | 20km/h | 1448m | -7.7m/s | 13.0°C | 58.6% | 0hPa | 2.7V | 00:00:00 | 00:00:00 | 00:00:00 | |
| OE3JTB-15 | 2026-09-03 01:15:50 | 49.08043 | 18.11285 | 123° | 20km/h | 1464m | -5.5m/s | 12.8°C | 59.3% | 0hPa | 2.7V | 07:48:00 | 02:30:18 | 00:00:00 | |
| OE3JTB-15 | 2026-09-03 01:15:46 | 49.08054 | 18.11259 | 121° | 18km/h | 1496m | -10.6m/s | 12.6°C | 60.3% | 0hPa | 2.7V | 00:00:00 | 00:00:00 | 00:00:00 | |
| OE3JTB-15 | 2026-09-03 01:15:44 | 49.08059 | 18.11246 | 125° | 18km/h | 1513m | -7.1m/s | 12.4°C | 61.3% | 0hPa | 2.7V | 00:00:00 | 02:30:12 | 00:00:00 | |
| OE3JTB-15 | 2026-09-03 01:15:42 | 49.08064 | 18.11235 | 124° | 18km/h | 1526m | -7.3m/s | 12.3°C | 61.7% | 0hPa | 2.7V | 00:00:00 | 00:00:00 | 00:00:00 | |
| OE3JTB-15 | 2026-09-03 01:15:40 | 49.08069 | 18.11224 | 120° | 16km/h | 1542m | -9.6m/s | 12.2°C | 62.2% | 0hPa | 2.7V | 00:00:00 | 00:00:00 | 00:00:00 | |
| OE3JTB-15 | 2026-09-03 01:15:38 | 49.08073 | 18.11213 | 120° | 16km/h | 1559m | -8.6m/s | 12.1°C | 60.4% | 0hPa | 2.7V | 00:00:00 | 02:30:06 | 00:00:00 | |
| OE3JTB-15 | 2026-09-03 01:15:36 | 49.08077 | 18.11201 | 119° | 18km/h | 1572m | -8.6m/s | 12.0°C | 60.0% | 0hPa | 2.7V | 00:00:00 | 00:00:00 | 00:00:00 | |
| PETON7-10 | 2026-09-03 01:15:36 | 49.08077 | 18.11201 | 119° | 18km/h | 1572m | -8.6m/s | 12.0°C | 60.0% | 0hPa | 2.7V | 00:00:00 | 00:00:00 | 00:00:00 | |
| PETON7-10 | 2026-09-03 01:15:34 | 49.08081 | 18.11189 | 118° | 18km/h | 1589m | -6.6m/s | 11.8°C | 60.8% | 0hPa | 2.7V | 00:00:00 | 02:30:02 | 00:00:00 | |
| OE3JTB-15 | 2026-09-03 01:15:34 | 49.08081 | 18.11189 | 118° | 18km/h | 1589m | -6.6m/s | 11.8°C | 60.8% | 0hPa | 2.7V | 07:49:00 | 00:00:00 | 00:00:00 | |
| PETON7-10 | 2026-09-03 01:15:33 | 49.08083 | 18.11182 | 114° | 18km/h | 1594m | -4.2m/s | 11.8°C | 60.7% | 0hPa | 2.7V | 07:49:00 | 00:00:00 | 00:00:00 | |
| OE3JTB-15 | 2026-09-03 01:15:32 | 49.08085 | 18.11175 | 114° | 20km/h | 1598m | -3.7m/s | 11.8°C | 61.1% | 0hPa | 2.7V | 00:00:00 | 02:30:00 | 00:00:00 | |
| PETON7-10 | 2026-09-03 01:15:32 | 49.08085 | 18.11175 | 114° | 20km/h | 1598m | -3.7m/s | 11.8°C | 61.1% | 0hPa | 2.7V | 00:00:00 | 00:00:00 | 00:00:00 | |
| PETON7-10 | 2026-09-03 01:15:31 | 49.08087 | 18.11169 | 112° | 20km/h | 1603m | -5.4m/s | 11.7°C | 61.0% | 0hPa | 2.7V | 00:00:00 | 02:29:59 | 00:00:00 | |
| OE3JTB-15 | 2026-09-03 01:15:30 | 49.08089 | 18.11162 | 113° | 20km/h | 1610m | -8.1m/s | 11.7°C | 61.1% | 0hPa | 2.7V | 00:00:00 | 00:00:00 | 00:00:00 | |
| PETON7-10 | 2026-09-03 01:15:28 | 49.08093 | 18.11147 | 113° | 22km/h | 1621m | -4.2m/s | 11.5°C | 61.6% | 0hPa | 2.7V | 00:00:00 | 00:00:00 | 00:00:00 | |
| OE3JTB-15 | 2026-09-03 01:15:28 | 49.08093 | 18.11147 | 113° | 20km/h | 1621m | -4.2m/s | 11.5°C | 61.6% | 0hPa | 2.7V | 00:00:00 | 00:00:00 | 00:00:00 | |
| PETON7-10 | 2026-09-03 01:15:27 | 49.08095 | 18.11140 | 112° | 20km/h | 1626m | -6.1m/s | 11.5°C | 61.9% | 0hPa | 2.7V | 00:00:00 | 02:29:55 | 00:00:00 | |
| PETON7-10 | 2026-09-03 01:15:26 | 49.08097 | 18.11132 | 110° | 20km/h | 1633m | -8.9m/s | 11.4°C | 62.3% | 0hPa | 2.7V | 00:00:00 | 00:00:00 | 00:00:00 | |
| OE3JTB-15 | 2026-09-03 01:15:26 | 49.08097 | 18.11132 | 110° | 22km/h | 1633m | -8.9m/s | 11.4°C | 62.3% | 0hPa | 2.6V | 00:00:00 | 02:29:54 | 00:00:00 | |
| PETON7-10 | 2026-09-03 01:15:25 | 49.08098 | 18.11125 | 107° | 22km/h | 1642m | -7.7m/s | 11.3°C | 62.4% | 0hPa | 2.6V | 00:00:00 | 00:00:00 | 00:00:00 | |
| PETON7-10 | 2026-09-03 01:15:24 | 49.08100 | 18.11116 | 105° | 22km/h | 1648m | -4.6m/s | 11.3°C | 62.4% | 0hPa | 2.6V | 07:49:00 | 02:29:52 | 00:00:00 | |
| OE3JTB-15 | 2026-09-03 01:15:24 | 49.08100 | 18.11116 | 105° | 22km/h | 1648m | -4.6m/s | 11.3°C | 62.4% | 0hPa | 2.6V | 00:00:00 | 00:00:00 | 00:00:00 | |
| OE3JTB-15 | 2026-09-03 01:15:22 | 49.08103 | 18.11099 | 103° | 22km/h | 1659m | -7.1m/s | 11.3°C | 61.0% | 0hPa | 2.7V | 00:00:00 | 00:00:00 | 00:00:00 | |
| PETON7-10 | 2026-09-03 01:15:21 | 49.08104 | 18.11091 | 105° | 22km/h | 1667m | -8.2m/s | 11.3°C | 60.8% | 0hPa | 2.7V | 00:00:00 | 00:00:00 | 00:00:00 | |
| PETON7-10 | 2026-09-03 01:15:20 | 49.08105 | 18.11082 | 105° | 22km/h | 1675m | -8.0m/s | 11.2°C | 60.8% | 0hPa | 2.7V | 00:00:00 | 00:00:00 | 00:00:00 | |
| OE3JTB-15 | 2026-09-03 01:15:20 | 49.08105 | 18.11082 | 105° | 22km/h | 1675m | -8.0m/s | 11.2°C | 60.8% | 0hPa | 2.7V | 00:00:00 | 02:29:48 | 00:00:00 | |
| PETON7-10 | 2026-09-03 01:15:19 | 49.08107 | 18.11074 | 106° | 22km/h | 1682m | -7.7m/s | 11.2°C | 60.7% | 0hPa | 2.7V | 00:00:00 | 02:29:47 | 00:00:00 | |
| OE3JTB-15 | 2026-09-03 01:15:18 | 49.08108 | 18.11066 | 105° | 22km/h | 1690m | -7.0m/s | 11.1°C | 60.8% | 0hPa | 2.7V | 07:49:00 | 00:00:00 | 00:00:00 | |
| PETON7-10 | 2026-09-03 01:15:18 | 49.08108 | 18.11066 | 105° | 22km/h | 1690m | -7.0m/s | 11.1°C | 60.8% | 0hPa | 2.7V | 00:00:00 | 00:00:00 | 00:00:00 | |
| OE3JTB-15 | 2026-09-03 01:15:16 | 49.08111 | 18.11049 | 101° | 22km/h | 1704m | -7.1m/s | 11.0°C | 60.9% | 0hPa | 2.7V | 00:00:00 | 00:00:00 | 00:00:00 | |
| PETON7-10 | 2026-09-03 01:15:16 | 49.08111 | 18.11049 | 101° | 22km/h | 1704m | -7.1m/s | 11.0°C | 60.9% | 0hPa | 2.7V | 00:00:00 | 00:00:00 | 00:00:00 | |
| PETON7-10 | 2026-09-03 01:15:15 | 49.08112 | 18.11041 | 99° | 22km/h | 1711m | -6.6m/s | 10.9°C | 61.2% | 0hPa | 2.7V | 00:00:00 | 02:29:43 | 00:00:00 | |
| OE3JTB-15 | 2026-09-03 01:15:14 | 49.08113 | 18.11032 | 99° | 24km/h | 1718m | -7.9m/s | 10.9°C | 61.4% | 0hPa | 2.7V | 00:00:00 | 02:29:42 | 00:00:00 | |
| PETON7-10 | 2026-09-03 01:15:14 | 49.08113 | 18.11032 | 99° | 24km/h | 1718m | -7.9m/s | 10.9°C | 61.4% | 0hPa | 2.7V | 00:00:00 | 00:00:00 | 00:00:00 | |
| PETON7-10 | 2026-09-03 01:15:13 | 49.08114 | 18.11023 | 98° | 24km/h | 1724m | -5.5m/s | 10.8°C | 61.8% | 0hPa | 2.7V | 07:49:00 | 00:00:00 | 00:00:00 | |
| OM5KV | 2026-09-03 01:15:13 | 49.08114 | 18.11023 | 98° | 24km/h | 1724m | -5.5m/s | 10.8°C | 60.8% | 0hPa | 2.7V | 07:49:00 | 00:00:00 | 00:00:00 | |
| OE3JTB-15 | 2026-09-03 01:15:12 | 49.08114 | 18.11014 | 94° | 24km/h | 1731m | -8.0m/s | 10.7°C | 61.8% | 0hPa | 2.7V | 00:00:00 | 00:00:00 | 00:00:00 | |
| PETON7-10 | 2026-09-03 01:15:12 | 49.08114 | 18.11014 | 94° | 24km/h | 1731m | -8.0m/s | 10.7°C | 61.8% | 0hPa | 2.6V | 00:00:00 | 02:29:40 | 00:00:00 | |
| OE3JTB-15 | 2026-09-03 01:15:10 | 49.08116 | 18.10995 | 96° | 26km/h | 1747m | -7.3m/s | 10.6°C | 61.8% | 0hPa | 2.6V | 00:00:00 | 00:00:00 | 00:00:00 | |
| PETON7-10 | 2026-09-03 01:15:09 | 49.08116 | 18.10986 | 95° | 24km/h | 1754m | -5.9m/s | 10.6°C | 62.0% | 0hPa | 2.6V | 00:00:00 | 00:00:00 | 00:00:00 | |
| OE3JTB-15 | 2026-09-03 01:15:08 | 49.08117 | 18.10976 | 94° | 24km/h | 1760m | -7.0m/s | 10.5°C | 62.3% | 0hPa | 2.7V | 00:00:00 | 02:29:36 | 00:00:00 | |
| OE3JTB-15 | 2026-09-03 01:15:06 | 49.08118 | 18.10957 | 93° | 24km/h | 1774m | -7.4m/s | 10.4°C | 62.7% | 0hPa | 2.7V | 00:00:00 | 00:00:00 | 00:00:00 | |
| OM5KV | 2026-09-03 01:15:04 | 49.08118 | 18.10948 | 93° | 24km/h | 1782m | -7.8m/s | 10.4°C | 61.4% | 0hPa | 2.7V | 00:00:00 | 00:00:00 | 00:00:00 | |
| PETON7-10 | 2026-09-03 01:15:04 | 49.08118 | 18.10938 | 92° | 26km/h | 1789m | -7.1m/s | 10.3°C | 62.6% | 0hPa | 2.7V | 00:00:00 | 00:00:00 | 00:00:00 | |
| OE3JTB-15 | 2026-09-03 01:15:04 | 49.08118 | 18.10938 | 92° | 24km/h | 1789m | -7.1m/s | 10.3°C | 62.6% | 0hPa | 2.7V | 00:00:00 | 00:00:00 | 00:00:00 | |
| OE3JTB-15 | 2026-09-03 01:15:02 | 49.08118 | 18.10919 | 91° | 26km/h | 1802m | -5.6m/s | 10.2°C | 62.9% | 0hPa | 2.7V | 07:49:00 | 02:29:30 | 00:00:00 | |
| OE3JTB-15 | 2026-09-03 01:15:00 | 49.08118 | 18.10899 | 90° | 26km/h | 1816m | -6.9m/s | 10.1°C | 63.3% | 0hPa | 2.7V | 00:00:00 | 00:00:00 | 00:00:00 | |
| PETON7-10 | 2026-09-03 01:14:59 | 49.08118 | 18.10888 | 88° | 27km/h | 1822m | -5.1m/s | 10.0°C | 64.0% | 0hPa | 2.6V | 00:00:00 | 02:29:27 | 00:00:00 | |
| OM5KV | 2026-09-03 01:14:58 | 49.08118 | 18.10888 | 88° | 26km/h | 1822m | -5.1m/s | 10.1°C | 63.0% | 0hPa | 2.6V | 00:00:00 | 00:00:00 | 00:00:00 | |
| OE3JTB-15 | 2026-09-03 01:14:58 | 49.08117 | 18.10878 | 89° | 27km/h | 1828m | -7.4m/s | 10.0°C | 64.2% | 0hPa | 2.6V | 00:00:00 | 00:00:00 | 00:00:00 | |
| OE3JTB-15 | 2026-09-03 01:14:56 | 49.08116 | 18.10857 | 85° | 27km/h | 1842m | -6.8m/s | 9.9°C | 64.9% | 0hPa | 2.6V | 00:00:00 | 02:29:24 | 00:00:00 | |
| OM5KV | 2026-09-03 01:14:54 | 49.08116 | 18.10847 | 88° | 27km/h | 1848m | -5.8m/s | 9.9°C | 64.0% | 0hPa | 2.6V | 00:00:00 | 00:00:00 | 00:00:00 | |
| PETON7-10 | 2026-09-03 01:14:54 | 49.08115 | 18.10836 | 87° | 27km/h | 1854m | -6.6m/s | 9.8°C | 65.3% | 0hPa | 2.6V | 00:00:00 | 00:00:00 | 00:00:00 | |
| OE3JTB-15 | 2026-09-03 01:14:50 | 49.08113 | 18.10794 | 88° | 27km/h | 1882m | -7.4m/s | 9.5°C | 66.1% | 0hPa | 2.7V | 00:00:00 | 00:00:00 | 00:00:00 | |
| PETON7-10 | 2026-09-03 01:14:49 | 49.08113 | 18.10784 | 89° | 27km/h | 1889m | -7.6m/s | 9.5°C | 66.3% | 0hPa | 2.7V | 00:00:00 | 00:00:00 | 00:00:00 | |
| OE3JTB-15 | 2026-09-03 01:14:48 | 49.08112 | 18.10773 | 88° | 27km/h | 1897m | -8.1m/s | 9.4°C | 66.8% | 0hPa | 2.7V | 00:00:00 | 00:00:00 | 00:00:00 | |
| OM5KV | 2026-09-03 01:14:48 | 49.08113 | 18.10773 | 88° | 27km/h | 1897m | -8.1m/s | 9.5°C | 65.6% | 0hPa | 2.7V | 00:00:00 | 00:00:00 | 00:00:00 | |
| OM5KV | 2026-09-03 01:14:46 | 49.08112 | 18.10762 | 89° | 27km/h | 1905m | -7.6m/s | 9.4°C | 65.5% | 0hPa | 2.7V | 00:00:00 | 00:00:00 | 00:00:00 | |
| OE3JTB-15 | 2026-09-03 01:14:46 | 49.08112 | 18.10752 | 86° | 27km/h | 1913m | -8.5m/s | 9.2°C | 67.8% | 0hPa | 2.7V | 00:00:00 | 02:29:14 | 00:00:00 | |
| OE3JTB-15 | 2026-09-03 01:14:44 | 49.08110 | 18.10731 | 85° | 27km/h | 1926m | -6.7m/s | 9.1°C | 68.6% | 0hPa | 2.7V | 00:00:00 | 00:00:00 | 00:00:00 | |
| PETON7-10 | 2026-09-03 01:14:44 | 49.08110 | 18.10731 | 85° | 27km/h | 1926m | -6.7m/s | 9.1°C | 68.6% | 0hPa | 2.7V | 00:00:00 | 02:29:12 | 00:00:00 | |
| OE3JTB-15 | 2026-09-03 01:14:42 | 49.08109 | 18.10709 | 84° | 29km/h | 1941m | -7.6m/s | 9.0°C | 69.7% | 0hPa | 2.7V | 07:49:00 | 00:00:00 | 00:00:00 | |
| OM5KV | 2026-09-03 01:14:42 | 49.08109 | 18.10709 | 84° | 29km/h | 1941m | -7.7m/s | 9.0°C | 68.4% | 0hPa | 2.7V | 00:00:00 | 00:00:00 | 00:00:00 | |
| OM5KV | 2026-09-03 01:14:41 | 49.08109 | 18.10709 | 84° | 29km/h | 1941m | -7.7m/s | 9.0°C | 68.4% | 0hPa | 2.7V | 00:00:00 | 00:00:00 | 00:00:00 | |
| OE3JTB-15 | 2026-09-03 01:14:39 | 49.08106 | 18.10677 | 84° | 29km/h | 1963m | -7.7m/s | 8.8°C | 70.1% | 0hPa | 2.7V | 00:00:00 | 02:29:07 | 00:00:00 | |
| PETON7-10 | 2026-09-03 01:14:39 | 49.08106 | 18.10677 | 84° | 29km/h | 1963m | -7.7m/s | 8.8°C | 70.1% | 0hPa | 2.7V | 07:49:00 | 00:00:00 | 00:00:00 | |
| OM5KV | 2026-09-03 01:14:35 | 49.08103 | 18.10645 | 82° | 27km/h | 1981m | -5.0m/s | 8.7°C | 69.0% | 0hPa | 2.6V | 00:00:00 | 00:00:00 | 00:00:00 | |
| OE3JTB-15 | 2026-09-03 01:14:34 | 49.08101 | 18.10623 | 81° | 29km/h | 1991m | -7.0m/s | 8.6°C | 69.8% | 0hPa | 2.6V | 00:00:00 | 00:00:00 | 00:00:00 | |
| PETON7-10 | 2026-09-03 01:14:34 | 49.08101 | 18.10623 | 81° | 31km/h | 1991m | -7.0m/s | 8.6°C | 69.8% | 0hPa | 2.6V | 00:00:00 | 00:00:00 | 00:00:00 | |
| OE3JTB-15 | 2026-09-03 01:14:31 | 49.08098 | 18.10588 | 80° | 31km/h | 2013m | -7.9m/s | 8.5°C | 66.4% | 0hPa | 2.6V | 00:00:00 | 00:00:00 | 00:00:00 | |
| OE3JTB-15 | 2026-09-03 01:14:29 | 49.08095 | 18.10566 | 81° | 29km/h | 2029m | -8.1m/s | 8.3°C | 66.8% | 0hPa | 2.6V | 00:00:00 | 02:28:57 | 00:00:00 | |
| OE3OSB-13 | 2026-09-03 01:14:28 | 49.08094 | 18.10554 | 81° | 29km/h | 2036m | -5.4m/s | 8.3°C | 65.9% | -1.0hPa | 2.6V | 00:00:00 | 00:00:00 | 00:00:00 | |
| OE3JTB-15 | 2026-09-03 01:14:27 | 49.08092 | 18.10543 | 81° | 29km/h | 2043m | -8.6m/s | 8.2°C | 67.4% | 0hPa | 2.6V | 00:00:00 | 00:00:00 | 00:00:00 | |
| OE3JTB-15 | 2026-09-03 01:14:25 | 49.08090 | 18.10520 | 80° | 31km/h | 2057m | -6.2m/s | 8.1°C | 68.5% | 0hPa | 2.7V | 00:00:00 | 00:00:00 | 00:00:00 | |
| PETON7-10 | 2026-09-03 01:14:24 | 49.08088 | 18.10509 | 81° | 31km/h | 2064m | -7.9m/s | 8.0°C | 69.0% | 0hPa | 2.7V | 00:00:00 | 00:00:00 | 00:00:00 | |
| OE3JTB-15 | 2026-09-03 01:14:23 | 49.08087 | 18.10497 | 78° | 31km/h | 2072m | -9.3m/s | 7.9°C | 71.6% | 0hPa | 2.7V | 00:00:00 | 02:28:51 | 00:00:00 | |
| OE3JTB-15 | 2026-09-03 01:14:21 | 49.08084 | 18.10474 | 79° | 31km/h | 2087m | -7.0m/s | 7.8°C | 72.9% | 0hPa | 2.7V | 07:50:00 | 00:00:00 | 00:00:00 | |
| PETON7-10 | 2026-09-03 01:14:19 | 49.08081 | 18.10450 | 77° | 31km/h | 2100m | -6.8m/s | 7.7°C | 74.0% | 0hPa | 2.7V | 00:00:00 | 00:00:00 | 00:00:00 | |
| PETON7-10 | 2026-09-03 01:14:14 | 49.08072 | 18.10391 | 77° | 31km/h | 2136m | -8.7m/s | 7.5°C | 71.2% | 0hPa | 2.7V | 00:00:00 | 02:28:42 | 00:00:00 | |
| OE3JTB-15 | 2026-09-03 01:14:06 | 49.08056 | 18.10300 | 75° | 31km/h | 2191m | -7.3m/s | 7.0°C | 79.7% | 0hPa | 2.7V | 00:00:00 | 02:28:34 | 00:00:00 | |
| OM5KV | 2026-09-03 01:14:05 | 49.08056 | 18.10300 | 76° | 31km/h | 2191m | -7.4m/s | 7.0°C | 78.1% | 0hPa | 2.7V | 07:51:00 | 00:00:00 | 00:00:00 | |
| PETON7-10 | 2026-09-03 01:14:04 | 49.08053 | 18.10277 | 77° | 31km/h | 2206m | -8.1m/s | 6.9°C | 77.0% | 0hPa | 2.7V | 00:00:00 | 00:00:00 | 00:00:00 | |
| OM5KV | 2026-09-03 01:13:58 | 49.08042 | 18.10205 | 81° | 31km/h | 2254m | -10.0m/s | 6.5°C | 78.2% | 0hPa | 2.7V | 07:51:00 | 00:00:00 | 00:00:00 | |
| OE3JTB-15 | 2026-09-03 01:13:57 | 49.08040 | 18.10193 | 75° | 31km/h | 2263m | -10.3m/s | 6.3°C | 81.0% | 0hPa | 2.7V | 00:00:00 | 00:00:00 | 00:00:00 | |
| PETON7-10 | 2026-09-03 01:13:54 | 49.08036 | 18.10157 | 77° | 31km/h | 2290m | -8.5m/s | 6.1°C | 82.7% | 0hPa | 2.5V | 00:00:00 | 00:00:00 | 00:00:00 | |
| OM5KV | 2026-09-03 01:13:53 | 49.08036 | 18.10157 | 78° | 31km/h | 2290m | -8.5m/s | 6.1°C | 81.0% | 0hPa | 2.5V | 07:51:00 | 00:00:00 | 00:00:00 | |
| OE3JTB-15 | 2026-09-03 01:13:48 | 49.08024 | 18.10086 | 76° | 31km/h | 2337m | -7.1m/s | 5.6°C | 84.7% | 0hPa | 2.5V | 00:00:00 | 00:00:00 | 00:00:00 | |
| OM5KV | 2026-09-03 01:13:46 | 49.08022 | 18.10074 | 77° | 31km/h | 2345m | -8.6m/s | 5.6°C | 83.4% | 0hPa | 2.5V | 07:51:00 | 00:00:00 | 00:00:00 | |
| PETON7-10 | 2026-09-03 01:13:44 | 49.08017 | 18.10039 | 78° | 31km/h | 2368m | -7.3m/s | 5.4°C | 84.2% | 0hPa | 2.5V | 07:50:00 | 02:28:12 | 00:00:00 | |
| OE3JTB-15 | 2026-09-03 01:13:39 | 49.08008 | 18.09980 | 78° | 31km/h | 2402m | -7.3m/s | 5.1°C | 87.0% | 0hPa | 2.5V | 00:00:00 | 02:28:07 | 00:00:00 | |
| OM5KV | 2026-09-03 01:13:38 | 49.08006 | 18.09968 | 77° | 31km/h | 2409m | -5.5m/s | 5.1°C | 84.9% | 0hPa | 2.5V | 07:51:00 | 00:00:00 | 00:00:00 | |
| PETON7-10 | 2026-09-03 01:13:34 | 49.07999 | 18.09922 | 76° | 33km/h | 2433m | -7.0m/s | 4.8°C | 88.5% | 0hPa | 2.5V | 00:00:00 | 00:00:00 | 00:00:00 | |
| OE3JTB-15 | 2026-09-03 01:13:30 | 49.07991 | 18.09875 | 75° | 33km/h | 2465m | -7.7m/s | 4.5°C | 89.8% | 0hPa | 2.7V | 00:00:00 | 00:00:00 | 00:00:00 | |
| OE3OSB-13 | 2026-09-03 01:13:26 | 49.07982 | 18.09827 | 74° | 31km/h | 2497m | -8.3m/s | 4.3°C | 90.0% | -1.0hPa | 2.6V | 00:00:00 | 00:00:00 | 00:00:00 | |
| OM5KV | 2026-09-03 01:13:25 | 49.07982 | 18.09827 | 76° | 33km/h | 2497m | -8.3m/s | 4.3°C | 90.0% | 0hPa | 2.6V | 07:51:00 | 00:00:00 | 00:00:00 | |
| PETON7-10 | 2026-09-03 01:13:24 | 49.07978 | 18.09802 | 76° | 35km/h | 2514m | -7.6m/s | 4.1°C | 91.9% | 0hPa | 2.6V | 00:00:00 | 00:00:00 | 00:00:00 | |
| OM5KV | 2026-09-03 01:13:21 | 49.07971 | 18.09764 | 78° | 35km/h | 2534m | -3.9m/s | 4.0°C | 89.6% | 0hPa | 2.6V | 07:52:00 | 00:00:00 | 00:00:00 | |
| OM5KV | 2026-09-03 01:13:18 | 49.07967 | 18.09738 | 76° | 37km/h | 2551m | -10.6m/s | 3.9°C | 89.2% | 0hPa | 2.6V | 07:52:00 | 00:00:00 | 00:00:00 | |
| PETON7-10 | 2026-09-03 01:13:14 | 49.07956 | 18.09670 | 74° | 35km/h | 2598m | -9.0m/s | 3.5°C | 89.0% | 0hPa | 2.6V | 00:00:00 | 02:27:42 | 00:00:00 | |
| OE3JTB-15 | 2026-09-03 01:13:12 | 49.07951 | 18.09645 | 76° | 35km/h | 2615m | -8.6m/s | 3.3°C | 89.9% | 0hPa | 2.6V | 07:51:00 | 02:27:40 | 00:00:00 | |
| OM5KV | 2026-09-03 01:13:11 | 49.07951 | 18.09645 | 77° | 35km/h | 2615m | -8.7m/s | 3.4°C | 87.8% | 0hPa | 2.6V | 07:52:00 | 00:00:00 | 00:00:00 | |
| OM5KV | 2026-09-03 01:13:08 | 49.07944 | 18.09605 | 75° | 37km/h | 2637m | -8.5m/s | 3.1°C | 88.5% | 0hPa | 2.6V | 07:52:00 | 00:00:00 | 00:00:00 | |
| PETON7-10 | 2026-09-03 01:13:04 | 49.07932 | 18.09540 | 77° | 35km/h | 2676m | -7.0m/s | 2.8°C | 88.2% | 0hPa | 2.6V | 00:00:00 | 00:00:00 | 00:00:00 | |
| OE3OSB-13 | 2026-09-03 01:12:55 | 49.07913 | 18.09424 | 72° | 35km/h | 2753m | -9.0m/s | 2.3°C | 85.9% | -1.0hPa | 2.6V | 00:00:00 | 00:00:00 | 00:00:00 | |
| OM5KV | 2026-09-03 01:12:54 | 49.07910 | 18.09411 | 75° | 35km/h | 2762m | -9.6m/s | 2.3°C | 85.8% | 0hPa | 2.6V | 07:52:00 | 00:00:00 | 00:00:00 | |
| OE3JTB-15 | 2026-09-03 01:12:53 | 49.07908 | 18.09398 | 75° | 31km/h | 2771m | -8.3m/s | 2.2°C | 87.8% | 0hPa | 2.6V | 00:00:00 | 00:00:00 | 00:00:00 | |
| OM5KV | 2026-09-03 01:12:44 | 49.07890 | 18.09299 | 75° | 33km/h | 2838m | -8.4m/s | 1.6°C | 94.4% | 0hPa | 2.6V | 07:52:00 | 00:00:00 | 00:00:00 | |
| OM5KV | 2026-09-03 01:12:42 | 49.07886 | 18.09275 | 75° | 31km/h | 2856m | -8.7m/s | 1.4°C | 95.9% | 0hPa | 2.6V | 07:52:00 | 00:00:00 | 00:00:00 | |
| OM5KV | 2026-09-03 01:12:39 | 49.07879 | 18.09229 | 77° | 31km/h | 2893m | -9.5m/s | 1.1°C | 98.1% | 0hPa | 2.6V | 07:52:00 | 00:00:00 | 00:00:00 | |
| OM5KV | 2026-09-03 01:12:36 | 49.07875 | 18.09205 | 77° | 31km/h | 2909m | -8.6m/s | 0.9°C | 98.8% | 0hPa | 2.6V | 07:52:00 | 00:00:00 | 00:00:00 | |
| OM5KV | 2026-09-03 01:12:27 | 49.07853 | 18.09094 | 73° | 29km/h | 2995m | -6.1m/s | 0.4°C | 94.4% | 0hPa | 2.6V | 07:52:00 | 00:00:00 | 00:00:00 | |
| OE3OSB-13 | 2026-09-03 01:12:25 | 49.07846 | 18.09064 | 74° | 26km/h | 3020m | -8.6m/s | 0.2°C | 94.2% | -1.0hPa | 2.6V | 00:00:00 | 00:00:00 | 00:00:00 | |
| PETON7-10 | 2026-09-03 01:12:24 | 49.07846 | 18.09064 | 75° | 29km/h | 3020m | -8.5m/s | 0.2°C | 96.9% | 0hPa | 2.6V | 00:00:00 | 00:00:00 | 00:00:00 | |
| OM5KV | 2026-09-03 01:12:20 | 49.07840 | 18.09033 | 72° | 27km/h | 3047m | -9.3m/s | 0.1°C | 93.2% | 0hPa | 2.5V | 07:52:00 | 00:00:00 | 00:00:00 | |
| OM5KV | 2026-09-03 01:12:16 | 49.07829 | 18.08981 | 71° | 29km/h | 3088m | -9.4m/s | -0.3°C | 95.3% | 0hPa | 2.5V | 07:52:00 | 00:00:00 | 00:00:00 | |
| OE3JTB-15 | 2026-09-03 01:12:15 | 49.07827 | 18.08970 | 74° | 31km/h | 3096m | -8.5m/s | -0.3°C | 98.5% | 0hPa | 2.5V | 00:00:00 | 00:00:00 | 00:00:00 | |
| OM5KV | 2026-09-03 01:12:10 | 49.07819 | 18.08927 | 78° | 31km/h | 3131m | -9.2m/s | -0.5°C | 97.0% | 0hPa | 2.6V | 07:52:00 | 00:00:00 | 00:00:00 | |
| OM5KV | 2026-09-03 01:12:03 | 49.07806 | 18.08849 | 80° | 31km/h | 3187m | -7.1m/s | -0.7°C | 96.1% | 0hPa | 2.6V | 07:52:00 | 00:00:00 | 00:00:00 | |
| OE3OSB-13 | 2026-09-03 01:11:53 | 49.07790 | 18.08719 | 81° | 29km/h | 3276m | -7.2m/s | -1.2°C | 94.5% | -1.0hPa | 2.6V | 00:00:00 | 00:00:00 | 00:00:00 | |
| OM5KV | 2026-09-03 01:11:51 | 49.07789 | 18.08707 | 83° | 31km/h | 3284m | -7.8m/s | -1.2°C | 94.8% | 0hPa | 2.6V | 07:52:00 | 00:00:00 | 00:00:00 | |
| OM5KV | 2026-09-03 01:11:47 | 49.07785 | 18.08660 | 83° | 33km/h | 3313m | -9.5m/s | -1.5°C | 95.6% | 0hPa | 2.6V | 07:52:00 | 00:00:00 | 00:00:00 | |
| OM5KV | 2026-09-03 01:11:42 | 49.07781 | 18.08602 | 90° | 31km/h | 3361m | -7.0m/s | -1.7°C | 93.7% | 0hPa | 2.6V | 07:53:00 | 00:00:00 | 00:00:00 | |
| PETON7-10 | 2026-09-03 01:11:39 | 49.07780 | 18.08556 | 89° | 29km/h | 3393m | -8.4m/s | -1.8°C | 95.7% | 0hPa | 2.6V | 00:00:00 | 00:00:00 | 00:00:00 | |
| OE3JTB-15 | 2026-09-03 01:11:37 | 49.07780 | 18.08532 | 91° | 29km/h | 3411m | -9.6m/s | -1.8°C | 92.5% | 0hPa | 2.5V | 00:00:00 | 02:26:05 | 00:00:00 | |
| OM5KV | 2026-09-03 01:11:35 | 49.07780 | 18.08520 | 91° | 29km/h | 3420m | -9.8m/s | -1.9°C | 88.8% | 0hPa | 2.5V | 07:53:00 | 00:00:00 | 00:00:00 | |
| OM5KV | 2026-09-03 01:11:28 | 49.07779 | 18.08431 | 87° | 27km/h | 3491m | -9.2m/s | -2.1°C | 81.4% | 0hPa | 2.5V | 07:53:00 | 00:00:00 | 00:00:00 | |
| PETON7-10 | 2026-09-03 01:11:24 | 49.07778 | 18.08387 | 87° | 29km/h | 3520m | -7.7m/s | -2.3°C | 83.0% | 0hPa | 2.5V | 00:00:00 | 00:00:00 | 00:00:00 | |
| OE3OSB-13 | 2026-09-03 01:11:22 | 49.07777 | 18.08366 | 82° | 27km/h | 3537m | -8.6m/s | -2.5°C | 80.9% | -1.0hPa | 2.5V | 00:00:00 | 00:00:00 | 00:00:00 | |
| OE3JTB-15 | 2026-09-03 01:11:18 | 49.07774 | 18.08323 | 85° | 29km/h | 3570m | -6.2m/s | -2.7°C | 86.6% | 0hPa | 2.5V | 00:00:00 | 00:00:00 | 00:00:00 | |
| OM5KV | 2026-09-03 01:11:17 | 49.07774 | 18.08323 | 86° | 27km/h | 3570m | -6.2m/s | -2.7°C | 83.9% | 0hPa | 2.6V | 07:53:00 | 00:00:00 | 00:00:00 | |
| OM5KV | 2026-09-03 01:11:11 | 49.07770 | 18.08258 | 85° | 29km/h | 3618m | -8.6m/s | -3.1°C | 86.4% | 0hPa | 2.6V | 07:53:00 | 00:00:00 | 00:00:00 | |
| OM5KV | 2026-09-03 01:11:09 | 49.07767 | 18.08225 | 85° | 29km/h | 3642m | -6.0m/s | -3.2°C | 86.8% | 0hPa | 2.6V | 07:53:00 | 00:00:00 | 00:00:00 | |
| OM5KV | 2026-09-03 01:11:05 | 49.07766 | 18.08190 | 90° | 29km/h | 3666m | -9.5m/s | -3.4°C | 82.8% | 0hPa | 2.6V | 07:53:00 | 00:00:00 | 00:00:00 | |
| OE3OSB-13 | 2026-09-03 01:10:51 | 49.07772 | 18.07995 | 98° | 35km/h | 3797m | -7.9m/s | -3.3°C | 38.7% | -1.0hPa | 2.6V | 00:00:00 | 00:00:00 | 00:00:00 | |
| OM5KV | 2026-09-03 01:10:47 | 49.07778 | 18.07940 | 101° | 38km/h | 3830m | -7.2m/s | -3.7°C | 43.2% | 0hPa | 2.6V | 07:54:00 | 00:00:00 | 00:00:00 | |
| OM5KV | 2026-09-03 01:10:42 | 49.07784 | 18.07881 | 99° | 38km/h | 3865m | -9.1m/s | -4.0°C | 52.8% | 0hPa | 2.6V | 07:54:00 | 00:00:00 | 00:00:00 | |
| OM5KV | 2026-09-03 01:10:40 | 49.07787 | 18.07852 | 102° | 38km/h | 3883m | -8.4m/s | -4.2°C | 49.3% | 0hPa | 2.6V | 07:54:00 | 00:00:00 | 00:00:00 | |
| PETON7-10 | 2026-09-03 01:10:39 | 49.07791 | 18.07823 | 103° | 42km/h | 3899m | -8.7m/s | -4.3°C | 50.5% | 0hPa | 2.6V | 00:00:00 | 00:00:00 | 00:00:00 | |
| OE3JTB-15 | 2026-09-03 01:10:31 | 49.07808 | 18.07698 | 100° | 42km/h | 3966m | -10.4m/s | -4.9°C | 77.8% | 0hPa | 2.6V | 00:00:00 | 02:24:59 | 00:00:00 | |
| OM5KV | 2026-09-03 01:10:30 | 49.07810 | 18.07682 | 99° | 42km/h | 3976m | -10.2m/s | -5.1°C | 75.7% | 0hPa | 2.6V | 07:54:00 | 00:00:00 | 00:00:00 | |
| PETON7-10 | 2026-09-03 01:10:24 | 49.07819 | 18.07587 | 97° | 42km/h | 4033m | -8.5m/s | -5.4°C | 83.7% | 0hPa | 2.6V | 00:00:00 | 02:24:52 | 00:00:00 | |
| OM5KV | 2026-09-03 01:10:23 | 49.07820 | 18.07571 | 99° | 42km/h | 4040m | -5.7m/s | -5.5°C | 81.5% | 0hPa | 2.6V | 07:54:00 | 00:00:00 | 00:00:00 | |
| OE3OSB-13 | 2026-09-03 01:10:20 | 49.07824 | 18.07522 | 96° | 42km/h | 4061m | -9.0m/s | -5.7°C | 81.9% | -1.0hPa | 2.6V | 00:00:00 | 00:00:00 | 00:00:00 | |
| OM5KV | 2026-09-03 01:10:18 | 49.07827 | 18.07490 | 98° | 40km/h | 4079m | -6.9m/s | -5.9°C | 83.0% | 0hPa | 2.6V | 07:54:00 | 00:00:00 | 00:00:00 | |
| OM5KV | 2026-09-03 01:10:16 | 49.07829 | 18.07460 | 98° | 40km/h | 4095m | -9.0m/s | -6.0°C | 84.1% | 0hPa | 2.6V | 07:54:00 | 00:00:00 | 00:00:00 | |
| OM5KV | 2026-09-03 01:10:10 | 49.07834 | 18.07380 | 95° | 42km/h | 4139m | -9.2m/s | -6.3°C | 87.3% | 0hPa | 2.6V | 07:54:00 | 00:00:00 | 00:00:00 | |
| PETON7-10 | 2026-09-03 01:10:09 | 49.07836 | 18.07349 | 93° | 42km/h | 4156m | -8.6m/s | -6.4°C | 91.4% | 0hPa | 2.6V | 07:54:00 | 00:00:00 | 00:00:00 | |
| OE3OSB-13 | 2026-09-03 01:09:49 | 49.07843 | 18.07016 | 94° | 40km/h | 4336m | -8.6m/s | -7.5°C | 81.4% | -1.0hPa | 2.5V | 00:00:00 | 00:00:00 | 00:00:00 | |
| OM5KV | 2026-09-03 01:09:47 | 49.07843 | 18.07016 | 96° | 40km/h | 4336m | -8.6m/s | -7.5°C | 81.5% | 0hPa | 2.5V | 07:55:00 | 00:00:00 | 00:00:00 | |
| OM5KV | 2026-09-03 01:09:40 | 49.07849 | 18.06906 | 94° | 38km/h | 4396m | -7.8m/s | -7.9°C | 78.6% | 0hPa | 2.5V | 07:55:00 | 00:00:00 | 00:00:00 | |
| PETON7-10 | 2026-09-03 01:09:39 | 49.07851 | 18.06875 | 94° | 38km/h | 4415m | -11.4m/s | -7.9°C | 79.1% | 0hPa | 2.5V | 00:00:00 | 02:24:07 | 00:00:00 | |
| OM5KV | 2026-09-03 01:09:36 | 49.07854 | 18.06831 | 96° | 38km/h | 4444m | -9.4m/s | -8.3°C | 77.3% | 0hPa | 2.5V | 07:55:00 | 00:00:00 | 00:00:00 | |
| OE3JTB-15 | 2026-09-03 01:09:33 | 49.07857 | 18.06786 | 94° | 38km/h | 4471m | -8.9m/s | -8.4°C | 80.6% | 0hPa | 2.5V | 00:00:00 | 00:00:00 | 00:00:00 | |
| OM5KV | 2026-09-03 01:09:29 | 49.07860 | 18.06741 | 97° | 38km/h | 4495m | -8.0m/s | -8.6°C | 74.8% | 0hPa | 2.5V | 07:55:00 | 00:00:00 | 00:00:00 | |
| OM5KV | 2026-09-03 01:09:24 | 49.07867 | 18.06654 | 96° | 38km/h | 4549m | -7.8m/s | -8.9°C | 65.3% | 0hPa | 2.5V | 07:55:00 | 00:00:00 | 00:00:00 | |
| OE3OSB-13 | 2026-09-03 01:09:18 | 49.07873 | 18.06555 | 92° | 35km/h | 4608m | -10.5m/s | -9.2°C | 62.2% | -1.0hPa | 2.5V | 00:00:00 | 00:00:00 | 00:00:00 | |
| OM5KV | 2026-09-03 01:09:11 | 49.07877 | 18.06485 | 98° | 37km/h | 4654m | -8.6m/s | -9.5°C | 61.5% | 0hPa | 2.5V | 07:55:00 | 00:00:00 | 00:00:00 | |
| PETON7-10 | 2026-09-03 01:09:09 | 49.07882 | 18.06442 | 102° | 35km/h | 4681m | -9.3m/s | -9.7°C | 65.2% | 0hPa | 2.5V | 00:00:00 | 00:00:00 | 00:00:00 | |
| OM5KV | 2026-09-03 01:09:05 | 49.07889 | 18.06402 | 107° | 35km/h | 4706m | -6.2m/s | -9.9°C | 64.3% | 0hPa | 2.5V | 07:56:00 | 00:00:00 | 00:00:00 | |
| OE3JTB-15 | 2026-09-03 01:09:04 | 49.07893 | 18.06376 | 106° | 38km/h | 4722m | -8.7m/s | -10.0°C | 67.2% | 0hPa | 2.5V | 00:00:00 | 02:23:32 | 00:00:00 | |
| OE3OSB-13 | 2026-09-03 01:08:47 | 49.07946 | 18.06135 | 109° | 38km/h | 4879m | -9.4m/s | -11.4°C | 70.9% | -1.0hPa | 2.5V | 00:00:00 | 00:00:00 | 00:00:00 | |
| OM5KV | 2026-09-03 01:08:46 | 49.07942 | 18.06149 | 112° | 38km/h | 4869m | -9.3m/s | -11.3°C | 70.1% | 0hPa | 2.5V | 07:56:00 | 00:00:00 | 00:00:00 | |
| OM5KV | 2026-09-03 01:08:41 | 49.07964 | 18.06065 | 111° | 38km/h | 4923m | -9.2m/s | -11.7°C | 73.3% | 0hPa | 2.5V | 07:56:00 | 00:00:00 | 00:00:00 | |
| PETON7-10 | 2026-09-03 01:08:39 | 49.07971 | 18.06037 | 113° | 40km/h | 4943m | -9.6m/s | -11.8°C | 77.6% | 0hPa | 2.5V | 00:00:00 | 00:00:00 | 00:00:00 | |
| OM5KV | 2026-09-03 01:08:35 | 49.07983 | 18.05995 | 114° | 40km/h | 4971m | -8.9m/s | -12.0°C | 76.6% | 0hPa | 2.6V | 07:56:00 | 00:00:00 | 00:00:00 | |
| OE3JTB-15 | 2026-09-03 01:08:34 | 49.07992 | 18.05967 | 117° | 46km/h | 4989m | -8.7m/s | -12.1°C | 81.3% | 0hPa | 2.6V | 00:00:00 | 00:00:00 | 00:00:00 | |
| OM5KV | 2026-09-03 01:08:30 | 49.08010 | 18.05909 | 117° | 42km/h | 5028m | -8.5m/s | -12.6°C | 79.8% | 0hPa | 2.5V | 07:56:00 | 00:00:00 | 00:00:00 | |
| PETON7-10 | 2026-09-03 01:08:24 | 49.08038 | 18.05820 | 116° | 47km/h | 5080m | -11.1m/s | -12.9°C | 80.7% | 0hPa | 2.5V | 00:00:00 | 00:00:00 | 00:00:00 | |
| OM5KV | 2026-09-03 01:08:19 | 49.08058 | 18.05757 | 116° | 47km/h | 5120m | -10.4m/s | -13.5°C | 88.5% | 0hPa | 2.5V | 07:56:00 | 00:00:00 | 00:00:00 | |
| OE3OSB-13 | 2026-09-03 01:08:17 | 49.08084 | 18.05673 | 112° | 47km/h | 5168m | -10.0m/s | -13.7°C | 97.3% | -1.0hPa | 2.5V | 00:00:00 | 00:00:00 | 00:00:00 | |
| OM5KV | 2026-09-03 01:08:13 | 49.08089 | 18.05656 | 115° | 51km/h | 5177m | -8.4m/s | -13.8°C | 98.2% | 0hPa | 2.5V | 07:57:00 | 00:00:00 | 00:00:00 | |
| OM5KV | 2026-09-03 01:08:11 | 49.08099 | 18.05620 | 114° | 51km/h | 5196m | -10.8m/s | -13.9°C | 99.8% | 0hPa | 2.5V | 07:57:00 | 00:00:00 | 00:00:00 | |
| PETON7-10 | 2026-09-03 01:08:09 | 49.08112 | 18.05565 | 111° | 53km/h | 5225m | -9.0m/s | -13.9°C | 0% | 0hPa | 2.5V | 07:56:00 | 02:22:37 | 00:00:00 | |
| OM5KV | 2026-09-03 01:08:06 | 49.08122 | 18.05527 | 112° | 53km/h | 5243m | -8.9m/s | -14.1°C | 97.4% | 0hPa | 2.5V | 07:57:00 | 00:00:00 | 00:00:00 | |
| OE3JTB-15 | 2026-09-03 01:08:05 | 49.08132 | 18.05490 | 110° | 55km/h | 5261m | -8.8m/s | -14.2°C | 0% | 0hPa | 2.5V | 00:00:00 | 00:00:00 | 00:00:00 | |
| OM5KV | 2026-09-03 01:08:00 | 49.08151 | 18.05414 | 114° | 53km/h | 5295m | -7.9m/s | -14.3°C | 0% | 0hPa | 2.5V | 07:57:00 | 00:00:00 | 00:00:00 | |
| OM5KV | 2026-09-03 01:07:58 | 49.08163 | 18.05376 | 115° | 53km/h | 5312m | -9.0m/s | -14.4°C | 0% | 0hPa | 2.5V | 07:57:00 | 00:00:00 | 00:00:00 | |
| PETON7-10 | 2026-09-03 01:07:54 | 49.08191 | 18.05284 | 117° | 55km/h | 5358m | -7.6m/s | -14.7°C | 84.8% | 0hPa | 2.5V | 00:00:00 | 00:00:00 | 00:00:00 | |
| OM5KV | 2026-09-03 01:07:53 | 49.08197 | 18.05265 | 119° | 53km/h | 5366m | -9.2m/s | -14.8°C | 76.8% | 0hPa | 2.5V | 07:57:00 | 00:00:00 | 00:00:00 | |
| S52SK | 2026-09-03 01:07:50 | 49.08216 | 18.05212 | 121° | 53km/h | 5393m | -8.1m/s | -15.0°C | 75.7% | 0hPa | 2.5V | 07:57:00 | 00:00:00 | 00:00:00 | |
| OM5KV | 2026-09-03 01:07:49 | 49.08216 | 18.05212 | 121° | 53km/h | 5393m | -8.1m/s | -15.0°C | 75.7% | 0hPa | 2.5V | 07:57:00 | 00:00:00 | 00:00:00 | |
| OM5KV | 2026-09-03 01:07:47 | 49.08230 | 18.05175 | 122° | 55km/h | 5411m | -10.9m/s | -15.1°C | 72.2% | 0hPa | 2.5V | 07:57:00 | 00:00:00 | 00:00:00 | |
| OE3OSB-13 | 2026-09-03 01:07:46 | 49.08260 | 18.05103 | 122° | 53km/h | 5449m | -9.4m/s | -15.4°C | 68.8% | -1.0hPa | 2.5V | 00:00:00 | 00:00:00 | 00:00:00 | |
| OM5KV | 2026-09-03 01:07:42 | 49.08267 | 18.05086 | 123° | 57km/h | 5457m | -7.2m/s | -15.4°C | 65.9% | 0hPa | 2.5V | 07:57:00 | 00:00:00 | 00:00:00 | |
| PETON7-10 | 2026-09-03 01:07:39 | 49.08298 | 18.05012 | 124° | 62km/h | 5490m | -7.0m/s | -15.4°C | 59.9% | 0hPa | 2.5V | 00:00:00 | 00:00:00 | 00:00:00 | |
| S52SK | 2026-09-03 01:07:38 | 49.08298 | 18.05012 | 125° | 57km/h | 5490m | -7.1m/s | -15.4°C | 56.8% | 0hPa | 2.5V | 07:57:00 | 00:00:00 | 00:00:00 | |
| OE3JTB-15 | 2026-09-03 01:07:35 | 49.08330 | 18.04936 | 124° | 68km/h | 5524m | -8.9m/s | -15.6°C | 61.0% | 0hPa | 2.5V | 00:00:00 | 02:22:03 | 00:00:00 | |
| S52SK | 2026-09-03 01:07:32 | 49.08347 | 18.04897 | 125° | 62km/h | 5539m | -8.9m/s | -15.7°C | 60.7% | 0hPa | 2.5V | 07:57:00 | 00:00:00 | 00:00:00 | |
| OM5KV | 2026-09-03 01:07:30 | 49.08364 | 18.04857 | 123° | 62km/h | 5557m | -9.0m/s | -15.8°C | 62.4% | 0hPa | 2.5V | 07:57:00 | 00:00:00 | 00:00:00 | |
| S52SK | 2026-09-03 01:07:27 | 49.08390 | 18.04794 | 121° | 66km/h | 5580m | -7.5m/s | -15.9°C | 63.0% | 0hPa | 2.5V | 00:00:00 | 00:00:00 | 00:00:00 | |
| PETON7-10 | 2026-09-03 01:07:24 | 49.08423 | 18.04705 | 118° | 68km/h | 5611m | -7.6m/s | -15.9°C | 67.5% | 0hPa | 2.5V | 00:00:00 | 02:21:52 | 00:00:00 | |
| OM5KV | 2026-09-03 01:07:19 | 49.08454 | 18.04612 | 117° | 68km/h | 5646m | -8.7m/s | -16.2°C | 64.5% | 0hPa | 2.5V | 07:57:00 | 00:00:00 | 00:00:00 | |
| OM5KV | 2026-09-03 01:07:18 | 49.08461 | 18.04588 | 116° | 68km/h | 5655m | -10.0m/s | -16.1°C | 62.1% | 0hPa | 2.5V | 07:57:00 | 00:00:00 | 00:00:00 | |
| OM5KV | 2026-09-03 01:07:15 | 49.08489 | 18.04493 | 114° | 66km/h | 5686m | -7.0m/s | -16.0°C | 58.4% | 0hPa | 2.5V | 07:57:00 | 00:00:00 | 00:00:00 | |
| OM5KV | 2026-09-03 01:07:14 | 49.08495 | 18.04469 | 113° | 68km/h | 5694m | -9.5m/s | -16.1°C | 58.2% | 0hPa | 2.5V | 07:57:00 | 00:00:00 | 00:00:00 | |
| PETON7-10 | 2026-09-03 01:07:09 | 49.08526 | 18.04346 | 111° | 68km/h | 5735m | -7.3m/s | -16.3°C | 63.2% | 0hPa | 2.5V | 00:00:00 | 00:00:00 | 00:00:00 | |
| OE3JTB-15 | 2026-09-03 01:07:05 | 49.08550 | 18.04247 | 111° | 68km/h | 5771m | -10.4m/s | -16.6°C | 64.2% | 0hPa | 2.6V | 07:57:00 | 00:00:00 | 00:00:00 | |
| OM5KV | 2026-09-03 01:07:00 | 49.08575 | 18.04148 | 112° | 68km/h | 5807m | -8.4m/s | -17.0°C | 68.2% | 0hPa | 2.6V | 07:57:00 | 00:00:00 | 00:00:00 | |
| OM5KV | 2026-09-03 01:06:57 | 49.08592 | 18.04075 | 111° | 66km/h | 5831m | -7.7m/s | -17.2°C | 71.1% | 0hPa | 2.6V | 07:57:00 | 00:00:00 | 00:00:00 | |
| PETON7-10 | 2026-09-03 01:06:54 | 49.08615 | 18.03979 | 111° | 64km/h | 5862m | -8.6m/s | -17.3°C | 73.1% | 0hPa | 2.6V | 00:00:00 | 00:00:00 | 00:00:00 | |
| OM5KV | 2026-09-03 01:06:49 | 49.08644 | 18.03862 | 112° | 64km/h | 5906m | -10.2m/s | -17.2°C | 51.5% | 0hPa | 2.6V | 07:57:00 | 00:00:00 | 00:00:00 | |
| OM5KV | 2026-09-03 01:06:48 | 49.08650 | 18.03839 | 111° | 64km/h | 5915m | -8.1m/s | -17.3°C | 48.9% | 0hPa | 2.6V | 07:57:00 | 00:00:00 | 00:00:00 | |
| OE3OSB-13 | 2026-09-03 01:06:42 | 49.08685 | 18.03703 | 111° | 62km/h | 5966m | -8.4m/s | -17.8°C | 43.3% | -1.0hPa | 2.6V | 00:00:00 | 00:00:00 | 00:00:00 | |
| PETON7-10 | 2026-09-03 01:06:39 | 49.08703 | 18.03637 | 112° | 60km/h | 5988m | -7.7m/s | -17.9°C | 44.4% | 0hPa | 2.6V | 00:00:00 | 02:21:07 | 00:00:00 | |
| OM5KV | 2026-09-03 01:06:36 | 49.08714 | 18.03593 | 111° | 58km/h | 6004m | -9.6m/s | -18.1°C | 41.6% | 0hPa | 2.6V | 07:58:00 | 00:00:00 | 00:00:00 | |
| OM5KV | 2026-09-03 01:06:31 | 49.08747 | 18.03464 | 111° | 60km/h | 6057m | -9.0m/s | -18.6°C | 41.1% | 0hPa | 2.6V | 07:58:00 | 00:00:00 | 00:00:00 | |
| OM5KV | 2026-09-03 01:06:30 | 49.08747 | 18.03464 | 111° | 60km/h | 6057m | -9.0m/s | -18.6°C | 41.1% | 0hPa | 2.6V | 07:58:00 | 00:00:00 | 00:00:00 | |
| OE3JTB-15 | 2026-09-03 01:06:29 | 49.08769 | 18.03377 | 112° | 68km/h | 6093m | -10.1m/s | -18.8°C | 43.6% | 0hPa | 2.6V | 00:00:00 | 00:00:00 | 00:00:00 | |
| PETON7-10 | 2026-09-03 01:06:24 | 49.08786 | 18.03312 | 111° | 58km/h | 6119m | -9.4m/s | -19.1°C | 43.7% | 0hPa | 2.6V | 00:00:00 | 00:00:00 | 00:00:00 | |
| OM5KV | 2026-09-03 01:06:23 | 49.08787 | 18.03312 | 112° | 60km/h | 6119m | -9.4m/s | -19.1°C | 40.9% | 0hPa | 2.5V | 07:58:00 | 00:00:00 | 00:00:00 | |
| OM5KV | 2026-09-03 01:06:19 | 49.08815 | 18.03206 | 114° | 60km/h | 6161m | -8.6m/s | -19.5°C | 40.7% | 0hPa | 2.5V | 07:58:00 | 00:00:00 | 00:00:00 | |
| OM5KV | 2026-09-03 01:06:12 | 49.08859 | 18.03066 | 118° | 57km/h | 6216m | -7.1m/s | -19.9°C | 36.5% | 0hPa | 2.5V | 07:58:00 | 00:00:00 | 00:00:00 | |
| OE3OSB-13 | 2026-09-03 01:06:11 | 49.08865 | 18.03047 | 116° | 53km/h | 6222m | -6.9m/s | -20.0°C | 34.3% | -1.0hPa | 2.5V | 00:00:00 | 00:00:00 | 00:00:00 | |
| PETON7-10 | 2026-09-03 01:06:09 | 49.08878 | 18.03010 | 120° | 57km/h | 6236m | -8.6m/s | -19.9°C | 30.6% | 0hPa | 2.5V | 07:58:00 | 00:00:00 | 00:00:00 | |
| OM5KV | 2026-09-03 01:06:06 | 49.08892 | 18.02973 | 123° | 57km/h | 6254m | -9.2m/s | -20.0°C | 23.0% | 0hPa | 2.5V | 07:58:00 | 00:00:00 | 00:00:00 | |
| OM5KV | 2026-09-03 01:05:58 | 49.08958 | 18.02830 | 129° | 58km/h | 6326m | -8.3m/s | -19.9°C | 17.7% | 0hPa | 2.5V | 07:58:00 | 00:00:00 | 00:00:00 | |
| PETON7-10 | 2026-09-03 01:05:54 | 49.09005 | 18.02740 | 131° | 64km/h | 6366m | -7.7m/s | -19.8°C | 14.6% | 0hPa | 2.5V | 00:00:00 | 02:20:22 | 00:00:00 | |
| OM5KV | 2026-09-03 01:05:44 | 49.09104 | 18.02581 | 137° | 66km/h | 6438m | -5.9m/s | -20.4°C | 13.0% | 0hPa | 2.5V | 07:59:00 | 00:00:00 | 00:00:00 | |
| OE3OSB-13 | 2026-09-03 01:05:40 | 49.09166 | 18.02492 | 135° | 69km/h | 6475m | -8.2m/s | -20.4°C | 12.1% | -1.0hPa | 2.5V | 00:00:00 | 00:00:00 | 00:00:00 | |
| PETON7-10 | 2026-09-03 01:05:39 | 49.09179 | 18.02473 | 136° | 73km/h | 6482m | -5.6m/s | -20.4°C | 13.1% | 0hPa | 2.5V | 00:00:00 | 00:00:00 | 00:00:00 | |
| OM5KV | 2026-09-03 01:05:33 | 49.09257 | 18.02355 | 136° | 73km/h | 6528m | -9.5m/s | -20.6°C | 15.4% | 0hPa | 2.5V | 07:59:00 | 00:00:00 | 00:00:00 | |
| OE3JTB-15 | 2026-09-03 01:05:31 | 49.09309 | 18.02273 | 134° | 73km/h | 6560m | -7.9m/s | -20.7°C | 19.6% | 0hPa | 2.5V | 00:00:00 | 02:19:57 | 00:00:00 | |
| OM5KV | 2026-09-03 01:05:28 | 49.09309 | 18.02273 | 134° | 73km/h | 6560m | -7.9m/s | -20.8°C | 18.0% | 0hPa | 2.5V | 07:59:00 | 00:00:00 | 00:00:00 | |
| PETON7-10 | 2026-09-03 01:05:24 | 49.09371 | 18.02167 | 131° | 73km/h | 6606m | -8.5m/s | -21.0°C | 22.0% | 0hPa | 2.5V | 00:00:00 | 00:00:00 | 00:00:00 | |
| OM5KV | 2026-09-03 01:05:12 | 49.09502 | 18.01924 | 130° | 73km/h | 6702m | -9.6m/s | -21.4°C | 13.9% | 0hPa | 2.5V | 07:59:00 | 00:00:00 | 00:00:00 | |
| PETON7-10 | 2026-09-03 01:05:09 | 49.09547 | 18.01836 | 127° | 71km/h | 6735m | -7.4m/s | -21.6°C | 15.2% | 0hPa | 2.5V | 00:00:00 | 02:19:37 | 00:00:00 | |
| OM5KV | 2026-09-03 01:05:07 | 49.09558 | 18.01814 | 128° | 71km/h | 6743m | -9.1m/s | -21.7°C | 14.0% | 0hPa | 2.5V | 07:59:00 | 00:00:00 | 00:00:00 | |
| OM5KV | 2026-09-03 01:04:57 | 49.09665 | 18.01593 | 127° | 73km/h | 6828m | -9.1m/s | -22.4°C | 15.3% | 0hPa | 2.5V | 07:59:00 | 00:00:00 | 00:00:00 | |
| PETON7-10 | 2026-09-03 01:04:54 | 49.09708 | 18.01501 | 126° | 73km/h | 6863m | -9.9m/s | -22.7°C | 19.5% | 0hPa | 2.5V | 00:00:00 | 00:00:00 | 00:00:00 | |
| OM5KV | 2026-09-03 01:04:52 | 49.09719 | 18.01479 | 127° | 73km/h | 6873m | -9.2m/s | -22.8°C | 18.1% | 0hPa | 2.5V | 08:00:00 | 00:00:00 | 00:00:00 | |
| OM5KV | 2026-09-03 01:04:47 | 49.09771 | 18.01364 | 125° | 73km/h | 6923m | -11.1m/s | -23.1°C | 17.5% | 0hPa | 2.5V | 08:00:00 | 00:00:00 | 00:00:00 | |
| OM5KV | 2026-09-03 01:04:40 | 49.09843 | 18.01201 | 124° | 71km/h | 6988m | -7.8m/s | -23.7°C | 17.6% | 0hPa | 2.5V | 08:00:00 | 00:00:00 | 00:00:00 | |
| OE3OSB-13 | 2026-09-03 01:04:38 | 49.09873 | 18.01131 | 122° | 73km/h | 7015m | -7.9m/s | -23.9°C | 17.8% | -1.0hPa | 2.5V | 00:00:00 | 00:00:00 | 00:00:00 | |
| OM5KV | 2026-09-03 01:04:28 | 49.09969 | 18.00890 | 122° | 75km/h | 7104m | -7.2m/s | -24.6°C | 16.3% | 0hPa | 2.5V | 08:00:00 | 00:00:00 | 00:00:00 | |
| OM5KV | 2026-09-03 01:04:25 | 49.09988 | 18.00842 | 122° | 73km/h | 7122m | -9.7m/s | -24.8°C | 15.7% | 0hPa | 2.5V | 08:00:00 | 00:00:00 | 00:00:00 | |
| PETON7-10 | 2026-09-03 01:04:24 | 49.10008 | 18.00794 | 122° | 73km/h | 7140m | -7.7m/s | -24.9°C | 17.4% | 0hPa | 2.5V | 00:00:00 | 02:18:52 | 00:00:00 | |
| OM5KV | 2026-09-03 01:04:22 | 49.10017 | 18.00770 | 123° | 73km/h | 7147m | -7.0m/s | -25.0°C | 15.7% | 0hPa | 2.5V | 08:00:00 | 00:00:00 | 00:00:00 | |
| OM5KV | 2026-09-03 01:04:17 | 49.10075 | 18.00628 | 123° | 73km/h | 7198m | -8.1m/s | -25.5°C | 16.1% | 0hPa | 2.5V | 08:00:00 | 00:00:00 | 00:00:00 | |
| PETON7-10 | 2026-09-03 01:04:09 | 49.10154 | 18.00435 | 122° | 73km/h | 7268m | -8.7m/s | -26.1°C | 18.5% | 0hPa | 2.5V | 00:00:00 | 00:00:00 | 00:00:00 | |
| OM5KV | 2026-09-03 01:04:08 | 49.10154 | 18.00435 | 123° | 73km/h | 7268m | -8.7m/s | -26.1°C | 16.7% | 0hPa | 2.5V | 08:00:00 | 00:00:00 | 00:00:00 | |
| OE3OSB-13 | 2026-09-03 01:04:07 | 49.10174 | 18.00387 | 121° | 73km/h | 7284m | -7.9m/s | -26.3°C | 16.7% | -1.0hPa | 2.5V | 00:00:00 | 00:00:00 | 00:00:00 | |
| OM5KV | 2026-09-03 01:04:05 | 49.10183 | 18.00363 | 123° | 73km/h | 7292m | -8.4m/s | -26.4°C | 16.8% | 0hPa | 2.5V | 08:00:00 | 00:00:00 | 00:00:00 | |
| OM5KV | 2026-09-03 01:04:00 | 49.10232 | 18.00243 | 123° | 73km/h | 7337m | -10.3m/s | -26.8°C | 17.5% | 0hPa | 2.5V | 08:01:00 | 00:00:00 | 00:00:00 | |
| PETON7-10 | 2026-09-03 01:03:54 | 49.10303 | 18.00075 | 123° | 75km/h | 7401m | -8.9m/s | -27.3°C | 19.9% | 0hPa | 2.5V | 00:00:00 | 00:00:00 | 00:00:00 | |
| OM5KV | 2026-09-03 01:03:49 | 49.10345 | 17.99978 | 124° | 75km/h | 7439m | -10.8m/s | -27.7°C | 18.2% | 0hPa | 2.5V | 08:01:00 | 00:00:00 | 00:00:00 | |
| OM5KV | 2026-09-03 01:03:45 | 49.10386 | 17.99883 | 125° | 73km/h | 7473m | -8.4m/s | -28.0°C | 19.6% | 0hPa | 2.5V | 08:01:00 | 00:00:00 | 00:00:00 | |
| OM5KV | 2026-09-03 01:03:43 | 49.10406 | 17.99836 | 124° | 75km/h | 7490m | -8.7m/s | -28.1°C | 18.9% | 0hPa | 2.5V | 08:01:00 | 00:00:00 | 00:00:00 | |
| OM5KV | 2026-09-03 01:03:40 | 49.10448 | 17.99740 | 124° | 75km/h | 7526m | -7.6m/s | -28.4°C | 17.5% | 0hPa | 2.5V | 08:01:00 | 00:00:00 | 00:00:00 | |
| PETON7-10 | 2026-09-03 01:03:39 | 49.10459 | 17.99716 | 124° | 77km/h | 7535m | -10.2m/s | -28.4°C | 19.3% | 0hPa | 2.5V | 00:00:00 | 02:18:07 | 00:00:00 | |
| OM5KV | 2026-09-03 01:03:38 | 49.10459 | 17.99716 | 125° | 75km/h | 7535m | -10.2m/s | -28.5°C | 17.3% | 0hPa | 2.5V | 08:01:00 | 00:00:00 | 00:00:00 | |
| OE3OSB-13 | 2026-09-03 01:03:36 | 49.10491 | 17.99643 | 123° | 75km/h | 7563m | -9.2m/s | -28.7°C | 17.1% | -1.0hPa | 2.5V | 00:00:00 | 00:00:00 | 00:00:00 | |
| OM5KV | 2026-09-03 01:03:31 | 49.10535 | 17.99546 | 126° | 77km/h | 7600m | -9.7m/s | -29.1°C | 17.6% | 0hPa | 2.5V | 08:01:00 | 00:00:00 | 00:00:00 | |
| OM5KV | 2026-09-03 01:03:26 | 49.10592 | 17.99426 | 126° | 77km/h | 7644m | -9.7m/s | -29.4°C | 17.4% | 0hPa | 2.5V | 08:01:00 | 00:00:00 | 00:00:00 | |
| PETON7-10 | 2026-09-03 01:03:24 | 49.10625 | 17.99353 | 124° | 77km/h | 7672m | -9.6m/s | -29.6°C | 19.1% | 0hPa | 2.5V | 08:01:00 | 00:00:00 | 00:00:00 | |
| OM5KV | 2026-09-03 01:03:22 | 49.10635 | 17.99328 | 124° | 77km/h | 7682m | -10.5m/s | -29.7°C | 16.8% | 0hPa | 2.5V | 08:01:00 | 00:00:00 | 00:00:00 | |
| OM5KV | 2026-09-03 01:03:14 | 49.10722 | 17.99132 | 125° | 75km/h | 7764m | -11.4m/s | -30.3°C | 15.4% | 0hPa | 2.5V | 08:01:00 | 00:00:00 | 00:00:00 | |
| PETON7-10 | 2026-09-03 01:03:09 | 49.10786 | 17.98986 | 123° | 73km/h | 7833m | -11.6m/s | -30.8°C | 17.0% | 0hPa | 2.5V | 00:00:00 | 00:00:00 | 00:00:00 | |
| OM5KV | 2026-09-03 01:03:07 | 49.10797 | 17.98962 | 125° | 75km/h | 7843m | -9.9m/s | -31.0°C | 14.8% | 0hPa | 2.5V | 08:02:00 | 00:00:00 | 00:00:00 | |
| OE3OSB-13 | 2026-09-03 01:03:05 | 49.10828 | 17.98891 | 124° | 73km/h | 7873m | -10.3m/s | -31.2°C | 14.4% | -1.0hPa | 2.5V | 00:00:00 | 00:00:00 | 00:00:00 | |
| S52SK | 2026-09-03 01:02:59 | 49.10881 | 17.98774 | 126° | 75km/h | 7921m | -8.6m/s | -31.7°C | 13.9% | 0hPa | 2.5V | 00:00:00 | 00:00:00 | 00:00:00 | |
| OM5KV | 2026-09-03 01:02:55 | 49.10925 | 17.98682 | 127° | 73km/h | 7959m | -9.7m/s | -32.0°C | 13.3% | 0hPa | 2.5V | 08:02:00 | 00:00:00 | 00:00:00 | |
| PETON7-10 | 2026-09-03 01:02:54 | 49.10947 | 17.98636 | 126° | 73km/h | 7978m | -11.4m/s | -32.1°C | 14.7% | 0hPa | 2.5V | 00:00:00 | 02:17:22 | 00:00:00 | |
| OM5KV | 2026-09-03 01:02:48 | 49.11000 | 17.98522 | 127° | 73km/h | 8032m | -10.5m/s | -32.5°C | 13.7% | 0hPa | 2.5V | 08:02:00 | 00:00:00 | 00:00:00 | |
| OE3JTB-15 | 2026-09-03 01:02:45 | 49.11054 | 17.98408 | 126° | 69km/h | 8078m | -7.3m/s | -32.9°C | 18.2% | 0hPa | 2.5V | 00:00:00 | 00:00:00 | 00:00:00 | |
| OM5KV | 2026-09-03 01:02:43 | 49.11054 | 17.98408 | 127° | 73km/h | 8078m | -7.4m/s | -32.9°C | 15.9% | 0hPa | 2.5V | 08:02:00 | 00:00:00 | 00:00:00 | |
| PETON7-10 | 2026-09-03 01:02:39 | 49.11108 | 17.98295 | 126° | 71km/h | 8127m | -11.2m/s | -33.3°C | 19.1% | 0hPa | 2.5V | 00:00:00 | 00:00:00 | 00:00:00 | |
| OE3OSB-13 | 2026-09-03 01:02:34 | 49.11160 | 17.98181 | 124° | 71km/h | 8170m | -10.5m/s | -33.8°C | 17.2% | -1.0hPa | 2.5V | 00:00:00 | 00:00:00 | 00:00:00 | |
| OM5KV | 2026-09-03 01:02:32 | 49.11170 | 17.98158 | 125° | 71km/h | 8180m | -9.3m/s | -33.9°C | 17.6% | 0hPa | 2.5V | 08:02:00 | 00:00:00 | 00:00:00 | |
| OM5KV | 2026-09-03 01:02:31 | 49.11180 | 17.98136 | 125° | 71km/h | 8188m | -7.0m/s | -33.9°C | 17.8% | 0hPa | 2.5V | 08:02:00 | 00:00:00 | 00:00:00 | |
| OM5KV | 2026-09-03 01:02:28 | 49.11219 | 17.98046 | 124° | 68km/h | 8218m | -7.0m/s | -34.2°C | 18.1% | 0hPa | 2.5V | 08:02:00 | 00:00:00 | 00:00:00 | |
| OM5KV | 2026-09-03 01:02:26 | 49.11229 | 17.98024 | 125° | 69km/h | 8227m | -10.1m/s | -34.3°C | 17.8% | 0hPa | 2.5V | 08:02:00 | 00:00:00 | 00:00:00 | |
| PETON7-10 | 2026-09-03 01:02:24 | 49.11259 | 17.97958 | 125° | 68km/h | 8260m | -11.3m/s | -34.5°C | 20.4% | 0hPa | 2.5V | 00:00:00 | 00:00:00 | 00:00:00 | |
| OM5KV | 2026-09-03 01:02:20 | 49.11288 | 17.97894 | 127° | 68km/h | 8291m | -9.8m/s | -34.8°C | 18.4% | 0hPa | 2.5V | 08:03:00 | 00:00:00 | 00:00:00 | |
| OE3JTB-15 | 2026-09-03 01:02:16 | 49.11351 | 17.97771 | 130° | 66km/h | 8348m | -11.3m/s | -35.2°C | 21.7% | 0hPa | 2.5V | 00:00:00 | 02:16:43 | 00:00:00 | |
| OE3OSB-13 | 2026-09-03 01:02:03 | 49.11483 | 17.97540 | 130° | 64km/h | 8472m | -9.0m/s | -36.2°C | 20.7% | -1.0hPa | 2.5V | 00:00:00 | 00:00:00 | 00:00:00 | |
| OM5KV | 2026-09-03 01:01:56 | 49.11549 | 17.97431 | 135° | 64km/h | 8526m | -8.9m/s | -36.7°C | 21.6% | 0hPa | 2.5V | 08:03:00 | 00:00:00 | 00:00:00 | |
| PETON7-10 | 2026-09-03 01:01:54 | 49.11583 | 17.97378 | 136° | 66km/h | 8560m | -10.2m/s | -37.0°C | 25.2% | 0hPa | 2.5V | 00:00:00 | 00:00:00 | 00:00:00 | |
| OM5KV | 2026-09-03 01:01:52 | 49.11607 | 17.97342 | 137° | 66km/h | 8580m | -9.0m/s | -37.2°C | 22.4% | 0hPa | 2.5V | 08:03:00 | 00:00:00 | 00:00:00 | |
| POL1PZ | 2026-09-03 01:01:51 | 49.11607 | 17.97342 | 137° | 66km/h | 8580m | -9.0m/s | -37.2°C | 22.3% | 0hPa | 2.5V | 08:03:00 | 00:00:00 | 00:00:00 | |
| OE3JTB-15 | 2026-09-03 01:01:47 | 49.11668 | 17.97256 | 139° | 66km/h | 8629m | -8.5m/s | -37.6°C | 27.3% | 0hPa | 2.5V | 00:00:00 | 00:00:00 | 00:00:00 | |
| OM5KV | 2026-09-03 01:01:44 | 49.11693 | 17.97222 | 140° | 66km/h | 8647m | -10.0m/s | -37.8°C | 24.1% | 0hPa | 2.6V | 08:03:00 | 00:00:00 | 00:00:00 | |
| OM5KV | 2026-09-03 01:01:40 | 49.11743 | 17.97155 | 140° | 66km/h | 8687m | -11.1m/s | -38.1°C | 25.1% | 0hPa | 2.6V | 08:03:00 | 00:00:00 | 00:00:00 | |
| PETON7-10 | 2026-09-03 01:01:39 | 49.11769 | 17.97122 | 140° | 66km/h | 8707m | -9.7m/s | -38.3°C | 29.7% | 0hPa | 2.6V | 00:00:00 | 00:00:00 | 00:00:00 | |
| OM5KV | 2026-09-03 01:01:38 | 49.11782 | 17.97105 | 141° | 66km/h | 8717m | -10.1m/s | -38.4°C | 26.1% | 0hPa | 2.6V | 08:03:00 | 00:00:00 | 00:00:00 | |
| OM5KV | 2026-09-03 01:01:36 | 49.11808 | 17.97072 | 141° | 66km/h | 8736m | -10.5m/s | -38.6°C | 26.6% | 0hPa | 2.6V | 08:03:00 | 00:00:00 | 00:00:00 | |
| OM5KV | 2026-09-03 01:01:31 | 49.11859 | 17.97007 | 142° | 64km/h | 8771m | -8.2m/s | -38.9°C | 27.9% | 0hPa | 2.6V | 08:03:00 | 00:00:00 | 00:00:00 | |
| POL1PZ | 2026-09-03 01:01:28 | 49.11897 | 17.96960 | 143° | 66km/h | 8800m | -11.1m/s | -39.2°C | 28.5% | 0hPa | 2.6V | 08:03:00 | 00:00:00 | 00:00:00 | |
| OM5KV | 2026-09-03 01:01:25 | 49.11951 | 17.96897 | 145° | 68km/h | 8838m | -7.9m/s | -39.5°C | 29.9% | 0hPa | 2.6V | 08:03:00 | 00:00:00 | 00:00:00 | |
| PETON7-10 | 2026-09-03 01:01:24 | 49.11965 | 17.96882 | 144° | 66km/h | 8847m | -8.9m/s | -39.6°C | 34.6% | 0hPa | 2.6V | 00:00:00 | 02:15:52 | 00:00:00 | |
| OE3JTB-15 | 2026-09-03 01:01:18 | 49.12046 | 17.96793 | 146° | 68km/h | 8907m | -8.2m/s | -40.1°C | 36.7% | 0hPa | 2.6V | 00:00:00 | 00:00:00 | 00:00:00 | |
| OM5KV | 2026-09-03 01:01:16 | 49.12060 | 17.96779 | 147° | 66km/h | 8916m | -10.3m/s | -40.2°C | 31.9% | 0hPa | 2.6V | 08:03:00 | 00:00:00 | 00:00:00 | |
| OM5KV | 2026-09-03 01:01:13 | 49.12116 | 17.96723 | 148° | 68km/h | 8959m | -8.9m/s | -40.6°C | 33.4% | 0hPa | 2.6V | 08:03:00 | 00:00:00 | 00:00:00 | |
| OE5DRO-10 | 2026-09-03 01:01:12 | 49.12130 | 17.96709 | 147° | 68km/h | 8968m | -8.1m/s | -40.7°C | 38.6% | 0hPa | 2.6V | 00:00:00 | 00:00:00 | 00:00:00 | |
| PETON7-10 | 2026-09-03 01:01:09 | 49.12172 | 17.96666 | 147° | 68km/h | 8996m | -8.9m/s | -40.9°C | 39.0% | 0hPa | 2.5V | 08:03:00 | 00:00:00 | 00:00:00 | |
| POL1PZ | 2026-09-03 01:01:07 | 49.12186 | 17.96651 | 147° | 68km/h | 9004m | -7.6m/s | -41.1°C | 34.0% | 0hPa | 2.6V | 08:03:00 | 00:00:00 | 00:00:00 | |
| OM5KV | 2026-09-03 01:01:05 | 49.12229 | 17.96608 | 147° | 66km/h | 9033m | -12.2m/s | -41.3°C | 34.3% | 0hPa | 2.6V | 08:03:00 | 00:00:00 | 00:00:00 | |
| OE3OSB-13 | 2026-09-03 01:01:01 | 49.12300 | 17.96535 | 146° | 68km/h | 9086m | -10.3m/s | -41.8°C | 36.3% | -1.0hPa | 2.6V | 00:00:00 | 00:00:00 | 00:00:00 | |
| OM5KV | 2026-09-03 01:00:59 | 49.12300 | 17.96535 | 147° | 68km/h | 9086m | -10.3m/s | -41.8°C | 36.5% | 0hPa | 2.6V | 08:03:00 | 00:00:00 | 00:00:00 | |
| PETON7-10 | 2026-09-03 01:00:54 | 49.12388 | 17.96445 | 147° | 71km/h | 9144m | -8.9m/s | -42.4°C | 45.0% | 0hPa | 2.6V | 00:00:00 | 00:00:00 | 00:00:00 | |
| OE5DRO-10 | 2026-09-03 01:00:52 | 49.12417 | 17.96415 | 146° | 71km/h | 9165m | -11.8m/s | -42.5°C | 44.7% | 0hPa | 2.6V | 00:00:00 | 00:00:00 | 00:00:00 | |
| OM5KV | 2026-09-03 01:00:49 | 49.12461 | 17.96371 | 148° | 69km/h | 9201m | -12.6m/s | -42.9°C | 39.5% | 0hPa | 2.6V | 08:03:00 | 00:00:00 | 00:00:00 | |
| S52SK | 2026-09-03 01:00:48 | 49.12461 | 17.96371 | 148° | 69km/h | 9201m | -12.6m/s | -42.9°C | 39.3% | 0hPa | 2.6V | 00:00:00 | 00:00:00 | 00:00:00 | |
| POL1PZ | 2026-09-03 01:00:47 | 49.12490 | 17.96340 | 147° | 71km/h | 9223m | -11.4m/s | -43.1°C | 40.2% | 0hPa | 2.6V | 08:03:00 | 00:00:00 | 00:00:00 | |
| OM5KV | 2026-09-03 01:00:45 | 49.12505 | 17.96325 | 147° | 69km/h | 9234m | -10.5m/s | -43.3°C | 41.0% | 0hPa | 2.6V | 08:03:00 | 00:00:00 | 00:00:00 | |
| OM5KV | 2026-09-03 01:00:43 | 49.12535 | 17.96295 | 147° | 71km/h | 9251m | -7.9m/s | -43.4°C | 41.7% | 0hPa | 2.6V | 08:03:00 | 00:00:00 | 00:00:00 | |
| PETON7-10 | 2026-09-03 01:00:39 | 49.12611 | 17.96216 | 146° | 73km/h | 9297m | -7.8m/s | -43.8°C | 50.9% | 0hPa | 2.6V | 00:00:00 | 02:15:07 | 00:00:00 | |
| OE5DRO-10 | 2026-09-03 01:00:33 | 49.12701 | 17.96117 | 143° | 73km/h | 9339m | -8.6m/s | -44.2°C | 52.5% | 0hPa | 2.6V | 00:00:00 | 00:00:00 | 00:00:00 | |
| OM5KV | 2026-09-03 01:00:32 | 49.12701 | 17.96117 | 144° | 71km/h | 9339m | -8.6m/s | -44.3°C | 45.7% | 0hPa | 2.6V | 08:04:00 | 00:00:00 | 00:00:00 | |
| OE3OSB-13 | 2026-09-03 01:00:30 | 49.12759 | 17.96048 | 140° | 73km/h | 9380m | -9.1m/s | -44.6°C | 45.4% | -1.0hPa | 2.6V | 00:00:00 | 00:00:00 | 00:00:00 | |
| OM5KV | 2026-09-03 01:00:28 | 49.12758 | 17.96048 | 142° | 73km/h | 9380m | -9.1m/s | -44.6°C | 45.6% | 0hPa | 2.6V | 08:04:00 | 00:00:00 | 00:00:00 | |
| POL1PZ | 2026-09-03 01:00:26 | 49.12788 | 17.96013 | 142° | 75km/h | 9400m | -11.4m/s | -44.8°C | 45.4% | 0hPa | 2.6V | 08:04:00 | 00:00:00 | 00:00:00 | |
| PETON7-10 | 2026-09-03 01:00:24 | 49.12833 | 17.95960 | 143° | 75km/h | 9431m | -10.5m/s | -45.1°C | 53.1% | 0hPa | 2.6V | 00:00:00 | 00:00:00 | 00:00:00 | |
| OE3JTB-15 | 2026-09-03 01:00:20 | 49.12908 | 17.95871 | 142° | 73km/h | 9481m | -8.4m/s | -45.5°C | 53.0% | 0hPa | 2.6V | 00:00:00 | 00:00:00 | 00:00:00 | |
| OM5KV | 2026-09-03 01:00:18 | 49.12938 | 17.95835 | 143° | 73km/h | 9498m | -10.1m/s | -45.7°C | 45.7% | 0hPa | 2.5V | 08:04:00 | 00:00:00 | 00:00:00 | |
| OM5KV | 2026-09-03 01:00:10 | 49.13027 | 17.95732 | 144° | 73km/h | 9557m | -10.1m/s | -46.3°C | 45.7% | 0hPa | 2.5V | 08:04:00 | 00:00:00 | 00:00:00 | |
| PETON7-10 | 2026-09-03 01:00:09 | 49.13057 | 17.95699 | 144° | 73km/h | 9580m | -12.3m/s | -46.4°C | 53.5% | 0hPa | 2.5V | 00:00:00 | 00:00:00 | 00:00:00 | |
| POL1PZ | 2026-09-03 01:00:06 | 49.13102 | 17.95649 | 145° | 73km/h | 9610m | -10.1m/s | -46.8°C | 46.9% | 0hPa | 2.5V | 08:04:00 | 00:00:00 | 00:00:00 | |
| OM5KV | 2026-09-03 01:00:05 | 49.13102 | 17.95649 | 145° | 73km/h | 9610m | -10.1m/s | -46.8°C | 47.0% | 0hPa | 2.5V | 08:04:00 | 00:00:00 | 00:00:00 | |
| OM5KV | 2026-09-03 01:00:04 | 49.13132 | 17.95616 | 145° | 73km/h | 9630m | -10.0m/s | -47.0°C | 47.0% | 0hPa | 2.5V | 08:04:00 | 00:00:00 | 00:00:00 | |
| OE3OSB-13 | 2026-09-03 00:59:58 | 49.13222 | 17.95516 | 144° | 73km/h | 9692m | -8.0m/s | -47.5°C | 48.7% | -1.0hPa | 2.5V | 00:00:00 | 00:00:00 | 00:00:00 | |
| PETON7-10 | 2026-09-03 00:59:54 | 49.13282 | 17.95449 | 144° | 75km/h | 9731m | -10.8m/s | -47.8°C | 57.1% | 0hPa | 2.5V | 00:00:00 | 02:14:22 | 00:00:00 | |
| OM5KV | 2026-09-03 00:59:53 | 49.13282 | 17.95449 | 145° | 73km/h | 9731m | -10.9m/s | -47.9°C | 49.1% | 0hPa | 2.5V | 08:04:00 | 00:00:00 | 00:00:00 | |
| OE3JTB-15 | 2026-09-03 00:59:51 | 49.13328 | 17.95399 | 144° | 75km/h | 9758m | -9.0m/s | -48.1°C | 54.9% | 0hPa | 2.5V | 00:00:00 | 00:00:00 | 00:00:00 | |
| OM5KV | 2026-09-03 00:59:48 | 49.13358 | 17.95365 | 144° | 75km/h | 9776m | -9.5m/s | -48.3°C | 47.1% | 0hPa | 2.5V | 08:05:00 | 00:00:00 | 00:00:00 | |
| PG1ADW-2 | 2026-09-03 00:59:46 | 49.13403 | 17.95313 | 144° | 75km/h | 9806m | -8.1m/s | -48.5°C | 55.4% | 0hPa | 2.5V | 00:00:00 | 02:14:14 | 00:00:00 | |
| OM5KV | 2026-09-03 00:59:42 | 49.13448 | 17.95262 | 144° | 75km/h | 9837m | -10.7m/s | -48.9°C | 48.1% | 0hPa | 2.5V | 08:05:00 | 00:00:00 | 00:00:00 | |
| OM5KV | 2026-09-03 00:59:41 | 49.13463 | 17.95244 | 144° | 75km/h | 9847m | -9.1m/s | -49.0°C | 48.3% | 0hPa | 2.5V | 08:05:00 | 00:00:00 | 00:00:00 | |
| PETON7-10 | 2026-09-03 00:59:39 | 49.13508 | 17.95193 | 144° | 75km/h | 9877m | -11.0m/s | -49.2°C | 56.7% | 0hPa | 2.5V | 00:00:00 | 00:00:00 | 00:00:00 | |
| OM5KV | 2026-09-03 00:59:37 | 49.13523 | 17.95176 | 144° | 73km/h | 9887m | -8.7m/s | -49.3°C | 48.7% | 0hPa | 2.4V | 08:05:00 | 00:00:00 | 00:00:00 | |
| OM5KV | 2026-09-03 00:59:29 | 49.13643 | 17.95037 | 144° | 75km/h | 9968m | -9.2m/s | -50.1°C | 49.5% | 0hPa | 2.4V | 08:05:00 | 00:00:00 | 00:00:00 | |
| OE3OSB-13 | 2026-09-03 00:59:28 | 49.13689 | 17.94986 | 144° | 73km/h | 9993m | -8.8m/s | -50.3°C | 48.5% | -1.0hPa | 2.4V | 00:00:00 | 00:00:00 | 00:00:00 | |
| OM5KV | 2026-09-03 00:59:25 | 49.13704 | 17.94969 | 145° | 73km/h | 10003m | -11.1m/s | -50.4°C | 48.7% | 0hPa | 2.4V | 08:05:00 | 00:00:00 | 00:00:00 | |
| PETON7-10 | 2026-09-03 00:59:24 | 49.13734 | 17.94936 | 144° | 75km/h | 10023m | -8.7m/s | -50.6°C | 57.8% | 0hPa | 2.4V | 00:00:00 | 00:00:00 | 00:00:00 | |
| OM5KV | 2026-09-03 00:59:22 | 49.13749 | 17.94919 | 145° | 75km/h | 10032m | -9.8m/s | -50.7°C | 49.2% | 0hPa | 2.4V | 08:05:00 | 00:00:00 | 00:00:00 | |
| POL1PZ | 2026-09-03 00:59:21 | 49.13764 | 17.94902 | 145° | 75km/h | 10042m | -10.0m/s | -50.8°C | 49.4% | 0hPa | 2.4V | 00:00:00 | 00:00:00 | 00:00:00 | |
| OM5KV | 2026-09-03 00:59:18 | 49.13826 | 17.94834 | 144° | 77km/h | 10076m | -8.9m/s | -51.1°C | 49.2% | 0hPa | 2.4V | 08:05:00 | 00:00:00 | 00:00:00 | |
| OM5KV | 2026-09-03 00:59:12 | 49.13901 | 17.94746 | 143° | 75km/h | 10123m | -11.3m/s | -51.5°C | 48.2% | 0hPa | 2.4V | 08:05:00 | 00:00:00 | 00:00:00 | |
| PETON7-10 | 2026-09-03 00:59:09 | 49.13960 | 17.94675 | 141° | 73km/h | 10163m | -10.4m/s | -51.8°C | 55.9% | 0hPa | 2.4V | 00:00:00 | 02:13:37 | 00:00:00 | |
| OM5KV | 2026-09-03 00:59:07 | 49.13988 | 17.94640 | 141° | 73km/h | 10182m | -10.0m/s | -52.0°C | 46.6% | 0hPa | 2.4V | 08:05:00 | 00:00:00 | 00:00:00 | |
| OM5KV | 2026-09-03 00:59:05 | 49.14002 | 17.94622 | 141° | 71km/h | 10193m | -12.4m/s | -52.1°C | 46.2% | 0hPa | 2.4V | 08:05:00 | 00:00:00 | 00:00:00 | |
| OE3OSB-13 | 2026-09-03 00:58:57 | 49.14132 | 17.94423 | 130° | 77km/h | 10307m | -12.3m/s | -52.6°C | 42.1% | -1.0hPa | 2.4V | 00:00:00 | 00:00:00 | 00:00:00 | |
| OM5KV | 2026-09-03 00:58:56 | 49.14120 | 17.94445 | 131° | 77km/h | 10295m | -11.7m/s | -52.5°C | 42.9% | 0hPa | 2.4V | 08:06:00 | 00:00:00 | 00:00:00 | |
| PG1ADW-2 | 2026-09-03 00:58:55 | 49.14145 | 17.94400 | 130° | 86km/h | 10319m | -11.8m/s | -52.7°C | 50.4% | 0hPa | 2.4V | 00:00:00 | 00:00:00 | 00:00:00 | |
| PETON7-10 | 2026-09-03 00:58:54 | 49.14158 | 17.94377 | 130° | 84km/h | 10331m | -11.4m/s | -52.8°C | 49.9% | 0hPa | 2.5V | 08:05:00 | 00:00:00 | 00:00:00 | |
| POL1PZ | 2026-09-03 00:58:52 | 49.14183 | 17.94330 | 130° | 80km/h | 10356m | -12.5m/s | -53.0°C | 41.8% | 0hPa | 2.5V | 08:06:00 | 00:00:00 | 00:00:00 | |
| S52SK | 2026-09-03 00:58:45 | 49.14263 | 17.94183 | 131° | 86km/h | 10416m | -9.9m/s | -53.1°C | 40.3% | 0hPa | 2.5V | 00:00:00 | 00:00:00 | 00:00:00 | |
| OM5KV | 2026-09-03 00:58:44 | 49.14277 | 17.94158 | 131° | 88km/h | 10426m | -9.5m/s | -53.2°C | 39.7% | 0hPa | 2.5V | 08:06:00 | 00:00:00 | 00:00:00 | |
| OM5KV | 2026-09-03 00:58:43 | 49.14291 | 17.94132 | 130° | 88km/h | 10436m | -11.4m/s | -53.3°C | 39.1% | 0hPa | 2.5V | 08:06:00 | 00:00:00 | 00:00:00 | |
| S52SK | 2026-09-03 00:58:40 | 49.14334 | 17.94053 | 131° | 89km/h | 10471m | -10.7m/s | -53.5°C | 38.5% | 0hPa | 2.5V | 00:00:00 | 00:00:00 | 00:00:00 | |
| PETON7-10 | 2026-09-03 00:58:39 | 49.14364 | 17.94001 | 131° | 97km/h | 10492m | -9.3m/s | -53.5°C | 45.4% | 0hPa | 2.5V | 00:00:00 | 00:00:00 | 00:00:00 | |
| PG1ADW-2 | 2026-09-03 00:58:35 | 49.14426 | 17.93894 | 133° | 99km/h | 10534m | -9.8m/s | -53.7°C | 43.6% | 0hPa | 2.5V | 00:00:00 | 00:00:00 | 00:00:00 | |
| OM5KV | 2026-09-03 00:58:33 | 49.14443 | 17.93867 | 134° | 95km/h | 10544m | -9.8m/s | -53.8°C | 35.3% | 0hPa | 2.5V | 08:06:00 | 00:00:00 | 00:00:00 | |
| POL1PZ | 2026-09-03 00:58:30 | 49.14493 | 17.93786 | 136° | 99km/h | 10573m | -12.1m/s | -54.0°C | 33.4% | 0hPa | 2.5V | 08:06:00 | 00:00:00 | 00:00:00 | |
| OM5KV | 2026-09-03 00:58:28 | 49.14547 | 17.93706 | 137° | 100km/h | 10602m | -9.1m/s | -54.1°C | 32.5% | 0hPa | 2.5V | 08:06:00 | 00:00:00 | 00:00:00 | |
| OE5DXL-15 | 2026-09-03 00:58:26 | 49.14584 | 17.93653 | 137° | 99km/h | 10620m | -8.1m/s | -54.1°C | 39.1% | 0hPa | 2.5V | 00:00:00 | 00:00:00 | 00:00:00 | |
| OE3OSB-13 | 2026-09-03 00:58:25 | 49.14602 | 17.93627 | 137° | 99km/h | 10628m | -8.3m/s | -54.2°C | 30.7% | -1.0hPa | 2.6V | 00:00:00 | 00:00:00 | 00:00:00 | |
| PETON7-10 | 2026-09-03 00:58:24 | 49.14621 | 17.93601 | 138° | 100km/h | 10637m | -8.7m/s | -54.2°C | 37.7% | 0hPa | 2.6V | 00:00:00 | 02:12:52 | 00:00:00 | |
| OM5KV | 2026-09-03 00:58:22 | 49.14659 | 17.93548 | 139° | 100km/h | 10656m | -10.9m/s | -54.2°C | 29.5% | 0hPa | 2.6V | 08:06:00 | 00:00:00 | 00:00:00 | |
| OM5KV | 2026-09-03 00:58:16 | 49.14773 | 17.93394 | 141° | 100km/h | 10710m | -10.7m/s | -54.0°C | 28.3% | 0hPa | 2.6V | 08:06:00 | 00:00:00 | 00:00:00 | |
| PG1ADW-2 | 2026-09-03 00:58:15 | 49.14792 | 17.93369 | 140° | 97km/h | 10721m | -11.7m/s | -53.9°C | 35.4% | 0hPa | 2.6V | 00:00:00 | 02:12:43 | 00:00:00 | |
| POL1PZ | 2026-09-03 00:58:10 | 49.14887 | 17.93245 | 139° | 99km/h | 10770m | -10.3m/s | -54.2°C | 28.9% | 0hPa | 2.6V | 08:06:00 | 00:00:00 | 00:00:00 | |
| PETON7-10 | 2026-09-03 00:58:09 | 49.14905 | 17.93220 | 137° | 95km/h | 10781m | -11.2m/s | -54.1°C | 35.8% | 0hPa | 2.6V | 00:00:00 | 00:00:00 | 00:00:00 | |
| OM5KV | 2026-09-03 00:58:04 | 49.14977 | 17.93117 | 137° | 97km/h | 10822m | -10.6m/s | -53.9°C | 28.1% | 0hPa | 2.6V | 08:07:00 | 00:00:00 | 00:00:00 | |
| OE5DRO-10 | 2026-09-03 00:58:03 | 49.15012 | 17.93066 | 137° | 95km/h | 10839m | -7.5m/s | -53.9°C | 34.8% | 0hPa | 2.6V | 00:00:00 | 00:00:00 | 00:00:00 | |
| OM5KV | 2026-09-03 00:57:58 | 49.15080 | 17.92964 | 137° | 95km/h | 10876m | -11.2m/s | -53.9°C | 27.0% | 0hPa | 2.6V | 08:07:00 | 00:00:00 | 00:00:00 | |
| OE5DXL-15 | 2026-09-03 00:57:56 | 49.15131 | 17.92889 | 137° | 102km/h | 10908m | -11.4m/s | -53.9°C | 32.7% | 0hPa | 2.6V | 00:00:00 | 00:00:00 | 00:00:00 | |
| PG1ADW-2 | 2026-09-03 00:57:55 | 49.15148 | 17.92864 | 137° | 95km/h | 10919m | -10.3m/s | -54.0°C | 32.7% | 0hPa | 2.6V | 08:06:00 | 00:00:00 | 00:00:00 | |
| PETON7-10 | 2026-09-03 00:57:54 | 49.15165 | 17.92839 | 137° | 95km/h | 10929m | -10.4m/s | -54.0°C | 32.6% | 0hPa | 2.5V | 00:00:00 | 00:00:00 | 00:00:00 | |
| OE3JTB-15 | 2026-09-03 00:57:53 | 49.15182 | 17.92814 | 137° | 100km/h | 10940m | -10.9m/s | -54.1°C | 32.3% | 0hPa | 2.5V | 00:00:00 | 02:12:21 | 00:00:00 | |
| OM5KV | 2026-09-03 00:57:52 | 49.15182 | 17.92814 | 137° | 93km/h | 10940m | -10.9m/s | -54.1°C | 25.7% | 0hPa | 2.5V | 08:07:00 | 00:00:00 | 00:00:00 | |
| POL1PZ | 2026-09-03 00:57:49 | 49.15233 | 17.92738 | 136° | 93km/h | 10972m | -10.2m/s | -54.2°C | 25.7% | 0hPa | 2.5V | 00:00:00 | 00:00:00 | 00:00:00 | |
| OM5KV | 2026-09-03 00:57:47 | 49.15266 | 17.92686 | 136° | 95km/h | 10990m | -7.3m/s | -54.3°C | 25.9% | 0hPa | 2.5V | 08:07:00 | 00:00:00 | 00:00:00 | |
| OM5KV | 2026-09-03 00:57:46 | 49.15284 | 17.92660 | 136° | 95km/h | 10998m | -8.4m/s | -54.4°C | 25.8% | 0hPa | 2.5V | 08:07:00 | 00:00:00 | 00:00:00 | |
| OE5DRO-10 | 2026-09-03 00:57:44 | 49.15335 | 17.92585 | 138° | 97km/h | 11023m | -7.8m/s | -54.4°C | 32.6% | 0hPa | 2.5V | 00:00:00 | 00:00:00 | 00:00:00 | |
| PETON7-10 | 2026-09-03 00:57:39 | 49.15424 | 17.92462 | 138° | 99km/h | 11061m | -5.9m/s | -54.8°C | 32.8% | 0hPa | 2.5V | 00:00:00 | 02:12:07 | 00:00:00 | |
| OM5KV | 2026-09-03 00:57:36 | 49.15460 | 17.92412 | 138° | 97km/h | 11074m | -9.4m/s | -54.9°C | 24.4% | 0hPa | 2.5V | 08:07:00 | 00:00:00 | 00:00:00 | |
| PG1ADW-2 | 2026-09-03 00:57:35 | 49.15497 | 17.92360 | 138° | 100km/h | 11095m | -10.3m/s | -55.1°C | 30.9% | 0hPa | 2.5V | 00:00:00 | 00:00:00 | 00:00:00 | |
| OM5KV | 2026-09-03 00:57:33 | 49.15515 | 17.92334 | 138° | 99km/h | 11106m | -10.2m/s | -55.1°C | 24.4% | 0hPa | 2.5V | 08:07:00 | 00:00:00 | 00:00:00 | |
| POL1PZ | 2026-09-03 00:57:29 | 49.15607 | 17.92205 | 138° | 97km/h | 11147m | -5.6m/s | -54.9°C | 23.0% | 0hPa | 2.5V | 00:00:00 | 00:00:00 | 00:00:00 | |
| OE5DRO-10 | 2026-09-03 00:57:25 | 49.15679 | 17.92103 | 138° | 104km/h | 11185m | -12.5m/s | -54.7°C | 27.2% | 0hPa | 2.5V | 00:00:00 | 00:00:00 | 00:00:00 | |
| PETON7-10 | 2026-09-03 00:57:24 | 49.15697 | 17.92077 | 138° | 104km/h | 11197m | -11.4m/s | -54.6°C | 27.2% | 0hPa | 2.5V | 00:00:00 | 00:00:00 | 00:00:00 | |
| OE3OSB-13 | 2026-09-03 00:57:23 | 49.15716 | 17.92051 | 137° | 99km/h | 11207m | -8.9m/s | -54.7°C | 21.0% | -1.0hPa | 2.5V | 00:00:00 | 00:00:00 | 00:00:00 | |
| OM5KV | 2026-09-03 00:57:17 | 49.15810 | 17.91917 | 138° | 104km/h | 11249m | -9.1m/s | -54.8°C | 20.4% | 0hPa | 2.5V | 08:07:00 | 00:00:00 | 00:00:00 | |
| PG1ADW-2 | 2026-09-03 00:57:15 | 49.15868 | 17.91833 | 137° | 104km/h | 11278m | -9.8m/s | -54.8°C | 26.0% | 0hPa | 2.5V | 00:00:00 | 00:00:00 | 00:00:00 | |
| POL1PZ | 2026-09-03 00:57:09 | 49.15984 | 17.91665 | 138° | 104km/h | 11329m | -7.5m/s | -55.3°C | 19.9% | 0hPa | 2.5V | 08:08:00 | 00:00:00 | 00:00:00 | |
| OE5DXL-15 | 2026-09-03 00:57:07 | 49.16023 | 17.91609 | 137° | 104km/h | 11348m | -11.5m/s | -55.3°C | 25.1% | 0hPa | 2.5V | 00:00:00 | 00:00:00 | 00:00:00 | |
| OE5DRO-10 | 2026-09-03 00:57:06 | 49.16042 | 17.91582 | 137° | 102km/h | 11359m | -9.9m/s | -55.2°C | 24.7% | 0hPa | 2.5V | 00:00:00 | 00:00:00 | 00:00:00 | |
| OM5KV | 2026-09-03 00:57:05 | 49.16042 | 17.91582 | 137° | 104km/h | 11359m | -10.0m/s | -55.2°C | 18.7% | 0hPa | 2.5V | 08:08:00 | 00:00:00 | 00:00:00 | |
| OE3OSB-13 | 2026-09-03 00:56:52 | 49.16288 | 17.91174 | 131° | 102km/h | 11486m | -10.3m/s | -54.2°C | 12.7% | -1.0hPa | 2.5V | 00:00:00 | 00:00:00 | 00:00:00 | |
| OM5KV | 2026-09-03 00:56:49 | 49.16322 | 17.91115 | 133° | 102km/h | 11509m | -11.1m/s | -54.0°C | 12.5% | 0hPa | 2.5V | 08:08:00 | 00:00:00 | 00:00:00 | |
| POL1PZ | 2026-09-03 00:56:48 | 49.16340 | 17.91086 | 134° | 102km/h | 11519m | -9.8m/s | -53.9°C | 12.5% | 0hPa | 2.5V | 08:08:00 | 00:00:00 | 00:00:00 | |
| OE5DRO-10 | 2026-09-03 00:56:47 | 49.16376 | 17.91028 | 135° | 110km/h | 11537m | -8.5m/s | -53.7°C | 16.5% | 0hPa | 2.5V | 00:00:00 | 00:00:00 | 00:00:00 | |
| OM5KV | 2026-09-03 00:56:44 | 49.16432 | 17.90939 | 135° | 108km/h | 11565m | -8.2m/s | -53.7°C | 12.0% | 0hPa | 2.5V | 08:08:00 | 00:00:00 | 00:00:00 | |
| PETON7-10 | 2026-09-03 00:56:39 | 49.16531 | 17.90789 | 136° | 110km/h | 11603m | -6.7m/s | -53.8°C | 15.1% | 0hPa | 2.5V | 08:07:00 | 00:00:00 | 00:00:00 | |
| OE5DXL-15 | 2026-09-03 00:56:37 | 49.16571 | 17.90730 | 137° | 108km/h | 11622m | -10.1m/s | -53.7°C | 14.1% | 0hPa | 2.6V | 08:07:00 | 00:00:00 | 00:00:00 | |
| PG1ADW-2 | 2026-09-03 00:56:35 | 49.16612 | 17.90673 | 138° | 108km/h | 11642m | -10.5m/s | -53.7°C | 13.7% | 0hPa | 2.5V | 00:00:00 | 00:00:00 | 00:00:00 | |
| S52SK | 2026-09-03 00:56:30 | 49.16694 | 17.90561 | 140° | 108km/h | 11682m | -9.3m/s | -53.5°C | 9.0% | 0hPa | 2.5V | 08:08:00 | 00:00:00 | 00:00:00 | |
| OE5DRO-10 | 2026-09-03 00:56:28 | 49.16757 | 17.90480 | 141° | 106km/h | 11708m | -9.2m/s | -53.3°C | 12.4% | 0hPa | 2.5V | 00:00:00 | 00:00:00 | 00:00:00 | |
| OM5KV | 2026-09-03 00:56:27 | 49.16757 | 17.90480 | 141° | 110km/h | 11708m | -9.3m/s | -53.4°C | 8.5% | 0hPa | 2.5V | 08:08:00 | 00:00:00 | 00:00:00 | |
| OM5KV | 2026-09-03 00:56:26 | 49.16778 | 17.90453 | 141° | 110km/h | 11718m | -10.6m/s | -53.3°C | 8.3% | 0hPa | 2.5V | 08:08:00 | 00:00:00 | 00:00:00 | |
| PETON7-10 | 2026-09-03 00:56:24 | 49.16842 | 17.90372 | 141° | 106km/h | 11746m | -10.9m/s | -53.0°C | 11.4% | 0hPa | 2.5V | 00:00:00 | 00:00:00 | 00:00:00 | |
| OE3OSB-13 | 2026-09-03 00:56:21 | 49.16906 | 17.90292 | 140° | 106km/h | 11776m | -9.8m/s | -52.9°C | 7.0% | -1.0hPa | 2.5V | 00:00:00 | 00:00:00 | 00:00:00 | |
| OM5KV | 2026-09-03 00:56:19 | 49.16927 | 17.90266 | 142° | 108km/h | 11786m | -8.8m/s | -52.9°C | 7.2% | 0hPa | 2.5V | 08:09:00 | 00:00:00 | 00:00:00 | |
| PG1ADW-2 | 2026-09-03 00:56:15 | 49.17030 | 17.90135 | 141° | 100km/h | 11831m | -8.8m/s | -53.0°C | 9.9% | 0hPa | 2.5V | 00:00:00 | 00:00:00 | 00:00:00 | |
| OM5KV | 2026-09-03 00:56:14 | 49.17030 | 17.90135 | 142° | 104km/h | 11831m | -8.8m/s | -53.1°C | 6.4% | 0hPa | 2.5V | 08:09:00 | 00:00:00 | 00:00:00 | |
| OM5KV | 2026-09-03 00:56:10 | 49.17132 | 17.90012 | 143° | 102km/h | 11878m | -9.8m/s | -52.3°C | 5.5% | 0hPa | 2.5V | 08:09:00 | 00:00:00 | 00:00:00 | |
| PETON7-10 | 2026-09-03 00:56:09 | 49.17152 | 17.89987 | 142° | 99km/h | 11887m | -9.3m/s | -52.0°C | 8.4% | 0hPa | 2.5V | 00:00:00 | 02:10:37 | 00:00:00 | |
| OE5DXL-15 | 2026-09-03 00:56:07 | 49.17192 | 17.89938 | 142° | 95km/h | 11905m | -7.6m/s | -51.9°C | 8.2% | 0hPa | 2.5V | 00:00:00 | 00:00:00 | 00:00:00 | |
| OM5KV | 2026-09-03 00:56:05 | 49.17213 | 17.89914 | 142° | 100km/h | 11915m | -11.1m/s | -52.0°C | 5.0% | 0hPa | 2.5V | 08:09:00 | 00:00:00 | 00:00:00 | |
| OM5KV | 2026-09-03 00:55:59 | 49.17327 | 17.89771 | 141° | 97km/h | 11973m | -9.3m/s | -52.3°C | 4.3% | 0hPa | 2.5V | 08:09:00 | 00:00:00 | 00:00:00 | |
| PG1ADW-2 | 2026-09-03 00:55:55 | 49.17419 | 17.89649 | 138° | 95km/h | 12022m | -11.0m/s | -52.4°C | 6.3% | 0hPa | 2.5V | 00:00:00 | 00:00:00 | 00:00:00 | |
| PETON7-10 | 2026-09-03 00:55:54 | 49.17436 | 17.89624 | 137° | 95km/h | 12033m | -11.6m/s | -52.4°C | 6.2% | 0hPa | 2.5V | 00:00:00 | 00:00:00 | 00:00:00 | |
| OM5KV | 2026-09-03 00:55:51 | 49.17471 | 17.89574 | 138° | 95km/h | 12054m | -9.9m/s | -52.4°C | 3.4% | 0hPa | 2.5V | 08:09:00 | 00:00:00 | 00:00:00 | |
| OE5DRO-10 | 2026-09-03 00:55:50 | 49.17505 | 17.89524 | 137° | 93km/h | 12071m | -6.6m/s | -52.4°C | 6.1% | 0hPa | 2.5V | 08:08:00 | 00:00:00 | 00:00:00 | |
| OM5KV | 2026-09-03 00:55:47 | 49.17541 | 17.89474 | 138° | 97km/h | 12085m | -8.1m/s | -52.3°C | 2.9% | 0hPa | 2.5V | 08:09:00 | 00:00:00 | 00:00:00 | |
| OM5KV | 2026-09-03 00:55:46 | 49.17558 | 17.89448 | 138° | 97km/h | 12093m | -8.9m/s | -52.3°C | 2.8% | 0hPa | 2.5V | 08:09:00 | 00:00:00 | 00:00:00 | |
| POL1PZ | 2026-09-03 00:55:45 | 49.17576 | 17.89422 | 137° | 97km/h | 12102m | -9.7m/s | -52.3°C | 2.7% | 0hPa | 2.5V | 08:09:00 | 00:00:00 | 00:00:00 | |
| PETON7-10 | 2026-09-03 00:55:39 | 49.17692 | 17.89237 | 132° | 89km/h | 12167m | -10.4m/s | -52.1°C | 4.6% | 0hPa | 2.5V | 00:00:00 | 00:00:00 | 00:00:00 | |
| OE5DXL-15 | 2026-09-03 00:55:37 | 49.17722 | 17.89183 | 130° | 84km/h | 12186m | -8.7m/s | -51.6°C | 4.2% | 0hPa | 2.5V | 00:00:00 | 00:00:00 | 00:00:00 | |
| OM5KV | 2026-09-03 00:55:35 | 49.17751 | 17.89128 | 128° | 91km/h | 12206m | -10.7m/s | -51.0°C | 1.6% | 0hPa | 2.5V | 08:09:00 | 00:00:00 | 00:00:00 | |
| OE5DRO-10 | 2026-09-03 00:55:31 | 49.17806 | 17.89016 | 129° | 84km/h | 12246m | -9.3m/s | -50.3°C | 3.7% | 0hPa | 2.5V | 00:00:00 | 00:00:00 | 00:00:00 | |
| OM5KV | 2026-09-03 00:55:26 | 49.17862 | 17.88909 | 130° | 88km/h | 12286m | -10.5m/s | -50.3°C | 1.5% | 0hPa | 2.5V | 08:09:00 | 00:00:00 | 00:00:00 | |
| POL1PZ | 2026-09-03 00:55:25 | 49.17890 | 17.88858 | 131° | 84km/h | 12305m | -10.6m/s | -50.2°C | 1.4% | 0hPa | 2.5V | 08:09:00 | 00:00:00 | 00:00:00 | |
| PETON7-10 | 2026-09-03 00:55:24 | 49.17904 | 17.88833 | 131° | 80km/h | 12316m | -11.5m/s | -50.1°C | 3.5% | 0hPa | 2.5V | 00:00:00 | 02:09:52 | 00:00:00 | |
| OM5KV | 2026-09-03 00:55:23 | 49.17903 | 17.88833 | 131° | 84km/h | 12316m | -11.6m/s | -50.1°C | 1.4% | 0hPa | 2.5V | 08:09:00 | 00:00:00 | 00:00:00 | |
| OM5KV | 2026-09-03 00:55:21 | 49.17931 | 17.88784 | 132° | 84km/h | 12341m | -10.6m/s | -49.9°C | 1.4% | 0hPa | 2.5V | 08:09:00 | 00:00:00 | 00:00:00 | |
| OE3OSB-13 | 2026-09-03 00:55:19 | 49.17973 | 17.88711 | 131° | 82km/h | 12370m | -9.3m/s | -49.8°C | 1.2% | -1.0hPa | 2.5V | 00:00:00 | 00:00:00 | 00:00:00 | |
| PG1ADW-2 | 2026-09-03 00:55:15 | 49.18027 | 17.88618 | 132° | 78km/h | 12419m | -11.9m/s | -50.0°C | 3.5% | 0hPa | 2.5V | 00:00:00 | 00:00:00 | 00:00:00 | |
| OE5DRO-10 | 2026-09-03 00:55:12 | 49.18065 | 17.88549 | 131° | 78km/h | 12458m | -12.7m/s | -50.2°C | 3.5% | 0hPa | 2.5V | 00:00:00 | 00:00:00 | 00:00:00 | |
| OM5KV | 2026-09-03 00:55:11 | 49.18065 | 17.88549 | 131° | 77km/h | 12458m | -12.8m/s | -50.2°C | 1.4% | 0hPa | 2.5V | 08:09:00 | 00:00:00 | 00:00:00 | |
| PETON7-10 | 2026-09-03 00:55:09 | 49.18103 | 17.88481 | 131° | 78km/h | 12496m | -11.1m/s | -50.4°C | 3.7% | 0hPa | 2.5V | 00:00:00 | 00:00:00 | 00:00:00 | |
| OE5DXL-15 | 2026-09-03 00:55:07 | 49.18128 | 17.88436 | 132° | 77km/h | 12515m | -9.9m/s | -50.4°C | 3.7% | 0hPa | 2.5V | 00:00:00 | 00:00:00 | 00:00:00 | |
| OM5KV | 2026-09-03 00:55:06 | 49.18128 | 17.88436 | 132° | 77km/h | 12515m | -9.9m/s | -50.5°C | 1.5% | 0hPa | 2.6V | 08:09:00 | 00:00:00 | 00:00:00 | |
| POL1PZ | 2026-09-03 00:55:04 | 49.18167 | 17.88368 | 132° | 78km/h | 12544m | -12.8m/s | -50.5°C | 1.4% | 0hPa | 2.6V | 08:09:00 | 00:00:00 | 00:00:00 | |
| OE3OSB-13 | 2026-09-03 00:54:48 | 49.18361 | 17.87990 | 121° | 73km/h | 12716m | -12.4m/s | -50.0°C | 1.2% | -1.0hPa | 2.6V | 00:00:00 | 00:00:00 | 00:00:00 | |
| OM5KV | 2026-09-03 00:54:44 | 49.18397 | 17.87892 | 120° | 73km/h | 12754m | -11.5m/s | -50.2°C | 1.4% | 0hPa | 2.6V | 08:09:00 | 00:00:00 | 00:00:00 | |
| POL1PZ | 2026-09-03 00:54:43 | 49.18397 | 17.87892 | 120° | 73km/h | 12754m | -11.5m/s | -50.2°C | 1.4% | 0hPa | 2.6V | 08:09:00 | 00:00:00 | 00:00:00 | |
| S52SK | 2026-09-03 00:54:40 | 49.18423 | 17.87820 | 120° | 71km/h | 12787m | -10.2m/s | -50.2°C | 1.4% | 0hPa | 2.6V | 00:00:00 | 00:00:00 | 00:00:00 | |
| PETON7-10 | 2026-09-03 00:54:39 | 49.18441 | 17.87772 | 120° | 75km/h | 12807m | -8.4m/s | -49.9°C | 3.4% | 0hPa | 2.6V | 00:00:00 | 02:09:07 | 00:00:00 | |
| OE5DXL-15 | 2026-09-03 00:54:37 | 49.18459 | 17.87724 | 120° | 77km/h | 12825m | -11.7m/s | -50.0°C | 3.4% | 0hPa | 2.6V | 00:00:00 | 00:00:00 | 00:00:00 | |
| PG1ADW-2 | 2026-09-03 00:54:35 | 49.18477 | 17.87675 | 121° | 77km/h | 12846m | -9.4m/s | -50.2°C | 3.5% | 0hPa | 2.6V | 00:00:00 | 00:00:00 | 00:00:00 | |
| OE5DRO-10 | 2026-09-03 00:54:34 | 49.18487 | 17.87650 | 121° | 77km/h | 12857m | -11.4m/s | -50.3°C | 3.6% | 0hPa | 2.6V | 00:00:00 | 00:00:00 | 00:00:00 | |
| OE3JTB-15 | 2026-09-03 00:54:24 | 49.18600 | 17.87380 | 126° | 78km/h | 12971m | -10.1m/s | -50.9°C | 3.7% | 0hPa | 2.6V | 00:00:00 | 00:00:00 | 00:00:00 | |
| POL1PZ | 2026-09-03 00:54:23 | 49.18600 | 17.87380 | 127° | 78km/h | 12971m | -10.1m/s | -50.9°C | 1.5% | 0hPa | 2.6V | 08:10:00 | 00:00:00 | 00:00:00 | |
| OM5KV | 2026-09-03 00:54:20 | 49.18624 | 17.87332 | 129° | 78km/h | 12991m | -10.7m/s | -51.1°C | 1.5% | 0hPa | 2.6V | 08:10:00 | 00:00:00 | 00:00:00 | |
| OM5KV | 2026-09-03 00:54:18 | 49.18649 | 17.87284 | 130° | 78km/h | 13012m | -8.9m/s | -51.2°C | 1.5% | 0hPa | 2.6V | 08:10:00 | 00:00:00 | 00:00:00 | |
| OE3OSB-13 | 2026-09-03 00:54:17 | 49.18686 | 17.87213 | 129° | 78km/h | 13041m | -9.3m/s | -51.3°C | 1.3% | -1.0hPa | 2.6V | 00:00:00 | 00:00:00 | 00:00:00 | |
| OE5DRO-10 | 2026-09-03 00:54:15 | 49.18699 | 17.87190 | 130° | 77km/h | 13052m | -12.2m/s | -51.2°C | 3.8% | 0hPa | 2.6V | 00:00:00 | 00:00:00 | 00:00:00 | |
| PETON7-10 | 2026-09-03 00:54:09 | 49.18773 | 17.87046 | 127° | 75km/h | 13114m | -7.5m/s | -50.6°C | 3.8% | 0hPa | 2.6V | 00:00:00 | 00:00:00 | 00:00:00 | |
| OE5DXL-15 | 2026-09-03 00:54:07 | 49.18795 | 17.86998 | 125° | 75km/h | 13133m | -10.9m/s | -50.6°C | 3.7% | 0hPa | 2.6V | 00:00:00 | 00:00:00 | 00:00:00 | |
| HA6NAB-11 | 2026-09-03 00:54:05 | 49.18817 | 17.86949 | 125° | 75km/h | 13157m | -13.3m/s | -50.8°C | 1.5% | 0hPa | 2.6V | 08:10:00 | 00:00:00 | 00:00:00 | |
| POL1PZ | 2026-09-03 00:54:02 | 49.18837 | 17.86901 | 125° | 75km/h | 13182m | -13.6m/s | -51.0°C | 1.5% | 0hPa | 2.6V | 08:10:00 | 00:00:00 | 00:00:00 | |
| OE3OSB-13 | 2026-09-03 00:53:46 | 49.19024 | 17.86471 | 120° | 73km/h | 13374m | -8.2m/s | -50.6°C | 1.3% | -1.0hPa | 2.6V | 00:00:00 | 00:00:00 | 00:00:00 | |
| PETON7-10 | 2026-09-03 00:53:39 | 49.19083 | 17.86322 | 123° | 75km/h | 13430m | -11.5m/s | -49.8°C | 3.5% | 0hPa | 2.6V | 00:00:00 | 00:00:00 | 00:00:00 | |
| OM5KV | 2026-09-03 00:53:37 | 49.19103 | 17.86273 | 123° | 77km/h | 13448m | -7.1m/s | -49.6°C | 1.3% | 0hPa | 2.5V | 08:11:00 | 00:00:00 | 00:00:00 | |
| HA6NAB-11 | 2026-09-03 00:53:36 | 49.19103 | 17.86273 | 123° | 77km/h | 13448m | -7.1m/s | -49.6°C | 1.2% | 0hPa | 2.5V | 00:00:00 | 00:00:00 | 00:00:00 | |
| PG1ADW-2 | 2026-09-03 00:53:34 | 49.19133 | 17.86199 | 122° | 77km/h | 13479m | -9.1m/s | -49.8°C | 3.5% | 0hPa | 2.5V | 00:00:00 | 00:00:00 | 00:00:00 | |
| OM5KV | 2026-09-03 00:53:31 | 49.19152 | 17.86151 | 122° | 73km/h | 13500m | -10.6m/s | -49.9°C | 1.4% | 0hPa | 2.5V | 08:11:00 | 00:00:00 | 00:00:00 | |
| OM5KV | 2026-09-03 00:53:30 | 49.19161 | 17.86127 | 122° | 73km/h | 13509m | -7.8m/s | -49.9°C | 1.4% | 0hPa | 2.5V | 08:11:00 | 00:00:00 | 00:00:00 | |
| OM5KV | 2026-09-03 00:53:25 | 49.19208 | 17.86001 | 119° | 78km/h | 13555m | -9.7m/s | -49.8°C | 1.3% | 0hPa | 2.5V | 08:11:00 | 00:00:00 | 00:00:00 | |
| PETON7-10 | 2026-09-03 00:53:24 | 49.19227 | 17.85947 | 118° | 77km/h | 13575m | -11.5m/s | -49.5°C | 3.4% | 0hPa | 2.5V | 00:00:00 | 00:00:00 | 00:00:00 | |
| POL1PZ | 2026-09-03 00:53:21 | 49.19245 | 17.85892 | 118° | 80km/h | 13600m | -12.7m/s | -49.6°C | 1.3% | 0hPa | 2.5V | 08:11:00 | 00:00:00 | 00:00:00 | |
| OM5KV | 2026-09-03 00:53:20 | 49.19254 | 17.85864 | 118° | 80km/h | 13612m | -12.9m/s | -49.6°C | 1.3% | 0hPa | 2.5V | 08:11:00 | 00:00:00 | 00:00:00 | |
| OE5DRO-10 | 2026-09-03 00:53:18 | 49.19282 | 17.85782 | 118° | 69km/h | 13647m | -10.4m/s | -49.8°C | 3.4% | 0hPa | 2.5V | 00:00:00 | 00:00:00 | 00:00:00 | |
| OE3JTB-15 | 2026-09-03 00:53:16 | 49.19309 | 17.85701 | 117° | 60km/h | 13676m | -10.1m/s | -50.0°C | 3.5% | 0hPa | 2.5V | 00:00:00 | 00:00:00 | 00:00:00 | |
| OE3OSB-13 | 2026-09-03 00:53:15 | 49.19318 | 17.85674 | 116° | 75km/h | 13686m | -8.9m/s | -50.1°C | 1.2% | -1.0hPa | 2.5V | 00:00:00 | 00:00:00 | 00:00:00 | |
| PG1ADW-2 | 2026-09-03 00:53:14 | 49.19318 | 17.85674 | 117° | 64km/h | 13686m | -8.9m/s | -50.0°C | 3.6% | 0hPa | 2.5V | 00:00:00 | 00:00:00 | 00:00:00 | |
| PETON7-10 | 2026-09-03 00:53:09 | 49.19359 | 17.85551 | 119° | 60km/h | 13730m | -11.6m/s | -49.7°C | 3.5% | 0hPa | 2.5V | 00:00:00 | 02:07:37 | 00:00:00 | |
| OE5DXL-15 | 2026-09-03 00:53:07 | 49.19376 | 17.85507 | 121° | 58km/h | 13753m | -10.7m/s | -49.9°C | 3.5% | 0hPa | 2.5V | 00:00:00 | 00:00:00 | 00:00:00 | |
| OM5KV | 2026-09-03 00:53:03 | 49.19401 | 17.85444 | 123° | 62km/h | 13788m | -13.2m/s | -50.0°C | 1.4% | 0hPa | 2.5V | 08:11:00 | 00:00:00 | 00:00:00 | |
| OM5KV | 2026-09-03 00:53:02 | 49.19409 | 17.85423 | 123° | 62km/h | 13801m | -11.5m/s | -50.1°C | 1.4% | 0hPa | 2.5V | 08:11:00 | 00:00:00 | 00:00:00 | |
| POL1PZ | 2026-09-03 00:53:01 | 49.19417 | 17.85403 | 124° | 60km/h | 13811m | -9.0m/s | -50.2°C | 1.4% | 0hPa | 2.5V | 08:11:00 | 00:00:00 | 00:00:00 | |
| OE5DRO-10 | 2026-09-03 00:52:59 | 49.19442 | 17.85346 | 125° | 57km/h | 13840m | -10.6m/s | -50.2°C | 3.6% | 0hPa | 2.5V | 08:11:00 | 00:00:00 | 00:00:00 | |
| OM5KV | 2026-09-03 00:52:58 | 49.19442 | 17.85346 | 126° | 58km/h | 13840m | -10.7m/s | -50.3°C | 1.4% | 0hPa | 2.5V | 08:12:00 | 00:00:00 | 00:00:00 | |
| S52SK | 2026-09-03 00:52:57 | 49.19450 | 17.85328 | 126° | 55km/h | 13852m | -12.4m/s | -50.3°C | 1.4% | 0hPa | 2.5V | 00:00:00 | 00:00:00 | 00:00:00 | |
| PETON7-10 | 2026-09-03 00:52:54 | 49.19481 | 17.85260 | 123° | 57km/h | 13900m | -10.2m/s | -50.5°C | 3.7% | 0hPa | 2.5V | 00:00:00 | 00:00:00 | 00:00:00 | |
| S52SK | 2026-09-03 00:52:53 | 49.19488 | 17.85243 | 123° | 53km/h | 13910m | -10.5m/s | -50.7°C | 1.4% | 0hPa | 2.5V | 00:00:00 | 00:00:00 | 00:00:00 | |
| OM5KV | 2026-09-03 00:52:51 | 49.19495 | 17.85226 | 123° | 55km/h | 13922m | -12.0m/s | -50.8°C | 1.4% | 0hPa | 2.5V | 08:12:00 | 00:00:00 | 00:00:00 | |
| OM5KV | 2026-09-03 00:52:47 | 49.19523 | 17.85153 | 121° | 55km/h | 13962m | -9.0m/s | -50.7°C | 1.4% | 0hPa | 2.5V | 08:12:00 | 00:00:00 | 00:00:00 | |
| OM5KV | 2026-09-03 00:52:46 | 49.19530 | 17.85134 | 120° | 57km/h | 13972m | -10.0m/s | -50.6°C | 1.4% | 0hPa | 2.5V | 08:12:00 | 00:00:00 | 00:00:00 | |
| OE3OSB-13 | 2026-09-03 00:52:44 | 49.19558 | 17.85056 | 116° | 58km/h | 14015m | -10.2m/s | -50.5°C | 1.2% | -1.0hPa | 2.5V | 00:00:00 | 00:00:00 | 00:00:00 | |
| POL1PZ | 2026-09-03 00:52:42 | 49.19564 | 17.85035 | 117° | 60km/h | 14024m | -7.3m/s | -50.6°C | 1.4% | 0hPa | 2.5V | 08:12:00 | 00:00:00 | 00:00:00 | |
| OE5DRO-10 | 2026-09-03 00:52:40 | 49.19578 | 17.84993 | 117° | 68km/h | 14040m | -8.2m/s | -50.6°C | 3.7% | 0hPa | 2.5V | 00:00:00 | 00:00:00 | 00:00:00 | |
| PETON7-10 | 2026-09-03 00:52:39 | 49.19585 | 17.84972 | 116° | 69km/h | 14048m | -7.8m/s | -50.7°C | 3.7% | 0hPa | 2.5V | 00:00:00 | 00:00:00 | 00:00:00 | |
| OE5DXL-15 | 2026-09-03 00:52:37 | 49.19598 | 17.84929 | 115° | 66km/h | 14064m | -9.2m/s | -50.7°C | 3.7% | 0hPa | 2.5V | 00:00:00 | 00:00:00 | 00:00:00 | |
| OM5KV | 2026-09-03 00:52:35 | 49.19605 | 17.84906 | 115° | 64km/h | 14073m | -8.8m/s | -50.8°C | 1.4% | 0hPa | 2.5V | 08:12:00 | 00:00:00 | 00:00:00 | |
| PG1ADW-2 | 2026-09-03 00:52:34 | 49.19619 | 17.84859 | 115° | 68km/h | 14092m | -10.9m/s | -50.9°C | 3.7% | 0hPa | 2.5V | 00:00:00 | 00:00:00 | 00:00:00 | |
| OM5KV | 2026-09-03 00:52:26 | 49.19684 | 17.84657 | 118° | 71km/h | 14172m | -9.2m/s | -51.1°C | 1.4% | 0hPa | 2.5V | 08:12:00 | 00:00:00 | 00:00:00 | |
| PETON7-10 | 2026-09-03 00:52:24 | 49.19700 | 17.84610 | 118° | 64km/h | 14193m | -10.3m/s | -51.0°C | 3.7% | 0hPa | 2.5V | 00:00:00 | 02:06:52 | 00:00:00 | |
| OE5DRO-10 | 2026-09-03 00:52:21 | 49.19723 | 17.84542 | 118° | 62km/h | 14223m | -10.5m/s | -51.1°C | 3.8% | 0hPa | 2.5V | 00:00:00 | 00:00:00 | 00:00:00 | |
| POL1PZ | 2026-09-03 00:52:20 | 49.19723 | 17.84542 | 119° | 64km/h | 14223m | -10.6m/s | -51.1°C | 1.4% | 0hPa | 2.5V | 08:12:00 | 00:00:00 | 00:00:00 | |
| PG1ADW-2 | 2026-09-03 00:52:15 | 49.19779 | 17.84394 | 123° | 58km/h | 14282m | -10.5m/s | -51.0°C | 3.8% | 0hPa | 2.5V | 00:00:00 | 00:00:00 | 00:00:00 | |
| OM5KV | 2026-09-03 00:52:14 | 49.19780 | 17.84394 | 123° | 62km/h | 14282m | -10.5m/s | -51.1°C | 1.4% | 0hPa | 2.5V | 08:12:00 | 00:00:00 | 00:00:00 | |
| OE3OSB-13 | 2026-09-03 00:52:12 | 49.19796 | 17.84354 | 122° | 60km/h | 14300m | -8.6m/s | -50.9°C | 1.2% | -1.0hPa | 2.5V | 00:00:00 | 00:00:00 | 00:00:00 | |
| PETON7-10 | 2026-09-03 00:52:09 | 49.19821 | 17.84293 | 121° | 58km/h | 14329m | -12.9m/s | -51.0°C | 3.6% | 0hPa | 2.5V | 08:12:00 | 00:00:00 | 00:00:00 | |
| OE5DXL-15 | 2026-09-03 00:52:07 | 49.19837 | 17.84254 | 122° | 57km/h | 14353m | -12.2m/s | -51.2°C | 3.6% | 0hPa | 2.6V | 08:12:00 | 00:00:00 | 00:00:00 | |
| OM5KV | 2026-09-03 00:52:04 | 49.19860 | 17.84197 | 123° | 57km/h | 14388m | -9.1m/s | -51.4°C | 1.4% | 0hPa | 2.5V | 08:13:00 | 00:00:00 | 00:00:00 | |
| OE5DRO-10 | 2026-09-03 00:52:02 | 49.19875 | 17.84160 | 124° | 57km/h | 14405m | -7.7m/s | -51.4°C | 3.7% | 0hPa | 2.5V | 00:00:00 | 00:00:00 | 00:00:00 | |
| POL1PZ | 2026-09-03 00:52:00 | 49.19884 | 17.84141 | 124° | 58km/h | 14412m | -7.8m/s | -51.5°C | 1.4% | 0hPa | 2.5V | 08:13:00 | 00:00:00 | 00:00:00 | |
| OM5KV | 2026-09-03 00:51:56 | 49.19916 | 17.84066 | 124° | 58km/h | 14443m | -6.0m/s | -51.7°C | 1.4% | 0hPa | 2.5V | 08:13:00 | 00:00:00 | 00:00:00 | |
| PG1ADW-2 | 2026-09-03 00:51:54 | 49.19939 | 17.84011 | 122° | 55km/h | 14469m | -9.8m/s | -51.7°C | 3.8% | 0hPa | 2.5V | 08:12:00 | 00:00:00 | 00:00:00 | |
| GYPAP8-17 | 2026-09-03 00:51:53 | 49.19938 | 17.84011 | 122° | 57km/h | 14469m | -9.9m/s | -51.8°C | 0% | 0hPa | 2.5V | 00:00:00 | 00:00:00 | 00:00:00 | |
| OM5KV | 2026-09-03 00:51:49 | 49.19967 | 17.83936 | 120° | 57km/h | 14507m | -9.4m/s | -52.0°C | 1.4% | 0hPa | 2.5V | 08:13:00 | 00:00:00 | 00:00:00 | |
| OE5DRO-10 | 2026-09-03 00:51:43 | 49.20013 | 17.83801 | 118° | 51km/h | 14577m | -8.8m/s | -51.6°C | 3.8% | 0hPa | 2.5V | 00:00:00 | 00:00:00 | 00:00:00 | |
| OE3OSB-13 | 2026-09-03 00:51:41 | 49.20026 | 17.83764 | 117° | 55km/h | 14595m | -11.3m/s | -51.3°C | 1.1% | -1.0hPa | 2.5V | 00:00:00 | 00:00:00 | 00:00:00 | |
| POL1PZ | 2026-09-03 00:51:40 | 49.20026 | 17.83764 | 118° | 55km/h | 14595m | -11.3m/s | -51.3°C | 1.3% | 0hPa | 2.5V | 08:13:00 | 00:00:00 | 00:00:00 | |
| OM5KV | 2026-09-03 00:51:39 | 49.20039 | 17.83726 | 117° | 55km/h | 14617m | -10.2m/s | -51.3°C | 1.3% | 0hPa | 2.5V | 08:13:00 | 00:00:00 | 00:00:00 | |
| OE5DXL-15 | 2026-09-03 00:51:37 | 49.20050 | 17.83687 | 112° | 47km/h | 14636m | -8.8m/s | -51.4°C | 3.6% | 0hPa | 2.5V | 00:00:00 | 00:00:00 | 00:00:00 | |
| PG1ADW-2 | 2026-09-03 00:51:34 | 49.20062 | 17.83629 | 104° | 47km/h | 14667m | -11.4m/s | -51.5°C | 3.7% | 0hPa | 2.5V | 00:00:00 | 02:06:02 | 00:00:00 | |
| OM5KV | 2026-09-03 00:51:33 | 49.20062 | 17.83629 | 105° | 51km/h | 14667m | -11.4m/s | -51.5°C | 1.3% | 0hPa | 2.5V | 08:13:00 | 00:00:00 | 00:00:00 | |
| OM5KV | 2026-09-03 00:51:28 | 49.20076 | 17.83534 | 107° | 49km/h | 14722m | -10.7m/s | -51.7°C | 1.3% | 0hPa | 2.5V | 08:13:00 | 00:00:00 | 00:00:00 | |
| OE5DRO-10 | 2026-09-03 00:51:24 | 49.20094 | 17.83445 | 108° | 44km/h | 14768m | -9.0m/s | -51.7°C | 3.6% | 0hPa | 2.5V | 00:00:00 | 00:00:00 | 00:00:00 | |
| POL1PZ | 2026-09-03 00:51:20 | 49.20111 | 17.83376 | 113° | 47km/h | 14810m | -10.8m/s | -51.6°C | 1.3% | 0hPa | 2.5V | 08:13:00 | 00:00:00 | 00:00:00 | |
| OM5KV | 2026-09-03 00:51:16 | 49.20123 | 17.83325 | 111° | 46km/h | 14841m | -8.4m/s | -51.5°C | 1.2% | 0hPa | 2.5V | 08:14:00 | 00:00:00 | 00:00:00 | |
| PG1ADW-2 | 2026-09-03 00:51:14 | 49.20132 | 17.83277 | 104° | 44km/h | 14871m | -10.8m/s | -51.4°C | 3.5% | 0hPa | 2.5V | 00:00:00 | 00:00:00 | 00:00:00 | |
| OM5KV | 2026-09-03 00:51:11 | 49.20139 | 17.83232 | 102° | 40km/h | 14901m | -12.2m/s | -51.6°C | 1.2% | 0hPa | 2.5V | 08:14:00 | 00:00:00 | 00:00:00 | |
| OE3OSB-13 | 2026-09-03 00:51:10 | 49.20141 | 17.83216 | 100° | 38km/h | 14912m | -10.6m/s | -51.7°C | 1.1% | -1.0hPa | 2.5V | 00:00:00 | 00:00:00 | 00:00:00 | |
| PETON7-10 | 2026-09-03 00:51:09 | 49.20143 | 17.83201 | 101° | 44km/h | 14923m | -9.3m/s | -51.7°C | 3.6% | 0hPa | 2.5V | 00:00:00 | 00:00:00 | 00:00:00 | |
| OE5DXL-15 | 2026-09-03 00:51:07 | 49.20147 | 17.83168 | 102° | 46km/h | 14941m | -10.7m/s | -51.8°C | 3.6% | 0hPa | 2.5V | 00:00:00 | 00:00:00 | 00:00:00 | |
| OM5KV | 2026-09-03 00:51:06 | 49.20147 | 17.83168 | 102° | 44km/h | 14941m | -10.7m/s | -51.8°C | 1.2% | 0hPa | 2.5V | 08:14:00 | 00:00:00 | 00:00:00 | |
| OE5DRO-10 | 2026-09-03 00:51:05 | 49.20151 | 17.83134 | 101° | 44km/h | 14964m | -9.9m/s | -51.9°C | 3.6% | 0hPa | 2.5V | 00:00:00 | 00:00:00 | 00:00:00 | |
| POL1PZ | 2026-09-03 00:50:58 | 49.20159 | 17.83030 | 92° | 42km/h | 15018m | -10.5m/s | -52.4°C | 1.3% | 0hPa | 2.6V | 08:14:00 | 00:00:00 | 00:00:00 | |
| PETON7-10 | 2026-09-03 00:50:54 | 49.20161 | 17.82948 | 94° | 46km/h | 15070m | -8.0m/s | -52.5°C | 3.7% | 0hPa | 2.6V | 00:00:00 | 02:05:22 | 00:00:00 | |
| OM5KV | 2026-09-03 00:50:53 | 49.20161 | 17.82948 | 94° | 44km/h | 15070m | -8.0m/s | -52.5°C | 1.3% | 0hPa | 2.6V | 08:14:00 | 00:00:00 | 00:00:00 | |
| OM5KV | 2026-09-03 00:50:50 | 49.20163 | 17.82897 | 95° | 44km/h | 15102m | -13.9m/s | -52.5°C | 1.2% | 0hPa | 2.6V | 08:14:00 | 00:00:00 | 00:00:00 | |
| GYPAP8-17 | 2026-09-03 00:50:49 | 49.20164 | 17.82880 | 95° | 44km/h | 15115m | -12.4m/s | -52.5°C | 0% | 0hPa | 2.6V | 00:00:00 | 00:00:00 | 00:00:00 | |
| OM5KV | 2026-09-03 00:50:48 | 49.20165 | 17.82863 | 96° | 46km/h | 15126m | -10.5m/s | -52.6°C | 1.2% | 0hPa | 2.6V | 08:14:00 | 00:00:00 | 00:00:00 | |
| OE5DRO-10 | 2026-09-03 00:50:46 | 49.20168 | 17.82809 | 96° | 55km/h | 15155m | -7.8m/s | -52.5°C | 3.7% | 0hPa | 2.6V | 00:00:00 | 00:00:00 | 00:00:00 | |
| OM5KV | 2026-09-03 00:50:44 | 49.20169 | 17.82790 | 98° | 49km/h | 15163m | -9.5m/s | -52.6°C | 1.2% | 0hPa | 2.6V | 08:14:00 | 00:00:00 | 00:00:00 | |
| OE3JTB-15 | 2026-09-03 00:50:43 | 49.20178 | 17.82717 | 104° | 49km/h | 15196m | -8.3m/s | -52.8°C | 3.9% | 0hPa | 2.6V | 00:00:00 | 00:00:00 | 00:00:00 | |
| PETON7-10 | 2026-09-03 00:50:39 | 49.20184 | 17.82682 | 107° | 58km/h | 15213m | -9.2m/s | -52.9°C | 3.9% | 0hPa | 2.6V | 00:00:00 | 00:00:00 | 00:00:00 | |
| OE5DXL-15 | 2026-09-03 00:50:37 | 49.20191 | 17.82646 | 106° | 57km/h | 15230m | -8.8m/s | -53.1°C | 4.0% | 0hPa | 2.5V | 00:00:00 | 00:00:00 | 00:00:00 | |
| PG1ADW-2 | 2026-09-03 00:50:34 | 49.20201 | 17.82586 | 105° | 60km/h | 15259m | -11.4m/s | -53.2°C | 4.0% | 0hPa | 2.5V | 00:00:00 | 00:00:00 | 00:00:00 | |
| S52SK | 2026-09-03 00:50:33 | 49.20201 | 17.82586 | 105° | 58km/h | 15259m | -11.5m/s | -53.3°C | 1.3% | 0hPa | 2.5V | 08:14:00 | 00:00:00 | 00:00:00 | |
| OM5KV | 2026-09-03 00:50:29 | 49.20225 | 17.82470 | 112° | 66km/h | 15307m | -8.0m/s | -53.2°C | 1.3% | 0hPa | 2.5V | 08:14:00 | 00:00:00 | 00:00:00 | |
| OE5DRO-10 | 2026-09-03 00:50:27 | 49.20238 | 17.82423 | 115° | 55km/h | 15322m | -8.3m/s | -53.0°C | 4.0% | 0hPa | 2.5V | 00:00:00 | 00:00:00 | 00:00:00 | |
| PETON7-10 | 2026-09-03 00:50:24 | 49.20258 | 17.82358 | 117° | 53km/h | 15353m | -10.5m/s | -52.6°C | 3.9% | 0hPa | 2.5V | 00:00:00 | 00:00:00 | 00:00:00 | |
| OM5KV | 2026-09-03 00:50:20 | 49.20277 | 17.82295 | 115° | 58km/h | 15382m | -7.2m/s | -52.4°C | 1.2% | 0hPa | 2.5V | 08:14:00 | 00:00:00 | 00:00:00 | |
| POL1PZ | 2026-09-03 00:50:16 | 49.20298 | 17.82214 | 113° | 53km/h | 15416m | -11.4m/s | -51.6°C | 1.1% | 0hPa | 2.5V | 08:14:00 | 00:00:00 | 00:00:00 | |
| PG1ADW-2 | 2026-09-03 00:50:14 | 49.20314 | 17.82162 | 118° | 47km/h | 15451m | -10.4m/s | -51.6°C | 3.5% | 0hPa | 2.5V | 00:00:00 | 02:04:42 | 00:00:00 | |
| DO3MHA-11 | 2026-09-03 00:50:10 | 49.20337 | 17.82097 | 116° | 47km/h | 15487m | -8.6m/s | -51.7°C | 3.6% | 0hPa | 2.5V | 00:00:00 | 02:04:38 | 00:00:00 | |
| PETON7-10 | 2026-09-03 00:50:09 | 49.20342 | 17.82080 | 115° | 47km/h | 15496m | -9.0m/s | -51.7°C | 3.6% | 0hPa | 2.5V | 00:00:00 | 02:04:37 | 00:00:00 | |
| OE5DRO-10 | 2026-09-03 00:50:08 | 49.20347 | 17.82064 | 114° | 47km/h | 15504m | -6.6m/s | -51.8°C | 3.6% | 0hPa | 2.5V | 08:14:00 | 00:00:00 | 00:00:00 | |
| OE5DXL-15 | 2026-09-03 00:50:07 | 49.20351 | 17.82047 | 115° | 51km/h | 15511m | -6.4m/s | -51.8°C | 3.6% | 0hPa | 2.6V | 00:00:00 | 00:00:00 | 00:00:00 | |
| SP3WXH-11 | 2026-09-03 00:50:05 | 49.20375 | 17.81962 | 109° | 47km/h | 15563m | -10.1m/s | -51.5°C | 1.0% | -1.0hPa | 2.6V | 00:00:00 | 00:00:00 | 00:00:00 | |
| OM5KV | 2026-09-03 00:50:01 | 49.20375 | 17.81962 | 110° | 47km/h | 15564m | -10.1m/s | -51.5°C | 1.1% | 0hPa | 2.6V | 08:14:00 | 00:00:00 | 00:00:00 | |
| OE3JTB-15 | 2026-09-03 00:50:00 | 49.20388 | 17.81891 | 103° | 51km/h | 15612m | -11.7m/s | -51.7°C | 3.5% | 0hPa | 2.6V | 00:00:00 | 00:00:00 | 00:00:00 | |
| OM5KV | 2026-09-03 00:49:57 | 49.20388 | 17.81891 | 104° | 47km/h | 15612m | -11.8m/s | -51.7°C | 1.2% | 0hPa | 2.6V | 08:14:00 | 00:00:00 | 00:00:00 | |
| DO3MHA-11 | 2026-09-03 00:49:56 | 49.20392 | 17.81855 | 100° | 49km/h | 15634m | -10.7m/s | -51.8°C | 3.6% | 0hPa | 2.6V | 00:00:00 | 02:04:24 | 00:00:00 | |
| PETON7-10 | 2026-09-03 00:49:55 | 49.20397 | 17.81818 | 100° | 51km/h | 15655m | -13.2m/s | -52.0°C | 3.6% | 0hPa | 2.6V | 08:14:00 | 00:00:00 | 00:00:00 | |
| PG1ADW-2 | 2026-09-03 00:49:54 | 49.20397 | 17.81818 | 100° | 53km/h | 15655m | -13.2m/s | -52.0°C | 3.6% | 0hPa | 2.6V | 00:00:00 | 00:00:00 | 00:00:00 | |
| OM5KV | 2026-09-03 00:49:52 | 49.20399 | 17.81800 | 101° | 49km/h | 15667m | -10.5m/s | -52.1°C | 1.2% | 0hPa | 2.5V | 08:14:00 | 00:00:00 | 00:00:00 | |
| HA6NAB-11 | 2026-09-03 00:49:51 | 49.20401 | 17.81781 | 100° | 49km/h | 15677m | -9.7m/s | -52.1°C | 1.2% | 0hPa | 2.5V | 08:14:00 | 00:00:00 | 00:00:00 | |
| OE5DRO-10 | 2026-09-03 00:49:49 | 49.20405 | 17.81725 | 92° | 53km/h | 15712m | -14.1m/s | -52.2°C | 3.6% | 0hPa | 2.5V | 00:00:00 | 00:00:00 | 00:00:00 | |
| OM5KV | 2026-09-03 00:49:46 | 49.20404 | 17.81688 | 86° | 51km/h | 15741m | -14.3m/s | -52.5°C | 1.2% | 0hPa | 2.5V | 08:14:00 | 00:00:00 | 00:00:00 | |
| DO3MHA-11 | 2026-09-03 00:49:45 | 49.20401 | 17.81648 | 82° | 55km/h | 15766m | -10.9m/s | -52.6°C | 3.8% | 0hPa | 2.5V | 00:00:00 | 02:04:13 | 00:00:00 | |
| HA6NAB-11 | 2026-09-03 00:49:40 | 49.20395 | 17.81563 | 89° | 58km/h | 15812m | -14.2m/s | -52.9°C | 1.2% | 0hPa | 2.5V | 08:14:00 | 00:00:00 | 00:00:00 | |
| PETON7-10 | 2026-09-03 00:49:39 | 49.20395 | 17.81519 | 91° | 53km/h | 15838m | -10.5m/s | -52.7°C | 3.8% | 0hPa | 2.5V | 00:00:00 | 00:00:00 | 00:00:00 | |
| OM5KV | 2026-09-03 00:49:38 | 49.20395 | 17.81497 | 94° | 57km/h | 15847m | -8.5m/s | -52.8°C | 1.2% | 0hPa | 2.5V | 08:14:00 | 00:00:00 | 00:00:00 | |
| OE5DXL-15 | 2026-09-03 00:49:37 | 49.20396 | 17.81476 | 95° | 55km/h | 15857m | -10.8m/s | -52.7°C | 3.8% | 0hPa | 2.5V | 00:00:00 | 00:00:00 | 00:00:00 | |
| DO3MHA-11 | 2026-09-03 00:49:35 | 49.20398 | 17.81435 | 95° | 51km/h | 15878m | -10.2m/s | -52.9°C | 3.8% | 0hPa | 2.5V | 00:00:00 | 02:04:03 | 00:00:00 | |
| PG1ADW-2 | 2026-09-03 00:49:34 | 49.20399 | 17.81415 | 93° | 53km/h | 15889m | -11.6m/s | -52.8°C | 3.8% | 0hPa | 2.5V | 00:00:00 | 00:00:00 | 00:00:00 | |
| OE3JTB-15 | 2026-09-03 00:49:31 | 49.20399 | 17.81318 | 90° | 58km/h | 15948m | -10.1m/s | -52.7°C | 3.7% | 0hPa | 2.5V | 00:00:00 | 02:03:57 | 00:00:00 | |
| DO3MHA-11 | 2026-09-03 00:49:25 | 49.20399 | 17.81238 | 90° | 53km/h | 15992m | -12.8m/s | -52.9°C | 3.7% | 0hPa | 2.5V | 00:00:00 | 02:03:53 | 00:00:00 | |
| PETON7-10 | 2026-09-03 00:49:24 | 49.20399 | 17.81216 | 91° | 57km/h | 16004m | -10.4m/s | -53.0°C | 3.7% | 0hPa | 2.5V | 00:00:00 | 02:03:52 | 00:00:00 | |
| HA6NAB-11 | 2026-09-03 00:49:23 | 49.20399 | 17.81216 | 91° | 58km/h | 16004m | -10.5m/s | -53.0°C | 1.1% | 0hPa | 2.5V | 00:00:00 | 00:00:00 | 00:00:00 | |
| OM5KV | 2026-09-03 00:49:19 | 49.20400 | 17.81126 | 92° | 57km/h | 16045m | -11.2m/s | -53.1°C | 1.2% | 0hPa | 2.5V | 08:15:00 | 00:00:00 | 00:00:00 | |
| PG1ADW-2 | 2026-09-03 00:49:14 | 49.20400 | 17.80999 | 90° | 64km/h | 16114m | -15.9m/s | -53.7°C | 3.8% | 0hPa | 2.5V | 00:00:00 | 00:00:00 | 00:00:00 | |
| OM5KV | 2026-09-03 00:49:13 | 49.20400 | 17.80999 | 91° | 57km/h | 16114m | -16.0m/s | -53.7°C | 1.2% | 0hPa | 2.5V | 08:15:00 | 00:00:00 | 00:00:00 | |
| OM5KV | 2026-09-03 00:49:12 | 49.20400 | 17.80977 | 91° | 57km/h | 16129m | -15.0m/s | -53.8°C | 1.3% | 0hPa | 2.5V | 08:15:00 | 00:00:00 | 00:00:00 | |
| OE5DRO-10 | 2026-09-03 00:49:11 | 49.20401 | 17.80932 | 92° | 66km/h | 16157m | -11.5m/s | -54.0°C | 4.0% | 0hPa | 2.5V | 00:00:00 | 00:00:00 | 00:00:00 | |
| PETON7-10 | 2026-09-03 00:49:09 | 49.20402 | 17.80885 | 93° | 66km/h | 16177m | -12.2m/s | -54.1°C | 4.0% | 0hPa | 2.5V | 00:00:00 | 00:00:00 | 00:00:00 | |
| OM5KV | 2026-09-03 00:49:07 | 49.20403 | 17.80862 | 95° | 62km/h | 16190m | -12.3m/s | -54.3°C | 1.3% | 0hPa | 2.6V | 08:15:00 | 00:00:00 | 00:00:00 | |
| OE3OSB-13 | 2026-09-03 00:49:06 | 49.20406 | 17.80814 | 96° | 62km/h | 16210m | -10.5m/s | -54.4°C | 1.2% | -1.0hPa | 2.6V | 00:00:00 | 00:00:00 | 00:00:00 | |
| SP3WXH-11 | 2026-09-03 00:49:03 | 49.20414 | 17.80741 | 100° | 64km/h | 16242m | -11.8m/s | -54.5°C | 1.2% | -1.0hPa | 2.6V | 00:00:00 | 00:00:00 | 00:00:00 | |
| OM5KV | 2026-09-03 00:49:02 | 49.20414 | 17.80741 | 102° | 66km/h | 16242m | -11.8m/s | -54.5°C | 1.3% | 0hPa | 2.6V | 08:15:00 | 00:00:00 | 00:00:00 | |
| OM5KV | 2026-09-03 00:49:01 | 49.20420 | 17.80690 | 103° | 68km/h | 16264m | -11.6m/s | -54.6°C | 1.3% | 0hPa | 2.6V | 08:15:00 | 00:00:00 | 00:00:00 | |
| OM5KV | 2026-09-03 00:48:56 | 49.20441 | 17.80563 | 107° | 68km/h | 16325m | -13.6m/s | -54.4°C | 1.3% | 0hPa | 2.6V | 08:15:00 | 00:00:00 | 00:00:00 | |
| PETON7-10 | 2026-09-03 00:48:54 | 49.20451 | 17.80514 | 107° | 58km/h | 16349m | -10.0m/s | -54.4°C | 4.1% | 0hPa | 2.6V | 00:00:00 | 00:00:00 | 00:00:00 | |
| OE5DRO-10 | 2026-09-03 00:48:52 | 49.20460 | 17.80465 | 110° | 57km/h | 16369m | -13.1m/s | -54.5°C | 4.1% | 0hPa | 2.6V | 00:00:00 | 00:00:00 | 00:00:00 | |
| OM5KV | 2026-09-03 00:48:48 | 49.20478 | 17.80398 | 115° | 60km/h | 16406m | -11.2m/s | -54.6°C | 1.3% | 0hPa | 2.6V | 08:15:00 | 00:00:00 | 00:00:00 | |
| OM5KV | 2026-09-03 00:48:43 | 49.20513 | 17.80284 | 113° | 49km/h | 16468m | -7.8m/s | -54.4°C | 1.3% | 0hPa | 2.6V | 08:16:00 | 00:00:00 | 00:00:00 | |
| OM5KV | 2026-09-03 00:48:42 | 49.20513 | 17.80284 | 113° | 49km/h | 16468m | -7.8m/s | -54.4°C | 1.3% | 0hPa | 2.6V | 08:16:00 | 00:00:00 | 00:00:00 | |
| S52SK | 2026-09-03 00:48:39 | 49.20528 | 17.80205 | 105° | 57km/h | 16517m | -12.8m/s | -54.3°C | 1.3% | 0hPa | 2.6V | 00:00:00 | 00:00:00 | 00:00:00 | |
| GYPAP8-17 | 2026-09-03 00:48:38 | 49.20528 | 17.80205 | 105° | 57km/h | 16517m | -12.8m/s | -54.3°C | 0% | 0hPa | 2.6V | 00:00:00 | 00:00:00 | 00:00:00 | |
| OE5DXL-15 | 2026-09-03 00:48:37 | 49.20535 | 17.80163 | 107° | 55km/h | 16544m | -12.9m/s | -54.3°C | 4.2% | 0hPa | 2.6V | 00:00:00 | 00:00:00 | 00:00:00 | |
| OE3OSB-13 | 2026-09-03 00:48:35 | 49.20551 | 17.80099 | 113° | 60km/h | 16584m | -13.1m/s | -54.1°C | 1.1% | -1.0hPa | 2.6V | 00:00:00 | 00:00:00 | 00:00:00 | |
| PG1ADW-2 | 2026-09-03 00:48:34 | 49.20551 | 17.80099 | 114° | 55km/h | 16584m | -13.0m/s | -54.1°C | 4.2% | 0hPa | 2.6V | 00:00:00 | 00:00:00 | 00:00:00 | |
| OE5DRO-10 | 2026-09-03 00:48:33 | 49.20557 | 17.80077 | 117° | 55km/h | 16597m | -11.9m/s | -54.0°C | 4.1% | 0hPa | 2.6V | 00:00:00 | 00:00:00 | 00:00:00 | |
| OM5KV | 2026-09-03 00:48:31 | 49.20564 | 17.80056 | 120° | 60km/h | 16609m | -11.6m/s | -54.0°C | 1.3% | 0hPa | 2.6V | 08:16:00 | 00:00:00 | 00:00:00 | |
| OM5KV | 2026-09-03 00:48:30 | 49.20572 | 17.80036 | 122° | 60km/h | 16620m | -10.8m/s | -53.9°C | 1.3% | 0hPa | 2.6V | 08:16:00 | 00:00:00 | 00:00:00 | |
| S52SK | 2026-09-03 00:48:27 | 49.20595 | 17.79981 | 125° | 55km/h | 16654m | -11.7m/s | -53.9°C | 1.1% | 0hPa | 2.6V | 00:00:00 | 00:00:00 | 00:00:00 | |
| PETON7-10 | 2026-09-03 00:48:24 | 49.20623 | 17.79913 | 118° | 53km/h | 16702m | -14.5m/s | -53.6°C | 3.9% | 0hPa | 2.6V | 00:00:00 | 00:00:00 | 00:00:00 | |
| OE3JTB-15 | 2026-09-03 00:48:21 | 49.20659 | 17.79797 | 119° | 49km/h | 16765m | -8.2m/s | -53.8°C | 4.1% | 0hPa | 2.5V | 00:00:00 | 00:00:00 | 00:00:00 | |
| OE5MMP-10 | 2026-09-03 00:48:14 | 49.20687 | 17.79729 | 127° | 40km/h | 16801m | -7.7m/s | -53.8°C | 4.2% | 0hPa | 2.5V | 00:00:00 | 02:02:42 | 00:00:00 | |
| POL1PZ | 2026-09-03 00:48:12 | 49.20695 | 17.79714 | 127° | 47km/h | 16810m | -8.6m/s | -53.8°C | 1.2% | 0hPa | 2.5V | 08:16:00 | 00:00:00 | 00:00:00 | |
| OM5KV | 2026-09-03 00:48:11 | 49.20701 | 17.79699 | 126° | 47km/h | 16820m | -11.6m/s | -53.8°C | 1.2% | 0hPa | 2.5V | 08:16:00 | 00:00:00 | 00:00:00 | |
| PETON7-10 | 2026-09-03 00:48:09 | 49.20721 | 17.79652 | 119° | 49km/h | 16860m | -12.6m/s | -53.1°C | 3.8% | 0hPa | 2.5V | 00:00:00 | 00:00:00 | 00:00:00 | |
| OE5DXL-15 | 2026-09-03 00:48:07 | 49.20731 | 17.79618 | 113° | 44km/h | 16886m | -12.7m/s | -53.0°C | 3.7% | 0hPa | 2.5V | 00:00:00 | 00:00:00 | 00:00:00 | |
| OM5KV | 2026-09-03 00:48:05 | 49.20736 | 17.79600 | 112° | 49km/h | 16901m | -16.1m/s | -52.9°C | 1.1% | 0hPa | 2.5V | 08:16:00 | 00:00:00 | 00:00:00 | |
| OE3OSB-13 | 2026-09-03 00:48:04 | 49.20749 | 17.79546 | 109° | 47km/h | 16945m | -12.9m/s | -53.1°C | 1.0% | -1.0hPa | 2.5V | 00:00:00 | 00:00:00 | 00:00:00 | |
| SP3WXH-11 | 2026-09-03 00:48:01 | 49.20762 | 17.79495 | 113° | 47km/h | 16979m | -7.7m/s | -53.3°C | 1.0% | -1.0hPa | 2.5V | 00:00:00 | 00:00:00 | 00:00:00 | |
| OM5KV | 2026-09-03 00:48:00 | 49.20757 | 17.79512 | 114° | 47km/h | 16970m | -11.2m/s | -53.3°C | 1.1% | 0hPa | 2.5V | 08:16:00 | 00:00:00 | 00:00:00 | |
| DO3MHA-11 | 2026-09-03 00:47:58 | 49.20772 | 17.79461 | 116° | 42km/h | 16994m | -7.8m/s | -53.3°C | 4.0% | 0hPa | 2.5V | 00:00:00 | 02:02:26 | 00:00:00 | |
| OM5KV | 2026-09-03 00:47:57 | 49.20778 | 17.79444 | 118° | 47km/h | 17002m | -9.5m/s | -53.3°C | 1.2% | 0hPa | 2.5V | 08:16:00 | 00:00:00 | 00:00:00 | |
| OE5DRO-10 | 2026-09-03 00:47:55 | 49.20789 | 17.79412 | 119° | 38km/h | 17023m | -9.8m/s | -52.9°C | 3.8% | 0hPa | 2.5V | 00:00:00 | 00:00:00 | 00:00:00 | |
| PG1ADW-2 | 2026-09-03 00:47:54 | 49.20795 | 17.79396 | 121° | 38km/h | 17034m | -11.5m/s | -52.8°C | 3.7% | 0hPa | 2.5V | 00:00:00 | 00:00:00 | 00:00:00 | |
| OM5KV | 2026-09-03 00:47:53 | 49.20795 | 17.79396 | 121° | 47km/h | 17034m | -11.6m/s | -52.8°C | 1.1% | 0hPa | 2.6V | 08:17:00 | 00:00:00 | 00:00:00 | |
| POL1PZ | 2026-09-03 00:47:52 | 49.20801 | 17.79380 | 121° | 47km/h | 17045m | -10.1m/s | -52.8°C | 1.1% | 0hPa | 2.6V | 08:17:00 | 00:00:00 | 00:00:00 | |
| OM5KV | 2026-09-03 00:47:50 | 49.20812 | 17.79350 | 123° | 44km/h | 17067m | -9.7m/s | -52.9°C | 1.1% | 0hPa | 2.6V | 08:17:00 | 00:00:00 | 00:00:00 | |
| HA6NAB-11 | 2026-09-03 00:47:47 | 49.20829 | 17.79306 | 119° | 44km/h | 17094m | -7.5m/s | -53.2°C | 1.1% | 0hPa | 2.6V | 00:00:00 | 00:00:00 | 00:00:00 | |
| OM5KV | 2026-09-03 00:47:42 | 49.20849 | 17.79238 | 110° | 33km/h | 17141m | -9.7m/s | -53.1°C | 1.1% | 0hPa | 2.6V | 08:17:00 | 00:00:00 | 00:00:00 | |
| HA6NAB-11 | 2026-09-03 00:47:41 | 49.20852 | 17.79227 | 106° | 31km/h | 17150m | -9.0m/s | -52.9°C | 1.1% | 0hPa | 2.6V | 00:00:00 | 00:00:00 | 00:00:00 | |
| DO3MHA-11 | 2026-09-03 00:47:39 | 49.20856 | 17.79192 | 98° | 40km/h | 17175m | -8.5m/s | -52.5°C | 3.8% | 0hPa | 2.6V | 00:00:00 | 02:02:07 | 00:00:00 | |
| OE5DXL-15 | 2026-09-03 00:47:37 | 49.20859 | 17.79167 | 100° | 42km/h | 17190m | -6.3m/s | -52.6°C | 3.8% | 0hPa | 2.6V | 08:16:00 | 00:00:00 | 00:00:00 | |
| HA6NAB-11 | 2026-09-03 00:47:36 | 49.20861 | 17.79154 | 105° | 37km/h | 17198m | -9.6m/s | -52.6°C | 1.1% | 0hPa | 2.6V | 00:00:00 | 00:00:00 | 00:00:00 | |
| PG1ADW-2 | 2026-09-03 00:47:34 | 49.20866 | 17.79125 | 110° | 42km/h | 17220m | -12.0m/s | -52.5°C | 3.8% | 0hPa | 2.6V | 00:00:00 | 02:02:02 | 00:00:00 | |
| OE5MMP-10 | 2026-09-03 00:47:33 | 49.20870 | 17.79110 | 110° | 42km/h | 17232m | -12.3m/s | -52.5°C | 3.9% | 0hPa | 2.6V | 00:00:00 | 02:02:01 | 00:00:00 | |
| POL1PZ | 2026-09-03 00:47:32 | 49.20870 | 17.79110 | 111° | 42km/h | 17232m | -12.4m/s | -52.5°C | 1.1% | 0hPa | 2.6V | 08:17:00 | 00:00:00 | 00:00:00 | |
| HA6NAB-11 | 2026-09-03 00:47:31 | 49.20877 | 17.79079 | 110° | 44km/h | 17252m | -9.0m/s | -52.6°C | 1.1% | 0hPa | 2.6V | 00:00:00 | 00:00:00 | 00:00:00 | |
| SP3WXH-11 | 2026-09-03 00:47:30 | 49.20884 | 17.79047 | 108° | 42km/h | 17268m | -9.3m/s | -52.6°C | 0.9% | -1.0hPa | 2.6V | 00:00:00 | 00:00:00 | 00:00:00 | |
| DO3MHA-11 | 2026-09-03 00:47:27 | 49.20891 | 17.79017 | 111° | 40km/h | 17298m | -16.4m/s | -52.5°C | 3.7% | 0hPa | 2.6V | 08:17:00 | 02:01:55 | 00:00:00 | |
| OM5KV | 2026-09-03 00:47:25 | 49.20898 | 17.78988 | 114° | 38km/h | 17332m | -18.4m/s | -52.7°C | 1.1% | 0hPa | 2.5V | 08:17:00 | 00:00:00 | 00:00:00 | |
| PETON7-10 | 2026-09-03 00:47:24 | 49.20902 | 17.78975 | 115° | 44km/h | 17350m | -16.2m/s | -52.5°C | 3.7% | 0hPa | 2.5V | 00:00:00 | 00:00:00 | 00:00:00 | |
| OM5KV | 2026-09-03 00:47:22 | 49.20910 | 17.78948 | 115° | 40km/h | 17379m | -14.1m/s | -52.5°C | 1.1% | 0hPa | 2.5V | 08:17:00 | 00:00:00 | 00:00:00 | |
| HA6NAB-11 | 2026-09-03 00:47:20 | 49.20918 | 17.78919 | 109° | 42km/h | 17406m | -11.5m/s | -52.1°C | 1.0% | 0hPa | 2.5V | 00:00:00 | 00:00:00 | 00:00:00 | |
| OE5MMP-10 | 2026-09-03 00:47:17 | 49.20926 | 17.78868 | 101° | 35km/h | 17433m | -6.5m/s | -52.1°C | 3.6% | 0hPa | 2.5V | 00:00:00 | 02:01:45 | 00:00:00 | |
| OM5KV | 2026-09-03 00:47:16 | 49.20926 | 17.78868 | 101° | 47km/h | 17433m | -6.6m/s | -52.1°C | 1.0% | 0hPa | 2.5V | 08:17:00 | 00:00:00 | 00:00:00 | |
| HA6NAB-11 | 2026-09-03 00:47:14 | 49.20931 | 17.78812 | 98° | 47km/h | 17467m | -13.3m/s | -52.3°C | 1.0% | 0hPa | 2.5V | 00:00:00 | 00:00:00 | 00:00:00 | |
| POL1PZ | 2026-09-03 00:47:12 | 49.20932 | 17.78795 | 99° | 46km/h | 17478m | -10.5m/s | -52.3°C | 1.1% | 0hPa | 2.5V | 08:17:00 | 00:00:00 | 00:00:00 | |
| PETON7-10 | 2026-09-03 00:47:09 | 49.20941 | 17.78732 | 110° | 35km/h | 17513m | -12.3m/s | -52.4°C | 3.7% | 0hPa | 2.5V | 00:00:00 | 02:01:37 | 00:00:00 | |
| HA6NAB-11 | 2026-09-03 00:47:08 | 49.20944 | 17.78718 | 111° | 38km/h | 17524m | -8.1m/s | -52.4°C | 1.0% | 0hPa | 2.5V | 00:00:00 | 00:00:00 | 00:00:00 | |
| DO3MHA-11 | 2026-09-03 00:47:07 | 49.20947 | 17.78704 | 112° | 35km/h | 17531m | -8.3m/s | -52.3°C | 3.6% | 0hPa | 2.5V | 00:00:00 | 02:01:35 | 00:00:00 | |
| OM5KV | 2026-09-03 00:47:05 | 49.20951 | 17.78691 | 111° | 37km/h | 17541m | -9.4m/s | -52.2°C | 1.1% | 0hPa | 2.5V | 08:17:00 | 00:00:00 | 00:00:00 | |
| OM5KV | 2026-09-03 00:47:04 | 49.20954 | 17.78678 | 111° | 37km/h | 17548m | -5.5m/s | -52.2°C | 1.0% | 0hPa | 2.5V | 08:17:00 | 00:00:00 | 00:00:00 | |
| OE3OSB-13 | 2026-09-03 00:47:02 | 49.20962 | 17.78628 | 99° | 33km/h | 17587m | -7.6m/s | -52.3°C | 0.9% | -1.0hPa | 2.5V | 00:00:00 | 00:00:00 | 00:00:00 | |
| SP3WXH-11 | 2026-09-03 00:46:59 | 49.20966 | 17.78589 | 103° | 35km/h | 17612m | -10.9m/s | -52.3°C | 0.9% | -1.0hPa | 2.5V | 00:00:00 | 00:00:00 | 00:00:00 | |
| OE5DRO-10 | 2026-09-03 00:46:58 | 49.20966 | 17.78589 | 104° | 29km/h | 17612m | -10.9m/s | -52.2°C | 3.6% | 0hPa | 2.5V | 00:00:00 | 00:00:00 | 00:00:00 | |
| DO3MHA-11 | 2026-09-03 00:46:57 | 49.20969 | 17.78575 | 105° | 33km/h | 17624m | -12.1m/s | -52.2°C | 3.6% | 0hPa | 2.5V | 00:00:00 | 02:01:25 | 00:00:00 | |
| HA6NAB-11 | 2026-09-03 00:46:55 | 49.20971 | 17.78562 | 108° | 37km/h | 17636m | -12.2m/s | -52.3°C | 1.0% | 0hPa | 2.6V | 00:00:00 | 00:00:00 | 00:00:00 | |
| PETON7-10 | 2026-09-03 00:46:54 | 49.20976 | 17.78535 | 107° | 27km/h | 17658m | -10.0m/s | -52.4°C | 3.7% | 0hPa | 2.6V | 00:00:00 | 00:00:00 | 00:00:00 | |
| OM5KV | 2026-09-03 00:46:53 | 49.20979 | 17.78522 | 110° | 37km/h | 17667m | -8.9m/s | -52.4°C | 1.1% | 0hPa | 2.6V | 08:18:00 | 00:00:00 | 00:00:00 | |
| POL1PZ | 2026-09-03 00:46:52 | 49.20982 | 17.78509 | 110° | 35km/h | 17677m | -10.5m/s | -52.5°C | 1.1% | 0hPa | 2.6V | 08:18:00 | 00:00:00 | 00:00:00 | |
| OM5KV | 2026-09-03 00:46:47 | 49.20990 | 17.78461 | 98° | 29km/h | 17722m | -12.6m/s | -52.3°C | 1.0% | 0hPa | 2.6V | 08:18:00 | 00:00:00 | 00:00:00 | |
| DO3MHA-11 | 2026-09-03 00:46:46 | 49.20990 | 17.78441 | 87° | 22km/h | 17752m | -13.7m/s | -52.3°C | 3.6% | 0hPa | 2.6V | 00:00:00 | 02:01:14 | 00:00:00 | |
| OM5KV | 2026-09-03 00:46:45 | 49.20991 | 17.78441 | 87° | 24km/h | 17752m | -13.7m/s | -52.4°C | 1.0% | 0hPa | 2.6V | 08:18:00 | 00:00:00 | 00:00:00 | |
| PETON7-10 | 2026-09-03 00:46:39 | 49.20987 | 17.78381 | 86° | 24km/h | 17848m | -12.1m/s | -52.9°C | 3.7% | 0hPa | 2.6V | 00:00:00 | 00:00:00 | 00:00:00 | |
| OE5DXL-15 | 2026-09-03 00:46:37 | 49.20986 | 17.78366 | 83° | 27km/h | 17870m | -9.9m/s | -53.0°C | 3.7% | 0hPa | 2.6V | 00:00:00 | 02:01:05 | 00:00:00 | |
| DO3MHA-11 | 2026-09-03 00:46:36 | 49.20985 | 17.78358 | 84° | 24km/h | 17880m | -10.2m/s | -53.0°C | 3.7% | 0hPa | 2.6V | 00:00:00 | 02:01:04 | 00:00:00 | |
| OE5MMP-10 | 2026-09-03 00:46:35 | 49.20985 | 17.78351 | 84° | 26km/h | 17889m | -7.8m/s | -52.9°C | 3.7% | 0hPa | 2.6V | 00:00:00 | 02:01:03 | 00:00:00 | |
| PG1ADW-2 | 2026-09-03 00:46:34 | 49.20984 | 17.78345 | 88° | 26km/h | 17898m | -10.7m/s | -52.7°C | 3.6% | 0hPa | 2.5V | 00:00:00 | 00:00:00 | 00:00:00 | |
| OM5KV | 2026-09-03 00:46:31 | 49.20984 | 17.78321 | 90° | 24km/h | 17930m | -10.0m/s | -52.8°C | 1.1% | 0hPa | 2.5V | 08:18:00 | 00:00:00 | 00:00:00 | |
| SP3WXH-11 | 2026-09-03 00:46:28 | 49.20983 | 17.78279 | 83° | 29km/h | 17962m | -9.0m/s | -53.0°C | 0.9% | -1.0hPa | 2.5V | 00:00:00 | 00:00:00 | 00:00:00 | |
| OM5KV | 2026-09-03 00:46:27 | 49.20983 | 17.78279 | 84° | 29km/h | 17962m | -9.0m/s | -53.0°C | 1.0% | 0hPa | 2.5V | 08:18:00 | 00:00:00 | 00:00:00 | |
| DO3MHA-11 | 2026-09-03 00:46:26 | 49.20982 | 17.78268 | 80° | 27km/h | 17972m | -10.0m/s | -53.0°C | 3.7% | 0hPa | 2.5V | 00:00:00 | 02:00:54 | 00:00:00 | |
| OE5MMP-10 | 2026-09-03 00:46:25 | 49.20980 | 17.78256 | 76° | 27km/h | 17981m | -8.9m/s | -53.1°C | 3.7% | 0hPa | 2.5V | 00:00:00 | 02:00:53 | 00:00:00 | |
| PETON7-10 | 2026-09-03 00:46:24 | 49.20979 | 17.78246 | 74° | 29km/h | 17991m | -9.5m/s | -53.2°C | 3.8% | 0hPa | 2.5V | 00:00:00 | 02:00:52 | 00:00:00 | |
| OE5DRO-10 | 2026-09-03 00:46:20 | 49.20972 | 17.78208 | 75° | 31km/h | 18028m | -10.7m/s | -53.4°C | 3.8% | 0hPa | 2.5V | 00:00:00 | 00:00:00 | 00:00:00 | |
| DO3MHA-11 | 2026-09-03 00:46:16 | 49.20965 | 17.78169 | 75° | 33km/h | 18068m | -11.2m/s | -53.7°C | 3.8% | 0hPa | 2.6V | 00:00:00 | 02:00:44 | 00:00:00 | |
| OE5MMP-10 | 2026-09-03 00:46:15 | 49.20963 | 17.78157 | 77° | 33km/h | 18078m | -8.3m/s | -53.8°C | 3.9% | 0hPa | 2.6V | 00:00:00 | 02:00:43 | 00:00:00 | |
| PG1ADW-2 | 2026-09-03 00:46:14 | 49.20961 | 17.78145 | 78° | 35km/h | 18087m | -8.6m/s | -53.9°C | 3.9% | 0hPa | 2.6V | 00:00:00 | 02:00:42 | 00:00:00 | |
| S52SK | 2026-09-03 00:46:13 | 49.20961 | 17.78145 | 79° | 33km/h | 18087m | -8.6m/s | -53.9°C | 1.1% | 0hPa | 2.6V | 08:18:00 | 00:00:00 | 00:00:00 | |
| POL1PZ | 2026-09-03 00:46:11 | 49.20958 | 17.78120 | 82° | 33km/h | 18107m | -9.3m/s | -54.1°C | 1.1% | 0hPa | 2.6V | 08:19:00 | 00:00:00 | 00:00:00 | |
| OM5KV | 2026-09-03 00:46:10 | 49.20957 | 17.78107 | 84° | 33km/h | 18116m | -8.3m/s | -54.1°C | 1.1% | 0hPa | 2.6V | 08:19:00 | 00:00:00 | 00:00:00 | |
| PETON7-10 | 2026-09-03 00:46:09 | 49.20955 | 17.78081 | 87° | 35km/h | 18133m | -9.4m/s | -54.1°C | 4.0% | 0hPa | 2.6V | 00:00:00 | 00:00:00 | 00:00:00 | |
| GYPAP8-17 | 2026-09-03 00:46:08 | 49.20955 | 17.78068 | 89° | 33km/h | 18144m | -12.4m/s | 0°C | 0% | 0hPa | 2.5V | 00:00:00 | 00:00:00 | 00:00:00 | |
| OE5DXL-15 | 2026-09-03 00:46:07 | 49.20955 | 17.78056 | 90° | 33km/h | 18156m | -12.8m/s | -53.9°C | 3.9% | 0hPa | 2.5V | 00:00:00 | 00:00:00 | 00:00:00 | |
| OE5MMP-10 | 2026-09-03 00:46:05 | 49.20955 | 17.78030 | 96° | 37km/h | 18179m | -11.4m/s | -53.9°C | 3.8% | 0hPa | 2.5V | 08:18:00 | 02:00:33 | 00:00:00 | |
| OM5KV | 2026-09-03 00:46:03 | 49.20956 | 17.78019 | 100° | 31km/h | 18192m | -13.4m/s | -54.0°C | 1.1% | 0hPa | 2.5V | 08:19:00 | 00:00:00 | 00:00:00 | |
| OE3OSB-13 | 2026-09-03 00:46:00 | 49.20967 | 17.77954 | 107° | 37km/h | 18237m | -7.4m/s | -54.2°C | 1.0% | -1.0hPa | 2.5V | 00:00:00 | 00:00:00 | 00:00:00 | |
| SP3WXH-11 | 2026-09-03 00:45:57 | 49.20978 | 17.77911 | 111° | 40km/h | 18268m | -12.7m/s | -54.3°C | 1.0% | -1.0hPa | 2.5V | 00:00:00 | 00:00:00 | 00:00:00 | |
| OE5MMP-10 | 2026-09-03 00:45:55 | 49.20982 | 17.77896 | 113° | 29km/h | 18281m | -11.8m/s | -54.4°C | 4.0% | 0hPa | 2.5V | 00:00:00 | 02:00:23 | 00:00:00 | |
| PG1ADW-2 | 2026-09-03 00:45:54 | 49.20986 | 17.77882 | 115° | 31km/h | 18292m | -11.1m/s | -54.5°C | 4.0% | 0hPa | 2.5V | 08:18:00 | 00:00:00 | 00:00:00 | |
| POL1PZ | 2026-09-03 00:45:51 | 49.20997 | 17.77844 | 118° | 35km/h | 18324m | -11.2m/s | -54.6°C | 1.2% | 0hPa | 2.6V | 08:19:00 | 00:00:00 | 00:00:00 | |
| OE5DRO-10 | 2026-09-03 00:45:42 | 49.21021 | 17.77740 | 97° | 29km/h | 18412m | -9.2m/s | -54.5°C | 4.1% | 0hPa | 2.6V | 00:00:00 | 00:00:00 | 00:00:00 | |
| PETON7-10 | 2026-09-03 00:45:39 | 49.21022 | 17.77706 | 93° | 29km/h | 18438m | -9.4m/s | -54.6°C | 4.2% | 0hPa | 2.6V | 00:00:00 | 02:00:07 | 00:00:00 | |
| OE5DXL-15 | 2026-09-03 00:45:37 | 49.21024 | 17.77684 | 101° | 31km/h | 18458m | -10.2m/s | -54.6°C | 4.2% | 0hPa | 2.6V | 00:00:00 | 00:00:00 | 00:00:00 | |
| OM5KV | 2026-09-03 00:45:34 | 49.21030 | 17.77654 | 112° | 27km/h | 18486m | -8.1m/s | -54.5°C | 1.2% | 0hPa | 2.6V | 08:19:00 | 00:00:00 | 00:00:00 | |
| OE5MMP-10 | 2026-09-03 00:45:33 | 49.21032 | 17.77644 | 112° | 29km/h | 18494m | -8.7m/s | -54.4°C | 4.1% | 0hPa | 2.6V | 00:00:00 | 02:00:01 | 00:00:00 | |
| OM5KV | 2026-09-03 00:45:30 | 49.21037 | 17.77623 | 105° | 29km/h | 18514m | -11.6m/s | -54.5°C | 1.1% | 0hPa | 2.6V | 08:19:00 | 00:00:00 | 00:00:00 | |
| OE3OSB-13 | 2026-09-03 00:45:29 | 49.21040 | 17.77590 | 93° | 27km/h | 18549m | -12.5m/s | -54.3°C | 1.0% | -1.0hPa | 2.6V | 00:00:00 | 00:00:00 | 00:00:00 | |
| SP3WXH-11 | 2026-09-03 00:45:26 | 49.21041 | 17.77556 | 95° | 27km/h | 18582m | -9.9m/s | -54.1°C | 0.9% | -1.0hPa | 2.6V | 00:00:00 | 00:00:00 | 00:00:00 | |
| PETON7-10 | 2026-09-03 00:45:24 | 49.21042 | 17.77545 | 97° | 33km/h | 18593m | -10.6m/s | -53.9°C | 3.9% | 0hPa | 2.6V | 08:19:00 | 00:00:00 | 00:00:00 | |
| OE5MMP-10 | 2026-09-03 00:45:23 | 49.21043 | 17.77534 | 99° | 31km/h | 18603m | -8.9m/s | -54.0°C | 4.0% | 0hPa | 2.6V | 00:00:00 | 01:59:51 | 00:00:00 | |
| OM5KV | 2026-09-03 00:45:22 | 49.21044 | 17.77524 | 98° | 27km/h | 18611m | -8.3m/s | -54.0°C | 1.1% | 0hPa | 2.5V | 08:20:00 | 00:00:00 | 00:00:00 | |
| OM5KV | 2026-09-03 00:45:17 | 49.21041 | 17.77467 | 76° | 33km/h | 18652m | -11.8m/s | -54.1°C | 1.1% | 0hPa | 2.5V | 08:20:00 | 00:00:00 | 00:00:00 | |
| PG1ADW-2 | 2026-09-03 00:45:14 | 49.21034 | 17.77427 | 79° | 37km/h | 18682m | -10.6m/s | -54.2°C | 4.0% | 0hPa | 2.5V | 00:00:00 | 00:00:00 | 00:00:00 | |
| OE5MMP-10 | 2026-09-03 00:45:13 | 49.21032 | 17.77414 | 84° | 37km/h | 18694m | -14.1m/s | -54.2°C | 4.0% | 0hPa | 2.5V | 00:00:00 | 01:59:41 | 00:00:00 | |
| OM5KV | 2026-09-03 00:45:11 | 49.21032 | 17.77386 | 93° | 38km/h | 18727m | -16.4m/s | -54.4°C | 1.1% | 0hPa | 2.5V | 08:20:00 | 00:00:00 | 00:00:00 | |
| PETON7-10 | 2026-09-03 00:45:09 | 49.21033 | 17.77356 | 96° | 38km/h | 18756m | -12.3m/s | -54.1°C | 4.1% | 0hPa | 2.5V | 00:00:00 | 00:00:00 | 00:00:00 | |
| OE5DXL-15 | 2026-09-03 00:45:07 | 49.21036 | 17.77327 | 97° | 35km/h | 18781m | -11.7m/s | -54.1°C | 4.0% | 0hPa | 2.5V | 00:00:00 | 00:00:00 | 00:00:00 | |
| OE5DRO-10 | 2026-09-03 00:45:04 | 49.21039 | 17.77287 | 99° | 37km/h | 18816m | -12.3m/s | -53.9°C | 4.1% | 0hPa | 2.5V | 00:00:00 | 00:00:00 | 00:00:00 | |
| OM5KV | 2026-09-03 00:45:03 | 49.21039 | 17.77287 | 100° | 35km/h | 18816m | -12.3m/s | -54.0°C | 1.1% | 0hPa | 2.5V | 08:20:00 | 00:00:00 | 00:00:00 | |
| OE3OSB-13 | 2026-09-03 00:44:58 | 49.21064 | 17.77194 | 123° | 40km/h | 18888m | -11.7m/s | -53.8°C | 1.0% | -1.0hPa | 2.5V | 00:00:00 | 00:00:00 | 00:00:00 | |
| SP3WXH-11 | 2026-09-03 00:44:55 | 49.21080 | 17.77156 | 120° | 35km/h | 18922m | -11.6m/s | -53.7°C | 0.9% | -1.0hPa | 2.5V | 00:00:00 | 00:00:00 | 00:00:00 | |
| PG1ADW-2 | 2026-09-03 00:44:54 | 49.21080 | 17.77156 | 121° | 35km/h | 18922m | -11.5m/s | -53.7°C | 4.0% | 0hPa | 2.5V | 00:00:00 | 01:59:22 | 00:00:00 | |
| OE5MMP-10 | 2026-09-03 00:44:53 | 49.21085 | 17.77144 | 118° | 35km/h | 18935m | -12.9m/s | -53.7°C | 4.0% | 0hPa | 2.6V | 00:00:00 | 01:59:21 | 00:00:00 | |
| GYPAP8-17 | 2026-09-03 00:44:52 | 49.21084 | 17.77144 | 119° | 35km/h | 18935m | -13.0m/s | 0°C | 0% | 0hPa | 2.5V | 00:00:00 | 00:00:00 | 00:00:00 | |
| DO3MHA-11 | 2026-09-03 00:44:49 | 49.21099 | 17.77097 | 112° | 35km/h | 18977m | -9.4m/s | -53.2°C | 3.9% | 0hPa | 2.5V | 00:00:00 | 01:59:17 | 00:00:00 | |
| POL1PZ | 2026-09-03 00:44:48 | 49.21099 | 17.77097 | 113° | 33km/h | 18977m | -9.4m/s | -53.3°C | 1.0% | 0hPa | 2.5V | 08:20:00 | 00:00:00 | 00:00:00 | |
| OE5DRO-10 | 2026-09-03 00:44:45 | 49.21112 | 17.77049 | 116° | 37km/h | 19012m | -8.1m/s | -53.1°C | 3.8% | 0hPa | 2.5V | 00:00:00 | 00:00:00 | 00:00:00 | |
| OE5MMP-10 | 2026-09-03 00:44:43 | 49.21119 | 17.77024 | 115° | 33km/h | 19032m | -11.4m/s | -53.1°C | 3.8% | 0hPa | 2.5V | 00:00:00 | 01:59:11 | 00:00:00 | |
| OM5KV | 2026-09-03 00:44:41 | 49.21123 | 17.77012 | 111° | 35km/h | 19044m | -11.8m/s | -53.2°C | 1.1% | 0hPa | 2.5V | 08:20:00 | 00:00:00 | 00:00:00 | |
| PETON7-10 | 2026-09-03 00:44:39 | 49.21130 | 17.76974 | 105° | 38km/h | 19075m | -9.2m/s | -53.0°C | 3.9% | 0hPa | 2.5V | 00:00:00 | 00:00:00 | 00:00:00 | |
| OE5DXL-15 | 2026-09-03 00:44:37 | 49.21134 | 17.76950 | 103° | 38km/h | 19094m | -12.9m/s | -52.9°C | 3.8% | 0hPa | 2.5V | 00:00:00 | 00:00:00 | 00:00:00 | |
| OM5KV | 2026-09-03 00:44:36 | 49.21136 | 17.76938 | 103° | 33km/h | 19106m | -12.1m/s | -52.9°C | 1.0% | 0hPa | 2.5V | 08:20:00 | 00:00:00 | 00:00:00 | |
| PG1ADW-2 | 2026-09-03 00:44:34 | 49.21139 | 17.76912 | 99° | 42km/h | 19130m | -10.7m/s | -52.9°C | 3.9% | 0hPa | 2.5V | 00:00:00 | 00:00:00 | 00:00:00 | |
| OE5MMP-10 | 2026-09-03 00:44:33 | 49.21141 | 17.76899 | 98° | 42km/h | 19139m | -8.1m/s | -52.9°C | 4.0% | 0hPa | 2.5V | 00:00:00 | 01:59:01 | 00:00:00 | |
| POL1PZ | 2026-09-03 00:44:29 | 49.21144 | 17.76837 | 92° | 44km/h | 19177m | -10.0m/s | -53.0°C | 1.0% | 0hPa | 2.5V | 08:20:00 | 00:00:00 | 00:00:00 | |
| OM5KV | 2026-09-03 00:44:28 | 49.21144 | 17.76820 | 92° | 46km/h | 19188m | -13.1m/s | -53.0°C | 1.0% | 0hPa | 2.5V | 08:20:00 | 00:00:00 | 00:00:00 | |
| OE5DRO-10 | 2026-09-03 00:44:26 | 49.21144 | 17.76785 | 93° | 38km/h | 19215m | -12.6m/s | -53.0°C | 3.9% | 0hPa | 2.5V | 08:20:00 | 00:00:00 | 00:00:00 | |
| S52SK | 2026-09-03 00:44:24 | 49.21146 | 17.76751 | 97° | 44km/h | 19240m | -11.1m/s | -52.9°C | 1.1% | 0hPa | 2.6V | 00:00:00 | 00:00:00 | 00:00:00 | |
| OE5MMP-10 | 2026-09-03 00:44:23 | 49.21148 | 17.76734 | 99° | 42km/h | 19251m | -10.5m/s | -52.7°C | 3.8% | 0hPa | 2.6V | 08:20:00 | 01:58:51 | 00:00:00 | |
| DO3MHA-11 | 2026-09-03 00:44:19 | 49.21159 | 17.76672 | 111° | 37km/h | 19295m | -11.1m/s | -52.1°C | 3.6% | 0hPa | 2.5V | 00:00:00 | 01:58:47 | 00:00:00 | |
| OM5KV | 2026-09-03 00:44:16 | 49.21167 | 17.76641 | 114° | 42km/h | 19317m | -8.8m/s | -52.1°C | 1.0% | 0hPa | 2.5V | 08:20:00 | 00:00:00 | 00:00:00 | |
| PG1ADW-2 | 2026-09-03 00:44:14 | 49.21179 | 17.76599 | 114° | 24km/h | 19341m | -8.3m/s | -51.9°C | 3.5% | 0hPa | 2.5V | 00:00:00 | 00:00:00 | 00:00:00 | |
| OE5MMP-10 | 2026-09-03 00:44:13 | 49.21183 | 17.76586 | 113° | 29km/h | 19350m | -8.9m/s | -51.9°C | 3.6% | 0hPa | 2.5V | 00:00:00 | 01:58:41 | 00:00:00 | |
| PETON7-10 | 2026-09-03 00:44:09 | 49.21195 | 17.76544 | 118° | 20km/h | 19385m | -8.1m/s | -52.1°C | 3.6% | 0hPa | 2.5V | 00:00:00 | 01:58:37 | 00:00:00 | |
| POL1PZ | 2026-09-03 00:44:08 | 49.21199 | 17.76534 | 123° | 29km/h | 19394m | -9.4m/s | -52.2°C | 1.0% | 0hPa | 2.5V | 08:20:00 | 00:00:00 | 00:00:00 | |
| OM5KV | 2026-09-03 00:44:07 | 49.21203 | 17.76525 | 124° | 29km/h | 19402m | -7.9m/s | -52.3°C | 1.0% | 0hPa | 2.5V | 08:20:00 | 00:00:00 | 00:00:00 | |
| OE5MMP-10 | 2026-09-03 00:44:03 | 49.21218 | 17.76492 | 125° | 15km/h | 19438m | -8.6m/s | -52.3°C | 3.7% | 0hPa | 2.5V | 00:00:00 | 01:58:31 | 00:00:00 | |
| OE3OSB-13 | 2026-09-03 00:43:56 | 49.21230 | 17.76452 | 142° | 9km/h | 19517m | -11.0m/s | -52.2°C | 0.8% | -1.0hPa | 2.5V | 00:00:00 | 00:00:00 | 00:00:00 | |
| PG1ADW-2 | 2026-09-03 00:43:54 | 49.21232 | 17.76449 | 147° | 9km/h | 19529m | -11.9m/s | -52.2°C | 3.5% | 0hPa | 2.5V | 00:00:00 | 00:00:00 | 00:00:00 | |
| OE5MMP-10 | 2026-09-03 00:43:53 | 49.21234 | 17.76447 | 150° | 7km/h | 19539m | -9.9m/s | -52.3°C | 3.5% | 0hPa | 2.5V | 00:00:00 | 01:58:21 | 00:00:00 | |
| OM5KV | 2026-09-03 00:43:52 | 49.21234 | 17.76447 | 150° | 11km/h | 19539m | -9.9m/s | -52.4°C | 0.9% | 0hPa | 2.6V | 08:20:00 | 00:00:00 | 00:00:00 | |
| DO3MHA-11 | 2026-09-03 00:43:49 | 49.21241 | 17.76437 | 109° | 7km/h | 19581m | -11.3m/s | -52.7°C | 3.6% | 0hPa | 2.6V | 00:00:00 | 01:58:17 | 00:00:00 | |
| OE5DRO-10 | 2026-09-03 00:43:48 | 49.21242 | 17.76434 | 98° | 9km/h | 19592m | -10.5m/s | -52.7°C | 3.7% | 0hPa | 2.6V | 00:00:00 | 00:00:00 | 00:00:00 | |
| POL1PZ | 2026-09-03 00:43:47 | 49.21242 | 17.76434 | 99° | 7km/h | 19592m | -10.5m/s | -52.7°C | 1.0% | 0hPa | 2.6V | 08:20:00 | 00:00:00 | 00:00:00 | |
| OM5KV | 2026-09-03 00:43:46 | 49.21242 | 17.76431 | 98° | 7km/h | 19601m | -8.4m/s | -52.7°C | 1.0% | 0hPa | 2.6V | 08:20:00 | 00:00:00 | 00:00:00 | |
| OE5MMP-10 | 2026-09-03 00:43:43 | 49.21241 | 17.76423 | 38° | 11km/h | 19634m | -9.8m/s | 0°C | 0% | 0hPa | 2.6V | 00:00:00 | 01:58:11 | 00:00:00 | |
| OM5KV | 2026-09-03 00:43:41 | 49.21239 | 17.76420 | 40° | 7km/h | 19651m | -7.9m/s | -53.0°C | 1.0% | 0hPa | 2.6V | 08:20:00 | 00:00:00 | 00:00:00 | |
| DO3MHA-11 | 2026-09-03 00:43:39 | 49.21236 | 17.76414 | 59° | 13km/h | 19669m | -9.9m/s | -53.1°C | 3.7% | 0hPa | 2.6V | 00:00:00 | 01:58:07 | 00:00:00 | |
| GYPAP8-17 | 2026-09-03 00:43:38 | 49.21236 | 17.76415 | 59° | 11km/h | 19669m | -9.9m/s | 0°C | 0% | 0hPa | 2.6V | 00:00:00 | 00:00:00 | 00:00:00 | |
| OE5DXL-15 | 2026-09-03 00:43:37 | 49.21233 | 17.76406 | 73° | 16km/h | 19687m | -7.5m/s | -53.2°C | 3.8% | 0hPa | 2.6V | 00:00:00 | 00:00:00 | 00:00:00 | |
| HA6NAB-11 | 2026-09-03 00:43:36 | 49.21232 | 17.76406 | 74° | 15km/h | 19687m | -7.5m/s | -53.2°C | 1.0% | 0hPa | 2.6V | 08:21:00 | 00:00:00 | 00:00:00 | |
| OM5KV | 2026-09-03 00:43:34 | 49.21232 | 17.76389 | 102° | 15km/h | 19707m | -6.8m/s | -53.3°C | 1.0% | 0hPa | 2.6V | 08:21:00 | 00:00:00 | 00:00:00 | |
| OE5MMP-10 | 2026-09-03 00:43:33 | 49.21233 | 17.76384 | 106° | 13km/h | 19716m | -9.6m/s | -53.3°C | 3.8% | 0hPa | 2.6V | 00:00:00 | 01:58:01 | 00:00:00 | |
| HA6NAB-11 | 2026-09-03 00:43:30 | 49.21234 | 17.76377 | 102° | 7km/h | 19733m | -10.3m/s | -53.5°C | 1.0% | 0hPa | 2.6V | 08:21:00 | 00:00:00 | 00:00:00 | |
| OK1ALN | 2026-09-03 00:43:29 | 49.21234 | 17.76370 | 90° | 7km/h | 19752m | -9.0m/s | -53.5°C | 1.0% | 0hPa | 2.6V | 08:21:00 | 00:00:00 | 00:00:00 | |
| POL1PZ | 2026-09-03 00:43:27 | 49.21234 | 17.76362 | 76° | 13km/h | 19772m | -10.7m/s | -53.5°C | 1.0% | 0hPa | 2.6V | 08:21:00 | 00:00:00 | 00:00:00 | |
| PETON7-10 | 2026-09-03 00:43:24 | 49.21230 | 17.76343 | 76° | 18km/h | 19803m | -7.6m/s | -53.7°C | 3.8% | 0hPa | 2.6V | 00:00:00 | 01:57:52 | 00:00:00 | |
| OE5MMP-10 | 2026-09-03 00:43:23 | 49.21229 | 17.76335 | 76° | 16km/h | 19810m | -7.6m/s | -53.8°C | 3.8% | 0hPa | 2.6V | 00:00:00 | 01:57:51 | 00:00:00 | |
| SP3WXH-11 | 2026-09-03 00:43:21 | 49.21227 | 17.76322 | 77° | 16km/h | 19830m | -10.3m/s | -54.0°C | 0.9% | -1.0hPa | 2.5V | 00:00:00 | 00:00:00 | 00:00:00 | |
| DO3MHA-11 | 2026-09-03 00:43:19 | 49.21226 | 17.76310 | 83° | 20km/h | 19853m | -10.1m/s | -54.1°C | 3.9% | 0hPa | 2.5V | 00:00:00 | 01:57:47 | 00:00:00 | |
| OM5KV | 2026-09-03 00:43:18 | 49.21226 | 17.76310 | 84° | 16km/h | 19853m | -10.2m/s | -54.2°C | 1.1% | 0hPa | 2.5V | 08:21:00 | 00:00:00 | 00:00:00 | |
| PG1ADW-2 | 2026-09-03 00:43:14 | 49.21219 | 17.76281 | 68° | 24km/h | 19892m | -6.2m/s | -54.5°C | 4.0% | 0hPa | 2.5V | 00:00:00 | 00:00:00 | 00:00:00 | |
| OE5MMP-10 | 2026-09-03 00:43:13 | 49.21218 | 17.76274 | 77° | 24km/h | 19899m | -7.9m/s | -54.5°C | 4.0% | 0hPa | 2.5V | 00:00:00 | 01:57:41 | 00:00:00 | |
| OE5DRO-10 | 2026-09-03 00:43:10 | 49.21218 | 17.76247 | 103° | 22km/h | 19930m | -11.5m/s | -54.7°C | 4.0% | 0hPa | 2.5V | 00:00:00 | 00:00:00 | 00:00:00 | |
| PETON7-10 | 2026-09-03 00:43:09 | 49.21220 | 17.76238 | 110° | 24km/h | 19941m | -10.4m/s | -54.6°C | 4.0% | 0hPa | 2.5V | 08:21:00 | 00:00:00 | 00:00:00 | |
| OK1ALN | 2026-09-03 00:43:08 | 49.21220 | 17.76238 | 110° | 26km/h | 19941m | -10.4m/s | -54.7°C | 1.1% | 0hPa | 2.5V | 08:21:00 | 00:00:00 | 00:00:00 | |
| OE5DXL-15 | 2026-09-03 00:43:07 | 49.21225 | 17.76221 | 116° | 24km/h | 19963m | -9.4m/s | -54.7°C | 4.0% | 0hPa | 2.5V | 08:21:00 | 00:00:00 | 00:00:00 | |
| POL1PZ | 2026-09-03 00:43:06 | 49.21225 | 17.76221 | 117° | 26km/h | 19963m | -9.4m/s | -54.8°C | 1.1% | 0hPa | 2.5V | 08:21:00 | 00:00:00 | 00:00:00 | |
| OE5MMP-10 | 2026-09-03 00:43:04 | 49.21232 | 17.76186 | 108° | 22km/h | 20005m | -8.4m/s | -55.0°C | 4.2% | 0hPa | 2.5V | 00:00:00 | 01:57:31 | 00:00:00 | |
| HA6NAB-11 | 2026-09-03 00:43:02 | 49.21234 | 17.76177 | 113° | 24km/h | 20015m | -10.3m/s | -55.1°C | 1.1% | 0hPa | 2.5V | 08:21:00 | 00:00:00 | 00:00:00 | |
| DO3MHA-11 | 2026-09-03 00:42:59 | 49.21241 | 17.76152 | 112° | 20km/h | 20042m | -12.3m/s | -55.1°C | 4.3% | 0hPa | 2.5V | 00:00:00 | 01:57:27 | 00:00:00 | |
| HA6NAB-11 | 2026-09-03 00:42:55 | 49.21247 | 17.76128 | 115° | 22km/h | 20075m | -8.7m/s | -55.1°C | 1.1% | 0hPa | 2.6V | 08:21:00 | 00:00:00 | 00:00:00 | |
| PETON7-10 | 2026-09-03 00:42:54 | 49.21252 | 17.76114 | 120° | 24km/h | 20098m | -15.9m/s | -55.1°C | 4.2% | 0hPa | 2.6V | 00:00:00 | 00:00:00 | 00:00:00 | |
| OE5MMP-10 | 2026-09-03 00:42:53 | 49.21255 | 17.76107 | 121° | 22km/h | 20113m | -13.7m/s | -55.1°C | 4.2% | 0hPa | 2.6V | 08:21:00 | 01:57:21 | 00:00:00 | |
| OE5DRO-10 | 2026-09-03 00:42:51 | 49.21259 | 17.76094 | 111° | 27km/h | 20139m | -12.0m/s | -55.3°C | 4.3% | 0hPa | 2.6V | 00:00:00 | 00:00:00 | 00:00:00 | |
| OM5KV | 2026-09-03 00:42:50 | 49.21260 | 17.76088 | 104° | 20km/h | 20151m | -12.1m/s | -55.3°C | 1.1% | 0hPa | 2.6V | 08:21:00 | 00:00:00 | 00:00:00 | |
| OM5KV | 2026-09-03 00:42:48 | 49.21261 | 17.76080 | 98° | 22km/h | 20165m | -15.0m/s | -55.3°C | 1.1% | 0hPa | 2.6V | 08:22:00 | 00:00:00 | 00:00:00 | |
| POL1PZ | 2026-09-03 00:42:46 | 49.21262 | 17.76062 | 91° | 24km/h | 20194m | -13.4m/s | -55.2°C | 1.2% | 0hPa | 2.6V | 08:22:00 | 00:00:00 | 00:00:00 | |
| HA6NAB-11 | 2026-09-03 00:42:45 | 49.21262 | 17.76053 | 91° | 24km/h | 20205m | -9.3m/s | -55.2°C | 1.2% | 0hPa | 2.6V | 00:00:00 | 00:00:00 | 00:00:00 | |
| OE5MMP-10 | 2026-09-03 00:42:43 | 49.21265 | 17.76025 | 113° | 31km/h | 20235m | -12.0m/s | -54.9°C | 4.3% | 0hPa | 2.6V | 00:00:00 | 01:57:11 | 00:00:00 | |
| PETON7-10 | 2026-09-03 00:42:39 | 49.21276 | 17.75983 | 105° | 35km/h | 20273m | -11.3m/s | -55.0°C | 4.4% | 0hPa | 2.6V | 00:00:00 | 01:57:07 | 00:00:00 | |
| DO3MHA-11 | 2026-09-03 00:42:38 | 49.21278 | 17.75971 | 101° | 33km/h | 20284m | -9.8m/s | -55.0°C | 4.4% | 0hPa | 2.6V | 00:00:00 | 01:57:06 | 00:00:00 | |
| OE5DXL-15 | 2026-09-03 00:42:37 | 49.21279 | 17.75960 | 98° | 33km/h | 20294m | -9.3m/s | -55.0°C | 4.4% | 0hPa | 2.6V | 00:00:00 | 00:00:00 | 00:00:00 | |
| PG1ADW-2 | 2026-09-03 00:42:34 | 49.21282 | 17.75921 | 99° | 37km/h | 20325m | -12.9m/s | -54.6°C | 4.2% | 0hPa | 2.6V | 00:00:00 | 00:00:00 | 00:00:00 | |
| OE5MMP-10 | 2026-09-03 00:42:33 | 49.21283 | 17.75908 | 102° | 35km/h | 20337m | -12.6m/s | -54.5°C | 4.2% | 0hPa | 2.6V | 00:00:00 | 01:57:01 | 00:00:00 | |
| OE5DRO-10 | 2026-09-03 00:42:32 | 49.21285 | 17.75895 | 107° | 37km/h | 20351m | -13.9m/s | -54.5°C | 4.2% | 0hPa | 2.6V | 00:00:00 | 00:00:00 | 00:00:00 | |
| OM5KV | 2026-09-03 00:42:31 | 49.21285 | 17.75896 | 108° | 33km/h | 20351m | -14.0m/s | -54.5°C | 1.1% | 0hPa | 2.5V | 08:22:00 | 00:00:00 | 00:00:00 | |
| DO3MHA-11 | 2026-09-03 00:42:28 | 49.21300 | 17.75848 | 122° | 38km/h | 20399m | -8.2m/s | -54.3°C | 4.3% | 0hPa | 2.5V | 00:00:00 | 01:56:56 | 00:00:00 | |
| GYPAP8-17 | 2026-09-03 00:42:27 | 49.21305 | 17.75836 | 122° | 35km/h | 20408m | -8.3m/s | 0°C | 0% | 0hPa | 2.6V | 00:00:00 | 00:00:00 | 00:00:00 | |
| OM5KV | 2026-09-03 00:42:26 | 49.21305 | 17.75836 | 122° | 35km/h | 20408m | -8.3m/s | -54.4°C | 1.1% | 0hPa | 2.6V | 08:22:00 | 00:00:00 | 00:00:00 | |
| POL1PZ | 2026-09-03 00:42:25 | 49.21309 | 17.75824 | 120° | 37km/h | 20417m | -9.9m/s | -54.3°C | 1.1% | 0hPa | 2.6V | 08:22:00 | 00:00:00 | 00:00:00 | |
| PETON7-10 | 2026-09-03 00:42:24 | 49.21317 | 17.75799 | 111° | 35km/h | 20440m | -13.0m/s | -54.0°C | 4.2% | 0hPa | 2.6V | 00:00:00 | 00:00:00 | 00:00:00 | |
| OE5MMP-10 | 2026-09-03 00:42:23 | 49.21320 | 17.75785 | 108° | 37km/h | 20453m | -11.5m/s | -53.9°C | 4.1% | 0hPa | 2.5V | 00:00:00 | 01:56:51 | 00:00:00 | |
| OE3OSB-13 | 2026-09-03 00:42:22 | 49.21323 | 17.75772 | 106° | 37km/h | 20464m | -11.3m/s | -53.9°C | 1.0% | -1.0hPa | 2.5V | 00:00:00 | 00:00:00 | 00:00:00 | |
| OM5KV | 2026-09-03 00:42:21 | 49.21326 | 17.75758 | 109° | 38km/h | 20476m | -11.5m/s | -53.9°C | 1.1% | 0hPa | 2.5V | 08:22:00 | 00:00:00 | 00:00:00 | |
| SP3WXH-11 | 2026-09-03 00:42:20 | 49.21333 | 17.75730 | 116° | 38km/h | 20498m | -12.5m/s | -53.9°C | 0.9% | -1.0hPa | 2.5V | 00:00:00 | 00:00:00 | 00:00:00 | |
| S52SK | 2026-09-03 00:42:16 | 49.21343 | 17.75704 | 125° | 38km/h | 20522m | -9.9m/s | -53.9°C | 1.1% | 0hPa | 2.5V | 00:00:00 | 00:00:00 | 00:00:00 | |
| OM5KV | 2026-09-03 00:42:15 | 49.21353 | 17.75681 | 125° | 35km/h | 20539m | -8.9m/s | -53.5°C | 1.1% | 0hPa | 2.5V | 08:22:00 | 00:00:00 | 00:00:00 | |
| PG1ADW-2 | 2026-09-03 00:42:14 | 49.21358 | 17.75670 | 121° | 20km/h | 20550m | -12.7m/s | -53.3°C | 4.0% | 0hPa | 2.5V | 00:00:00 | 01:56:42 | 00:00:00 | |
| OE5MMP-10 | 2026-09-03 00:42:13 | 49.21362 | 17.75659 | 119° | 24km/h | 20561m | -9.7m/s | -53.2°C | 3.9% | 0hPa | 2.5V | 00:00:00 | 01:56:41 | 00:00:00 | |
| S52SK | 2026-09-03 00:42:10 | 49.21369 | 17.75640 | 119° | 26km/h | 20581m | -11.5m/s | -52.9°C | 1.0% | 0hPa | 2.5V | 00:00:00 | 00:00:00 | 00:00:00 | |
| PETON7-10 | 2026-09-03 00:42:09 | 49.21375 | 17.75623 | 122° | 18km/h | 20610m | -14.9m/s | -52.7°C | 3.7% | 0hPa | 2.5V | 00:00:00 | 00:00:00 | 00:00:00 | |
| OM5KV | 2026-09-03 00:42:08 | 49.21375 | 17.75623 | 122° | 24km/h | 20610m | -14.9m/s | -52.7°C | 1.0% | 0hPa | 2.5V | 08:22:00 | 00:00:00 | 00:00:00 | |
| OE5DXL-15 | 2026-09-03 00:42:07 | 49.21381 | 17.75609 | 130° | 18km/h | 20638m | -13.6m/s | -52.7°C | 3.7% | 0hPa | 2.5V | 00:00:00 | 00:00:00 | 00:00:00 | |
| POL1PZ | 2026-09-03 00:42:06 | 49.21385 | 17.75603 | 135° | 20km/h | 20651m | -10.7m/s | -52.7°C | 1.0% | 0hPa | 2.5V | 08:22:00 | 00:00:00 | 00:00:00 | |
| DO3MHA-11 | 2026-09-03 00:42:05 | 49.21388 | 17.75597 | 138° | 16km/h | 20660m | -7.6m/s | -52.6°C | 3.7% | 0hPa | 2.5V | 00:00:00 | 01:56:33 | 00:00:00 | |
| OE5MMP-10 | 2026-09-03 00:42:03 | 49.21395 | 17.75589 | 141° | 16km/h | 20674m | -7.5m/s | -52.7°C | 3.8% | 0hPa | 2.5V | 00:00:00 | 01:56:31 | 00:00:00 | |
| OM5KV | 2026-09-03 00:42:02 | 49.21395 | 17.75589 | 141° | 16km/h | 20674m | -7.5m/s | -52.7°C | 1.0% | 0hPa | 2.5V | 08:22:00 | 00:00:00 | 00:00:00 | |
| OE3OSB-13 | 2026-09-03 00:41:51 | 49.21410 | 17.75522 | 123° | 15km/h | 20795m | -9.9m/s | -52.7°C | 0.9% | -1.0hPa | 2.5V | 00:00:00 | 00:00:00 | 00:00:00 | |
| SP3WXH-11 | 2026-09-03 00:41:48 | 49.21416 | 17.75508 | 117° | 15km/h | 20823m | -10.7m/s | -52.8°C | 0.9% | -1.0hPa | 2.5V | 00:00:00 | 00:00:00 | 00:00:00 | |
| POL1PZ | 2026-09-03 00:41:46 | 49.21420 | 17.75495 | 108° | 20km/h | 20843m | -9.5m/s | -52.7°C | 1.0% | 0hPa | 2.5V | 08:23:00 | 00:00:00 | 00:00:00 | |
| OM5KV | 2026-09-03 00:41:45 | 49.21421 | 17.75487 | 109° | 20km/h | 20853m | -9.2m/s | -52.7°C | 1.0% | 0hPa | 2.5V | 08:23:00 | 00:00:00 | 00:00:00 | |
| OE5MMP-10 | 2026-09-03 00:41:43 | 49.21425 | 17.75472 | 109° | 22km/h | 20871m | -10.2m/s | -52.6°C | 3.8% | 0hPa | 2.5V | 00:00:00 | 01:56:11 | 00:00:00 | |
| PETON7-10 | 2026-09-03 00:41:39 | 49.21433 | 17.75440 | 117° | 18km/h | 20908m | -10.8m/s | -52.7°C | 3.8% | 0hPa | 2.5V | 00:00:00 | 00:00:00 | 00:00:00 | |
| OE5DXL-15 | 2026-09-03 00:41:37 | 49.21439 | 17.75424 | 127° | 15km/h | 20927m | -8.0m/s | -52.7°C | 3.8% | 0hPa | 2.5V | 00:00:00 | 00:00:00 | 00:00:00 | |
| DO3MHA-11 | 2026-09-03 00:41:35 | 49.21447 | 17.75412 | 142° | 16km/h | 20945m | -8.9m/s | -52.7°C | 3.8% | 0hPa | 2.5V | 00:00:00 | 01:56:03 | 00:00:00 | |
| PG1ADW-2 | 2026-09-03 00:41:34 | 49.21451 | 17.75407 | 149° | 15km/h | 20954m | -10.6m/s | -52.7°C | 3.8% | 0hPa | 2.5V | 00:00:00 | 00:00:00 | 00:00:00 | |
| OE5MMP-10 | 2026-09-03 00:41:33 | 49.21456 | 17.75403 | 152° | 15km/h | 20965m | -9.8m/s | -52.7°C | 3.8% | 0hPa | 2.5V | 00:00:00 | 01:56:01 | 00:00:00 | |
| OM5KV | 2026-09-03 00:41:30 | 49.21465 | 17.75395 | 148° | 18km/h | 20983m | -9.8m/s | -52.7°C | 1.0% | 0hPa | 2.5V | 08:23:00 | 00:00:00 | 00:00:00 | |
| OM5KV | 2026-09-03 00:41:28 | 49.21475 | 17.75384 | 138° | 15km/h | 21014m | -7.4m/s | -52.7°C | 0.9% | 0hPa | 2.5V | 08:23:00 | 00:00:00 | 00:00:00 | |
| DO3MHA-11 | 2026-09-03 00:41:25 | 49.21482 | 17.75377 | 163° | 13km/h | 21040m | -10.1m/s | -52.5°C | 3.7% | 0hPa | 2.5V | 00:00:00 | 01:55:53 | 00:00:00 | |
| PETON7-10 | 2026-09-03 00:41:24 | 49.21485 | 17.75375 | 174° | 13km/h | 21049m | -8.5m/s | -52.5°C | 3.7% | 0hPa | 2.6V | 00:00:00 | 00:00:00 | 00:00:00 | |
| OE5MMP-10 | 2026-09-03 00:41:23 | 49.21488 | 17.75375 | 180° | 13km/h | 21059m | -10.1m/s | -52.6°C | 3.7% | 0hPa | 2.6V | 08:23:00 | 01:55:51 | 00:00:00 | |
| GYPAP8-17 | 2026-09-03 00:41:21 | 49.21490 | 17.75375 | 182° | 13km/h | 21069m | -10.1m/s | 0°C | 0% | 0hPa | 2.5V | 00:00:00 | 00:00:00 | 00:00:00 | |
| OE3OSB-13 | 2026-09-03 00:41:20 | 49.21497 | 17.75376 | 181° | 13km/h | 21089m | -10.3m/s | -52.7°C | 0.9% | -1.0hPa | 2.5V | 00:00:00 | 00:00:00 | 00:00:00 | |
| SP3WXH-11 | 2026-09-03 00:41:17 | 49.21508 | 17.75375 | 173° | 15km/h | 21116m | -6.9m/s | -52.5°C | 0.8% | -1.0hPa | 2.5V | 00:00:00 | 00:00:00 | 00:00:00 | |
| OE5DRO-10 | 2026-09-03 00:41:16 | 49.21512 | 17.75374 | 170° | 11km/h | 21122m | -6.1m/s | -52.4°C | 3.7% | 0hPa | 2.5V | 00:00:00 | 00:00:00 | 00:00:00 | |
| DO3MHA-11 | 2026-09-03 00:41:15 | 49.21515 | 17.75373 | 165° | 7km/h | 21129m | -7.7m/s | -52.4°C | 3.6% | 0hPa | 2.5V | 00:00:00 | 01:55:43 | 00:00:00 | |
| PG1ADW-2 | 2026-09-03 00:41:14 | 49.21518 | 17.75371 | 164° | 11km/h | 21138m | -9.7m/s | -52.5°C | 3.6% | 0hPa | 2.5V | 00:00:00 | 00:00:00 | 00:00:00 | |
| OE5MMP-10 | 2026-09-03 00:41:13 | 49.21521 | 17.75370 | 164° | 7km/h | 21147m | -9.3m/s | -52.5°C | 3.6% | 0hPa | 2.5V | 00:00:00 | 01:55:41 | 00:00:00 | |
| OM5KV | 2026-09-03 00:41:12 | 49.21523 | 17.75369 | 167° | 9km/h | 21157m | -10.4m/s | -52.6°C | 0.9% | 0hPa | 2.5V | 08:23:00 | 00:00:00 | 00:00:00 | |
| PETON7-10 | 2026-09-03 00:41:09 | 49.21529 | 17.75368 | 177° | 11km/h | 21192m | -9.5m/s | -52.7°C | 3.8% | 0hPa | 2.5V | 00:00:00 | 01:55:37 | 00:00:00 | |
| OE5DXL-15 | 2026-09-03 00:41:07 | 49.21532 | 17.75368 | 187° | 16km/h | 21212m | -9.6m/s | -52.8°C | 3.9% | 0hPa | 2.5V | 00:00:00 | 00:00:00 | 00:00:00 | |
| DO3MHA-11 | 2026-09-03 00:41:04 | 49.21538 | 17.75369 | 175° | 13km/h | 21236m | -9.8m/s | -52.8°C | 3.8% | 0hPa | 2.5V | 00:00:00 | 01:55:32 | 00:00:00 | |
| OE5MMP-10 | 2026-09-03 00:41:03 | 49.21539 | 17.75368 | 150° | 15km/h | 21246m | -10.9m/s | -52.8°C | 3.9% | 0hPa | 2.5V | 00:00:00 | 01:55:31 | 00:00:00 | |
| OE3OSB-13 | 2026-09-03 00:40:49 | 49.21567 | 17.75290 | 128° | 26km/h | 21381m | -13.5m/s | -52.4°C | 0.9% | -1.0hPa | 2.5V | 00:00:00 | 00:00:00 | 00:00:00 | |
| SP3WXH-11 | 2026-09-03 00:40:46 | 49.21579 | 17.75265 | 128° | 26km/h | 21413m | -8.4m/s | -52.3°C | 0.8% | -1.0hPa | 2.5V | 00:00:00 | 00:00:00 | 00:00:00 | |
| DO3MHA-11 | 2026-09-03 00:40:44 | 49.21588 | 17.75252 | 145° | 16km/h | 21435m | -13.4m/s | -52.1°C | 3.7% | 0hPa | 2.5V | 00:00:00 | 01:55:12 | 00:00:00 | |
| OE5MMP-10 | 2026-09-03 00:40:43 | 49.21592 | 17.75248 | 153° | 16km/h | 21447m | -10.6m/s | -52.0°C | 3.7% | 0hPa | 2.5V | 00:00:00 | 01:55:11 | 00:00:00 | |
| OM5KV | 2026-09-03 00:40:42 | 49.21592 | 17.75248 | 154° | 20km/h | 21447m | -10.7m/s | -52.1°C | 0.9% | 0hPa | 2.5V | 08:24:00 | 00:00:00 | 00:00:00 | |
| HA6NAB-11 | 2026-09-03 00:40:40 | 49.21606 | 17.75242 | 173° | 18km/h | 21473m | -8.3m/s | -51.9°C | 0.9% | 0hPa | 2.5V | 08:24:00 | 00:00:00 | 00:00:00 | |
| PETON7-10 | 2026-09-03 00:40:39 | 49.21610 | 17.75241 | 171° | 16km/h | 21482m | -9.1m/s | -51.8°C | 3.6% | 0hPa | 2.5V | 00:00:00 | 00:00:00 | 00:00:00 | |
| OE5DRO-10 | 2026-09-03 00:40:38 | 49.21614 | 17.75240 | 166° | 15km/h | 21493m | -12.3m/s | -51.8°C | 3.6% | 0hPa | 2.5V | 00:00:00 | 00:00:00 | 00:00:00 | |
| OE5DXL-15 | 2026-09-03 00:40:37 | 49.21618 | 17.75238 | 161° | 15km/h | 21504m | -11.1m/s | -51.8°C | 3.6% | 0hPa | 2.5V | 00:00:00 | 00:00:00 | 00:00:00 | |
| OM5KV | 2026-09-03 00:40:36 | 49.21618 | 17.75238 | 162° | 15km/h | 21504m | -11.2m/s | -51.8°C | 0.9% | 0hPa | 2.5V | 08:24:00 | 00:00:00 | 00:00:00 | |
| OM5KV | 2026-09-03 00:40:35 | 49.21621 | 17.75236 | 157° | 13km/h | 21515m | -10.8m/s | -51.8°C | 0.9% | 0hPa | 2.5V | 08:24:00 | 00:00:00 | 00:00:00 | |
| DO3MHA-11 | 2026-09-03 00:40:34 | 49.21627 | 17.75231 | 146° | 16km/h | 21536m | -11.5m/s | -51.7°C | 3.5% | 0hPa | 2.5V | 00:00:00 | 01:55:02 | 00:00:00 | |
| OE5MMP-10 | 2026-09-03 00:40:33 | 49.21630 | 17.75228 | 144° | 16km/h | 21547m | -11.1m/s | -51.6°C | 3.5% | 0hPa | 2.5V | 00:00:00 | 01:55:01 | 00:00:00 | |
| OM5KV | 2026-09-03 00:40:31 | 49.21634 | 17.75224 | 143° | 18km/h | 21559m | -11.6m/s | -51.6°C | 0.9% | 0hPa | 2.5V | 08:24:00 | 00:00:00 | 00:00:00 | |
| HA6NAB-11 | 2026-09-03 00:40:28 | 49.21645 | 17.75210 | 145° | 18km/h | 21594m | -11.7m/s | -51.6°C | 0.9% | 0hPa | 2.5V | 08:24:00 | 00:00:00 | 00:00:00 | |
| NBG1-10 | 2026-09-03 00:40:27 | 49.21653 | 17.75203 | 156° | 11km/h | 21616m | -9.8m/s | -51.6°C | 3.5% | 0hPa | 2.5V | 00:00:00 | 01:54:55 | 00:00:00 | |
| OM5KV | 2026-09-03 00:40:26 | 49.21653 | 17.75203 | 156° | 15km/h | 21616m | -9.8m/s | -51.7°C | 0.9% | 0hPa | 2.5V | 08:24:00 | 00:00:00 | 00:00:00 | |
| DO3MHA-11 | 2026-09-03 00:40:25 | 49.21661 | 17.75199 | 165° | 11km/h | 21647m | -10.2m/s | -51.8°C | 3.4% | 0hPa | 2.5V | 08:24:00 | 01:54:52 | 00:00:00 | |
| POL1PZ | 2026-09-03 00:40:24 | 49.21660 | 17.75199 | 166° | 9km/h | 21647m | -10.3m/s | -51.8°C | 0.8% | 0hPa | 2.6V | 08:24:00 | 00:00:00 | 00:00:00 | |
| OE5MMP-10 | 2026-09-03 00:40:23 | 49.21663 | 17.75197 | 145° | 15km/h | 21659m | -14.2m/s | -51.8°C | 3.5% | 0hPa | 2.6V | 00:00:00 | 01:54:51 | 00:00:00 | |
| HA6NAB-11 | 2026-09-03 00:40:22 | 49.21663 | 17.75197 | 146° | 9km/h | 21659m | -14.3m/s | -51.9°C | 0.9% | 0hPa | 2.6V | 08:24:00 | 00:00:00 | 00:00:00 | |
| OM5KV | 2026-09-03 00:40:21 | 49.21664 | 17.75195 | 136° | 11km/h | 21673m | -14.2m/s | -51.9°C | 0.9% | 0hPa | 2.6V | 08:24:00 | 00:00:00 | 00:00:00 | |
| OE5DRO-10 | 2026-09-03 00:40:19 | 49.21672 | 17.75182 | 131° | 13km/h | 21709m | -9.4m/s | -52.0°C | 3.6% | 0hPa | 2.6V | 00:00:00 | 00:00:00 | 00:00:00 | |
| HA6NAB-11 | 2026-09-03 00:40:18 | 49.21675 | 17.75177 | 133° | 20km/h | 21718m | -7.9m/s | -52.1°C | 0.9% | 0hPa | 2.6V | 08:24:00 | 00:00:00 | 00:00:00 | |
| SP3WXH-11 | 2026-09-03 00:40:15 | 49.21686 | 17.75165 | 170° | 13km/h | 21748m | -13.5m/s | -52.2°C | 0.8% | -1.0hPa | 2.6V | 00:00:00 | 00:00:00 | 00:00:00 | |
| PG1ADW-2 | 2026-09-03 00:40:14 | 49.21689 | 17.75165 | 192° | 9km/h | 21761m | -11.9m/s | -52.2°C | 3.7% | 0hPa | 2.6V | 00:00:00 | 00:00:00 | 00:00:00 | |
| OE5MMP-10 | 2026-09-03 00:40:13 | 49.21692 | 17.75166 | 205° | 11km/h | 21772m | -11.8m/s | -52.2°C | 3.7% | 0hPa | 2.6V | 00:00:00 | 01:54:41 | 00:00:00 | |
| HA6NAB-11 | 2026-09-03 00:40:12 | 49.21692 | 17.75166 | 205° | 11km/h | 21772m | -11.9m/s | -52.2°C | 0.9% | 0hPa | 2.6V | 00:00:00 | 00:00:00 | 00:00:00 | |
| OM5KV | 2026-09-03 00:40:09 | 49.21700 | 17.75169 | 142° | 9km/h | 21816m | -10.4m/s | -52.2°C | 0.9% | 0hPa | 2.6V | 08:25:00 | 00:00:00 | 00:00:00 | |
| S52SK | 2026-09-03 00:40:08 | 49.21702 | 17.75166 | 129° | 11km/h | 21826m | -9.5m/s | -52.3°C | 0.9% | 0hPa | 2.6V | 00:00:00 | 00:00:00 | 00:00:00 | |
| OE5DXL-15 | 2026-09-03 00:40:07 | 49.21703 | 17.75162 | 120° | 9km/h | 21836m | -9.5m/s | -52.2°C | 3.7% | 0hPa | 2.6V | 00:00:00 | 00:00:00 | 00:00:00 | |
| SQ9EZE-14 | 2026-09-03 00:40:04 | 49.21707 | 17.75153 | 122° | 13km/h | 21856m | -8.9m/s | -52.4°C | 0% | 0hPa | 2.5V | 00:00:00 | 00:00:00 | 00:00:00 | |
| OE5MMP-10 | 2026-09-03 00:40:03 | 49.21711 | 17.75149 | 186° | 7km/h | 21881m | -15.2m/s | -52.4°C | 3.6% | 0hPa | 2.5V | 00:00:00 | 01:54:31 | 00:00:00 | |
| S52SK | 2026-09-03 00:40:02 | 49.21710 | 17.75149 | 186° | 9km/h | 21881m | -15.2m/s | -52.4°C | 0.9% | 0hPa | 2.5V | 00:00:00 | 00:00:00 | 00:00:00 | |
| OE3OSB-13 | 2026-09-03 00:39:47 | 49.21725 | 17.75171 | 311° | 13km/h | 22033m | -7.5m/s | -52.5°C | 0.8% | -1.0hPa | 2.5V | 00:00:00 | 00:00:00 | 00:00:00 | |
| OM5KV | 2026-09-03 00:39:46 | 49.21723 | 17.75175 | 323° | 15km/h | 22040m | -5.8m/s | -52.4°C | 0.9% | 0hPa | 2.5V | 08:25:00 | 00:00:00 | 00:00:00 | |
| SP3WXH-11 | 2026-09-03 00:39:44 | 49.21717 | 17.75178 | 9° | 9km/h | 22059m | -12.5m/s | -52.5°C | 0.8% | -1.0hPa | 2.5V | 00:00:00 | 00:00:00 | 00:00:00 | |
| OE5MMP-10 | 2026-09-03 00:39:43 | 49.21715 | 17.75176 | 29° | 7km/h | 22070m | -9.0m/s | -52.6°C | 3.9% | 0hPa | 2.5V | 00:00:00 | 01:54:11 | 00:00:00 | |
| OK1ALN | 2026-09-03 00:39:42 | 49.21715 | 17.75176 | 30° | 9km/h | 22070m | -9.1m/s | -52.6°C | 1.0% | 0hPa | 2.5V | 08:25:00 | 00:00:00 | 00:00:00 | |
| OE5DRO-10 | 2026-09-03 00:39:41 | 49.21713 | 17.75170 | 89° | 13km/h | 22092m | -12.3m/s | -52.6°C | 3.9% | 0hPa | 2.5V | 00:00:00 | 00:00:00 | 00:00:00 | |
| OM5KV | 2026-09-03 00:39:40 | 49.21713 | 17.75170 | 90° | 11km/h | 22092m | -12.3m/s | -52.7°C | 1.0% | 0hPa | 2.6V | 08:25:00 | 00:00:00 | 00:00:00 | |
| PETON7-10 | 2026-09-03 00:39:39 | 49.21714 | 17.75162 | 104° | 15km/h | 22115m | -10.5m/s | -52.6°C | 3.8% | 0hPa | 2.6V | 00:00:00 | 01:54:07 | 00:00:00 | |
| OE5DXL-15 | 2026-09-03 00:39:37 | 49.21715 | 17.75155 | 101° | 13km/h | 22137m | -12.5m/s | -52.4°C | 3.8% | 0hPa | 2.6V | 00:00:00 | 00:00:00 | 00:00:00 | |
| PG1ADW-2 | 2026-09-03 00:39:34 | 49.21714 | 17.75152 | 11° | 15km/h | 22172m | -9.4m/s | -52.0°C | 3.6% | 0hPa | 2.6V | 00:00:00 | 01:54:02 | 00:00:00 | |
| OE5MMP-10 | 2026-09-03 00:39:33 | 49.21713 | 17.75151 | 23° | 18km/h | 22182m | -9.1m/s | -51.9°C | 3.6% | 0hPa | 2.6V | 00:00:00 | 01:54:01 | 00:00:00 | |
| SQ9EZE-14 | 2026-09-03 00:39:32 | 49.21713 | 17.75151 | 23° | 7km/h | 22182m | -9.2m/s | -52.0°C | 0% | 0hPa | 2.6V | 00:00:00 | 00:00:00 | 00:00:00 | |
| OM5KV | 2026-09-03 00:39:27 | 49.21700 | 17.75122 | 68° | 27km/h | 22226m | -7.0m/s | -52.1°C | 0.9% | 0hPa | 2.6V | 08:25:00 | 00:00:00 | 00:00:00 | |
| PETON7-10 | 2026-09-03 00:39:24 | 49.21693 | 17.75091 | 84° | 13km/h | 22260m | -9.2m/s | -52.0°C | 3.8% | 0hPa | 2.6V | 00:00:00 | 00:00:00 | 00:00:00 | |
| OE5DRO-10 | 2026-09-03 00:39:23 | 49.21693 | 17.75083 | 100° | 13km/h | 22279m | -8.7m/s | -52.0°C | 3.8% | 0hPa | 2.5V | 00:00:00 | 00:00:00 | 00:00:00 | |
| POL1PZ | 2026-09-03 00:39:22 | 49.21693 | 17.75083 | 100° | 7km/h | 22279m | -8.7m/s | -52.0°C | 1.0% | 0hPa | 2.5V | 08:26:00 | 00:00:00 | 00:00:00 | |
| DO3MHA-11 | 2026-09-03 00:39:20 | 49.21694 | 17.75077 | 91° | 15km/h | 22293m | -7.0m/s | -51.8°C | 3.8% | 0hPa | 2.5V | 00:00:00 | 01:53:48 | 00:00:00 | |
| OM5KV | 2026-09-03 00:39:18 | 49.21694 | 17.75075 | 85° | 9km/h | 22301m | -7.5m/s | -51.8°C | 0.9% | 0hPa | 2.5V | 08:26:00 | 00:00:00 | 00:00:00 | |
| NBG1-10 | 2026-09-03 00:39:17 | 49.21692 | 17.75065 | 75° | 20km/h | 22319m | -8.6m/s | -51.5°C | 3.7% | 0hPa | 2.5V | 00:00:00 | 01:53:45 | 00:00:00 | |
| OE3OSB-13 | 2026-09-03 00:39:16 | 49.21691 | 17.75051 | 83° | 18km/h | 22338m | -9.5m/s | -51.5°C | 0.8% | -1.0hPa | 2.5V | 00:00:00 | 00:00:00 | 00:00:00 | |
| PG1ADW-2 | 2026-09-03 00:39:14 | 49.21690 | 17.75043 | 88° | 16km/h | 22347m | -6.9m/s | -51.3°C | 3.6% | 0hPa | 2.5V | 00:00:00 | 00:00:00 | 00:00:00 | |
| OE5MMP-10 | 2026-09-03 00:39:13 | 49.21690 | 17.75037 | 95° | 13km/h | 22355m | -9.1m/s | -51.3°C | 3.6% | 0hPa | 2.5V | 00:00:00 | 01:53:41 | 00:00:00 | |
| OM5KV | 2026-09-03 00:39:11 | 49.21691 | 17.75031 | 108° | 13km/h | 22363m | -7.2m/s | -51.4°C | 0.9% | 0hPa | 2.5V | 08:26:00 | 00:00:00 | 00:00:00 | |
| DO3MHA-11 | 2026-09-03 00:39:10 | 49.21694 | 17.75025 | 142° | 15km/h | 22381m | -9.4m/s | -51.2°C | 3.5% | 0hPa | 2.5V | 00:00:00 | 01:53:38 | 00:00:00 | |
| PETON7-10 | 2026-09-03 00:39:09 | 49.21696 | 17.75023 | 139° | 18km/h | 22393m | -14.3m/s | -51.2°C | 3.5% | 0hPa | 2.5V | 00:00:00 | 00:00:00 | 00:00:00 | |
| OE5DXL-15 | 2026-09-03 00:39:07 | 49.21699 | 17.75017 | 121° | 22km/h | 22416m | -10.1m/s | -51.0°C | 3.4% | 0hPa | 2.5V | 00:00:00 | 00:00:00 | 00:00:00 | |
| OE5MMP-10 | 2026-09-03 00:39:03 | 49.21705 | 17.74993 | 114° | 20km/h | 22451m | -7.9m/s | -51.0°C | 3.4% | 0hPa | 2.5V | 00:00:00 | 01:53:31 | 00:00:00 | |
| POL1PZ | 2026-09-03 00:39:01 | 49.21707 | 17.74987 | 127° | 18km/h | 22461m | -10.8m/s | -51.0°C | 0.9% | 0hPa | 2.5V | 08:26:00 | 00:00:00 | 00:00:00 | |
| OM5KV | 2026-09-03 00:39:00 | 49.21713 | 17.74979 | 154° | 16km/h | 22481m | -10.2m/s | -51.1°C | 0.8% | 0hPa | 2.5V | 08:26:00 | 00:00:00 | 00:00:00 | |
| PETON7-10 | 2026-09-03 00:38:54 | 49.21742 | 17.74959 | 130° | 26km/h | 22539m | -12.0m/s | -51.2°C | 3.5% | 0hPa | 2.5V | 00:00:00 | 01:53:22 | 00:00:00 | |
| OE5MMP-10 | 2026-09-03 00:38:53 | 49.21746 | 17.74953 | 133° | 27km/h | 22549m | -9.2m/s | -51.3°C | 3.5% | 0hPa | 2.5V | 00:00:00 | 01:53:21 | 00:00:00 | |
| DO3MHA-11 | 2026-09-03 00:38:50 | 49.21759 | 17.74932 | 137° | 27km/h | 22576m | -8.0m/s | -51.4°C | 3.6% | 0hPa | 2.5V | 00:00:00 | 01:53:18 | 00:00:00 | |
| OM5KV | 2026-09-03 00:38:47 | 49.21769 | 17.74920 | 146° | 27km/h | 22598m | -12.5m/s | -51.6°C | 0.9% | 0hPa | 2.5V | 08:26:00 | 00:00:00 | 00:00:00 | |
| OE3OSB-13 | 2026-09-03 00:38:45 | 49.21794 | 17.74894 | 144° | 31km/h | 22635m | -7.7m/s | -51.7°C | 0.8% | -1.0hPa | 2.5V | 00:00:00 | 00:00:00 | 00:00:00 | |
| NBG1-10 | 2026-09-03 00:38:44 | 49.21794 | 17.74893 | 145° | 16km/h | 22635m | -7.6m/s | -51.7°C | 3.7% | 0hPa | 2.5V | 00:00:00 | 01:53:12 | 00:00:00 | |
| OE5MMP-10 | 2026-09-03 00:38:43 | 49.21800 | 17.74887 | 145° | 22km/h | 22645m | -11.7m/s | -51.7°C | 3.6% | 0hPa | 2.5V | 00:00:00 | 01:53:11 | 00:00:00 | |
| SP3WXH-11 | 2026-09-03 00:38:42 | 49.21806 | 17.74881 | 146° | 26km/h | 22655m | -9.5m/s | -51.7°C | 0.8% | -1.0hPa | 2.5V | 00:00:00 | 00:00:00 | 00:00:00 | |
| OK1ALN | 2026-09-03 00:38:41 | 49.21806 | 17.74881 | 147° | 27km/h | 22655m | -9.5m/s | -51.7°C | 0.9% | 0hPa | 2.5V | 08:26:00 | 00:00:00 | 00:00:00 | |
| DO3MHA-11 | 2026-09-03 00:38:40 | 49.21816 | 17.74873 | 161° | 22km/h | 22679m | -12.8m/s | -51.5°C | 3.6% | 0hPa | 2.5V | 00:00:00 | 01:53:08 | 00:00:00 | |
| PETON7-10 | 2026-09-03 00:38:39 | 49.21821 | 17.74870 | 165° | 16km/h | 22691m | -10.9m/s | -51.4°C | 3.5% | 0hPa | 2.5V | 08:25:00 | 00:00:00 | 00:00:00 | |
| OE5DXL-15 | 2026-09-03 00:38:37 | 49.21831 | 17.74868 | 173° | 13km/h | 22711m | -10.5m/s | -51.5°C | 3.5% | 0hPa | 2.6V | 08:25:00 | 00:00:00 | 00:00:00 | |
| OM5KV | 2026-09-03 00:38:36 | 49.21836 | 17.74866 | 170° | 22km/h | 22721m | -9.3m/s | -51.6°C | 0.8% | 0hPa | 2.5V | 08:26:00 | 00:00:00 | 00:00:00 | |
| PG1ADW-2 | 2026-09-03 00:38:34 | 49.21847 | 17.74862 | 158° | 13km/h | 22741m | -12.9m/s | -51.6°C | 3.5% | 0hPa | 2.5V | 00:00:00 | 00:00:00 | 00:00:00 | |
| OM5KV | 2026-09-03 00:38:33 | 49.21852 | 17.74858 | 155° | 24km/h | 22754m | -13.2m/s | -51.7°C | 0.9% | 0hPa | 2.5V | 08:26:00 | 00:00:00 | 00:00:00 | |
| HA6NAB-11 | 2026-09-03 00:38:31 | 49.21858 | 17.74854 | 151° | 22km/h | 22766m | -10.7m/s | -51.7°C | 0.9% | 0hPa | 2.5V | 00:00:00 | 00:00:00 | 00:00:00 | |
| DO3MHA-11 | 2026-09-03 00:38:30 | 49.21866 | 17.74846 | 147° | 13km/h | 22785m | -8.3m/s | -51.5°C | 3.5% | 0hPa | 2.5V | 00:00:00 | 01:52:58 | 00:00:00 | |
| OM5KV | 2026-09-03 00:38:26 | 49.21871 | 17.74844 | 216° | 5km/h | 22817m | -7.9m/s | -51.5°C | 0.9% | 0hPa | 2.5V | 08:26:00 | 00:00:00 | 00:00:00 | |
| OE5DRO-10 | 2026-09-03 00:38:25 | 49.21874 | 17.74848 | 212° | 11km/h | 22832m | -7.5m/s | -51.5°C | 3.7% | 0hPa | 2.5V | 00:00:00 | 00:00:00 | 00:00:00 | |
| OM5KV | 2026-09-03 00:38:24 | 49.21877 | 17.74851 | 204° | 15km/h | 22840m | -7.5m/s | -51.6°C | 0.9% | 0hPa | 2.5V | 08:26:00 | 00:00:00 | 00:00:00 | |
| OE5MMP-10 | 2026-09-03 00:38:23 | 49.21881 | 17.74853 | 196° | 11km/h | 22847m | -6.9m/s | -51.6°C | 3.6% | 0hPa | 2.5V | 08:26:00 | 01:52:51 | 00:00:00 | |
| OM5KV | 2026-09-03 00:38:21 | 49.21886 | 17.74854 | 187° | 18km/h | 22854m | -6.0m/s | -51.7°C | 0.9% | 0hPa | 2.6V | 08:26:00 | 00:00:00 | 00:00:00 | |
| OM5KV | 2026-09-03 00:38:20 | 49.21897 | 17.74849 | 141° | 15km/h | 22878m | -10.3m/s | -51.6°C | 0.9% | 0hPa | 2.6V | 08:26:00 | 00:00:00 | 00:00:00 | |
| S52SK | 2026-09-03 00:38:18 | 49.21899 | 17.74846 | 134° | 13km/h | 22889m | -12.6m/s | -51.6°C | 0.9% | 0hPa | 2.6V | 00:00:00 | 00:00:00 | 00:00:00 | |
| OE3OSB-13 | 2026-09-03 00:38:14 | 49.21903 | 17.74836 | 200° | 2km/h | 22947m | -11.0m/s | -51.6°C | 0.8% | -1.0hPa | 2.6V | 00:00:00 | 00:00:00 | 00:00:00 | |
| OE5MMP-10 | 2026-09-03 00:38:13 | 49.21903 | 17.74836 | 201° | 11km/h | 22947m | -11.0m/s | -51.6°C | 3.6% | 0hPa | 2.6V | 00:00:00 | 01:52:41 | 00:00:00 | |
| S52SK | 2026-09-03 00:38:12 | 49.21902 | 17.74836 | 202° | 2km/h | 22947m | -11.0m/s | -51.6°C | 0.9% | 0hPa | 2.6V | 00:00:00 | 00:00:00 | 00:00:00 | |
| NBG1-10 | 2026-09-03 00:38:11 | 49.21905 | 17.74838 | 206° | 15km/h | 22969m | -8.9m/s | -51.6°C | 3.6% | 0hPa | 2.6V | 00:00:00 | 01:52:39 | 08:30:00 | |
| DO3MHA-11 | 2026-09-03 00:38:10 | 49.21908 | 17.74840 | 207° | 11km/h | 22978m | -8.2m/s | -51.5°C | 3.6% | 0hPa | 2.5V | 00:00:00 | 01:52:38 | 00:00:00 | |
| PETON7-10 | 2026-09-03 00:38:09 | 49.21910 | 17.74842 | 204° | 9km/h | 22986m | -7.5m/s | -51.5°C | 3.5% | 0hPa | 2.5V | 00:00:00 | 01:52:37 | 00:00:00 | |
| HA6NAB-11 | 2026-09-03 00:38:08 | 49.21910 | 17.74842 | 204° | 15km/h | 22986m | -7.5m/s | -51.6°C | 0.8% | 0hPa | 2.5V | 00:00:00 | 00:00:00 | 00:00:00 | |
| OE5DXL-15 | 2026-09-03 00:38:07 | 49.21918 | 17.74846 | 189° | 7km/h | 23004m | -9.9m/s | -51.6°C | 3.5% | 0hPa | 2.5V | 00:00:00 | 00:00:00 | 00:00:00 | |
| OE5DRO-10 | 2026-09-03 00:38:06 | 49.21921 | 17.74847 | 191° | 7km/h | 23015m | -11.9m/s | -51.6°C | 3.5% | 0hPa | 2.5V | 00:00:00 | 00:00:00 | 00:00:00 | |
| OM5KV | 2026-09-03 00:38:05 | 49.21921 | 17.74847 | 191° | 13km/h | 23015m | -11.9m/s | -51.7°C | 0.9% | 0hPa | 2.5V | 08:26:00 | 00:00:00 | 00:00:00 | |
| OE5MMP-10 | 2026-09-03 00:38:03 | 49.21927 | 17.74849 | 227° | 5km/h | 23051m | -12.0m/s | -51.7°C | 3.6% | 0hPa | 2.5V | 00:00:00 | 01:52:31 | 00:00:00 | |
| HA6NAB-11 | 2026-09-03 00:38:02 | 49.21927 | 17.74849 | 228° | 5km/h | 23051m | -12.0m/s | -51.8°C | 0.9% | 0hPa | 2.5V | 00:00:00 | 00:00:00 | 00:00:00 | |
| DO3MHA-11 | 2026-09-03 00:38:00 | 49.21928 | 17.74856 | 285° | 5km/h | 23081m | -9.0m/s | -51.8°C | 3.7% | 0hPa | 2.5V | 08:26:00 | 01:52:28 | 00:00:00 | |
| POL1PZ | 2026-09-03 00:37:59 | 49.21928 | 17.74856 | 285° | 5km/h | 23081m | -9.1m/s | -51.8°C | 0.9% | 0hPa | 2.5V | 08:26:00 | 00:00:00 | 00:00:00 | |
| OM5KV | 2026-09-03 00:37:56 | 49.21927 | 17.74863 | 293° | 5km/h | 23112m | -16.0m/s | -51.9°C | 0.9% | 0hPa | 2.5V | 08:26:00 | 00:00:00 | 00:00:00 | |
| PETON7-10 | 2026-09-03 00:37:54 | 49.21927 | 17.74869 | 259° | 7km/h | 23164m | -15.7m/s | -52.0°C | 3.7% | 0hPa | 2.5V | 00:00:00 | 00:00:00 | 00:00:00 | |
| OE5MMP-10 | 2026-09-03 00:37:53 | 49.21927 | 17.74870 | 284° | 7km/h | 23178m | -12.9m/s | -51.9°C | 3.7% | 0hPa | 2.5V | 00:00:00 | 01:52:21 | 00:00:00 | |
| DO3MHA-11 | 2026-09-03 00:37:50 | 49.21923 | 17.74871 | 350° | 9km/h | 23212m | -14.3m/s | -52.0°C | 3.6% | 0hPa | 2.6V | 00:00:00 | 01:52:18 | 00:00:00 | |
| OM5KV | 2026-09-03 00:37:48 | 49.21921 | 17.74873 | 348° | 13km/h | 23227m | -14.9m/s | -52.0°C | 0.9% | 0hPa | 2.6V | 08:26:00 | 00:00:00 | 00:00:00 | |
| OE5DRO-10 | 2026-09-03 00:37:47 | 49.21914 | 17.74874 | 360° | 5km/h | 23252m | -11.6m/s | -52.0°C | 3.6% | 0hPa | 2.6V | 00:00:00 | 00:00:00 | 00:00:00 | |
| OM5KV | 2026-09-03 00:37:44 | 49.21911 | 17.74872 | 60° | 7km/h | 23277m | -14.1m/s | -52.0°C | 0.9% | 0hPa | 2.5V | 08:26:00 | 00:00:00 | 00:00:00 | |
| OE3OSB-13 | 2026-09-03 00:37:43 | 49.21911 | 17.74863 | 102° | 7km/h | 23315m | -10.5m/s | -51.9°C | 0.8% | -1.0hPa | 2.5V | 00:00:00 | 00:00:00 | 00:00:00 | |
| OM5KV | 2026-09-03 00:37:40 | 49.21912 | 17.74857 | 90° | 5km/h | 23331m | -6.6m/s | -51.9°C | 0.9% | 0hPa | 2.5V | 08:27:00 | 00:00:00 | 00:00:00 | |
| PETON7-10 | 2026-09-03 00:37:39 | 49.21911 | 17.74856 | 43° | 5km/h | 23337m | -4.9m/s | -51.8°C | 3.7% | 0hPa | 2.5V | 00:00:00 | 00:00:00 | 00:00:00 | |
| POL1PZ | 2026-09-03 00:37:38 | 49.21911 | 17.74856 | 44° | 5km/h | 23337m | -4.9m/s | -51.9°C | 0.9% | 0hPa | 2.5V | 08:27:00 | 00:00:00 | 00:00:00 | |
| OE5DXL-15 | 2026-09-03 00:37:37 | 49.21908 | 17.74854 | 9° | 5km/h | 23354m | -9.4m/s | -51.7°C | 3.6% | 0hPa | 2.5V | 00:00:00 | 00:00:00 | 00:00:00 | |
| PG1ADW-2 | 2026-09-03 00:37:34 | 49.21905 | 17.74852 | 104° | 5km/h | 23391m | -11.6m/s | -51.8°C | 3.7% | 0hPa | 2.5V | 00:00:00 | 00:00:00 | 00:00:00 | |
| OE5MMP-10 | 2026-09-03 00:37:33 | 49.21906 | 17.74852 | 188° | 5km/h | 23402m | -10.6m/s | 0°C | 0% | 0hPa | 2.5V | 00:00:00 | 01:52:01 | 00:00:00 | |
| DO3MHA-11 | 2026-09-03 00:37:30 | 49.21910 | 17.74852 | 190° | 4km/h | 23432m | -7.7m/s | -51.9°C | 3.7% | 0hPa | 2.5V | 00:00:00 | 01:51:58 | 00:00:00 | |
| OE5DRO-10 | 2026-09-03 00:37:28 | 49.21912 | 17.74853 | 230° | 5km/h | 23449m | -10.6m/s | -52.0°C | 3.8% | 0hPa | 2.5V | 00:00:00 | 00:00:00 | 00:00:00 | |
| OM5KV | 2026-09-03 00:37:26 | 49.21912 | 17.74855 | 309° | 4km/h | 23471m | -10.7m/s | -52.0°C | 0.9% | 0hPa | 2.5V | 08:27:00 | 00:00:00 | 00:00:00 | |
| PETON7-10 | 2026-09-03 00:37:24 | 49.21910 | 17.74857 | 343° | 7km/h | 23491m | -10.9m/s | -51.9°C | 3.7% | 0hPa | 2.5V | 00:00:00 | 01:51:52 | 00:00:00 | |
| OE5MMP-10 | 2026-09-03 00:37:23 | 49.21908 | 17.74858 | 356° | 5km/h | 23501m | -9.7m/s | -51.9°C | 3.7% | 0hPa | 2.5V | 00:00:00 | 01:51:51 | 00:00:00 | |
| DO3MHA-11 | 2026-09-03 00:37:20 | 49.21906 | 17.74856 | 116° | 7km/h | 23536m | -15.2m/s | -51.8°C | 3.6% | 0hPa | 2.6V | 00:00:00 | 01:51:48 | 00:00:00 | |
| POL1PZ | 2026-09-03 00:37:19 | 49.21906 | 17.74855 | 122° | 4km/h | 23549m | -11.9m/s | -51.8°C | 0.9% | 0hPa | 2.6V | 08:27:00 | 00:00:00 | 00:00:00 | |
| OM5KV | 2026-09-03 00:37:15 | 49.21903 | 17.74856 | 331° | 9km/h | 23587m | -8.4m/s | -51.6°C | 0.9% | 0hPa | 2.6V | 08:27:00 | 00:00:00 | 00:00:00 | |
| PG1ADW-2 | 2026-09-03 00:37:14 | 49.21900 | 17.74858 | 338° | 11km/h | 23595m | -8.6m/s | -51.6°C | 3.7% | 0hPa | 2.6V | 00:00:00 | 00:00:00 | 00:00:00 | |
| OE5MMP-10 | 2026-09-03 00:37:13 | 49.21897 | 17.74860 | 350° | 5km/h | 23606m | -11.9m/s | -51.5°C | 3.7% | 0hPa | 2.6V | 00:00:00 | 01:51:41 | 00:00:00 | |
| OE3OSB-13 | 2026-09-03 00:37:12 | 49.21893 | 17.74860 | 10° | 7km/h | 23626m | -8.5m/s | -51.3°C | 0.8% | -1.0hPa | 2.6V | 00:00:00 | 00:00:00 | 00:00:00 | |
| DO3MHA-11 | 2026-09-03 00:37:10 | 49.21891 | 17.74859 | 24° | 7km/h | 23634m | -7.4m/s | -51.3°C | 3.6% | 0hPa | 2.6V | 00:00:00 | 01:51:38 | 00:00:00 | |
| SQ9EZE-14 | 2026-09-03 00:37:09 | 49.21889 | 17.74858 | 36° | 5km/h | 23641m | -6.2m/s | -51.3°C | 0% | 0hPa | 2.6V | 00:00:00 | 00:00:00 | 00:00:00 | |
| OE5DXL-15 | 2026-09-03 00:37:07 | 49.21888 | 17.74856 | 104° | 13km/h | 23659m | -11.8m/s | -51.1°C | 3.5% | 0hPa | 2.6V | 00:00:00 | 00:00:00 | 00:00:00 | |
| OM5KV | 2026-09-03 00:37:05 | 49.21888 | 17.74856 | 0° | 0km/h | 23673m | -15.2m/s | -51.1°C | 0.8% | 0hPa | 2.5V | 08:27:00 | 00:00:00 | 00:00:00 | |
| GYPAP8-17 | 2026-09-03 00:37:03 | 49.21885 | 17.74853 | 28° | 11km/h | 23716m | -16.4m/s | 0°C | 0% | 0hPa | 2.5V | 00:00:00 | 00:00:00 | 00:00:00 | |
| DO3MHA-11 | 2026-09-03 00:37:00 | 49.21876 | 17.74842 | 49° | 13km/h | 23772m | -20.4m/s | -51.1°C | 3.4% | 0hPa | 2.5V | 00:00:00 | 01:51:28 | 00:00:00 | |
| OM5KV | 2026-09-03 00:36:58 | 49.21870 | 17.74830 | 66° | 18km/h | 23813m | -20.4m/s | -51.2°C | 0.8% | 0hPa | 2.5V | 08:27:00 | 00:00:00 | 00:00:00 | |
| PETON7-10 | 2026-09-03 00:36:54 | 49.21869 | 17.74809 | 113° | 15km/h | 23897m | -21.2m/s | -51.3°C | 3.5% | 0hPa | 2.5V | 00:00:00 | 00:00:00 | 00:00:00 | |
| OE5MMP-10 | 2026-09-03 00:36:53 | 49.21870 | 17.74806 | 128° | 11km/h | 23916m | -17.9m/s | -51.2°C | 3.5% | 0hPa | 2.5V | 08:27:00 | 01:51:21 | 00:00:00 | |
| DO3MHA-11 | 2026-09-03 00:36:50 | 49.21874 | 17.74800 | 134° | 16km/h | 23978m | -19.4m/s | -51.2°C | 3.5% | 0hPa | 2.5V | 00:00:00 | 01:51:18 | 00:00:00 | |
| OM5KV | 2026-09-03 00:36:48 | 49.21875 | 17.74797 | 137° | 11km/h | 23998m | -21.1m/s | -51.3°C | 0.8% | 0hPa | 2.5V | 08:28:00 | 00:00:00 | 00:00:00 | |
| OM5KV | 2026-09-03 00:36:45 | 49.21884 | 17.74790 | 161° | 15km/h | 24058m | -19.0m/s | -51.7°C | 0.9% | 0hPa | 2.5V | 08:28:00 | 00:00:00 | 00:00:00 | |
| OE5MMP-10 | 2026-09-03 00:36:43 | 49.21896 | 17.74790 | 205° | 18km/h | 24115m | -18.3m/s | -51.8°C | 3.7% | 0hPa | 2.5V | 00:00:00 | 01:51:11 | 00:00:00 | |
| OM5KV | 2026-09-03 00:36:40 | 49.21906 | 17.74807 | 246° | 22km/h | 24173m | -19.8m/s | -52.1°C | 0.9% | 0hPa | 2.5V | 08:28:00 | 00:00:00 | 00:00:00 | |
| PETON7-10 | 2026-09-03 00:36:39 | 49.21908 | 17.74815 | 252° | 15km/h | 24191m | -16.4m/s | -52.1°C | 3.9% | 0hPa | 2.5V | 00:00:00 | 01:51:07 | 00:00:00 | |
| SP3WXH-11 | 2026-09-03 00:36:38 | 49.21910 | 17.74823 | 261° | 18km/h | 24208m | -18.4m/s | -52.1°C | 0.8% | -1.0hPa | 2.5V | 00:00:00 | 00:00:00 | 00:00:00 | |
| OE5DXL-15 | 2026-09-03 00:36:37 | 49.21910 | 17.74829 | 269° | 13km/h | 24229m | -22.6m/s | -51.8°C | 3.7% | 0hPa | 2.5V | 00:00:00 | 00:00:00 | 00:00:00 | |
| OK1ALN | 2026-09-03 00:36:36 | 49.21910 | 17.74829 | 269° | 16km/h | 24229m | -22.7m/s | -51.8°C | 0.9% | 0hPa | 2.5V | 08:28:00 | 00:00:00 | 00:00:00 | |
| PG1ADW-2 | 2026-09-03 00:36:34 | 49.21908 | 17.74843 | 315° | 15km/h | 24297m | -23.1m/s | -51.7°C | 3.7% | 0hPa | 2.5V | 00:00:00 | 00:00:00 | 00:00:00 | |
| OE5MMP-10 | 2026-09-03 00:36:33 | 49.21906 | 17.74845 | 319° | 15km/h | 24318m | -20.9m/s | -51.7°C | 3.7% | 0hPa | 2.5V | 00:00:00 | 01:51:01 | 00:00:00 | |
| OE5DRO-10 | 2026-09-03 00:36:31 | 49.21902 | 17.74851 | 299° | 15km/h | 24359m | -24.3m/s | -51.6°C | 3.7% | 0hPa | 2.5V | 00:00:00 | 00:00:00 | 00:00:00 | |
| DO3MHA-11 | 2026-09-03 00:36:30 | 49.21901 | 17.74856 | 291° | 16km/h | 24385m | -26.6m/s | -51.5°C | 3.7% | 0hPa | 2.5V | 08:28:00 | 01:50:58 | 00:00:00 | |
| PETON7-10 | 2026-09-03 00:36:24 | 49.21888 | 17.74885 | 354° | 11km/h | 24532m | -23.5m/s | -51.3°C | 3.6% | 0hPa | 2.5V | 08:28:00 | 00:00:00 | 00:00:00 | |
| OE5MMP-10 | 2026-09-03 00:36:23 | 49.21884 | 17.74885 | 5° | 13km/h | 24556m | -25.6m/s | -51.3°C | 3.6% | 0hPa | 2.5V | 00:00:00 | 01:50:51 | 00:00:00 | |
| OM5KV | 2026-09-03 00:36:21 | 49.21879 | 17.74884 | 6° | 20km/h | 24582m | -27.1m/s | -51.4°C | 0.8% | 0hPa | 2.6V | 08:28:00 | 00:00:00 | 00:00:00 | |
| DO3MHA-11 | 2026-09-03 00:36:20 | 49.21870 | 17.74884 | 352° | 7km/h | 24635m | -26.3m/s | -51.3°C | 3.5% | 0hPa | 2.6V | 00:00:00 | 01:50:48 | 00:00:00 | |
| S52SK | 2026-09-03 00:36:19 | 49.21866 | 17.74886 | 347° | 16km/h | 24659m | -22.8m/s | -51.3°C | 0.8% | 0hPa | 2.6V | 00:00:00 | 00:00:00 | 00:00:00 | |
| POL1PZ | 2026-09-03 00:36:17 | 49.21862 | 17.74887 | 342° | 15km/h | 24681m | -20.6m/s | -51.3°C | 0.8% | 0hPa | 2.6V | 08:28:00 | 00:00:00 | 00:00:00 | |
| OK1ALN | 2026-09-03 00:36:16 | 49.21857 | 17.74890 | 339° | 5km/h | 24720m | -20.0m/s | -51.2°C | 0.8% | 0hPa | 2.6V | 08:28:00 | 00:00:00 | 00:00:00 | |
| PG1ADW-2 | 2026-09-03 00:36:14 | 49.21856 | 17.74889 | 87° | 5km/h | 24762m | -23.1m/s | -51.0°C | 3.5% | 0hPa | 2.6V | 00:00:00 | 00:00:00 | 00:00:00 | |
| S52SK | 2026-09-03 00:36:13 | 49.21856 | 17.74886 | 93° | 7km/h | 24786m | -24.4m/s | -51.1°C | 0.8% | 0hPa | 2.6V | 00:00:00 | 00:00:00 | 00:00:00 | |
| OE5DRO-10 | 2026-09-03 00:36:12 | 49.21856 | 17.74884 | 83° | 5km/h | 24809m | -22.8m/s | -51.1°C | 3.6% | 0hPa | 2.6V | 00:00:00 | 00:00:00 | 00:00:00 | |
| HA6NAB-11 | 2026-09-03 00:36:10 | 49.21855 | 17.74880 | 25° | 4km/h | 24851m | -20.8m/s | -51.3°C | 0.9% | 0hPa | 2.6V | 08:28:00 | 00:00:00 | 00:00:00 | |
| OM5KV | 2026-09-03 00:36:09 | 49.21853 | 17.74880 | 360° | 5km/h | 24870m | -18.2m/s | -51.3°C | 0.8% | 0hPa | 2.6V | 08:28:00 | 00:00:00 | 00:00:00 | |
| OE5DXL-15 | 2026-09-03 00:36:07 | 49.21851 | 17.74881 | 356° | 9km/h | 24905m | -16.2m/s | -51.1°C | 3.7% | 0hPa | 2.6V | 00:00:00 | 00:00:00 | 00:00:00 | |
| OE5MMP-10 | 2026-09-03 00:36:03 | 49.21844 | 17.74877 | 46° | 5km/h | 24988m | -25.8m/s | -50.9°C | 3.5% | 0hPa | 2.6V | 00:00:00 | 01:50:31 | 00:00:00 | |
| OK1SLM-15 | 2026-09-03 00:36:02 | 49.21844 | 17.74877 | 46° | 5km/h | 24988m | -25.8m/s | -51.0°C | 0.8% | 0hPa | 2.6V | 08:28:00 | 00:00:00 | 00:00:00 | |
| HA6NAB-11 | 2026-09-03 00:35:58 | 49.21844 | 17.74879 | 253° | 4km/h | 25106m | -27.7m/s | -50.8°C | 0.8% | 0hPa | 2.6V | 00:00:00 | 00:00:00 | 00:00:00 | |
| DO3MHA-11 | 2026-09-03 00:35:57 | 49.21843 | 17.74881 | 36° | 15km/h | 25162m | -29.6m/s | -50.7°C | 3.5% | 0hPa | 2.6V | 00:00:00 | 01:50:25 | 00:00:00 | |
| POL1PZ | 2026-09-03 00:35:56 | 49.21843 | 17.74881 | 37° | 4km/h | 25162m | -29.7m/s | -50.8°C | 0.8% | 0hPa | 2.5V | 00:00:00 | 00:00:00 | 00:00:00 | |
| PETON7-10 | 2026-09-03 00:35:54 | 49.21840 | 17.74870 | 82° | 11km/h | 25257m | -31.5m/s | -50.8°C | 3.5% | 0hPa | 2.5V | 00:00:00 | 01:50:22 | 00:00:00 | |
| OE5MMP-10 | 2026-09-03 00:35:53 | 49.21840 | 17.74863 | 90° | 13km/h | 25288m | -29.7m/s | -50.9°C | 3.6% | 0hPa | 2.5V | 00:00:00 | 01:50:21 | 00:00:00 | |
| HA6NAB-11 | 2026-09-03 00:35:52 | 49.21840 | 17.74863 | 90° | 20km/h | 25288m | -29.8m/s | -50.9°C | 0.8% | 0hPa | 2.5V | 00:00:00 | 00:00:00 | 00:00:00 | |
| OM5KV | 2026-09-03 00:35:50 | 49.21841 | 17.74847 | 102° | 22km/h | 25344m | -27.9m/s | -50.9°C | 0.8% | 0hPa | 2.5V | 08:29:00 | 00:00:00 | 00:00:00 | |
| OM5KV | 2026-09-03 00:35:47 | 49.21845 | 17.74826 | 114° | 5km/h | 25454m | -25.4m/s | -50.8°C | 0.8% | 0hPa | 2.5V | 08:29:00 | 00:00:00 | 00:00:00 | |
| OM5KV | 2026-09-03 00:35:44 | 49.21845 | 17.74826 | 304° | 5km/h | 25505m | -28.3m/s | -50.6°C | 0.8% | 0hPa | 2.5V | 08:29:00 | 00:00:00 | 00:00:00 | |
| OE5MMP-10 | 2026-09-03 00:35:43 | 49.21843 | 17.74830 | 297° | 7km/h | 25560m | -28.5m/s | -50.4°C | 3.5% | 0hPa | 2.5V | 00:00:00 | 01:50:11 | 00:00:00 | |
| PETON7-10 | 2026-09-03 00:35:39 | 49.21842 | 17.74828 | 97° | 13km/h | 25680m | -26.6m/s | -49.8°C | 3.3% | 0hPa | 2.5V | 00:00:00 | 00:00:00 | 00:00:00 | |
| OE3OSB-13 | 2026-09-03 00:35:38 | 49.21842 | 17.74824 | 92° | 11km/h | 25706m | -27.1m/s | -49.7°C | 0.6% | -1.0hPa | 2.6V | 00:00:00 | 00:00:00 | 00:00:00 | |
| OE5DXL-15 | 2026-09-03 00:35:37 | 49.21842 | 17.74820 | 87° | 11km/h | 25735m | -31.6m/s | -49.6°C | 3.3% | 0hPa | 2.6V | 00:00:00 | 00:00:00 | 00:00:00 | |
| SP3WXH-11 | 2026-09-03 00:35:36 | 49.21842 | 17.74816 | 73° | 7km/h | 25768m | -34.6m/s | -49.7°C | 0.7% | -1.0hPa | 2.6V | 00:00:00 | 00:00:00 | 00:00:00 | |
| OK1ALN | 2026-09-03 00:35:35 | 49.21841 | 17.74813 | 49° | 9km/h | 25803m | -34.2m/s | -49.8°C | 0.8% | 0hPa | 2.6V | 08:29:00 | 00:00:00 | 00:00:00 | |
| OE5DRO-10 | 2026-09-03 00:35:34 | 49.21839 | 17.74811 | 38° | 13km/h | 25835m | -32.0m/s | -49.8°C | 3.3% | 0hPa | 2.6V | 00:00:00 | 00:00:00 | 00:00:00 | |
| OE5MMP-10 | 2026-09-03 00:35:33 | 49.21837 | 17.74809 | 34° | 16km/h | 25866m | -29.0m/s | -49.9°C | 3.4% | 0hPa | 2.6V | 00:00:00 | 01:50:01 | 00:00:00 | |
| PG1ADW-2 | 2026-09-03 00:35:29 | 49.21831 | 17.74794 | 88° | 15km/h | 25975m | -26.7m/s | -50.1°C | 3.4% | 0hPa | 2.6V | 00:00:00 | 01:49:57 | 00:00:00 | |
| DO3MHA-11 | 2026-09-03 00:35:27 | 49.21833 | 17.74779 | 108° | 15km/h | 26027m | -23.7m/s | -50.2°C | 3.5% | 0hPa | 2.6V | 00:00:00 | 01:49:55 | 00:00:00 | |
| NBG1-10 | 2026-09-03 00:35:25 | 49.21838 | 17.74764 | 134° | 15km/h | 26077m | -27.7m/s | -49.9°C | 3.4% | 0hPa | 2.5V | 00:00:00 | 01:49:53 | 00:00:00 | |
| PETON7-10 | 2026-09-03 00:35:24 | 49.21842 | 17.74759 | 141° | 11km/h | 26105m | -27.7m/s | -49.7°C | 3.4% | 0hPa | 2.5V | 00:00:00 | 00:00:00 | 00:00:00 | |
| OE5MMP-10 | 2026-09-03 00:35:23 | 49.21845 | 17.74756 | 149° | 11km/h | 26132m | -27.4m/s | -49.6°C | 3.4% | 0hPa | 2.5V | 08:29:00 | 01:49:51 | 00:00:00 | |
| OM5KV | 2026-09-03 00:35:22 | 49.21844 | 17.74756 | 149° | 15km/h | 26132m | -27.4m/s | -49.7°C | 0.8% | 0hPa | 2.6V | 08:29:00 | 00:00:00 | 00:00:00 | |
| DO3MHA-11 | 2026-09-03 00:35:17 | 49.21849 | 17.74739 | 71° | 9km/h | 26289m | -24.8m/s | -49.4°C | 3.4% | 0hPa | 2.6V | 00:00:00 | 01:49:45 | 00:00:00 | |
| OE5DRO-10 | 2026-09-03 00:35:15 | 49.21849 | 17.74729 | 100° | 11km/h | 26338m | -26.1m/s | -49.3°C | 3.3% | 0hPa | 2.6V | 00:00:00 | 00:00:00 | 00:00:00 | |
| OK1ALN | 2026-09-03 00:35:14 | 49.21849 | 17.74725 | 114° | 15km/h | 26364m | -26.9m/s | -49.3°C | 0.7% | 0hPa | 2.6V | 08:29:00 | 00:00:00 | 00:00:00 | |
| OE5MMP-10 | 2026-09-03 00:35:13 | 49.21851 | 17.74720 | 125° | 9km/h | 26392m | -30.9m/s | -49.2°C | 3.3% | 0hPa | 2.6V | 00:00:00 | 01:49:41 | 00:00:00 | |
| PETON7-10 | 2026-09-03 00:35:09 | 49.21852 | 17.74711 | 30° | 13km/h | 26511m | -23.4m/s | -49.5°C | 3.4% | 0hPa | 2.6V | 00:00:00 | 01:49:37 | 00:00:00 | |
| DO3MHA-11 | 2026-09-03 00:35:07 | 49.21847 | 17.74710 | 356° | 15km/h | 26555m | -22.2m/s | -49.5°C | 3.4% | 0hPa | 2.6V | 00:00:00 | 01:49:35 | 00:00:00 | |
| SP3WXH-11 | 2026-09-03 00:35:05 | 49.21841 | 17.74712 | 355° | 9km/h | 26606m | -29.1m/s | -49.4°C | 0.7% | -1.0hPa | 2.6V | 00:00:00 | 00:00:00 | 00:00:00 | |
| OE5MMP-10 | 2026-09-03 00:35:04 | 49.21840 | 17.74709 | 113° | 15km/h | 26662m | -29.1m/s | -49.1°C | 3.3% | 0hPa | 2.6V | 00:00:00 | 01:49:31 | 00:00:00 | |
| OM5KV | 2026-09-03 00:34:58 | 49.21853 | 17.74686 | 137° | 22km/h | 26778m | -28.9m/s | -49.1°C | 0.7% | 0hPa | 2.6V | 00:00:00 | 00:00:00 | 00:00:00 | |
| DO3MHA-11 | 2026-09-03 00:34:57 | 49.21857 | 17.74678 | 103° | 13km/h | 26838m | -31.1m/s | -48.9°C | 3.2% | 0hPa | 2.6V | 00:00:00 | 01:49:25 | 08:30:00 | |
| OE5DRO-10 | 2026-09-03 00:34:56 | 49.21857 | 17.74677 | 359° | 18km/h | 26869m | -30.9m/s | -48.9°C | 3.2% | 0hPa | 2.6V | 00:00:00 | 00:00:00 | 00:00:00 | |
| PETON7-10 | 2026-09-03 00:34:54 | 49.21852 | 17.74680 | 331° | 22km/h | 26927m | -28.0m/s | -48.7°C | 3.1% | 0hPa | 2.5V | 00:00:00 | 00:00:00 | 00:00:00 | |
| OE5MMP-10 | 2026-09-03 00:34:53 | 49.21849 | 17.74683 | 329° | 24km/h | 26955m | -28.6m/s | -48.6°C | 3.1% | 0hPa | 2.5V | 00:00:00 | 01:49:21 | 00:00:00 | |
| OK1ALN | 2026-09-03 00:34:52 | 49.21849 | 17.74683 | 329° | 18km/h | 26955m | -28.6m/s | -48.7°C | 0.7% | 0hPa | 2.6V | 00:00:00 | 00:00:00 | 00:00:00 | |
| OM5KV | 2026-09-03 00:34:49 | 49.21840 | 17.74689 | 75° | 5km/h | 27041m | -32.6m/s | -48.6°C | 0.7% | 0hPa | 2.6V | 00:00:00 | 00:00:00 | 00:00:00 | |
| OK1SLM-15 | 2026-09-03 00:34:44 | 49.21863 | 17.74655 | 153° | 40km/h | 27195m | -29.5m/s | -48.8°C | 0.7% | 0hPa | 2.6V | 00:00:00 | 00:00:00 | 00:00:00 | |
| OE5MMP-10 | 2026-09-03 00:34:43 | 49.21880 | 17.74645 | 167° | 13km/h | 27257m | -31.9m/s | -48.8°C | 3.1% | 0hPa | 2.6V | 00:00:00 | 01:49:11 | 00:00:00 | |
| PETON7-10 | 2026-09-03 00:34:39 | 49.21899 | 17.74644 | 239° | 7km/h | 27371m | -24.0m/s | -49.2°C | 3.3% | 0hPa | 2.6V | 00:00:00 | 00:00:00 | 00:00:00 | |
| OM5KV | 2026-09-03 00:34:38 | 49.21899 | 17.74646 | 295° | 5km/h | 27393m | -20.0m/s | -49.3°C | 0.7% | 0hPa | 2.6V | 00:00:00 | 00:00:00 | 00:00:00 | |
| OE5DXL-15 | 2026-09-03 00:34:37 | 49.21898 | 17.74648 | 316° | 13km/h | 27411m | -16.5m/s | -49.3°C | 3.3% | 0hPa | 2.6V | 00:00:00 | 00:00:00 | 00:00:00 | |
| OE3OSB-13 | 2026-09-03 00:34:36 | 49.21896 | 17.74650 | 335° | 7km/h | 27428m | -18.3m/s | -49.4°C | 0.7% | -1.0hPa | 2.6V | 00:00:00 | 00:00:00 | 00:00:00 | |
| SP3WXH-11 | 2026-09-03 00:34:34 | 49.21895 | 17.74651 | 153° | 2km/h | 27469m | -20.5m/s | -49.5°C | 0.7% | -1.0hPa | 2.6V | 00:00:00 | 00:00:00 | 00:00:00 | |
| OE5MMP-10 | 2026-09-03 00:34:33 | 49.21896 | 17.74650 | 164° | 11km/h | 27489m | -18.4m/s | -49.4°C | 3.4% | 0hPa | 2.6V | 00:00:00 | 01:49:01 | 00:00:00 | |
| OM5KV | 2026-09-03 00:34:32 | 49.21896 | 17.74650 | 165° | 7km/h | 27489m | -18.4m/s | -49.5°C | 0.7% | 0hPa | 2.6V | 00:00:00 | 00:00:00 | 00:00:00 | |
| OK1ALN | 2026-09-03 00:34:31 | 49.21898 | 17.74650 | 176° | 9km/h | 27506m | -15.9m/s | -49.4°C | 0.7% | 0hPa | 2.6V | 00:00:00 | 00:00:00 | 00:00:00 | |
| PG1ADW-2 | 2026-09-03 00:34:29 | 49.21904 | 17.74646 | 128° | 13km/h | 27560m | -17.7m/s | -49.3°C | 3.4% | 0hPa | 2.6V | 00:00:00 | 00:00:00 | 00:00:00 | |
| DO3MHA-11 | 2026-09-03 00:34:27 | 49.21902 | 17.74646 | 348° | 18km/h | 27592m | -14.5m/s | -49.2°C | 3.4% | 0hPa | 2.6V | 00:00:00 | 01:48:55 | 00:00:00 | |
| S52SK | 2026-09-03 00:34:25 | 49.21894 | 17.74649 | 348° | 22km/h | 27624m | -17.3m/s | -48.9°C | 0.7% | 0hPa | 2.5V | 00:00:00 | 00:00:00 | 00:00:00 | |
| PETON7-10 | 2026-09-03 00:34:24 | 49.21889 | 17.74651 | 353° | 15km/h | 27640m | -16.2m/s | -48.7°C | 3.3% | 0hPa | 2.5V | 00:00:00 | 01:48:52 | 00:00:00 | |
| OE5MMP-10 | 2026-09-03 00:34:23 | 49.21884 | 17.74651 | 11° | 18km/h | 27657m | -16.9m/s | -48.6°C | 3.2% | 0hPa | 2.5V | 00:00:00 | 01:48:51 | 00:00:00 | |
| S52SK | 2026-09-03 00:34:18 | 49.21883 | 17.74630 | 118° | 26km/h | 27722m | -17.4m/s | -48.5°C | 0.7% | 0hPa | 2.7V | 00:00:00 | 00:00:00 | 00:00:00 | |
| DO3MHA-11 | 2026-09-03 00:34:17 | 49.21890 | 17.74614 | 135° | 13km/h | 27755m | -18.4m/s | -48.3°C | 3.1% | 0hPa | 2.7V | 00:00:00 | 01:48:45 | 00:00:00 | |
| OE5MMP-10 | 2026-09-03 00:34:13 | 49.21901 | 17.74601 | 149° | 16km/h | 27817m | -16.8m/s | -48.3°C | 3.1% | 0hPa | 2.7V | 00:00:00 | 01:48:41 | 00:00:00 | |
| POL1PZ | 2026-09-03 00:34:11 | 49.21901 | 17.74599 | 105° | 4km/h | 27833m | -14.9m/s | -48.3°C | 0.6% | 0hPa | 2.7V | 00:00:00 | 00:00:00 | 00:00:00 | |
| HA6NAB-11 | 2026-09-03 00:34:09 | 49.21902 | 17.74593 | 114° | 15km/h | 27865m | -15.6m/s | -48.2°C | 0.7% | 0hPa | 2.7V | 00:00:00 | 00:00:00 | 00:00:00 | |
| DO3MHA-11 | 2026-09-03 00:34:08 | 49.21910 | 17.74574 | 128° | 18km/h | 27899m | -4.6m/s | -48.1°C | 3.1% | 0hPa | 2.7V | 00:00:00 | 01:48:35 | 00:00:00 | |
| OE5DXL-15 | 2026-09-03 00:34:07 | 49.21910 | 17.74574 | 128° | 18km/h | 27899m | -4.6m/s | -48.1°C | 3.1% | 0hPa | 2.7V | 00:00:00 | 00:00:00 | 08:30:00 | |
| HA6NAB-11 | 2026-09-03 00:34:04 | 49.21918 | 17.74560 | 142° | 26km/h | 27893m | 6.1m/s | -48.2°C | 0.7% | 0hPa | 2.5V | 00:00:00 | 00:00:00 | 00:00:00 | |
| OE5MMP-10 | 2026-09-03 00:34:03 | 49.21929 | 17.74552 | 169° | 16km/h | 27881m | 6.3m/s | -48.2°C | 3.0% | 0hPa | 2.5V | 00:00:00 | 01:48:31 | 00:00:00 | |
| OM5KV | 2026-09-03 00:34:02 | 49.21929 | 17.74552 | 169° | 20km/h | 27881m | 6.4m/s | -48.2°C | 0.7% | 0hPa | 2.5V | 00:00:00 | 00:00:00 | 00:00:00 | |
| OE5DRO-10 | 2026-09-03 00:33:59 | 49.21945 | 17.74554 | 190° | 16km/h | 27856m | 6.7m/s | -48.3°C | 3.1% | 0hPa | 2.5V | 00:00:00 | 00:00:00 | 00:00:00 | |
| HA6NAB-11 | 2026-09-03 00:33:58 | 49.21944 | 17.74554 | 191° | 16km/h | 27856m | 6.7m/s | -48.4°C | 0.6% | 0hPa | 2.7V | 00:00:00 | 00:00:00 | 00:00:00 | |
| DO3MHA-11 | 2026-09-03 00:33:56 | 49.21958 | 17.74551 | 149° | 20km/h | 27837m | 5.5m/s | -48.4°C | 3.1% | 0hPa | 2.7V | 00:00:00 | 01:48:24 | 00:00:00 | |
| PETON7-10 | 2026-09-03 00:33:54 | 49.21962 | 17.74541 | 102° | 16km/h | 27823m | 7.1m/s | -48.4°C | 3.1% | 0hPa | 2.5V | 00:00:00 | 00:00:00 | 00:00:00 | |
| OE5MMP-10 | 2026-09-03 00:33:53 | 49.21963 | 17.74534 | 94° | 18km/h | 27816m | 5.6m/s | -48.4°C | 3.1% | 0hPa | 2.5V | 00:00:00 | 01:48:21 | 08:30:00 | |
| GYPAP8-17 | 2026-09-03 00:33:52 | 49.21963 | 17.74534 | 94° | 22km/h | 27816m | 5.7m/s | 0°C | 0% | 0hPa | 2.7V | 00:00:00 | 00:00:00 | 00:00:00 | |
| POL1PZ | 2026-09-03 00:33:51 | 49.21964 | 17.74524 | 98° | 26km/h | 27810m | 7.0m/s | -48.5°C | 0.7% | 0hPa | 2.7V | 00:00:00 | 00:00:00 | 00:00:00 | |
| HA6NAB-11 | 2026-09-03 00:33:48 | 49.21969 | 17.74499 | 118° | 20km/h | 27791m | 4.9m/s | -48.5°C | 0.7% | 0hPa | 2.7V | 00:00:00 | 00:00:00 | 00:00:00 | |
| OM5KV | 2026-09-03 00:33:47 | 49.21973 | 17.74487 | 120° | 13km/h | 27778m | 7.3m/s | -48.5°C | 0.7% | 0hPa | 2.7V | 00:00:00 | 00:00:00 | 00:00:00 | |
| DO3MHA-11 | 2026-09-03 00:33:46 | 49.21974 | 17.74483 | 124° | 15km/h | 27771m | 6.5m/s | -48.5°C | 3.1% | 0hPa | 2.7V | 00:00:00 | 01:48:14 | 00:00:00 | |
| OE5MMP-10 | 2026-09-03 00:33:43 | 49.21981 | 17.74474 | 139° | 15km/h | 27751m | 4.2m/s | -48.5°C | 3.1% | 0hPa | 2.7V | 00:00:00 | 01:48:11 | 00:00:00 | |
| HA6NAB-11 | 2026-09-03 00:33:42 | 49.21981 | 17.74474 | 140° | 13km/h | 27751m | 4.3m/s | -48.6°C | 0.7% | 0hPa | 2.7V | 00:00:00 | 00:00:00 | 00:00:00 | |
| OM5KV | 2026-09-03 00:33:41 | 49.21983 | 17.74467 | 89° | 9km/h | 27741m | 7.4m/s | -48.6°C | 0.7% | 0hPa | 2.7V | 00:00:00 | 00:00:00 | 00:00:00 | |
| OE5DRO-10 | 2026-09-03 00:33:40 | 49.21982 | 17.74464 | 59° | 16km/h | 27733m | 7.6m/s | -48.5°C | 3.1% | 0hPa | 2.7V | 00:00:00 | 00:00:00 | 00:00:00 | |
| PETON7-10 | 2026-09-03 00:33:39 | 49.21980 | 17.74458 | 55° | 13km/h | 27726m | 6.0m/s | -48.6°C | 3.1% | 0hPa | 2.7V | 00:00:00 | 01:48:07 | 00:00:00 | |
| OE5DXL-15 | 2026-09-03 00:33:36 | 49.21973 | 17.74436 | 79° | 13km/h | 27707m | 5.2m/s | -48.6°C | 3.1% | 0hPa | 2.7V | 00:00:00 | 00:00:00 | 00:00:00 | |
| OE3OSB-13 | 2026-09-03 00:33:34 | 49.21972 | 17.74425 | 75° | 7km/h | 27695m | 7.6m/s | -48.7°C | 0.6% | -1.0hPa | 2.7V | 00:00:00 | 00:00:00 | 00:00:00 | |
| OE5MMP-10 | 2026-09-03 00:33:33 | 49.21971 | 17.74424 | 345° | 13km/h | 27688m | 7.9m/s | -48.7°C | 3.1% | 0hPa | 2.7V | 00:00:00 | 01:48:01 | 00:00:00 | |
| SP3BTT-10 | 2026-09-03 00:33:32 | 49.21971 | 17.74425 | 277° | 11km/h | 27680m | 6.5m/s | 0°C | 0% | 0hPa | 2.7V | 00:00:00 | 00:00:00 | 00:00:00 | |
| OK1SLM-15 | 2026-09-03 00:33:31 | 49.21971 | 17.74429 | 265° | 9km/h | 27674m | 6.9m/s | -48.8°C | 0.7% | 0hPa | 2.7V | 00:00:00 | 00:00:00 | 00:00:00 | |
| POL1PZ | 2026-09-03 00:33:30 | 49.21971 | 17.74429 | 265° | 9km/h | 27674m | 6.9m/s | -48.8°C | 0.7% | 0hPa | 2.7V | 00:00:00 | 00:00:00 | 00:00:00 | |
| OM5KV | 2026-09-03 00:33:29 | 49.21971 | 17.74432 | 256° | 7km/h | 27667m | 7.2m/s | -48.9°C | 0.7% | 0hPa | 2.7V | 00:00:00 | 00:00:00 | 00:00:00 | |
| PG1ADW-2 | 2026-09-03 00:33:27 | 49.21968 | 17.74431 | 25° | 11km/h | 27648m | 8.2m/s | -49.0°C | 3.1% | 0hPa | 2.7V | 00:00:00 | 01:47:55 | 00:00:00 | |
| DO3MHA-11 | 2026-09-03 00:33:26 | 49.21964 | 17.74428 | 29° | 18km/h | 27640m | 7.4m/s | -49.1°C | 3.1% | 0hPa | 2.7V | 00:00:00 | 01:47:54 | 08:30:00 | |
| OM5KV | 2026-09-03 00:33:25 | 49.21959 | 17.74423 | 37° | 26km/h | 27633m | 5.8m/s | -49.2°C | 0.7% | 0hPa | 2.5V | 00:00:00 | 00:00:00 | 00:00:00 | |
| PETON7-10 | 2026-09-03 00:33:24 | 49.21954 | 17.74417 | 44° | 15km/h | 27627m | 6.6m/s | -49.2°C | 3.2% | 0hPa | 2.5V | 00:00:00 | 00:00:00 | 00:00:00 | |
| OE5MMP-10 | 2026-09-03 00:33:23 | 49.21949 | 17.74410 | 54° | 15km/h | 27620m | 6.3m/s | -49.3°C | 3.2% | 0hPa | 2.5V | 00:00:00 | 01:47:51 | 00:00:00 | |
| OE5DRO-10 | 2026-09-03 00:33:21 | 49.21945 | 17.74400 | 44° | 11km/h | 27610m | 5.5m/s | -49.3°C | 3.2% | 0hPa | 2.5V | 00:00:00 | 00:00:00 | 00:00:00 | |
| OK1SLM-15 | 2026-09-03 00:33:19 | 49.21943 | 17.74399 | 342° | 5km/h | 27603m | 7.9m/s | -49.4°C | 0.7% | 0hPa | 2.5V | 00:00:00 | 00:00:00 | 00:00:00 | |
| DO3MHA-11 | 2026-09-03 00:33:16 | 49.21940 | 17.74421 | 268° | 13km/h | 27575m | 6.9m/s | -49.4°C | 3.3% | 0hPa | 2.5V | 00:00:00 | 01:47:44 | 00:00:00 | |
| OE5MMP-10 | 2026-09-03 00:33:13 | 49.21938 | 17.74434 | 317° | 11km/h | 27557m | 7.5m/s | -49.4°C | 3.3% | 0hPa | 2.5V | 00:00:00 | 01:47:41 | 00:00:00 | |
| POL1PZ | 2026-09-03 00:33:10 | 49.21933 | 17.74436 | 15° | 13km/h | 27544m | 5.7m/s | -49.5°C | 0.7% | 0hPa | 2.5V | 00:00:00 | 00:00:00 | 00:00:00 | |
| PETON7-10 | 2026-09-03 00:33:09 | 49.21928 | 17.74430 | 71° | 9km/h | 27531m | 8.0m/s | -49.5°C | 3.3% | 0hPa | 2.5V | 00:00:00 | 00:00:00 | 00:00:00 | |
| OM5KV | 2026-09-03 00:33:07 | 49.21928 | 17.74425 | 104° | 15km/h | 27524m | 6.3m/s | -49.6°C | 0.7% | 0hPa | 2.5V | 00:00:00 | 00:00:00 | 00:00:00 | |
| OE5DXL-15 | 2026-09-03 00:33:06 | 49.21931 | 17.74417 | 137° | 13km/h | 27513m | 6.4m/s | -49.6°C | 3.4% | 0hPa | 2.5V | 00:00:00 | 00:00:00 | 00:00:00 | |
| OE5MMP-10 | 2026-09-03 00:33:03 | 49.21933 | 17.74420 | 258° | 9km/h | 27494m | 5.9m/s | -49.5°C | 3.3% | 0hPa | 2.5V | 00:00:00 | 01:47:31 | 00:00:00 | |
| SP3WXH-11 | 2026-09-03 00:33:01 | 49.21936 | 17.74430 | 232° | 7km/h | 27473m | 6.1m/s | -49.6°C | 0.7% | -1.0hPa | 2.5V | 00:00:00 | 00:00:00 | 00:00:00 | |
| DO3MHA-11 | 2026-09-03 00:32:55 | 49.21940 | 17.74434 | 132° | 13km/h | 27439m | 8.3m/s | -49.4°C | 3.3% | 0hPa | 2.5V | 00:00:00 | 01:47:23 | 00:00:00 | |
| PETON7-10 | 2026-09-03 00:32:54 | 49.21942 | 17.74430 | 130° | 16km/h | 27432m | 5.9m/s | -49.4°C | 3.3% | 0hPa | 2.5V | 00:00:00 | 01:47:22 | 00:00:00 | |
| OE5MMP-10 | 2026-09-03 00:32:53 | 49.21945 | 17.74425 | 135° | 15km/h | 27427m | 4.2m/s | -49.4°C | 3.2% | 0hPa | 2.5V | 00:00:00 | 01:47:21 | 00:00:00 | |
| POL1PZ | 2026-09-03 00:32:49 | 49.21953 | 17.74418 | 196° | 9km/h | 27407m | 6.2m/s | -49.4°C | 0.7% | 0hPa | 2.5V | 00:00:00 | 00:00:00 | 00:00:00 | |
| GYPAP8-17 | 2026-09-03 00:32:48 | 49.21955 | 17.74420 | 205° | 11km/h | 27401m | 5.8m/s | 0°C | 0% | 0hPa | 2.5V | 00:00:00 | 00:00:00 | 00:00:00 | |
| DO3MHA-11 | 2026-09-03 00:32:44 | 49.21974 | 17.74430 | 210° | 20km/h | 27367m | 7.2m/s | -49.4°C | 3.3% | 0hPa | 2.5V | 00:00:00 | 01:47:12 | 00:00:00 | |
| OE5MMP-10 | 2026-09-03 00:32:43 | 49.21977 | 17.74433 | 202° | 20km/h | 27361m | 5.0m/s | -49.4°C | 3.3% | 0hPa | 2.5V | 00:00:00 | 01:47:11 | 00:00:00 | |
| PETON7-10 | 2026-09-03 00:32:39 | 49.21997 | 17.74425 | 141° | 20km/h | 27334m | 6.2m/s | -49.3°C | 3.3% | 0hPa | 2.5V | 00:00:00 | 00:00:00 | 00:00:00 | |
| OE5DXL-15 | 2026-09-03 00:32:36 | 49.22009 | 17.74406 | 131° | 18km/h | 27314m | 5.0m/s | -49.2°C | 3.3% | 0hPa | 2.7V | 00:00:00 | 00:00:00 | 00:00:00 | |
| DO3MHA-11 | 2026-09-03 00:32:34 | 49.22016 | 17.74397 | 149° | 18km/h | 27301m | 7.8m/s | -49.2°C | 3.3% | 0hPa | 2.5V | 00:00:00 | 01:47:02 | 00:00:00 | |
| OE5MMP-10 | 2026-09-03 00:32:33 | 49.22020 | 17.74394 | 162° | 20km/h | 27294m | 6.7m/s | -49.1°C | 3.2% | 0hPa | 2.5V | 00:00:00 | 01:47:01 | 00:00:00 | |
| OE3OSB-13 | 2026-09-03 00:32:32 | 49.22025 | 17.74392 | 177° | 18km/h | 27288m | 6.1m/s | -49.2°C | 0.7% | -1.0hPa | 2.5V | 00:00:00 | 00:00:00 | 00:00:00 | |
| OK1ALN | 2026-09-03 00:32:29 | 49.22034 | 17.74395 | 207° | 16km/h | 27273m | 8.0m/s | -49.1°C | 0.7% | 0hPa | 2.5V | 00:00:00 | 00:00:00 | 00:00:00 | |
| S52SK | 2026-09-03 00:32:28 | 49.22038 | 17.74397 | 209° | 15km/h | 27266m | 5.4m/s | -49.1°C | 0.7% | 0hPa | 2.5V | 00:00:00 | 00:00:00 | 00:00:00 | |
| OM5KV | 2026-09-03 00:32:26 | 49.22045 | 17.74399 | 169° | 16km/h | 27254m | 7.8m/s | -49.1°C | 0.7% | 0hPa | 2.5V | 00:00:00 | 00:00:00 | 00:00:00 | |
| DO3MHA-11 | 2026-09-03 00:32:24 | 49.22058 | 17.74383 | 128° | 18km/h | 27233m | 7.5m/s | -49.0°C | 3.2% | 0hPa | 2.5V | 00:00:00 | 01:46:52 | 00:00:00 | |
| OE5MMP-10 | 2026-09-03 00:32:23 | 49.22062 | 17.74375 | 120° | 16km/h | 27226m | 7.6m/s | -49.0°C | 3.2% | 0hPa | 2.5V | 00:00:00 | 01:46:51 | 08:30:00 | |
| S52SK | 2026-09-03 00:32:22 | 49.22062 | 17.74375 | 120° | 26km/h | 27226m | 7.6m/s | -49.0°C | 0.7% | 0hPa | 2.5V | 00:00:00 | 00:00:00 | 00:00:00 | |
| OM5KV | 2026-09-03 00:32:20 | 49.22067 | 17.74358 | 120° | 26km/h | 27213m | 6.0m/s | -49.0°C | 0.7% | 0hPa | 2.5V | 00:00:00 | 00:00:00 | 00:00:00 | |
| DO3MHA-11 | 2026-09-03 00:32:14 | 49.22085 | 17.74334 | 184° | 18km/h | 27167m | 5.8m/s | -49.0°C | 3.2% | 0hPa | 2.5V | 00:00:00 | 01:46:42 | 00:00:00 | |
| OE5MMP-10 | 2026-09-03 00:32:13 | 49.22086 | 17.74333 | 156° | 20km/h | 27160m | 7.6m/s | -49.0°C | 3.2% | 0hPa | 2.5V | 00:00:00 | 01:46:41 | 00:00:00 | |
| PETON7-10 | 2026-09-03 00:32:09 | 49.22097 | 17.74312 | 115° | 16km/h | 27132m | 7.2m/s | -48.9°C | 3.2% | 0hPa | 2.5V | 00:00:00 | 01:46:37 | 00:00:00 | |
| OM5KV | 2026-09-03 00:32:08 | 49.22097 | 17.74312 | 116° | 22km/h | 27132m | 7.3m/s | -49.0°C | 0.7% | 0hPa | 2.5V | 00:00:00 | 00:00:00 | 00:00:00 | |
| POL1PZ | 2026-09-03 00:32:07 | 49.22100 | 17.74304 | 115° | 24km/h | 27125m | 5.8m/s | -49.0°C | 0.7% | 0hPa | 2.5V | 00:00:00 | 00:00:00 | 00:00:00 | |
| OE5DXL-15 | 2026-09-03 00:32:06 | 49.22105 | 17.74287 | 118° | 15km/h | 27113m | 7.3m/s | -48.9°C | 3.2% | 0hPa | 2.5V | 00:00:00 | 00:00:00 | 00:00:00 | |
| OE5DRO-10 | 2026-09-03 00:32:05 | 49.22108 | 17.74279 | 116° | 13km/h | 27107m | 5.1m/s | -48.9°C | 3.2% | 0hPa | 2.5V | 00:00:00 | 00:00:00 | 00:00:00 | |
| DO3MHA-11 | 2026-09-03 00:32:04 | 49.22109 | 17.74273 | 103° | 13km/h | 27102m | 5.0m/s | -48.8°C | 3.2% | 0hPa | 2.5V | 00:00:00 | 01:46:32 | 00:00:00 | |
| OE5MMP-10 | 2026-09-03 00:32:03 | 49.22109 | 17.74269 | 71° | 15km/h | 27096m | 7.2m/s | -48.8°C | 3.2% | 0hPa | 2.5V | 00:00:00 | 01:46:31 | 00:00:00 | |
| OE3OSB-13 | 2026-09-03 00:32:01 | 49.22104 | 17.74265 | 0° | 16km/h | 27080m | 6.4m/s | -48.8°C | 0.6% | -1.0hPa | 2.5V | 00:00:00 | 00:00:00 | 00:00:00 | |
| SP3WXH-11 | 2026-09-03 00:31:59 | 49.22094 | 17.74265 | 38° | 5km/h | 27062m | 6.4m/s | -48.8°C | 0.6% | -1.0hPa | 2.5V | 00:00:00 | 00:00:00 | 00:00:00 | |
| OM5KV | 2026-09-03 00:31:56 | 49.22093 | 17.74262 | 104° | 9km/h | 27056m | 6.0m/s | -48.8°C | 0.7% | 0hPa | 2.5V | 00:00:00 | 00:00:00 | 00:00:00 | |
| PETON7-10 | 2026-09-03 00:31:54 | 49.22097 | 17.74244 | 105° | 15km/h | 27036m | 6.4m/s | -48.9°C | 3.2% | 0hPa | 2.5V | 00:00:00 | 00:00:00 | 08:30:00 | |
| OE5MMP-10 | 2026-09-03 00:31:53 | 49.22099 | 17.74236 | 106° | 15km/h | 27031m | 4.8m/s | -48.9°C | 3.2% | 0hPa | 2.5V | 00:00:00 | 01:46:21 | 00:00:00 | |
| OM5KV | 2026-09-03 00:31:52 | 49.22099 | 17.74236 | 107° | 18km/h | 27031m | 4.8m/s | -48.9°C | 0.7% | 0hPa | 2.5V | 00:00:00 | 00:00:00 | 00:00:00 | |
| HA6NAB-11 | 2026-09-03 00:31:49 | 49.22103 | 17.74225 | 174° | 5km/h | 27011m | 6.0m/s | -48.9°C | 0.7% | 0hPa | 2.5V | 00:00:00 | 00:00:00 | 00:00:00 | |
| POL1PZ | 2026-09-03 00:31:47 | 49.22103 | 17.74227 | 330° | 7km/h | 27000m | 7.0m/s | -48.8°C | 0.7% | 0hPa | 2.5V | 00:00:00 | 00:00:00 | 00:00:00 | |
| OE5DRO-10 | 2026-09-03 00:31:46 | 49.22096 | 17.74229 | 352° | 15km/h | 26985m | 5.9m/s | -48.8°C | 3.1% | 0hPa | 2.5V | 00:00:00 | 00:00:00 | 00:00:00 | |
| DO3MHA-11 | 2026-09-03 00:31:44 | 49.22085 | 17.74233 | 346° | 13km/h | 26973m | 7.2m/s | -48.8°C | 3.1% | 0hPa | 2.5V | 00:00:00 | 01:46:12 | 00:00:00 | |
| OE5MMP-10 | 2026-09-03 00:31:43 | 49.22081 | 17.74235 | 343° | 11km/h | 26966m | 6.0m/s | -48.9°C | 3.1% | 0hPa | 2.5V | 00:00:00 | 01:46:11 | 00:00:00 | |
| PETON7-10 | 2026-09-03 00:31:39 | 49.22071 | 17.74233 | 78° | 13km/h | 26941m | 5.7m/s | -49.0°C | 3.2% | 0hPa | 2.5V | 00:00:00 | 00:00:00 | 00:00:00 | |
| HA6NAB-11 | 2026-09-03 00:31:38 | 49.22071 | 17.74233 | 79° | 7km/h | 26941m | 5.8m/s | -49.0°C | 0.7% | 0hPa | 2.5V | 00:00:00 | 00:00:00 | 00:00:00 | |
| OE5DXL-15 | 2026-09-03 00:31:36 | 49.22076 | 17.74225 | 166° | 11km/h | 26921m | 6.5m/s | -49.1°C | 3.2% | 0hPa | 2.5V | 00:00:00 | 00:00:00 | 00:00:00 | |
| OM5KV | 2026-09-03 00:31:35 | 49.22076 | 17.74225 | 167° | 15km/h | 26921m | 6.5m/s | -49.1°C | 0.7% | 0hPa | 2.5V | 00:00:00 | 00:00:00 | 00:00:00 | |
| DO3MHA-11 | 2026-09-03 00:31:34 | 49.22082 | 17.74223 | 160° | 13km/h | 26910m | 5.6m/s | -49.1°C | 3.2% | 0hPa | 2.5V | 00:00:00 | 01:46:02 | 00:00:00 | |
| HA6NAB-11 | 2026-09-03 00:31:33 | 49.22083 | 17.74222 | 82° | 4km/h | 26903m | 7.2m/s | -49.2°C | 0.7% | 0hPa | 2.5V | 00:00:00 | 00:00:00 | 00:00:00 | |
| OE3OSB-13 | 2026-09-03 00:31:30 | 49.22069 | 17.74216 | 6° | 16km/h | 26877m | 7.0m/s | -49.2°C | 0.6% | -1.0hPa | 2.5V | 00:00:00 | 00:00:00 | 00:00:00 | |
| SP3WXH-11 | 2026-09-03 00:31:28 | 49.22062 | 17.74213 | 27° | 11km/h | 26864m | 5.4m/s | -49.2°C | 0.7% | -1.0hPa | 2.5V | 00:00:00 | 00:00:00 | 00:00:00 | |
| OE5DRO-10 | 2026-09-03 00:31:27 | 49.22062 | 17.74213 | 28° | 11km/h | 26865m | 5.4m/s | -49.2°C | 3.3% | 0hPa | 2.5V | 00:00:00 | 00:00:00 | 00:00:00 | |
| OK1ALN | 2026-09-03 00:31:26 | 49.22062 | 17.74213 | 28° | 11km/h | 26865m | 5.4m/s | -49.2°C | 0.7% | 0hPa | 2.5V | 00:00:00 | 00:00:00 | 00:00:00 | |
| PETON7-10 | 2026-09-03 00:31:24 | 49.22055 | 17.74203 | 54° | 9km/h | 26846m | 5.6m/s | -49.3°C | 3.3% | 0hPa | 2.5V | 00:00:00 | 01:45:52 | 00:00:00 | |
| OE5MMP-10 | 2026-09-03 00:31:23 | 49.22054 | 17.74200 | 60° | 7km/h | 26840m | 6.0m/s | -49.3°C | 3.3% | 0hPa | 2.5V | 00:00:00 | 01:45:51 | 00:00:00 | |
| OM5KV | 2026-09-03 00:31:22 | 49.22054 | 17.74200 | 60° | 9km/h | 26840m | 6.0m/s | -49.4°C | 0.7% | 0hPa | 2.5V | 00:00:00 | 00:00:00 | 00:00:00 | |
| OM5KV | 2026-09-03 00:31:18 | 49.22055 | 17.74195 | 78° | 5km/h | 26807m | 7.3m/s | -49.4°C | 0.7% | 0hPa | 2.5V | 00:00:00 | 00:00:00 | 00:00:00 | |
| DO3MHA-11 | 2026-09-03 00:31:14 | 49.22053 | 17.74177 | 103° | 15km/h | 26782m | 7.2m/s | -49.3°C | 3.3% | 0hPa | 2.5V | 00:00:00 | 01:45:42 | 00:00:00 | |
| OM5KV | 2026-09-03 00:31:13 | 49.22054 | 17.74172 | 106° | 13km/h | 26775m | 5.5m/s | -49.4°C | 0.7% | 0hPa | 2.5V | 00:00:00 | 00:00:00 | 00:00:00 | |
| PETON7-10 | 2026-09-03 00:31:09 | 49.22053 | 17.74150 | 81° | 15km/h | 26749m | 5.4m/s | -49.2°C | 3.2% | 0hPa | 2.5V | 00:00:00 | 00:00:00 | 00:00:00 | |
| OM5KV | 2026-09-03 00:31:08 | 49.22053 | 17.74144 | 98° | 13km/h | 26742m | 7.6m/s | -49.3°C | 0.7% | 0hPa | 2.7V | 00:00:00 | 00:00:00 | 00:00:00 | |
| POL1PZ | 2026-09-03 00:31:07 | 49.22054 | 17.74140 | 123° | 13km/h | 26735m | 7.7m/s | -49.3°C | 0.7% | 0hPa | 2.7V | 00:00:00 | 00:00:00 | 00:00:00 | |
| OE5DXL-15 | 2026-09-03 00:31:06 | 49.22056 | 17.74135 | 132° | 11km/h | 26728m | 5.0m/s | -49.2°C | 3.2% | 0hPa | 2.7V | 00:00:00 | 00:00:00 | 00:00:00 | |
| OK1ALN | 2026-09-03 00:31:05 | 49.22056 | 17.74135 | 132° | 15km/h | 26728m | 5.1m/s | -49.2°C | 0.7% | 0hPa | 2.5V | 00:00:00 | 00:00:00 | 00:00:00 | |
| DO3MHA-11 | 2026-09-03 00:31:04 | 49.22061 | 17.74126 | 117° | 15km/h | 26715m | 7.7m/s | -49.2°C | 3.2% | 0hPa | 2.5V | 00:00:00 | 01:45:32 | 00:00:00 | |
| OE5MMP-10 | 2026-09-03 00:31:03 | 49.22062 | 17.74120 | 108° | 15km/h | 26708m | 6.0m/s | -49.2°C | 3.2% | 0hPa | 2.5V | 00:00:00 | 01:45:31 | 00:00:00 | |
| OM5KV | 2026-09-03 00:31:02 | 49.22062 | 17.74120 | 108° | 16km/h | 26708m | 6.0m/s | -49.3°C | 0.7% | 0hPa | 2.5V | 00:00:00 | 00:00:00 | 00:00:00 | |
| OE3OSB-13 | 2026-09-03 00:30:59 | 49.22068 | 17.74092 | 88° | 15km/h | 26675m | 7.8m/s | -49.4°C | 0.7% | -1.0hPa | 2.5V | 00:00:00 | 00:00:00 | 00:00:00 | |
| NBG1-10 | 2026-09-03 00:30:58 | 49.22068 | 17.74092 | 89° | 15km/h | 26675m | 7.7m/s | -49.3°C | 3.2% | 0hPa | 2.5V | 00:00:00 | 01:45:26 | 00:00:00 | |
| OM5KV | 2026-09-03 00:30:57 | 49.22068 | 17.74086 | 72° | 16km/h | 26668m | 7.3m/s | -49.4°C | 0.7% | 0hPa | 2.5V | 00:00:00 | 00:00:00 | 00:00:00 | |
| PETON7-10 | 2026-09-03 00:30:54 | 49.22063 | 17.74072 | 72° | 7km/h | 26649m | 7.6m/s | -49.5°C | 3.3% | 0hPa | 2.5V | 00:00:00 | 00:00:00 | 00:00:00 | |
| OE5MMP-10 | 2026-09-03 00:30:53 | 49.22063 | 17.74069 | 79° | 7km/h | 26643m | 5.0m/s | -49.5°C | 3.3% | 0hPa | 2.5V | 00:00:00 | 01:45:21 | 08:30:00 | |
| OM5KV | 2026-09-03 00:30:50 | 49.22062 | 17.74064 | 51° | 7km/h | 26632m | 6.8m/s | -49.6°C | 0.7% | 0hPa | 2.7V | 00:00:00 | 00:00:00 | 00:00:00 | |
| OE5DRO-10 | 2026-09-03 00:30:49 | 49.22058 | 17.74061 | 10° | 7km/h | 26619m | 5.6m/s | -49.6°C | 3.3% | 0hPa | 2.7V | 00:00:00 | 00:00:00 | 00:00:00 | |
| OK1SLM-15 | 2026-09-03 00:30:48 | 49.22058 | 17.74061 | 11° | 9km/h | 26619m | 5.7m/s | -49.6°C | 0% | 0hPa | 2.7V | 00:00:00 | 00:00:00 | 00:00:00 | |
| POL1PZ | 2026-09-03 00:30:45 | 49.22053 | 17.74064 | 299° | 5km/h | 26600m | 6.1m/s | -49.7°C | 0.7% | 0hPa | 2.7V | 00:00:00 | 00:00:00 | 00:00:00 | |
| DO3MHA-11 | 2026-09-03 00:30:44 | 49.22051 | 17.74066 | 32° | 9km/h | 26586m | 7.8m/s | -49.6°C | 3.3% | 0hPa | 2.7V | 00:00:00 | 01:45:12 | 00:00:00 | |
| OE5MMP-10 | 2026-09-03 00:30:43 | 49.22050 | 17.74064 | 65° | 9km/h | 26579m | 6.4m/s | -49.6°C | 3.3% | 0hPa | 2.7V | 00:00:00 | 01:45:11 | 00:00:00 | |
| PETON7-10 | 2026-09-03 00:30:39 | 49.22051 | 17.74049 | 121° | 5km/h | 26554m | 4.2m/s | -49.6°C | 3.4% | 0hPa | 2.7V | 00:00:00 | 01:45:07 | 00:00:00 | |
| OK1SLM-15 | 2026-09-03 00:30:38 | 49.22051 | 17.74049 | 121° | 7km/h | 26554m | 4.3m/s | -49.7°C | 0% | 0hPa | 2.7V | 00:00:00 | 00:00:00 | 00:00:00 | |
| OE5DXL-15 | 2026-09-03 00:30:36 | 49.22051 | 17.74041 | 65° | 9km/h | 26535m | 6.7m/s | -49.6°C | 3.4% | 0hPa | 2.7V | 00:00:00 | 00:00:00 | 00:00:00 | |
| OM5KV | 2026-09-03 00:30:35 | 49.22051 | 17.74041 | 66° | 9km/h | 26535m | 6.7m/s | -49.6°C | 0.8% | 0hPa | 2.7V | 00:00:00 | 00:00:00 | 00:00:00 | |
| DO3MHA-11 | 2026-09-03 00:30:34 | 49.22049 | 17.74035 | 71° | 5km/h | 26523m | 7.1m/s | -49.5°C | 3.3% | 0hPa | 2.7V | 00:00:00 | 01:45:02 | 00:00:00 | |
| OE5MMP-10 | 2026-09-03 00:30:33 | 49.22049 | 17.74033 | 113° | 5km/h | 26516m | 7.8m/s | -49.5°C | 3.3% | 0hPa | 2.7V | 00:00:00 | 01:45:01 | 00:00:00 | |
| S52SK | 2026-09-03 00:30:31 | 49.22050 | 17.74031 | 108° | 4km/h | 26503m | 5.9m/s | -49.5°C | 0.8% | 0hPa | 2.7V | 00:00:00 | 00:00:00 | 00:00:00 | |
| OE5DRO-10 | 2026-09-03 00:30:30 | 49.22050 | 17.74030 | 72° | 9km/h | 26497m | 7.9m/s | -49.4°C | 3.3% | 0hPa | 2.7V | 00:00:00 | 00:00:00 | 00:00:00 | |
| OE3OSB-13 | 2026-09-03 00:30:28 | 49.22047 | 17.74022 | 67° | 5km/h | 26476m | 7.7m/s | -49.4°C | 0.7% | -1.0hPa | 2.7V | 00:00:00 | 00:00:00 | 00:00:00 | |
| SP3WXH-11 | 2026-09-03 00:30:26 | 49.22046 | 17.74019 | 51° | 4km/h | 26463m | 5.8m/s | -49.4°C | 0.7% | -1.0hPa | 2.7V | 00:00:00 | 00:00:00 | 00:00:00 | |
| PETON7-10 | 2026-09-03 00:30:24 | 49.22045 | 17.74017 | 36° | 13km/h | 26456m | 7.3m/s | -49.4°C | 3.3% | 0hPa | 2.7V | 00:00:00 | 00:00:00 | 00:00:00 | |
| OE5MMP-10 | 2026-09-03 00:30:23 | 49.22043 | 17.74015 | 35° | 11km/h | 26449m | 7.1m/s | -49.4°C | 3.3% | 0hPa | 2.7V | 00:00:00 | 01:44:51 | 00:00:00 | |
| OM5KV | 2026-09-03 00:30:18 | 49.22037 | 17.74005 | 102° | 5km/h | 26423m | 6.7m/s | -49.4°C | 0.7% | 0hPa | 2.5V | 00:00:00 | 00:00:00 | 00:00:00 | |
| OM5KV | 2026-09-03 00:30:16 | 49.22037 | 17.73995 | 82° | 13km/h | 26405m | 8.2m/s | -49.4°C | 0.7% | 0hPa | 2.5V | 00:00:00 | 00:00:00 | 00:00:00 | |
| DO3MHA-11 | 2026-09-03 00:30:14 | 49.22035 | 17.73982 | 74° | 13km/h | 26392m | 5.6m/s | -49.4°C | 3.3% | 0hPa | 2.5V | 00:00:00 | 01:44:42 | 00:00:00 | |
| OE5MMP-10 | 2026-09-03 00:30:13 | 49.22034 | 17.73976 | 81° | 13km/h | 26385m | 7.2m/s | -49.4°C | 3.3% | 0hPa | 2.5V | 00:00:00 | 01:44:41 | 00:00:00 | |
| OE5DRO-10 | 2026-09-03 00:30:11 | 49.22034 | 17.73964 | 103° | 11km/h | 26372m | 5.8m/s | -49.4°C | 3.3% | 0hPa | 2.5V | 00:00:00 | 00:00:00 | 08:30:00 | |
| PETON7-10 | 2026-09-03 00:30:09 | 49.22036 | 17.73954 | 103° | 9km/h | 26358m | 6.6m/s | -49.4°C | 3.3% | 0hPa | 2.7V | 00:00:00 | 00:00:00 | 00:00:00 | |
| OM5KV | 2026-09-03 00:30:08 | 49.22036 | 17.73954 | 103° | 13km/h | 26358m | 6.7m/s | -49.4°C | 0.7% | 0hPa | 2.7V | 00:00:00 | 00:00:00 | 00:00:00 | |
| OE5DXL-15 | 2026-09-03 00:30:06 | 49.22040 | 17.73947 | 178° | 13km/h | 26340m | 8.1m/s | -49.4°C | 3.2% | 0hPa | 2.7V | 00:00:00 | 00:00:00 | 00:00:00 | |
| DO3MHA-11 | 2026-09-03 00:30:04 | 49.22045 | 17.73949 | 205° | 9km/h | 26326m | 5.3m/s | -49.4°C | 3.3% | 0hPa | 2.7V | 00:00:00 | 01:44:32 | 00:00:00 | |
| OE5MMP-10 | 2026-09-03 00:30:03 | 49.22047 | 17.73950 | 205° | 11km/h | 26320m | 7.0m/s | -49.4°C | 3.2% | 0hPa | 2.7V | 00:00:00 | 01:44:31 | 00:00:00 | |
| OE3OSB-13 | 2026-09-03 00:29:57 | 49.22045 | 17.73928 | 115° | 13km/h | 26275m | 6.2m/s | -49.4°C | 0.7% | -1.0hPa | 2.7V | 00:00:00 | 00:00:00 | 00:00:00 | |
| SP3WXH-11 | 2026-09-03 00:29:55 | 49.22048 | 17.73919 | 124° | 11km/h | 26262m | 6.1m/s | -49.4°C | 0.7% | -1.0hPa | 2.7V | 00:00:00 | 00:00:00 | 00:00:00 | |
| PETON7-10 | 2026-09-03 00:29:54 | 49.22048 | 17.73919 | 125° | 13km/h | 26262m | 6.0m/s | -49.4°C | 3.2% | 0hPa | 2.7V | 00:00:00 | 01:44:22 | 00:00:00 | |
| OE5MMP-10 | 2026-09-03 00:29:53 | 49.22050 | 17.73916 | 146° | 11km/h | 26256m | 5.7m/s | -49.4°C | 3.2% | 0hPa | 2.7V | 00:00:00 | 01:44:21 | 00:00:00 | |
| HA6NAB-11 | 2026-09-03 00:29:52 | 49.22053 | 17.73914 | 172° | 11km/h | 26249m | 7.6m/s | -49.4°C | 0.7% | 0hPa | 2.7V | 00:00:00 | 00:00:00 | 00:00:00 | |
| OM5KV | 2026-09-03 00:29:51 | 49.22056 | 17.73915 | 196° | 15km/h | 26242m | 6.5m/s | -49.4°C | 0.7% | 0hPa | 2.7V | 00:00:00 | 00:00:00 | 00:00:00 | |
| OM5KV | 2026-09-03 00:29:49 | 49.22059 | 17.73917 | 205° | 15km/h | 26236m | 5.7m/s | -49.4°C | 0.7% | 0hPa | 2.7V | 00:00:00 | 00:00:00 | 00:00:00 | |
| HA6NAB-11 | 2026-09-03 00:29:47 | 49.22064 | 17.73918 | 102° | 7km/h | 26217m | 6.0m/s | -49.5°C | 0.8% | 0hPa | 2.7V | 00:00:00 | 00:00:00 | 00:00:00 | |
| DO3MHA-11 | 2026-09-03 00:29:44 | 49.22067 | 17.73905 | 124° | 26km/h | 26198m | 8.4m/s | -49.4°C | 3.3% | 0hPa | 2.7V | 00:00:00 | 01:44:12 | 00:00:00 | |
| OE5MMP-10 | 2026-09-03 00:29:43 | 49.22069 | 17.73900 | 128° | 16km/h | 26191m | 4.8m/s | -49.4°C | 3.3% | 0hPa | 2.7V | 00:00:00 | 01:44:11 | 00:00:00 | |
| HA6NAB-11 | 2026-09-03 00:29:40 | 49.22075 | 17.73887 | 116° | 20km/h | 26179m | 8.4m/s | -49.5°C | 0.7% | 0hPa | 2.7V | 00:00:00 | 00:00:00 | 00:00:00 | |
| PETON7-10 | 2026-09-03 00:29:39 | 49.22078 | 17.73875 | 117° | 20km/h | 26165m | 5.0m/s | -49.5°C | 3.3% | 0hPa | 2.7V | 00:00:00 | 00:00:00 | 08:30:00 | |
| OM5KV | 2026-09-03 00:29:38 | 49.22078 | 17.73875 | 117° | 15km/h | 26165m | 5.1m/s | -49.5°C | 0.7% | 0hPa | 2.7V | 00:00:00 | 00:00:00 | 00:00:00 | |
| OM5KV | 2026-09-03 00:29:37 | 49.22080 | 17.73870 | 130° | 13km/h | 26159m | 7.8m/s | -49.5°C | 0.7% | 0hPa | 2.7V | 00:00:00 | 00:00:00 | 00:00:00 | |
| HA6NAB-11 | 2026-09-03 00:29:36 | 49.22086 | 17.73864 | 156° | 13km/h | 26145m | 4.4m/s | -49.6°C | 0.8% | 0hPa | 2.7V | 00:00:00 | 00:00:00 | 00:00:00 | |
| OE5DRO-10 | 2026-09-03 00:29:33 | 49.22092 | 17.73853 | 110° | 16km/h | 26125m | 5.7m/s | -49.6°C | 3.2% | 0hPa | 2.7V | 00:00:00 | 00:00:00 | 00:00:00 | |
| PG1ADW-2 | 2026-09-03 00:29:29 | 49.22100 | 17.73819 | 106° | 20km/h | 26099m | 5.5m/s | -49.8°C | 3.3% | 0hPa | 2.7V | 00:00:00 | 00:00:00 | 00:00:00 | |
| DO3MHA-11 | 2026-09-03 00:29:26 | 49.22104 | 17.73785 | 100° | 13km/h | 26079m | 4.8m/s | -49.9°C | 3.3% | 0hPa | 2.7V | 00:00:00 | 01:43:54 | 00:00:00 | |
| OK1SLM-15 | 2026-09-03 00:29:25 | 49.22104 | 17.73785 | 100° | 27km/h | 26079m | 4.8m/s | -50.0°C | 0% | 0hPa | 2.7V | 00:00:00 | 00:00:00 | 00:00:00 | |
| SP3WXH-11 | 2026-09-03 00:29:24 | 49.22109 | 17.73763 | 125° | 11km/h | 26059m | 5.1m/s | -50.1°C | 0.7% | -1.0hPa | 2.7V | 00:00:00 | 00:00:00 | 00:00:00 | |
| OE5MMP-10 | 2026-09-03 00:29:23 | 49.22109 | 17.73763 | 126° | 11km/h | 26059m | 5.1m/s | -50.0°C | 3.4% | 0hPa | 2.7V | 00:00:00 | 01:43:51 | 08:30:00 | |
| OK1SLM-15 | 2026-09-03 00:29:20 | 49.22109 | 17.73756 | 36° | 7km/h | 26040m | 5.9m/s | -50.2°C | 0% | 0hPa | 2.5V | 00:00:00 | 00:00:00 | 00:00:00 | |
| HA6NAB-11 | 2026-09-03 00:29:19 | 49.22108 | 17.73754 | 32° | 9km/h | 26034m | 5.3m/s | -50.2°C | 0.7% | 0hPa | 2.5V | 00:00:00 | 00:00:00 | 00:00:00 | |
| OM5KV | 2026-09-03 00:29:18 | 49.22106 | 17.73752 | 40° | 7km/h | 26028m | 7.1m/s | -50.2°C | 0.8% | 0hPa | 2.5V | 00:00:00 | 00:00:00 | 00:00:00 | |
| DO3MHA-11 | 2026-09-03 00:29:16 | 49.22104 | 17.73746 | 75° | 22km/h | 26014m | 6.0m/s | -50.1°C | 3.4% | 0hPa | 2.5V | 00:00:00 | 01:43:44 | 00:00:00 | |
| OE5DRO-10 | 2026-09-03 00:29:14 | 49.22101 | 17.73733 | 76° | 16km/h | 26001m | 6.9m/s | -50.1°C | 3.4% | 0hPa | 2.7V | 00:00:00 | 00:00:00 | 00:00:00 | |
| OE5MMP-10 | 2026-09-03 00:29:13 | 49.22100 | 17.73723 | 81° | 20km/h | 25995m | 4.9m/s | -50.1°C | 3.4% | 0hPa | 2.5V | 00:00:00 | 01:43:41 | 00:00:00 | |
| HA6NAB-11 | 2026-09-03 00:29:12 | 49.22100 | 17.73723 | 82° | 27km/h | 25995m | 4.9m/s | -50.1°C | 0.8% | 0hPa | 2.5V | 00:00:00 | 00:00:00 | 00:00:00 | |
| OM5KV | 2026-09-03 00:29:10 | 49.22100 | 17.73702 | 98° | 27km/h | 25982m | 7.5m/s | -50.1°C | 0.8% | 0hPa | 2.5V | 00:00:00 | 00:00:00 | 00:00:00 | |
| PETON7-10 | 2026-09-03 00:29:09 | 49.22102 | 17.73684 | 102° | 15km/h | 25970m | 4.5m/s | -50.0°C | 3.4% | 0hPa | 2.5V | 00:00:00 | 01:43:37 | 00:00:00 | |
| HA6NAB-11 | 2026-09-03 00:29:07 | 49.22103 | 17.73677 | 92° | 20km/h | 25965m | 6.2m/s | -50.0°C | 0.8% | 0hPa | 2.5V | 00:00:00 | 00:00:00 | 00:00:00 | |
| OE5DXL-15 | 2026-09-03 00:29:06 | 49.22101 | 17.73664 | 60° | 15km/h | 25952m | 5.4m/s | -50.0°C | 3.4% | 0hPa | 2.5V | 00:00:00 | 00:00:00 | 00:00:00 | |
| OM5KV | 2026-09-03 00:29:05 | 49.22100 | 17.73664 | 60° | 16km/h | 25952m | 5.4m/s | -50.0°C | 0.8% | 0hPa | 2.5V | 00:00:00 | 00:00:00 | 00:00:00 | |
| OE5MMP-10 | 2026-09-03 00:29:03 | 49.22095 | 17.73653 | 30° | 15km/h | 25932m | 6.0m/s | -50.0°C | 3.4% | 0hPa | 2.5V | 00:00:00 | 01:43:31 | 00:00:00 | |
| OK1ALN | 2026-09-03 00:29:02 | 49.22095 | 17.73653 | 31° | 7km/h | 25932m | 6.0m/s | -50.0°C | 0.8% | 0hPa | 2.5V | 00:00:00 | 00:00:00 | 00:00:00 | |
| OE3OSB-13 | 2026-09-03 00:28:54 | 49.22088 | 17.73611 | 91° | 20km/h | 25875m | 7.4m/s | -49.9°C | 0.7% | -1.0hPa | 2.5V | 00:00:00 | 00:00:00 | 00:00:00 | |
| SP3WXH-11 | 2026-09-03 00:28:53 | 49.22086 | 17.73596 | 67° | 16km/h | 25863m | 5.3m/s | -49.9°C | 0.7% | -1.0hPa | 2.5V | 00:00:00 | 00:00:00 | 00:00:00 | |
| OM5KV | 2026-09-03 00:28:50 | 49.22083 | 17.73587 | 50° | 9km/h | 25850m | 7.3m/s | -49.8°C | 0.7% | 0hPa | 2.5V | 00:00:00 | 00:00:00 | 00:00:00 | |
| HA6NAB-11 | 2026-09-03 00:28:49 | 49.22083 | 17.73587 | 50° | 9km/h | 25850m | 7.3m/s | -49.8°C | 0.7% | 0hPa | 2.5V | 00:00:00 | 00:00:00 | 00:00:00 | |
| DO3MHA-11 | 2026-09-03 00:28:46 | 49.22075 | 17.73581 | 36° | 16km/h | 25827m | 6.3m/s | -49.7°C | 3.3% | 0hPa | 2.5V | 00:00:00 | 01:43:14 | 08:30:00 | |
| OE5MMP-10 | 2026-09-03 00:28:43 | 49.22066 | 17.73561 | 75° | 13km/h | 25810m | 5.9m/s | -49.7°C | 3.4% | 0hPa | 2.7V | 00:00:00 | 01:43:11 | 00:00:00 | |
| OM5KV | 2026-09-03 00:28:42 | 49.22066 | 17.73561 | 75° | 24km/h | 25810m | 6.0m/s | -49.8°C | 0.8% | 0hPa | 2.7V | 00:00:00 | 00:00:00 | 00:00:00 | |
| OK1ALN | 2026-09-03 00:28:41 | 49.22065 | 17.73553 | 88° | 22km/h | 25804m | 6.5m/s | -49.8°C | 0.8% | 0hPa | 2.7V | 00:00:00 | 00:00:00 | 00:00:00 | |
| PETON7-10 | 2026-09-03 00:28:39 | 49.22066 | 17.73535 | 78° | 13km/h | 25787m | 6.9m/s | -49.8°C | 3.4% | 0hPa | 2.7V | 00:00:00 | 00:00:00 | 00:00:00 | |
| HA6NAB-11 | 2026-09-03 00:28:38 | 49.22065 | 17.73535 | 78° | 9km/h | 25787m | 7.0m/s | -49.9°C | 0.8% | 0hPa | 2.7V | 00:00:00 | 00:00:00 | 00:00:00 | |
| OE5DXL-15 | 2026-09-03 00:28:36 | 49.22060 | 17.73529 | 33° | 11km/h | 25769m | 5.8m/s | -49.8°C | 3.3% | 0hPa | 2.7V | 00:00:00 | 00:00:00 | 00:00:00 | |
| OM5KV | 2026-09-03 00:28:35 | 49.22060 | 17.73529 | 34° | 9km/h | 25769m | 5.9m/s | -49.8°C | 0.7% | 0hPa | 2.7V | 00:00:00 | 00:00:00 | 00:00:00 | |
| OE5MMP-10 | 2026-09-03 00:28:33 | 49.22054 | 17.73519 | 48° | 13km/h | 25751m | 5.2m/s | -49.7°C | 3.3% | 0hPa | 2.7V | 00:00:00 | 01:43:01 | 00:00:00 | |
| S52SK | 2026-09-03 00:28:32 | 49.22054 | 17.73519 | 49° | 16km/h | 25751m | 5.2m/s | -49.7°C | 0.7% | 0hPa | 2.7V | 00:00:00 | 00:00:00 | 00:00:00 | |
| S52SK | 2026-09-03 00:28:28 | 49.22039 | 17.73492 | 74° | 15km/h | 25719m | 6.7m/s | -49.6°C | 0.7% | 0hPa | 2.7V | 00:00:00 | 00:00:00 | 00:00:00 | |
| DO3MHA-11 | 2026-09-03 00:28:26 | 49.22038 | 17.73484 | 91° | 5km/h | 25708m | 5.8m/s | -49.6°C | 3.2% | 0hPa | 2.7V | 00:00:00 | 01:42:54 | 00:00:00 | |
| PETON7-10 | 2026-09-03 00:28:24 | 49.22037 | 17.73480 | 17° | 5km/h | 25695m | 5.6m/s | -49.7°C | 3.2% | 0hPa | 2.7V | 00:00:00 | 01:42:52 | 00:00:00 | |
| OE5MMP-10 | 2026-09-03 00:28:23 | 49.22037 | 17.73480 | 348° | 5km/h | 25689m | 4.8m/s | -49.7°C | 3.3% | 0hPa | 2.7V | 00:00:00 | 01:42:51 | 00:00:00 | |
| S52SK | 2026-09-03 00:28:22 | 49.22037 | 17.73480 | 349° | 2km/h | 25689m | 4.8m/s | -49.8°C | 0.8% | 0hPa | 2.5V | 00:00:00 | 00:00:00 | 00:00:00 | |
| OK1ALN | 2026-09-03 00:28:21 | 49.22036 | 17.73480 | 0° | 0km/h | 25684m | 7.2m/s | -49.8°C | 0.8% | 0hPa | 2.5V | 00:00:00 | 00:00:00 | 00:00:00 | |
| HA6NAB-11 | 2026-09-03 00:28:20 | 49.22037 | 17.73480 | 192° | 2km/h | 25677m | 6.7m/s | -49.8°C | 0.7% | 0hPa | 2.5V | 00:00:00 | 00:00:00 | 00:00:00 | |
| OM5KV | 2026-09-03 00:28:19 | 49.22037 | 17.73481 | 222° | 2km/h | 25671m | 4.7m/s | -49.9°C | 0.8% | 0hPa | 2.5V | 00:00:00 | 00:00:00 | 00:00:00 | |
| OM5KV | 2026-09-03 00:28:18 | 49.22038 | 17.73482 | 291° | 4km/h | 25666m | 5.4m/s | -49.9°C | 0.7% | 0hPa | 2.5V | 00:00:00 | 00:00:00 | 00:00:00 | |
| OE5DRO-10 | 2026-09-03 00:28:17 | 49.22034 | 17.73485 | 332° | 9km/h | 25652m | 6.0m/s | -50.0°C | 3.3% | 0hPa | 2.5V | 00:00:00 | 00:00:00 | 00:00:00 | |
| DO3MHA-11 | 2026-09-03 00:28:16 | 49.22032 | 17.73487 | 344° | 11km/h | 25646m | 5.2m/s | -50.1°C | 3.3% | 0hPa | 2.5V | 00:00:00 | 01:42:44 | 00:00:00 | |
| HA6NAB-11 | 2026-09-03 00:28:15 | 49.22032 | 17.73487 | 345° | 9km/h | 25646m | 5.3m/s | -50.1°C | 0.8% | 0hPa | 2.7V | 00:00:00 | 00:00:00 | 00:00:00 | |
| OE5MMP-10 | 2026-09-03 00:28:13 | 49.22029 | 17.73486 | 138° | 11km/h | 25628m | 5.2m/s | -50.1°C | 3.4% | 0hPa | 2.7V | 00:00:00 | 01:42:41 | 00:00:00 | |
| OM5KV | 2026-09-03 00:28:12 | 49.22029 | 17.73486 | 139° | 5km/h | 25628m | 5.3m/s | -50.2°C | 0.8% | 0hPa | 2.7V | 00:00:00 | 00:00:00 | 00:00:00 | |
| OK1SLM-15 | 2026-09-03 00:28:10 | 49.22032 | 17.73484 | 178° | 9km/h | 25615m | 6.3m/s | -50.2°C | 0% | 0hPa | 2.7V | 00:00:00 | 00:00:00 | 00:00:00 | |
| PETON7-10 | 2026-09-03 00:28:09 | 49.22039 | 17.73484 | 181° | 11km/h | 25604m | 6.9m/s | -50.2°C | 3.3% | 0hPa | 2.7V | 00:00:00 | 00:00:00 | 00:00:00 | |
| DO3MHA-11 | 2026-09-03 00:28:06 | 49.22051 | 17.73484 | 187° | 7km/h | 25586m | 5.3m/s | -50.3°C | 3.3% | 0hPa | 2.5V | 00:00:00 | 01:42:34 | 00:00:00 | |
| HA6NAB-11 | 2026-09-03 00:28:04 | 49.22053 | 17.73485 | 221° | 5km/h | 25579m | 7.8m/s | -50.4°C | 0.8% | 0hPa | 2.5V | 00:00:00 | 00:00:00 | 00:00:00 | |
| OE5MMP-10 | 2026-09-03 00:28:03 | 49.22051 | 17.73486 | 358° | 11km/h | 25567m | 4.7m/s | -50.4°C | 3.4% | 0hPa | 2.5V | 00:00:00 | 01:42:31 | 00:00:00 | |
| OE3OSB-13 | 2026-09-03 00:27:52 | 49.22068 | 17.73450 | 136° | 13km/h | 25502m | 6.8m/s | -50.7°C | 0.7% | -1.0hPa | 2.5V | 00:00:00 | 00:00:00 | 00:00:00 | |
| OM5KV | 2026-09-03 00:27:50 | 49.22069 | 17.73447 | 109° | 7km/h | 25495m | 6.4m/s | -50.7°C | 0.8% | 0hPa | 2.5V | 00:00:00 | 00:00:00 | 00:00:00 | |
| DO3MHA-11 | 2026-09-03 00:27:46 | 49.22062 | 17.73424 | 53° | 16km/h | 25466m | 5.7m/s | -50.7°C | 3.5% | 0hPa | 2.5V | 00:00:00 | 01:42:14 | 00:00:00 | |
| OE5MMP-10 | 2026-09-03 00:27:43 | 49.22058 | 17.73412 | 109° | 16km/h | 25448m | 5.9m/s | -50.8°C | 3.5% | 0hPa | 2.7V | 00:00:00 | 01:42:11 | 00:00:00 | |
| OK1ALN | 2026-09-03 00:27:40 | 49.22063 | 17.73405 | 150° | 20km/h | 25434m | 5.4m/s | -51.0°C | 0.8% | 0hPa | 2.7V | 00:00:00 | 00:00:00 | 00:00:00 | |
| OE5DRO-10 | 2026-09-03 00:27:39 | 49.22073 | 17.73398 | 164° | 16km/h | 25424m | 6.4m/s | -51.0°C | 3.6% | 0hPa | 2.7V | 00:00:00 | 00:00:00 | 00:00:00 | |
| OM5KV | 2026-09-03 00:27:37 | 49.22077 | 17.73396 | 167° | 16km/h | 25418m | 5.0m/s | -51.0°C | 0.8% | 0hPa | 2.7V | 00:00:00 | 00:00:00 | 00:00:00 | |
| DO3MHA-11 | 2026-09-03 00:27:36 | 49.22083 | 17.73391 | 118° | 22km/h | 25408m | 5.2m/s | -51.0°C | 3.5% | 0hPa | 2.7V | 00:00:00 | 01:42:04 | 00:00:00 | |
| PG1ADW-2 | 2026-09-03 00:27:33 | 49.22080 | 17.73370 | 62° | 15km/h | 25389m | 6.5m/s | -50.9°C | 3.5% | 0hPa | 2.7V | 00:00:00 | 00:00:00 | 00:00:00 | |
| OM5KV | 2026-09-03 00:27:31 | 49.22076 | 17.73361 | 55° | 29km/h | 25382m | 6.9m/s | -51.0°C | 0.9% | 0hPa | 2.7V | 00:00:00 | 00:00:00 | 00:00:00 | |
| SP3BTT-10 | 2026-09-03 00:27:30 | 49.22067 | 17.73345 | 49° | 13km/h | 25371m | 4.4m/s | 0°C | 0% | 0hPa | 2.7V | 00:00:00 | 00:00:00 | 00:00:00 | |
| OM5KV | 2026-09-03 00:27:27 | 49.22062 | 17.73326 | 99° | 16km/h | 25354m | 6.2m/s | -50.9°C | 0.8% | 0hPa | 2.7V | 00:00:00 | 00:00:00 | 00:00:00 | |
| DO3MHA-11 | 2026-09-03 00:27:26 | 49.22063 | 17.73321 | 120° | 9km/h | 25348m | 4.0m/s | -50.9°C | 3.5% | 0hPa | 2.7V | 00:00:00 | 01:41:54 | 00:00:00 | |
| PETON7-10 | 2026-09-03 00:27:24 | 49.22067 | 17.73315 | 169° | 9km/h | 25338m | 7.4m/s | -50.9°C | 3.5% | 0hPa | 2.7V | 00:00:00 | 00:00:00 | 08:30:00 | |
| OE5MMP-10 | 2026-09-03 00:27:21 | 49.22068 | 17.73318 | 347° | 13km/h | 25322m | 6.1m/s | -51.0°C | 3.5% | 0hPa | 2.5V | 00:00:00 | 01:41:49 | 00:00:00 | |
| OE5DRO-10 | 2026-09-03 00:27:20 | 49.22068 | 17.73317 | 62° | 9km/h | 25315m | 6.7m/s | -50.9°C | 3.5% | 0hPa | 2.5V | 00:00:00 | 00:00:00 | 08:30:00 | |
| POL1PZ | 2026-09-03 00:27:17 | 49.22066 | 17.73310 | 74° | 13km/h | 25304m | 5.7m/s | -51.0°C | 0.8% | 0hPa | 2.5V | 00:00:00 | 00:00:00 | 00:00:00 | |
| DO3MHA-11 | 2026-09-03 00:27:16 | 49.22064 | 17.73300 | 79° | 11km/h | 25290m | 5.6m/s | -51.0°C | 3.5% | 0hPa | 2.5V | 00:00:00 | 01:41:44 | 08:30:00 | |
| OM5KV | 2026-09-03 00:27:15 | 49.22064 | 17.73300 | 79° | 15km/h | 25290m | 5.7m/s | -51.1°C | 0.8% | 0hPa | 2.7V | 00:00:00 | 00:00:00 | 00:00:00 | |
| PG1ADW-2 | 2026-09-03 00:27:13 | 49.22062 | 17.73281 | 83° | 7km/h | 25272m | 4.2m/s | -51.0°C | 3.5% | 0hPa | 2.7V | 00:00:00 | 00:00:00 | 00:00:00 | |
| OE5MMP-10 | 2026-09-03 00:27:11 | 49.22061 | 17.73271 | 70° | 4km/h | 25262m | 7.3m/s | -51.0°C | 3.6% | 0hPa | 2.5V | 00:00:00 | 01:41:39 | 00:00:00 | |
| PETON7-10 | 2026-09-03 00:27:09 | 49.22060 | 17.73273 | 292° | 5km/h | 25250m | 4.8m/s | -50.9°C | 3.5% | 0hPa | 2.5V | 00:00:00 | 00:00:00 | 00:00:00 | |
| OM5KV | 2026-09-03 00:27:08 | 49.22060 | 17.73273 | 293° | 7km/h | 25250m | 4.9m/s | -51.0°C | 0.8% | 0hPa | 2.5V | 00:00:00 | 00:00:00 | 00:00:00 | |
| OE5DXL-15 | 2026-09-03 00:27:06 | 49.22057 | 17.73279 | 323° | 7km/h | 25232m | 4.6m/s | -50.9°C | 3.5% | 0hPa | 2.5V | 00:00:00 | 00:00:00 | 00:00:00 | |
| OM5KV | 2026-09-03 00:27:04 | 49.22057 | 17.73280 | 291° | 2km/h | 25227m | 4.8m/s | -50.9°C | 0.8% | 0hPa | 2.5V | 00:00:00 | 00:00:00 | 00:00:00 | |
| OM5KV | 2026-09-03 00:27:03 | 49.22057 | 17.73281 | 249° | 4km/h | 25221m | 7.3m/s | -50.9°C | 0.8% | 0hPa | 2.5V | 00:00:00 | 00:00:00 | 00:00:00 | |
| OE3OSB-13 | 2026-09-03 00:26:50 | 49.22040 | 17.73284 | 286° | 4km/h | 25136m | 7.1m/s | -50.8°C | 0.7% | -1.0hPa | 2.5V | 00:00:00 | 00:00:00 | 00:00:00 | |
| OM5KV | 2026-09-03 00:26:47 | 49.22040 | 17.73287 | 244° | 4km/h | 25124m | 5.8m/s | -50.8°C | 0.8% | 0hPa | 2.5V | 00:00:00 | 00:00:00 | 00:00:00 | |
| DO3MHA-11 | 2026-09-03 00:26:46 | 49.22040 | 17.73285 | 67° | 7km/h | 25110m | 6.4m/s | -50.7°C | 3.5% | 0hPa | 2.5V | 00:00:00 | 01:41:14 | 00:00:00 | |
| OK1SLM-15 | 2026-09-03 00:26:42 | 49.22032 | 17.73276 | 353° | 7km/h | 25088m | 6.0m/s | 0°C | 0% | 0hPa | 2.7V | 00:00:00 | 00:00:00 | 00:00:00 | |
| OE5MMP-10 | 2026-09-03 00:26:41 | 49.22031 | 17.73277 | 333° | 7km/h | 25083m | 5.0m/s | -50.9°C | 3.5% | 0hPa | 2.7V | 00:00:00 | 01:41:09 | 00:00:00 | |
| OM5KV | 2026-09-03 00:26:40 | 49.22030 | 17.73277 | 334° | 7km/h | 25083m | 5.1m/s | -50.9°C | 0.8% | 0hPa | 2.7V | 00:00:00 | 00:00:00 | 00:00:00 | |
| PETON7-10 | 2026-09-03 00:26:39 | 49.22028 | 17.73279 | 328° | 7km/h | 25070m | 6.6m/s | -50.9°C | 3.6% | 0hPa | 2.7V | 00:00:00 | 00:00:00 | 00:00:00 | |
| OE5DXL-15 | 2026-09-03 00:26:36 | 49.22029 | 17.73284 | 232° | 7km/h | 25052m | 7.5m/s | -50.9°C | 3.6% | 0hPa | 2.5V | 00:00:00 | 00:00:00 | 00:00:00 | |
| OM5KV | 2026-09-03 00:26:35 | 49.22029 | 17.73284 | 232° | 9km/h | 25052m | 7.5m/s | -51.0°C | 0.8% | 0hPa | 2.7V | 00:00:00 | 00:00:00 | 00:00:00 | |
| PG1ADW-2 | 2026-09-03 00:26:33 | 49.22036 | 17.73291 | 183° | 7km/h | 25034m | 6.0m/s | -50.9°C | 3.5% | 0hPa | 2.7V | 00:00:00 | 00:00:00 | 00:00:00 | |
| OE5MMP-10 | 2026-09-03 00:26:31 | 49.22040 | 17.73287 | 115° | 5km/h | 25021m | 5.8m/s | -50.9°C | 3.5% | 0hPa | 2.7V | 00:00:00 | 01:40:59 | 00:00:00 | |
| S52SK | 2026-09-03 00:26:30 | 49.22040 | 17.73287 | 116° | 11km/h | 25021m | 5.8m/s | -50.9°C | 0.8% | 0hPa | 2.7V | 00:00:00 | 00:00:00 | 00:00:00 | |
| OM5KV | 2026-09-03 00:26:28 | 49.22040 | 17.73281 | 82° | 5km/h | 25009m | 7.2m/s | -50.9°C | 0.8% | 0hPa | 2.7V | 00:00:00 | 00:00:00 | 00:00:00 | |
| DO3MHA-11 | 2026-09-03 00:26:26 | 49.22039 | 17.73279 | 168° | 7km/h | 24991m | 6.6m/s | -50.9°C | 3.5% | 0hPa | 2.7V | 00:00:00 | 01:40:54 | 00:00:00 | |
| S52SK | 2026-09-03 00:26:25 | 49.22039 | 17.73279 | 0° | 0km/h | 24991m | 6.7m/s | -50.9°C | 0.8% | 0hPa | 2.7V | 00:00:00 | 00:00:00 | 00:00:00 | |
| PETON7-10 | 2026-09-03 00:26:24 | 49.22041 | 17.73279 | 193° | 7km/h | 24978m | 5.2m/s | -50.9°C | 3.5% | 0hPa | 2.7V | 00:00:00 | 00:00:00 | 00:00:00 | |
| OE5DRO-10 | 2026-09-03 00:26:23 | 49.22043 | 17.73280 | 214° | 7km/h | 24973m | 5.2m/s | -50.8°C | 3.5% | 0hPa | 2.7V | 00:00:00 | 00:00:00 | 00:00:00 | |
| OM5KV | 2026-09-03 00:26:22 | 49.22045 | 17.73283 | 232° | 11km/h | 24967m | 7.5m/s | -50.9°C | 0.8% | 0hPa | 2.5V | 00:00:00 | 00:00:00 | 00:00:00 | |
| OE5MMP-10 | 2026-09-03 00:26:21 | 49.22047 | 17.73287 | 239° | 7km/h | 24960m | 6.1m/s | -50.8°C | 3.5% | 0hPa | 2.5V | 00:00:00 | 01:40:49 | 08:30:00 | |
| OE3OSB-13 | 2026-09-03 00:26:19 | 49.22050 | 17.73294 | 230° | 5km/h | 24948m | 7.2m/s | -50.8°C | 0.7% | -1.0hPa | 2.5V | 00:00:00 | 00:00:00 | 00:00:00 | |
| OK1ALN | 2026-09-03 00:26:18 | 49.22050 | 17.73294 | 231° | 7km/h | 24948m | 7.2m/s | -50.8°C | 0.8% | 0hPa | 2.5V | 00:00:00 | 00:00:00 | 00:00:00 | |
| OM5KV | 2026-09-03 00:26:17 | 49.22050 | 17.73294 | 53° | 4km/h | 24936m | 4.8m/s | -50.8°C | 0.8% | 0hPa | 2.5V | 00:00:00 | 00:00:00 | 00:00:00 | |
| DO3MHA-11 | 2026-09-03 00:26:16 | 49.22049 | 17.73293 | 33° | 5km/h | 24931m | 6.8m/s | -50.7°C | 3.5% | 0hPa | 2.5V | 00:00:00 | 01:40:44 | 00:00:00 | |
| POL1PZ | 2026-09-03 00:26:14 | 49.22048 | 17.73292 | 12° | 5km/h | 24923m | 7.0m/s | -50.8°C | 0.8% | 0hPa | 2.7V | 00:00:00 | 00:00:00 | 00:00:00 | |
| PG1ADW-2 | 2026-09-03 00:26:13 | 49.22046 | 17.73290 | 57° | 7km/h | 24912m | 6.0m/s | -50.7°C | 3.4% | 0hPa | 2.7V | 00:00:00 | 00:00:00 | 08:30:00 | |
| OM5KV | 2026-09-03 00:26:12 | 49.22046 | 17.73290 | 57° | 5km/h | 24912m | 6.0m/s | -50.7°C | 0.8% | 0hPa | 2.5V | 00:00:00 | 00:00:00 | 00:00:00 | |
| OE5MMP-10 | 2026-09-03 00:26:11 | 49.22045 | 17.73284 | 83° | 7km/h | 24899m | 5.1m/s | -50.7°C | 3.5% | 0hPa | 2.5V | 00:00:00 | 01:40:39 | 00:00:00 | |
| PETON7-10 | 2026-09-03 00:26:09 | 49.22044 | 17.73280 | 51° | 7km/h | 24887m | 7.7m/s | -50.7°C | 3.5% | 0hPa | 2.5V | 00:00:00 | 01:40:37 | 00:00:00 | |
| OM5KV | 2026-09-03 00:26:07 | 49.22043 | 17.73281 | 301° | 5km/h | 24880m | 6.7m/s | -50.8°C | 0.8% | 0hPa | 2.5V | 00:00:00 | 00:00:00 | 00:00:00 | |
| DO3MHA-11 | 2026-09-03 00:26:06 | 49.22041 | 17.73286 | 311° | 7km/h | 24868m | 7.2m/s | -50.8°C | 3.5% | 0hPa | 2.5V | 00:00:00 | 01:40:34 | 00:00:00 | |
| OE5DRO-10 | 2026-09-03 00:26:04 | 49.22038 | 17.73290 | 332° | 5km/h | 24856m | 5.1m/s | -50.9°C | 3.5% | 0hPa | 2.5V | 00:00:00 | 00:00:00 | 00:00:00 | |
| OM5KV | 2026-09-03 00:26:02 | 49.22036 | 17.73292 | 328° | 9km/h | 24849m | 6.7m/s | -50.9°C | 0.8% | 0hPa | 2.5V | 00:00:00 | 00:00:00 | 00:00:00 | |
| OE3OSB-13 | 2026-09-03 00:25:48 | 49.22032 | 17.73277 | 24° | 4km/h | 24748m | 7.5m/s | -50.7°C | 0.8% | -1.0hPa | 2.5V | 00:00:00 | 00:00:00 | 00:00:00 | |
| DO3MHA-11 | 2026-09-03 00:25:46 | 49.22031 | 17.73276 | 58° | 5km/h | 24741m | 6.3m/s | -50.6°C | 3.5% | 0hPa | 2.5V | 00:00:00 | 01:40:14 | 08:30:00 | |
| OE5DRO-10 | 2026-09-03 00:25:45 | 49.22030 | 17.73274 | 55° | 9km/h | 24735m | 5.2m/s | -50.6°C | 3.5% | 0hPa | 2.5V | 00:00:00 | 00:00:00 | 00:00:00 | |
| SQ9EZE-14 | 2026-09-03 00:25:42 | 49.22028 | 17.73273 | 332° | 5km/h | 24722m | 7.4m/s | -50.7°C | 0% | 0hPa | 2.5V | 00:00:00 | 00:00:00 | 00:00:00 | |
| PETON7-10 | 2026-09-03 00:25:39 | 49.22023 | 17.73278 | 10° | 11km/h | 24697m | 6.0m/s | -50.6°C | 3.5% | 0hPa | 2.5V | 00:00:00 | 00:00:00 | 00:00:00 | |
| OM5KV | 2026-09-03 00:25:38 | 49.22023 | 17.73278 | 10° | 4km/h | 24697m | 6.1m/s | -50.7°C | 0.8% | 0hPa | 2.5V | 00:00:00 | 00:00:00 | 00:00:00 | |
| OK1ALN | 2026-09-03 00:25:37 | 49.22022 | 17.73278 | 12° | 5km/h | 24692m | 5.0m/s | -50.6°C | 0.8% | 0hPa | 2.5V | 00:00:00 | 00:00:00 | 00:00:00 | |
| OE5MMP-10 | 2026-09-03 00:25:36 | 49.22019 | 17.73279 | 338° | 13km/h | 24679m | 6.9m/s | -50.6°C | 3.5% | 0hPa | 2.5V | 00:00:00 | 01:40:04 | 00:00:00 | |
| OM5KV | 2026-09-03 00:25:33 | 49.22013 | 17.73283 | 337° | 11km/h | 24667m | 5.4m/s | -50.6°C | 0.8% | 0hPa | 2.5V | 00:00:00 | 00:00:00 | 00:00:00 | |
| PG1ADW-2 | 2026-09-03 00:25:31 | 49.22007 | 17.73285 | 353° | 16km/h | 24649m | 4.5m/s | -50.5°C | 3.5% | 0hPa | 2.5V | 00:00:00 | 01:39:59 | 00:00:00 | |
| OK1SLM-15 | 2026-09-03 00:25:27 | 49.21997 | 17.73290 | 336° | 20km/h | 24630m | 5.9m/s | 0°C | 0% | 0hPa | 2.5V | 00:00:00 | 00:00:00 | 00:00:00 | |
| OE5MMP-10 | 2026-09-03 00:25:26 | 49.21988 | 17.73297 | 334° | 16km/h | 24617m | 7.2m/s | -50.4°C | 3.4% | 0hPa | 2.5V | 00:00:00 | 01:39:54 | 00:00:00 | |
| PETON7-10 | 2026-09-03 00:25:24 | 49.21982 | 17.73302 | 327° | 18km/h | 24605m | 5.6m/s | -50.4°C | 3.4% | 0hPa | 2.5V | 00:00:00 | 01:39:52 | 00:00:00 | |
| OK1SLM-15 | 2026-09-03 00:25:22 | 49.21979 | 17.73306 | 329° | 16km/h | 24599m | 7.3m/s | 0°C | 0% | 0hPa | 2.5V | 00:00:00 | 00:00:00 | 00:00:00 | |
| OE5MMP-10 | 2026-09-03 00:25:16 | 49.21952 | 17.73314 | 352° | 22km/h | 24556m | 7.5m/s | -50.4°C | 3.4% | 0hPa | 2.5V | 00:00:00 | 01:39:44 | 00:00:00 | |
| POL1PZ | 2026-09-03 00:25:13 | 49.21941 | 17.73320 | 332° | 24km/h | 24544m | 5.4m/s | -50.4°C | 0.8% | 0hPa | 2.5V | 00:00:00 | 00:00:00 | 00:00:00 | |
| PG1ADW-2 | 2026-09-03 00:25:11 | 49.21928 | 17.73337 | 310° | 15km/h | 24524m | 5.9m/s | -50.5°C | 3.4% | 0hPa | 2.5V | 00:00:00 | 00:00:00 | 00:00:00 | |
| PETON7-10 | 2026-09-03 00:25:09 | 49.21920 | 17.73351 | 313° | 15km/h | 24511m | 6.3m/s | -50.6°C | 3.4% | 0hPa | 2.7V | 00:00:00 | 00:00:00 | 08:30:00 | |
| OE5DRO-10 | 2026-09-03 00:25:07 | 49.21912 | 17.73363 | 320° | 13km/h | 24500m | 6.0m/s | -50.7°C | 3.4% | 0hPa | 2.5V | 00:00:00 | 00:00:00 | 00:00:00 | |
| OE5MMP-10 | 2026-09-03 00:25:06 | 49.21909 | 17.73367 | 330° | 13km/h | 24493m | 7.3m/s | -50.8°C | 3.5% | 0hPa | 2.5V | 00:00:00 | 01:39:34 | 00:00:00 | |
| OM5KV | 2026-09-03 00:25:04 | 49.21907 | 17.73368 | 350° | 9km/h | 24486m | 5.6m/s | -50.8°C | 0.8% | 0hPa | 2.5V | 00:00:00 | 00:00:00 | 00:00:00 | |
| OM5KV | 2026-09-03 00:25:01 | 49.21898 | 17.73370 | 346° | 16km/h | 24469m | 6.2m/s | -50.9°C | 0.8% | 0hPa | 2.5V | 00:00:00 | 00:00:00 | 00:00:00 | |
| OE5MMP-10 | 2026-09-03 00:24:56 | 49.21884 | 17.73392 | 299° | 13km/h | 24435m | 6.8m/s | -51.0°C | 3.5% | 0hPa | 2.5V | 00:00:00 | 01:39:24 | 00:00:00 | |
| OM5KV | 2026-09-03 00:24:55 | 49.21884 | 17.73392 | 299° | 11km/h | 24435m | 6.8m/s | -51.1°C | 0.8% | 0hPa | 2.5V | 00:00:00 | 00:00:00 | 00:00:00 | |
| PETON7-10 | 2026-09-03 00:24:54 | 49.21881 | 17.73399 | 305° | 9km/h | 24423m | 4.7m/s | -51.0°C | 3.5% | 0hPa | 2.5V | 00:00:00 | 00:00:00 | 00:00:00 | |
| POL1PZ | 2026-09-03 00:24:53 | 49.21881 | 17.73399 | 305° | 11km/h | 24423m | 4.8m/s | -51.1°C | 0.8% | 0hPa | 2.5V | 00:00:00 | 00:00:00 | 00:00:00 | |
| GYPAP8-17 | 2026-09-03 00:24:52 | 49.21880 | 17.73402 | 294° | 11km/h | 24417m | 6.3m/s | 0°C | 0% | 0hPa | 2.5V | 00:00:00 | 00:00:00 | 00:00:00 | |
| PG1ADW-2 | 2026-09-03 00:24:51 | 49.21878 | 17.73411 | 283° | 15km/h | 24404m | 5.2m/s | -51.2°C | 3.6% | 0hPa | 2.5V | 00:00:00 | 00:00:00 | 00:00:00 | |
| OM5KV | 2026-09-03 00:24:50 | 49.21878 | 17.73411 | 283° | 13km/h | 24404m | 5.3m/s | -51.2°C | 0.9% | 0hPa | 2.5V | 00:00:00 | 00:00:00 | 00:00:00 | |
| OE5DRO-10 | 2026-09-03 00:24:48 | 49.21872 | 17.73422 | 337° | 15km/h | 24386m | 6.5m/s | -51.2°C | 3.6% | 0hPa | 2.5V | 00:00:00 | 00:00:00 | 00:00:00 | |
| OE5MMP-10 | 2026-09-03 00:24:46 | 49.21864 | 17.73426 | 349° | 11km/h | 24375m | 5.2m/s | -51.2°C | 3.6% | 0hPa | 2.5V | 00:00:00 | 01:39:14 | 08:30:00 | |
| OM5KV | 2026-09-03 00:24:45 | 49.21865 | 17.73426 | 349° | 13km/h | 24375m | 5.2m/s | -51.2°C | 0.9% | 0hPa | 2.7V | 00:00:00 | 00:00:00 | 00:00:00 | |
| OM5KV | 2026-09-03 00:24:44 | 49.21862 | 17.73427 | 348° | 7km/h | 24369m | 6.8m/s | -51.2°C | 0.8% | 0hPa | 2.7V | 00:00:00 | 00:00:00 | 00:00:00 | |
| OM5KV | 2026-09-03 00:24:40 | 49.21864 | 17.73427 | 199° | 4km/h | 24346m | 6.2m/s | -51.1°C | 0.8% | 0hPa | 2.7V | 00:00:00 | 00:00:00 | 00:00:00 | |
| PETON7-10 | 2026-09-03 00:24:39 | 49.21864 | 17.73432 | 267° | 16km/h | 24335m | 5.0m/s | -51.1°C | 3.5% | 0hPa | 2.7V | 00:00:00 | 01:39:07 | 00:00:00 | |
| OM5KV | 2026-09-03 00:24:38 | 49.21865 | 17.73432 | 267° | 15km/h | 24335m | 5.0m/s | -51.2°C | 0.8% | 0hPa | 2.7V | 00:00:00 | 00:00:00 | 00:00:00 | |
| OE5MMP-10 | 2026-09-03 00:24:36 | 49.21864 | 17.73460 | 279° | 15km/h | 24316m | 5.0m/s | -51.2°C | 3.5% | 0hPa | 2.7V | 00:00:00 | 01:39:04 | 00:00:00 | |
| OK1ALN | 2026-09-03 00:24:35 | 49.21864 | 17.73460 | 279° | 31km/h | 24316m | 5.0m/s | -51.3°C | 0.9% | 0hPa | 2.7V | 00:00:00 | 00:00:00 | 00:00:00 | |
| POL1PZ | 2026-09-03 00:24:33 | 49.21860 | 17.73481 | 303° | 27km/h | 24305m | 6.5m/s | -51.3°C | 0.8% | 0hPa | 2.7V | 00:00:00 | 00:00:00 | 00:00:00 | |
| S52SK | 2026-09-03 00:24:32 | 49.21856 | 17.73488 | 319° | 20km/h | 24299m | 4.9m/s | -51.3°C | 0.8% | 0hPa | 2.7V | 00:00:00 | 00:00:00 | 00:00:00 | |
| PG1ADW-2 | 2026-09-03 00:24:31 | 49.21850 | 17.73494 | 333° | 13km/h | 24288m | 7.2m/s | -51.3°C | 3.5% | 0hPa | 2.7V | 00:00:00 | 00:00:00 | 00:00:00 | |
| OE5DRO-10 | 2026-09-03 00:24:29 | 49.21850 | 17.73495 | 184° | 16km/h | 24275m | 5.6m/s | -51.4°C | 3.6% | 0hPa | 2.7V | 00:00:00 | 00:00:00 | 08:30:00 | |
| OM5KV | 2026-09-03 00:24:28 | 49.21850 | 17.73496 | 185° | 5km/h | 24275m | 5.6m/s | -51.4°C | 0.9% | 0hPa | 2.7V | 00:00:00 | 00:00:00 | 00:00:00 | |
| S52SK | 2026-09-03 00:24:27 | 49.21852 | 17.73496 | 185° | 7km/h | 24269m | 6.0m/s | -51.4°C | 0.9% | 0hPa | 2.7V | 00:00:00 | 00:00:00 | 00:00:00 | |
| OE5MMP-10 | 2026-09-03 00:24:26 | 49.21855 | 17.73498 | 239° | 20km/h | 24257m | 5.2m/s | -51.3°C | 3.6% | 0hPa | 2.7V | 00:00:00 | 01:38:54 | 00:00:00 | |
| PETON7-10 | 2026-09-03 00:24:24 | 49.21856 | 17.73509 | 261° | 18km/h | 24245m | 7.8m/s | -51.3°C | 3.6% | 0hPa | 2.7V | 00:00:00 | 00:00:00 | 00:00:00 | |
| OM5KV | 2026-09-03 00:24:23 | 49.21856 | 17.73509 | 261° | 22km/h | 24245m | 7.8m/s | -51.4°C | 0.9% | 0hPa | 2.5V | 00:00:00 | 00:00:00 | 00:00:00 | |
| OM5KV | 2026-09-03 00:24:21 | 49.21857 | 17.73530 | 272° | 33km/h | 24231m | 5.9m/s | -51.4°C | 0.9% | 0hPa | 2.5V | 00:00:00 | 00:00:00 | 00:00:00 | |
| OM5KV | 2026-09-03 00:24:19 | 49.21853 | 17.73562 | 295° | 20km/h | 24214m | 3.5m/s | -51.6°C | 0.9% | 0hPa | 2.5V | 00:00:00 | 00:00:00 | 00:00:00 | |
| OE5MMP-10 | 2026-09-03 00:24:17 | 49.21852 | 17.73574 | 207° | 20km/h | 24197m | 6.7m/s | -51.7°C | 3.6% | 0hPa | 2.5V | 00:00:00 | 01:38:44 | 00:00:00 | |
| OK1ALN | 2026-09-03 00:24:15 | 49.21853 | 17.73574 | 169° | 11km/h | 24191m | 5.6m/s | -51.8°C | 0.9% | 0hPa | 2.7V | 00:00:00 | 00:00:00 | 00:00:00 | |
| POL1PZ | 2026-09-03 00:24:13 | 49.21856 | 17.73573 | 158° | 13km/h | 24185m | 7.0m/s | -51.8°C | 0.9% | 0hPa | 2.7V | 00:00:00 | 00:00:00 | 00:00:00 | |
| OM5KV | 2026-09-03 00:24:12 | 49.21862 | 17.73571 | 190° | 13km/h | 24173m | 4.4m/s | -51.9°C | 0.9% | 0hPa | 2.7V | 00:00:00 | 00:00:00 | 00:00:00 | |
| OE5DRO-10 | 2026-09-03 00:24:10 | 49.21870 | 17.73578 | 228° | 22km/h | 24162m | 7.7m/s | -51.8°C | 3.7% | 0hPa | 2.7V | 00:00:00 | 00:00:00 | 00:00:00 | |
| PETON7-10 | 2026-09-03 00:24:09 | 49.21874 | 17.73587 | 241° | 22km/h | 24155m | 5.9m/s | -51.8°C | 3.6% | 0hPa | 2.7V | 00:00:00 | 00:00:00 | 00:00:00 | |
| DO3MHA-11 | 2026-09-03 00:24:06 | 49.21882 | 17.73626 | 262° | 18km/h | 24137m | 4.8m/s | -51.6°C | 3.7% | 0hPa | 2.7V | 00:00:00 | 01:38:34 | 00:00:00 | |
| OK1SLM-15 | 2026-09-03 00:24:05 | 49.21883 | 17.73637 | 258° | 26km/h | 24133m | 4.3m/s | 0°C | 0% | 0hPa | 2.7V | 00:00:00 | 00:00:00 | 00:00:00 | |
| OK1SLM-15 | 2026-09-03 00:23:59 | 49.21898 | 17.73651 | 151° | 15km/h | 24103m | 7.1m/s | 0°C | 0% | 0hPa | 2.7V | 00:00:00 | 00:00:00 | 00:00:00 | |
| OM5KV | 2026-09-03 00:23:57 | 49.21905 | 17.73646 | 163° | 13km/h | 24092m | 4.7m/s | -51.6°C | 0.9% | 0hPa | 2.7V | 00:00:00 | 00:00:00 | 00:00:00 | |
| DO3MHA-11 | 2026-09-03 00:23:56 | 49.21912 | 17.73647 | 201° | 13km/h | 24080m | 6.5m/s | -51.6°C | 3.7% | 0hPa | 2.7V | 00:00:00 | 01:38:24 | 00:00:00 | |
| POL1PZ | 2026-09-03 00:23:52 | 49.21924 | 17.73659 | 228° | 16km/h | 24063m | 6.6m/s | -51.5°C | 0.9% | 0hPa | 2.7V | 00:00:00 | 00:00:00 | 00:00:00 | |
| OE5DRO-10 | 2026-09-03 00:23:51 | 49.21927 | 17.73666 | 234° | 11km/h | 24051m | 4.4m/s | -51.4°C | 3.7% | 0hPa | 2.7V | 00:00:00 | 00:00:00 | 00:00:00 | |
| PG1ADW-2 | 2026-09-03 00:23:50 | 49.21929 | 17.73669 | 221° | 11km/h | 24047m | 5.4m/s | -51.4°C | 3.7% | 0hPa | 2.7V | 00:00:00 | 00:00:00 | 00:00:00 | |
| OM5KV | 2026-09-03 00:23:43 | 49.21938 | 17.73668 | 102° | 7km/h | 24011m | 4.8m/s | -51.3°C | 0.9% | 0hPa | 2.7V | 00:00:00 | 00:00:00 | 00:00:00 | |
| PETON7-10 | 2026-09-03 00:23:39 | 49.21946 | 17.73651 | 122° | 15km/h | 23981m | 6.6m/s | -51.1°C | 3.5% | 0hPa | 2.7V | 00:00:00 | 00:00:00 | 00:00:00 | |
| OE5MMP-10 | 2026-09-03 00:23:36 | 49.21951 | 17.73637 | 124° | 13km/h | 23963m | 7.2m/s | -51.0°C | 3.5% | 0hPa | 2.5V | 00:00:00 | 01:38:04 | 00:00:00 | |
| OE5DRO-10 | 2026-09-03 00:23:32 | 49.21956 | 17.73618 | 66° | 18km/h | 23941m | 8.0m/s | -51.1°C | 3.5% | 0hPa | 2.5V | 00:00:00 | 00:00:00 | 00:00:00 | |
| OM5KV | 2026-09-03 00:23:31 | 49.21956 | 17.73619 | 67° | 11km/h | 23941m | 8.0m/s | -51.2°C | 0.9% | 0hPa | 2.5V | 00:00:00 | 00:00:00 | 00:00:00 | |
| PG1ADW-2 | 2026-09-03 00:23:30 | 49.21952 | 17.73611 | 51° | 20km/h | 23929m | 6.4m/s | -51.1°C | 3.6% | 0hPa | 2.5V | 00:00:00 | 00:00:00 | 00:00:00 | |
| OE5MMP-10 | 2026-09-03 00:23:26 | 49.21950 | 17.73592 | 86° | 20km/h | 23905m | 7.6m/s | -51.3°C | 3.6% | 0hPa | 2.5V | 00:00:00 | 01:37:54 | 00:00:00 | |
| PETON7-10 | 2026-09-03 00:23:24 | 49.21950 | 17.73577 | 99° | 22km/h | 23893m | 5.8m/s | -51.4°C | 3.6% | 0hPa | 2.5V | 00:00:00 | 00:00:00 | 00:00:00 | |
| OM5KV | 2026-09-03 00:23:19 | 49.21953 | 17.73545 | 74° | 16km/h | 23870m | 7.8m/s | -51.4°C | 0.9% | 0hPa | 2.5V | 00:00:00 | 00:00:00 | 00:00:00 | |
| OM5KV | 2026-09-03 00:23:18 | 49.21951 | 17.73540 | 47° | 18km/h | 23863m | 5.8m/s | -51.4°C | 0.9% | 0hPa | 2.5V | 00:00:00 | 00:00:00 | 00:00:00 | |
| OE5MMP-10 | 2026-09-03 00:23:16 | 49.21938 | 17.73526 | 39° | 22km/h | 23845m | 5.4m/s | -51.3°C | 3.5% | 0hPa | 2.5V | 00:00:00 | 01:37:44 | 08:30:00 | |
| OE5DRO-10 | 2026-09-03 00:23:13 | 49.21926 | 17.73508 | 48° | 16km/h | 23827m | 6.0m/s | -51.3°C | 3.6% | 0hPa | 2.6V | 00:00:00 | 00:00:00 | 00:00:00 | |
| OM5KV | 2026-09-03 00:23:12 | 49.21926 | 17.73508 | 48° | 26km/h | 23827m | 6.1m/s | -51.3°C | 0.9% | 0hPa | 2.6V | 00:00:00 | 00:00:00 | 00:00:00 | |
| OK1ALN | 2026-09-03 00:23:11 | 49.21922 | 17.73500 | 58° | 24km/h | 23822m | 5.6m/s | -51.3°C | 0.9% | 0hPa | 2.6V | 00:00:00 | 00:00:00 | 00:00:00 | |
| PG1ADW-2 | 2026-09-03 00:23:10 | 49.21918 | 17.73484 | 90° | 13km/h | 23809m | 6.3m/s | -51.2°C | 3.5% | 0hPa | 2.6V | 00:00:00 | 00:00:00 | 08:30:00 | |
| PETON7-10 | 2026-09-03 00:23:09 | 49.21919 | 17.73476 | 103° | 13km/h | 23803m | 4.2m/s | -51.2°C | 3.6% | 0hPa | 2.6V | 00:00:00 | 01:37:37 | 00:00:00 | |
| OM5KV | 2026-09-03 00:23:08 | 49.21920 | 17.73469 | 103° | 18km/h | 23799m | 4.8m/s | -51.3°C | 0.9% | 0hPa | 2.6V | 00:00:00 | 00:00:00 | 00:00:00 | |
| OE5DXL-15 | 2026-09-03 00:23:06 | 49.21920 | 17.73458 | 64° | 11km/h | 23788m | 5.7m/s | -51.2°C | 3.6% | 0hPa | 2.6V | 00:00:00 | 00:00:00 | 00:00:00 | |
| OM5KV | 2026-09-03 00:23:02 | 49.21910 | 17.73446 | 38° | 13km/h | 23765m | 5.1m/s | -51.3°C | 0.9% | 0hPa | 2.6V | 00:00:00 | 00:00:00 | 00:00:00 | |
| OM5KV | 2026-09-03 00:23:00 | 49.21907 | 17.73443 | 39° | 15km/h | 23760m | 5.0m/s | -51.3°C | 0.9% | 0hPa | 2.6V | 00:00:00 | 00:00:00 | 00:00:00 | |
| SQ9EZE-14 | 2026-09-03 00:22:57 | 49.21896 | 17.73432 | 37° | 16km/h | 23742m | 5.3m/s | -51.4°C | 0% | 0hPa | 2.6V | 00:00:00 | 00:00:00 | 00:00:00 | |
| OE5MMP-10 | 2026-09-03 00:22:56 | 49.21893 | 17.73425 | 82° | 9km/h | 23730m | 6.0m/s | -51.3°C | 3.5% | 0hPa | 2.6V | 00:00:00 | 01:37:24 | 00:00:00 | |
| OM5KV | 2026-09-03 00:22:55 | 49.21893 | 17.73426 | 83° | 7km/h | 23730m | 6.1m/s | -51.3°C | 0.9% | 0hPa | 2.6V | 00:00:00 | 00:00:00 | 00:00:00 | |
| OE5DRO-10 | 2026-09-03 00:22:54 | 49.21893 | 17.73422 | 112° | 9km/h | 23720m | 5.1m/s | -51.3°C | 3.5% | 0hPa | 2.6V | 00:00:00 | 00:00:00 | 00:00:00 | |
| PG1ADW-2 | 2026-09-03 00:22:50 | 49.21887 | 17.73421 | 2° | 11km/h | 23696m | 7.0m/s | -51.4°C | 3.4% | 0hPa | 2.6V | 00:00:00 | 01:37:18 | 00:00:00 | |
| DO3MHA-11 | 2026-09-03 00:22:48 | 49.21881 | 17.73421 | 8° | 11km/h | 23684m | 5.2m/s | -51.6°C | 3.6% | 0hPa | 2.6V | 00:00:00 | 01:37:16 | 00:00:00 | |
| OE5MMP-10 | 2026-09-03 00:22:47 | 49.21873 | 17.73419 | 3° | 11km/h | 23672m | 6.3m/s | -51.7°C | 3.6% | 0hPa | 2.6V | 00:00:00 | 01:37:14 | 00:00:00 | |
| OM5KV | 2026-09-03 00:22:45 | 49.21869 | 17.73419 | 359° | 16km/h | 23667m | 4.2m/s | -51.7°C | 0.9% | 0hPa | 2.7V | 00:00:00 | 00:00:00 | 00:00:00 | |
| OE3OSB-13 | 2026-09-03 00:22:42 | 49.21864 | 17.73424 | 221° | 9km/h | 23645m | 5.0m/s | -52.1°C | 0.8% | -1.0hPa | 2.7V | 00:00:00 | 00:00:00 | 00:00:00 | |
| PETON7-10 | 2026-09-03 00:22:39 | 49.21867 | 17.73430 | 253° | 9km/h | 23634m | 6.0m/s | -52.1°C | 3.7% | 0hPa | 2.7V | 00:00:00 | 00:00:00 | 00:00:00 | |
| DO3MHA-11 | 2026-09-03 00:22:38 | 49.21867 | 17.73433 | 291° | 9km/h | 23627m | 5.9m/s | -52.1°C | 3.7% | 0hPa | 2.7V | 00:00:00 | 01:37:06 | 08:30:00 | |
| S52SK | 2026-09-03 00:22:37 | 49.21867 | 17.73433 | 291° | 9km/h | 23627m | 5.9m/s | -52.1°C | 0.9% | 0hPa | 2.6V | 00:00:00 | 00:00:00 | 00:00:00 | |
| OE5DXL-15 | 2026-09-03 00:22:36 | 49.21864 | 17.73436 | 351° | 7km/h | 23617m | 5.7m/s | -52.2°C | 3.7% | 0hPa | 2.6V | 00:00:00 | 00:00:00 | 00:00:00 | |
| OE5DRO-10 | 2026-09-03 00:22:35 | 49.21862 | 17.73436 | 18° | 7km/h | 23610m | 7.3m/s | -52.2°C | 3.7% | 0hPa | 2.6V | 00:00:00 | 00:00:00 | 00:00:00 | |
| OM5KV | 2026-09-03 00:22:33 | 49.21861 | 17.73435 | 44° | 7km/h | 23604m | 5.5m/s | -52.3°C | 0.9% | 0hPa | 2.5V | 00:00:00 | 00:00:00 | 00:00:00 | |
| S52SK | 2026-09-03 00:22:32 | 49.21859 | 17.73433 | 42° | 11km/h | 23598m | 5.3m/s | -52.4°C | 0.9% | 0hPa | 2.5V | 00:00:00 | 00:00:00 | 00:00:00 | |
| OK1ALN | 2026-09-03 00:22:31 | 49.21854 | 17.73428 | 24° | 11km/h | 23586m | 5.2m/s | -52.4°C | 0.9% | 0hPa | 2.5V | 00:00:00 | 00:00:00 | 00:00:00 | |
| POL1PZ | 2026-09-03 00:22:30 | 49.21852 | 17.73427 | 15° | 7km/h | 23581m | 4.5m/s | -52.4°C | 0.9% | 0hPa | 2.5V | 00:00:00 | 00:00:00 | 00:00:00 | |
| DO3MHA-11 | 2026-09-03 00:22:28 | 49.21851 | 17.73427 | 228° | 7km/h | 23569m | 6.5m/s | -52.4°C | 3.8% | 0hPa | 2.5V | 00:00:00 | 01:36:56 | 00:00:00 | |
| S52SK | 2026-09-03 00:22:27 | 49.21851 | 17.73427 | 229° | 5km/h | 23569m | 6.6m/s | -52.5°C | 1.0% | 0hPa | 2.5V | 00:00:00 | 00:00:00 | 00:00:00 | |
| OE5MMP-10 | 2026-09-03 00:22:26 | 49.21854 | 17.73432 | 233° | 5km/h | 23558m | 4.8m/s | -52.4°C | 3.8% | 0hPa | 2.5V | 00:00:00 | 01:36:54 | 00:00:00 | |
| PETON7-10 | 2026-09-03 00:22:24 | 49.21856 | 17.73439 | 290° | 7km/h | 23546m | 5.4m/s | -52.5°C | 3.8% | 0hPa | 2.5V | 00:00:00 | 01:36:52 | 00:00:00 | |
| OM5KV | 2026-09-03 00:22:21 | 49.21853 | 17.73443 | 335° | 7km/h | 23535m | 5.8m/s | -52.5°C | 1.0% | 0hPa | 2.5V | 00:00:00 | 00:00:00 | 00:00:00 | |
| DO3MHA-11 | 2026-09-03 00:22:18 | 49.21851 | 17.73439 | 83° | 5km/h | 23513m | 5.8m/s | -52.5°C | 3.8% | 0hPa | 2.5V | 00:00:00 | 01:36:46 | 00:00:00 | |
| OE5MMP-10 | 2026-09-03 00:22:16 | 49.21851 | 17.73437 | 288° | 5km/h | 23501m | 4.7m/s | -52.5°C | 3.8% | 0hPa | 2.5V | 00:00:00 | 01:36:44 | 00:00:00 | |
| OM5KV | 2026-09-03 00:22:13 | 49.21852 | 17.73441 | 230° | 11km/h | 23489m | 7.8m/s | -52.5°C | 1.0% | 0hPa | 2.6V | 00:00:00 | 00:00:00 | 00:00:00 | |
| OE3OSB-13 | 2026-09-03 00:22:11 | 49.21859 | 17.73452 | 237° | 2km/h | 23465m | 5.9m/s | -52.5°C | 0.8% | -1.0hPa | 2.6V | 00:00:00 | 00:00:00 | 00:00:00 | |
| PG1ADW-2 | 2026-09-03 00:22:10 | 49.21859 | 17.73452 | 238° | 7km/h | 23465m | 5.8m/s | -52.4°C | 3.8% | 0hPa | 2.6V | 00:00:00 | 00:00:00 | 00:00:00 | |
| PETON7-10 | 2026-09-03 00:22:09 | 49.21859 | 17.73452 | 54° | 5km/h | 23460m | 5.5m/s | -52.4°C | 3.8% | 0hPa | 2.7V | 00:00:00 | 00:00:00 | 00:00:00 | |
| DO3MHA-11 | 2026-09-03 00:22:08 | 49.21859 | 17.73451 | 67° | 7km/h | 23453m | 7.2m/s | -52.4°C | 3.8% | 0hPa | 2.7V | 00:00:00 | 01:36:36 | 00:00:00 | |
| OM5KV | 2026-09-03 00:22:07 | 49.21859 | 17.73451 | 67° | 4km/h | 23453m | 7.2m/s | -52.4°C | 0.9% | 0hPa | 2.5V | 00:00:00 | 00:00:00 | 00:00:00 | |
| OE5MMP-10 | 2026-09-03 00:22:06 | 49.21858 | 17.73448 | 52° | 7km/h | 23441m | 5.7m/s | -52.3°C | 3.8% | 0hPa | 2.5V | 00:00:00 | 01:36:34 | 00:00:00 | |
| OM5KV | 2026-09-03 00:22:04 | 49.21857 | 17.73447 | 38° | 7km/h | 23434m | 7.1m/s | -52.4°C | 0.9% | 0hPa | 2.5V | 00:00:00 | 00:00:00 | 00:00:00 | |
| OM5KV | 2026-09-03 00:22:02 | 49.21854 | 17.73446 | 321° | 4km/h | 23424m | 4.2m/s | -52.3°C | 0.9% | 0hPa | 2.5V | 00:00:00 | 00:00:00 | 00:00:00 | |
| DO3MHA-11 | 2026-09-03 00:21:58 | 49.21858 | 17.73463 | 268° | 7km/h | 23393m | 6.3m/s | -52.2°C | 3.7% | 0hPa | 2.5V | 00:00:00 | 01:36:26 | 00:00:00 | |
| OE5DRO-10 | 2026-09-03 00:21:57 | 49.21857 | 17.73465 | 300° | 7km/h | 23388m | 5.2m/s | -52.2°C | 3.7% | 0hPa | 2.5V | 00:00:00 | 00:00:00 | 00:00:00 | |
| OE5MMP-10 | 2026-09-03 00:21:56 | 49.21857 | 17.73466 | 341° | 7km/h | 23382m | 6.3m/s | -52.2°C | 3.8% | 0hPa | 2.5V | 00:00:00 | 01:36:24 | 00:00:00 | |
| PETON7-10 | 2026-09-03 00:21:54 | 49.21856 | 17.73464 | 48° | 7km/h | 23370m | 5.1m/s | -52.3°C | 3.8% | 0hPa | 2.5V | 00:00:00 | 00:00:00 | 00:00:00 | |
| PG1ADW-2 | 2026-09-03 00:21:50 | 49.21846 | 17.73454 | 30° | 5km/h | 23346m | 4.9m/s | -52.3°C | 3.8% | 0hPa | 2.5V | 00:00:00 | 00:00:00 | 00:00:00 | |
| OK1ALN | 2026-09-03 00:21:49 | 49.21846 | 17.73454 | 30° | 11km/h | 23346m | 5.0m/s | -52.4°C | 0.9% | 0hPa | 2.5V | 00:00:00 | 00:00:00 | 00:00:00 | |
| DO3MHA-11 | 2026-09-03 00:21:48 | 49.21844 | 17.73453 | 296° | 5km/h | 23334m | 5.4m/s | -52.3°C | 3.9% | 0hPa | 2.5V | 00:00:00 | 01:36:16 | 00:00:00 | |
| OE5MMP-10 | 2026-09-03 00:21:46 | 49.21843 | 17.73457 | 291° | 7km/h | 23323m | 6.9m/s | -52.3°C | 3.8% | 0hPa | 2.5V | 00:00:00 | 01:36:14 | 08:30:00 | |
| PETON7-10 | 2026-09-03 00:21:39 | 49.21838 | 17.73455 | 51° | 7km/h | 23280m | 7.2m/s | -52.3°C | 3.7% | 0hPa | 2.7V | 00:00:00 | 01:36:07 | 00:00:00 | |
| DO3MHA-11 | 2026-09-03 00:21:38 | 49.21836 | 17.73451 | 41° | 7km/h | 23274m | 5.3m/s | -52.3°C | 3.8% | 0hPa | 2.7V | 00:00:00 | 01:36:06 | 00:00:00 | |
| OE5MMP-10 | 2026-09-03 00:21:36 | 49.21832 | 17.73447 | 40° | 7km/h | 23264m | 6.2m/s | -52.2°C | 3.7% | 0hPa | 2.7V | 00:00:00 | 01:36:04 | 00:00:00 | |
| OM5KV | 2026-09-03 00:21:35 | 49.21831 | 17.73446 | 0° | 0km/h | 23257m | 6.2m/s | -52.3°C | 0.9% | 0hPa | 2.7V | 00:00:00 | 00:00:00 | 00:00:00 | |
| OM5KV | 2026-09-03 00:21:30 | 49.21835 | 17.73453 | 267° | 7km/h | 23229m | 5.1m/s | -52.1°C | 0.9% | 0hPa | 2.7V | 00:00:00 | 00:00:00 | 00:00:00 | |
| DO3MHA-11 | 2026-09-03 00:21:28 | 49.21835 | 17.73460 | 268° | 7km/h | 23217m | 6.0m/s | -52.0°C | 3.7% | 0hPa | 2.7V | 00:00:00 | 01:35:56 | 00:00:00 | |
| OE5MMP-10 | 2026-09-03 00:21:26 | 49.21834 | 17.73467 | 303° | 7km/h | 23206m | 5.5m/s | -51.9°C | 3.7% | 0hPa | 2.7V | 00:00:00 | 01:35:54 | 00:00:00 | |
| PETON7-10 | 2026-09-03 00:21:24 | 49.21831 | 17.73469 | 5° | 13km/h | 23194m | 5.5m/s | -51.9°C | 3.7% | 0hPa | 2.7V | 00:00:00 | 00:00:00 | 00:00:00 | |
| OE5DRO-10 | 2026-09-03 00:21:19 | 49.21830 | 17.73472 | 227° | 13km/h | 23166m | 4.8m/s | -51.9°C | 3.8% | 0hPa | 2.5V | 00:00:00 | 00:00:00 | 00:00:00 | |
| DO3MHA-11 | 2026-09-03 00:21:18 | 49.21832 | 17.73475 | 247° | 16km/h | 23160m | 6.8m/s | -51.9°C | 3.8% | 0hPa | 2.5V | 00:00:00 | 01:35:46 | 00:00:00 | |
| OM5KV | 2026-09-03 00:21:17 | 49.21832 | 17.73475 | 247° | 9km/h | 23160m | 6.8m/s | -52.0°C | 0.9% | 0hPa | 2.5V | 00:00:00 | 00:00:00 | 00:00:00 | |
| OE5MMP-10 | 2026-09-03 00:21:16 | 49.21832 | 17.73483 | 283° | 16km/h | 23148m | 5.2m/s | -51.9°C | 3.8% | 0hPa | 2.5V | 00:00:00 | 01:35:44 | 00:00:00 | |
| OM5KV | 2026-09-03 00:21:12 | 49.21829 | 17.73512 | 283° | 18km/h | 23125m | 5.3m/s | -51.8°C | 1.0% | 0hPa | 2.6V | 00:00:00 | 00:00:00 | 00:00:00 | |
| OM5KV | 2026-09-03 00:21:11 | 49.21829 | 17.73512 | 283° | 18km/h | 23125m | 5.3m/s | -51.8°C | 1.0% | 0hPa | 2.6V | 00:00:00 | 00:00:00 | 00:00:00 | |
| PG1ADW-2 | 2026-09-03 00:21:10 | 49.21825 | 17.73523 | 304° | 11km/h | 23113m | 5.1m/s | -51.7°C | 3.7% | 0hPa | 2.6V | 00:00:00 | 00:00:00 | 00:00:00 | |
| OE3OSB-13 | 2026-09-03 00:21:09 | 49.21822 | 17.73532 | 289° | 11km/h | 23102m | 6.3m/s | -51.7°C | 0.8% | -1.0hPa | 2.7V | 00:00:00 | 00:00:00 | 00:00:00 | |
| DO3MHA-11 | 2026-09-03 00:21:08 | 49.21822 | 17.73532 | 290° | 11km/h | 23102m | 6.3m/s | -51.7°C | 3.7% | 0hPa | 2.7V | 00:00:00 | 01:35:36 | 08:30:00 | |
| POL1PZ | 2026-09-03 00:21:07 | 49.21822 | 17.73532 | 291° | 11km/h | 23102m | 6.3m/s | -51.7°C | 0.9% | 0hPa | 2.5V | 00:00:00 | 00:00:00 | 00:00:00 | |
| OE5DXL-15 | 2026-09-03 00:21:06 | 49.21822 | 17.73540 | 246° | 11km/h | 23090m | 5.4m/s | -51.6°C | 3.7% | 0hPa | 2.5V | 00:00:00 | 00:00:00 | 00:00:00 | |
| OM5KV | 2026-09-03 00:21:05 | 49.21822 | 17.73540 | 246° | 11km/h | 23090m | 5.4m/s | -51.7°C | 0.9% | 0hPa | 2.5V | 00:00:00 | 00:00:00 | 00:00:00 | |
| OE5DRO-10 | 2026-09-03 00:21:00 | 49.21825 | 17.73560 | 276° | 11km/h | 23055m | 5.6m/s | -51.6°C | 3.6% | 0hPa | 2.5V | 00:00:00 | 00:00:00 | 00:00:00 | |
| OM5KV | 2026-09-03 00:20:59 | 49.21825 | 17.73560 | 276° | 15km/h | 23055m | 5.6m/s | -51.6°C | 0.9% | 0hPa | 2.5V | 00:00:00 | 00:00:00 | 00:00:00 | |
| DO3MHA-11 | 2026-09-03 00:20:58 | 49.21824 | 17.73571 | 293° | 13km/h | 23045m | 6.3m/s | -51.6°C | 3.6% | 0hPa | 2.5V | 00:00:00 | 01:35:26 | 00:00:00 | |
| OE5MMP-10 | 2026-09-03 00:20:56 | 49.21821 | 17.73579 | 307° | 13km/h | 23033m | 4.9m/s | -51.6°C | 3.6% | 0hPa | 2.5V | 00:00:00 | 01:35:24 | 00:00:00 | |
| PETON7-10 | 2026-09-03 00:20:54 | 49.21821 | 17.73583 | 215° | 9km/h | 23022m | 7.2m/s | -51.5°C | 3.6% | 0hPa | 2.5V | 00:00:00 | 01:35:22 | 00:00:00 | |
| OM5KV | 2026-09-03 00:20:53 | 49.21821 | 17.73583 | 216° | 7km/h | 23022m | 7.3m/s | -51.6°C | 0.9% | 0hPa | 2.5V | 00:00:00 | 00:00:00 | 00:00:00 | |
| PG1ADW-2 | 2026-09-03 00:20:50 | 49.21836 | 17.73585 | 169° | 13km/h | 22997m | 5.7m/s | -51.4°C | 3.6% | 0hPa | 2.5V | 00:00:00 | 00:00:00 | 00:00:00 | |
| DO3MHA-11 | 2026-09-03 00:20:48 | 49.21842 | 17.73584 | 184° | 7km/h | 22985m | 6.8m/s | -51.4°C | 3.5% | 0hPa | 2.5V | 00:00:00 | 01:35:16 | 00:00:00 | |
| POL1PZ | 2026-09-03 00:20:47 | 49.21845 | 17.73584 | 199° | 11km/h | 22979m | 6.0m/s | -51.5°C | 0.9% | 0hPa | 2.5V | 00:00:00 | 00:00:00 | 00:00:00 | |
| OE5MMP-10 | 2026-09-03 00:20:46 | 49.21847 | 17.73586 | 208° | 7km/h | 22973m | 4.9m/s | -51.5°C | 3.5% | 0hPa | 2.5V | 00:00:00 | 01:35:14 | 00:00:00 | |
| OM5KV | 2026-09-03 00:20:43 | 49.21849 | 17.73587 | 0° | 0km/h | 22960m | 6.1m/s | -51.6°C | 0.9% | 0hPa | 2.5V | 00:00:00 | 00:00:00 | 00:00:00 | |
| OE5DRO-10 | 2026-09-03 00:20:41 | 49.21848 | 17.73590 | 257° | 13km/h | 22945m | 5.9m/s | -51.7°C | 3.6% | 0hPa | 2.5V | 00:00:00 | 00:00:00 | 00:00:00 | |
| PETON7-10 | 2026-09-03 00:20:39 | 49.21851 | 17.73592 | 176° | 15km/h | 22934m | 5.2m/s | -51.7°C | 3.6% | 0hPa | 2.7V | 00:00:00 | 00:00:00 | 08:30:00 | |
| S52SK | 2026-09-03 00:20:38 | 49.21854 | 17.73591 | 158° | 15km/h | 22928m | 7.1m/s | -51.7°C | 0.9% | 0hPa | 2.6V | 00:00:00 | 00:00:00 | 00:00:00 | |
| OM5KV | 2026-09-03 00:20:36 | 49.21863 | 17.73583 | 148° | 24km/h | 22916m | 4.9m/s | -51.8°C | 0.9% | 0hPa | 2.6V | 00:00:00 | 00:00:00 | 00:00:00 | |
| S52SK | 2026-09-03 00:20:31 | 49.21881 | 17.73569 | 153° | 15km/h | 22894m | 5.3m/s | -51.9°C | 0.9% | 0hPa | 2.6V | 00:00:00 | 00:00:00 | 00:00:00 | |
| PG1ADW-2 | 2026-09-03 00:20:30 | 49.21887 | 17.73563 | 145° | 11km/h | 22882m | 5.4m/s | -51.8°C | 3.7% | 0hPa | 2.6V | 00:00:00 | 00:00:00 | 00:00:00 | |
| DO3MHA-11 | 2026-09-03 00:20:28 | 49.21891 | 17.73560 | 190° | 11km/h | 22872m | 6.3m/s | -51.8°C | 3.6% | 0hPa | 2.6V | 00:00:00 | 01:34:56 | 00:00:00 | |
| OK1ALN | 2026-09-03 00:20:27 | 49.21891 | 17.73560 | 191° | 7km/h | 22872m | 6.4m/s | -51.8°C | 0.9% | 0hPa | 2.6V | 00:00:00 | 00:00:00 | 00:00:00 | |
| OE5MMP-10 | 2026-09-03 00:20:26 | 49.21894 | 17.73564 | 235° | 13km/h | 22859m | 4.7m/s | -51.7°C | 3.6% | 0hPa | 2.6V | 00:00:00 | 01:34:54 | 00:00:00 | |
| PETON7-10 | 2026-09-03 00:20:24 | 49.21897 | 17.73568 | 190° | 13km/h | 22847m | 6.7m/s | -51.7°C | 3.6% | 0hPa | 2.6V | 00:00:00 | 00:00:00 | 00:00:00 | |
| OE5DRO-10 | 2026-09-03 00:20:22 | 49.21903 | 17.73567 | 170° | 16km/h | 22836m | 6.1m/s | -51.8°C | 3.7% | 0hPa | 2.6V | 00:00:00 | 00:00:00 | 00:00:00 | |
| OM5KV | 2026-09-03 00:20:20 | 49.21910 | 17.73565 | 165° | 15km/h | 22823m | 4.8m/s | -52.0°C | 0.9% | 0hPa | 2.6V | 00:00:00 | 00:00:00 | 00:00:00 | |
| DO3MHA-11 | 2026-09-03 00:20:18 | 49.21916 | 17.73560 | 135° | 13km/h | 22813m | 6.8m/s | -52.0°C | 3.7% | 0hPa | 2.6V | 00:00:00 | 01:34:46 | 00:00:00 | |
| OE5MMP-10 | 2026-09-03 00:20:16 | 49.21920 | 17.73552 | 117° | 16km/h | 22801m | 5.5m/s | -52.1°C | 3.7% | 0hPa | 2.6V | 00:00:00 | 01:34:44 | 08:30:00 | |
| PG1ADW-2 | 2026-09-03 00:20:10 | 49.21934 | 17.73539 | 147° | 27km/h | 22767m | 5.7m/s | -52.1°C | 3.7% | 0hPa | 2.6V | 00:00:00 | 01:34:38 | 08:30:00 | |
| PETON7-10 | 2026-09-03 00:20:09 | 49.21939 | 17.73534 | 149° | 27km/h | 22762m | 5.3m/s | -52.1°C | 3.7% | 0hPa | 2.7V | 00:00:00 | 01:34:37 | 00:00:00 | |
| DO3MHA-11 | 2026-09-03 00:20:08 | 49.21945 | 17.73529 | 154° | 26km/h | 22756m | 6.8m/s | -52.1°C | 3.7% | 0hPa | 2.7V | 00:00:00 | 01:34:36 | 00:00:00 | |
| OE5MMP-10 | 2026-09-03 00:20:06 | 49.21957 | 17.73521 | 154° | 26km/h | 22744m | 4.7m/s | -52.2°C | 3.8% | 0hPa | 2.7V | 00:00:00 | 01:34:34 | 00:00:00 | |
| NBG1-10 | 2026-09-03 00:20:05 | 49.21963 | 17.73516 | 149° | 27km/h | 22739m | 6.5m/s | 0°C | 0% | 0hPa | 2.7V | 00:00:00 | 01:34:33 | 00:00:00 | |
| OE5DRO-10 | 2026-09-03 00:20:03 | 49.21974 | 17.73503 | 140° | 27km/h | 22728m | 3.8m/s | -52.1°C | 3.8% | 0hPa | 2.7V | 00:00:00 | 00:00:00 | 00:00:00 | |
| DO3MHA-11 | 2026-09-03 00:19:58 | 49.21998 | 17.73481 | 151° | 33km/h | 22700m | 6.9m/s | -52.2°C | 3.8% | 0hPa | 2.7V | 00:00:00 | 01:34:26 | 00:00:00 | |
| OE5MMP-10 | 2026-09-03 00:19:56 | 49.22011 | 17.73468 | 146° | 31km/h | 22687m | 5.6m/s | -52.2°C | 3.8% | 0hPa | 2.7V | 00:00:00 | 01:34:24 | 00:00:00 | |
| PETON7-10 | 2026-09-03 00:19:54 | 49.22025 | 17.73453 | 147° | 29km/h | 22675m | 5.9m/s | -52.1°C | 3.8% | 0hPa | 2.7V | 00:00:00 | 00:00:00 | 00:00:00 | |
| OM5KV | 2026-09-03 00:19:52 | 49.22039 | 17.73438 | 142° | 35km/h | 22664m | 6.0m/s | -52.1°C | 1.0% | 0hPa | 2.7V | 00:00:00 | 00:00:00 | 00:00:00 | |
| OM5KV | 2026-09-03 00:19:50 | 49.22045 | 17.73430 | 140° | 35km/h | 22658m | 5.9m/s | -52.1°C | 0.9% | 0hPa | 2.7V | 00:00:00 | 00:00:00 | 00:00:00 | |
| DO3MHA-11 | 2026-09-03 00:19:48 | 49.22064 | 17.73407 | 146° | 26km/h | 22641m | 6.4m/s | -52.0°C | 3.8% | 0hPa | 2.7V | 00:00:00 | 01:34:16 | 00:00:00 | |
| POL1PZ | 2026-09-03 00:19:46 | 49.22074 | 17.73397 | 146° | 24km/h | 22630m | 5.3m/s | -52.1°C | 1.0% | 0hPa | 2.7V | 00:00:00 | 00:00:00 | 00:00:00 | |
| OE5DRO-10 | 2026-09-03 00:19:44 | 49.22084 | 17.73384 | 136° | 24km/h | 22617m | 6.3m/s | -52.0°C | 3.7% | 0hPa | 2.7V | 00:00:00 | 00:00:00 | 00:00:00 | |
| PETON7-10 | 2026-09-03 00:19:39 | 49.22105 | 17.73347 | 126° | 22km/h | 22589m | 5.1m/s | -51.9°C | 3.7% | 0hPa | 2.7V | 00:00:00 | 00:00:00 | 00:00:00 | |
| DO3MHA-11 | 2026-09-03 00:19:38 | 49.22108 | 17.73340 | 125° | 24km/h | 22583m | 6.8m/s | -51.9°C | 3.6% | 0hPa | 2.7V | 00:00:00 | 01:34:06 | 08:30:00 | |
| OE5DXL-15 | 2026-09-03 00:19:36 | 49.22116 | 17.73325 | 125° | 18km/h | 22571m | 5.2m/s | -51.9°C | 3.6% | 0hPa | 2.6V | 00:00:00 | 00:00:00 | 00:00:00 | |
| OE3OSB-13 | 2026-09-03 00:19:35 | 49.22119 | 17.73318 | 125° | 20km/h | 22565m | 6.8m/s | -51.9°C | 0.8% | -1.0hPa | 2.6V | 00:00:00 | 00:00:00 | 00:00:00 | |
| OM5KV | 2026-09-03 00:19:34 | 49.22119 | 17.73318 | 126° | 20km/h | 22565m | 6.8m/s | -51.9°C | 0.9% | 0hPa | 2.6V | 00:00:00 | 00:00:00 | 00:00:00 | |
| OM5KV | 2026-09-03 00:19:33 | 49.22122 | 17.73311 | 131° | 18km/h | 22559m | 4.7m/s | -51.9°C | 0.9% | 0hPa | 2.6V | 00:00:00 | 00:00:00 | 00:00:00 | |
| NBG1-10 | 2026-09-03 00:19:32 | 49.22129 | 17.73300 | 137° | 16km/h | 22550m | 6.1m/s | 0°C | 0% | 0hPa | 2.6V | 00:00:00 | 01:34:00 | 00:00:00 | |
| OE5MMP-10 | 2026-09-03 00:19:26 | 49.22156 | 17.73271 | 132° | 16km/h | 22516m | 5.4m/s | -51.8°C | 3.6% | 0hPa | 2.6V | 00:00:00 | 01:33:54 | 00:00:00 | |
| OE5DRO-10 | 2026-09-03 00:19:25 | 49.22158 | 17.73266 | 116° | 16km/h | 22509m | 7.5m/s | -51.8°C | 3.6% | 0hPa | 2.6V | 00:00:00 | 00:00:00 | 00:00:00 | |
| PETON7-10 | 2026-09-03 00:19:24 | 49.22159 | 17.73260 | 103° | 16km/h | 22503m | 5.3m/s | -51.9°C | 3.7% | 0hPa | 2.6V | 00:00:00 | 01:33:52 | 00:00:00 | |
| OM5KV | 2026-09-03 00:19:22 | 49.22160 | 17.73253 | 94° | 18km/h | 22498m | 5.3m/s | -52.0°C | 0.9% | 0hPa | 2.6V | 00:00:00 | 00:00:00 | 00:00:00 | |
| OM5KV | 2026-09-03 00:19:21 | 49.22160 | 17.73246 | 90° | 16km/h | 22491m | 7.5m/s | -52.1°C | 0.9% | 0hPa | 2.6V | 00:00:00 | 00:00:00 | 00:00:00 | |
| OK1SLM-15 | 2026-09-03 00:19:19 | 49.22160 | 17.73234 | 97° | 16km/h | 22480m | 5.3m/s | 0°C | 0% | 0hPa | 2.6V | 00:00:00 | 00:00:00 | 00:00:00 | |
| DO3MHA-11 | 2026-09-03 00:19:18 | 49.22163 | 17.73221 | 121° | 16km/h | 22467m | 5.3m/s | -52.1°C | 3.6% | 0hPa | 2.6V | 00:00:00 | 01:33:46 | 00:00:00 | |
| OE5MMP-10 | 2026-09-03 00:19:16 | 49.22169 | 17.73211 | 147° | 16km/h | 22455m | 7.2m/s | -52.1°C | 3.6% | 0hPa | 2.6V | 00:00:00 | 01:33:44 | 00:00:00 | |
| OM5KV | 2026-09-03 00:19:11 | 49.22184 | 17.73197 | 134° | 16km/h | 22432m | 4.8m/s | -52.2°C | 0.9% | 0hPa | 2.7V | 00:00:00 | 00:00:00 | 00:00:00 | |
| OM5KV | 2026-09-03 00:19:10 | 49.22186 | 17.73189 | 87° | 11km/h | 22421m | 7.4m/s | -52.2°C | 0.9% | 0hPa | 2.7V | 00:00:00 | 00:00:00 | 00:00:00 | |
| PETON7-10 | 2026-09-03 00:19:09 | 49.22186 | 17.73185 | 51° | 15km/h | 22415m | 5.5m/s | -52.2°C | 3.6% | 0hPa | 2.7V | 00:00:00 | 00:00:00 | 00:00:00 | |
| DO3MHA-11 | 2026-09-03 00:19:08 | 49.22183 | 17.73181 | 45° | 15km/h | 22409m | 5.1m/s | -52.3°C | 3.7% | 0hPa | 2.7V | 00:00:00 | 01:33:36 | 00:00:00 | |
| OE5MMP-10 | 2026-09-03 00:19:06 | 49.22178 | 17.73171 | 60° | 15km/h | 22397m | 5.2m/s | -52.3°C | 3.7% | 0hPa | 2.6V | 00:00:00 | 01:33:34 | 00:00:00 | |
| OE3OSB-13 | 2026-09-03 00:19:04 | 49.22175 | 17.73161 | 73° | 11km/h | 22387m | 6.4m/s | -52.5°C | 0.9% | -1.0hPa | 2.6V | 00:00:00 | 00:00:00 | 00:00:00 | |
| OK1ALN | 2026-09-03 00:19:03 | 49.22175 | 17.73161 | 75° | 13km/h | 22387m | 6.4m/s | -52.5°C | 1.0% | 0hPa | 2.6V | 00:00:00 | 00:00:00 | 00:00:00 | |
| DO3MHA-11 | 2026-09-03 00:18:58 | 49.22184 | 17.73131 | 127° | 20km/h | 22353m | 6.2m/s | -52.7°C | 3.8% | 0hPa | 2.6V | 00:00:00 | 01:33:26 | 00:00:00 | |
| NBG1-10 | 2026-09-03 00:18:57 | 49.22186 | 17.73126 | 120° | 13km/h | 22346m | 6.4m/s | 0°C | 0% | 0hPa | 2.6V | 00:00:00 | 01:33:25 | 00:00:00 | |
| OE5MMP-10 | 2026-09-03 00:18:56 | 49.22188 | 17.73121 | 97° | 20km/h | 22341m | 4.0m/s | -52.8°C | 3.8% | 0hPa | 2.6V | 00:00:00 | 01:33:24 | 00:00:00 | |
| PETON7-10 | 2026-09-03 00:18:54 | 49.22186 | 17.73108 | 75° | 16km/h | 22331m | 6.9m/s | -52.7°C | 3.8% | 0hPa | 2.6V | 00:00:00 | 00:00:00 | 00:00:00 | |
| PG1ADW-2 | 2026-09-03 00:18:50 | 49.22175 | 17.73077 | 56° | 13km/h | 22307m | 4.8m/s | -52.6°C | 3.8% | 0hPa | 2.6V | 00:00:00 | 01:33:18 | 00:00:00 | |
| DO3MHA-11 | 2026-09-03 00:18:48 | 49.22172 | 17.73064 | 84° | 11km/h | 22295m | 6.6m/s | -52.6°C | 3.8% | 0hPa | 2.6V | 00:00:00 | 01:33:16 | 00:00:00 | |
| OM5KV | 2026-09-03 00:18:47 | 49.22172 | 17.73058 | 105° | 16km/h | 22289m | 4.6m/s | -52.6°C | 1.0% | 0hPa | 2.6V | 00:00:00 | 00:00:00 | 00:00:00 | |
| OE5MMP-10 | 2026-09-03 00:18:46 | 49.22173 | 17.73052 | 121° | 11km/h | 22285m | 5.0m/s | -52.6°C | 3.7% | 0hPa | 2.6V | 00:00:00 | 01:33:14 | 08:30:00 | |
| OK1ALN | 2026-09-03 00:18:43 | 49.22177 | 17.73046 | 155° | 9km/h | 22272m | 5.6m/s | -52.7°C | 1.0% | 0hPa | 2.7V | 00:00:00 | 00:00:00 | 00:00:00 | |
| S52SK | 2026-09-03 00:18:42 | 49.22180 | 17.73043 | 127° | 9km/h | 22261m | 6.9m/s | -52.7°C | 1.0% | 0hPa | 2.7V | 00:00:00 | 00:00:00 | 00:00:00 | |
| PETON7-10 | 2026-09-03 00:18:39 | 49.22180 | 17.73032 | 57° | 9km/h | 22242m | 7.1m/s | -53.0°C | 3.8% | 0hPa | 2.7V | 00:00:00 | 01:33:07 | 00:00:00 | |
| DO3MHA-11 | 2026-09-03 00:18:38 | 49.22178 | 17.73028 | 47° | 11km/h | 22236m | 5.3m/s | -53.1°C | 3.9% | 0hPa | 2.7V | 00:00:00 | 01:33:06 | 00:00:00 | |
| GYPAP8-17 | 2026-09-03 00:18:36 | 49.22173 | 17.73018 | 57° | 20km/h | 22225m | 6.8m/s | 0°C | 0% | 0hPa | 2.7V | 00:00:00 | 00:00:00 | 00:00:00 | |
| OE3OSB-13 | 2026-09-03 00:18:33 | 49.22168 | 17.73001 | 82° | 7km/h | 22209m | 6.5m/s | -53.3°C | 0.9% | -1.0hPa | 2.7V | 00:00:00 | 00:00:00 | 00:00:00 | |
| PG1ADW-2 | 2026-09-03 00:18:30 | 49.22170 | 17.72997 | 168° | 5km/h | 22192m | 6.4m/s | -53.2°C | 3.9% | 0hPa | 2.7V | 00:00:00 | 00:00:00 | 00:00:00 | |
| OE5DRO-10 | 2026-09-03 00:18:28 | 49.22173 | 17.72995 | 141° | 5km/h | 22180m | 4.3m/s | -53.2°C | 4.0% | 0hPa | 2.7V | 00:00:00 | 00:00:00 | 00:00:00 | |
| OE5MMP-10 | 2026-09-03 00:18:26 | 49.22174 | 17.72994 | 190° | 5km/h | 22170m | 6.3m/s | -53.1°C | 4.0% | 0hPa | 2.7V | 00:00:00 | 01:32:54 | 00:00:00 | |
| PETON7-10 | 2026-09-03 00:18:24 | 49.22175 | 17.72995 | 245° | 5km/h | 22158m | 5.0m/s | -53.0°C | 3.9% | 0hPa | 2.7V | 00:00:00 | 00:00:00 | 08:30:00 | |
| OK1ALN | 2026-09-03 00:18:23 | 49.22175 | 17.72995 | 53° | 2km/h | 22152m | 6.5m/s | -53.1°C | 1.0% | 0hPa | 2.6V | 00:00:00 | 00:00:00 | 00:00:00 | |
| POL1PZ | 2026-09-03 00:18:22 | 49.22175 | 17.72995 | 53° | 2km/h | 22152m | 6.5m/s | -53.1°C | 1.0% | 0hPa | 2.6V | 00:00:00 | 00:00:00 | 00:00:00 | |
| DO3MHA-11 | 2026-09-03 00:18:18 | 49.22170 | 17.72991 | 315° | 5km/h | 22123m | 4.8m/s | -53.0°C | 3.9% | 0hPa | 2.6V | 00:00:00 | 01:32:46 | 00:00:00 | |
| OE5MMP-10 | 2026-09-03 00:18:16 | 49.22168 | 17.72995 | 319° | 5km/h | 22111m | 6.4m/s | -53.1°C | 3.9% | 0hPa | 2.6V | 00:00:00 | 01:32:44 | 00:00:00 | |
| PG1ADW-2 | 2026-09-03 00:18:10 | 49.22162 | 17.73008 | 296° | 7km/h | 22075m | 6.7m/s | -53.1°C | 3.9% | 0hPa | 2.6V | 00:00:00 | 00:00:00 | 00:00:00 | |
| OE5DRO-10 | 2026-09-03 00:18:09 | 49.22162 | 17.73008 | 177° | 9km/h | 22070m | 4.3m/s | -53.1°C | 3.9% | 0hPa | 2.7V | 00:00:00 | 00:00:00 | 00:00:00 | |
| DO3MHA-11 | 2026-09-03 00:18:08 | 49.22163 | 17.73009 | 197° | 5km/h | 22064m | 6.4m/s | -53.1°C | 3.9% | 0hPa | 2.7V | 00:00:00 | 01:32:36 | 08:30:00 | |
| OK1SLM-15 | 2026-09-03 00:18:07 | 49.22163 | 17.73009 | 198° | 4km/h | 22064m | 6.4m/s | 0°C | 0% | 0hPa | 2.6V | 00:00:00 | 00:00:00 | 00:00:00 | |
| OE5MMP-10 | 2026-09-03 00:18:06 | 49.22166 | 17.73011 | 217° | 5km/h | 22053m | 3.6m/s | -53.1°C | 3.9% | 0hPa | 2.6V | 00:00:00 | 01:32:34 | 00:00:00 | |
| OM5KV | 2026-09-03 00:18:05 | 49.22166 | 17.73011 | 218° | 7km/h | 22053m | 3.6m/s | -53.1°C | 1.0% | 0hPa | 2.6V | 00:00:00 | 00:00:00 | 00:00:00 | |
| OK1ALN | 2026-09-03 00:18:03 | 49.22169 | 17.73012 | 152° | 5km/h | 22035m | 4.9m/s | -53.1°C | 1.0% | 0hPa | 2.6V | 00:00:00 | 00:00:00 | 00:00:00 | |
| OE3OSB-13 | 2026-09-03 00:18:02 | 49.22172 | 17.73011 | 196° | 5km/h | 22022m | 7.2m/s | -53.1°C | 0.9% | -1.0hPa | 2.6V | 00:00:00 | 00:00:00 | 00:00:00 | |
| POL1PZ | 2026-09-03 00:18:01 | 49.22170 | 17.73011 | 170° | 5km/h | 22029m | 6.1m/s | -53.1°C | 1.0% | 0hPa | 2.6V | 00:00:00 | 00:00:00 | 00:00:00 | |
| OM5KV | 2026-09-03 00:17:59 | 49.22173 | 17.73012 | 203° | 7km/h | 22017m | 4.5m/s | -53.0°C | 1.0% | 0hPa | 2.6V | 00:00:00 | 00:00:00 | 00:00:00 | |
| DO3MHA-11 | 2026-09-03 00:17:58 | 49.22177 | 17.73013 | 177° | 13km/h | 22005m | 6.6m/s | -52.9°C | 3.8% | 0hPa | 2.6V | 00:00:00 | 01:32:26 | 00:00:00 | |
| OE5MMP-10 | 2026-09-03 00:17:56 | 49.22182 | 17.73013 | 188° | 13km/h | 21994m | 6.1m/s | -52.9°C | 3.8% | 0hPa | 2.6V | 00:00:00 | 01:32:24 | 00:00:00 | |
| PETON7-10 | 2026-09-03 00:17:54 | 49.22188 | 17.73016 | 197° | 13km/h | 21982m | 5.3m/s | -53.0°C | 3.9% | 0hPa | 2.6V | 00:00:00 | 01:32:22 | 00:00:00 | |
| HA6NAB-11 | 2026-09-03 00:17:53 | 49.22188 | 17.73016 | 197° | 15km/h | 21982m | 5.3m/s | -53.0°C | 1.0% | 0hPa | 2.6V | 00:00:00 | 00:00:00 | 00:00:00 | |
| NBG1-10 | 2026-09-03 00:17:51 | 49.22198 | 17.73017 | 173° | 15km/h | 21964m | 5.1m/s | 0°C | 0% | 0hPa | 2.6V | 00:00:00 | 01:32:19 | 00:00:00 | |
| OM5KV | 2026-09-03 00:17:50 | 49.22202 | 17.73016 | 180° | 13km/h | 21958m | 6.2m/s | -53.1°C | 1.0% | 0hPa | 2.6V | 00:00:00 | 00:00:00 | 00:00:00 | |
| SQ9EZE-14 | 2026-09-03 00:17:48 | 49.22205 | 17.73017 | 192° | 13km/h | 21952m | 6.1m/s | 0°C | 0% | 0hPa | 2.6V | 00:00:00 | 00:00:00 | 00:00:00 | |
| OE5MMP-10 | 2026-09-03 00:17:46 | 49.22213 | 17.73018 | 168° | 13km/h | 21936m | 6.8m/s | -53.0°C | 3.9% | 0hPa | 2.6V | 00:00:00 | 01:32:14 | 00:00:00 | |
| POL1PZ | 2026-09-03 00:17:42 | 49.22223 | 17.73012 | 178° | 13km/h | 21913m | 6.4m/s | -53.1°C | 1.0% | 0hPa | 2.7V | 00:00:00 | 00:00:00 | 00:00:00 | |
| PETON7-10 | 2026-09-03 00:17:39 | 49.22235 | 17.73010 | 166° | 13km/h | 21896m | 6.6m/s | -53.0°C | 3.9% | 0hPa | 2.7V | 00:00:00 | 00:00:00 | 00:00:00 | |
| DO3MHA-11 | 2026-09-03 00:17:36 | 49.22244 | 17.73005 | 164° | 13km/h | 21878m | 7.1m/s | -53.0°C | 3.9% | 0hPa | 2.6V | 00:00:00 | 01:32:04 | 00:00:00 | |
| OM5KV | 2026-09-03 00:17:32 | 49.22249 | 17.73001 | 129° | 7km/h | 21859m | 7.2m/s | -53.1°C | 1.0% | 0hPa | 2.6V | 00:00:00 | 00:00:00 | 00:00:00 | |
| OE5DRO-10 | 2026-09-03 00:17:31 | 49.22253 | 17.72995 | 140° | 16km/h | 21848m | 4.4m/s | -53.0°C | 3.9% | 0hPa | 2.6V | 00:00:00 | 00:00:00 | 00:00:00 | |
| PG1ADW-2 | 2026-09-03 00:17:30 | 49.22256 | 17.72992 | 153° | 16km/h | 21843m | 6.8m/s | -52.9°C | 3.9% | 0hPa | 2.6V | 00:00:00 | 01:31:58 | 00:00:00 | |
| OM5KV | 2026-09-03 00:17:27 | 49.22264 | 17.72988 | 165° | 18km/h | 21831m | 5.2m/s | -52.9°C | 1.0% | 0hPa | 2.6V | 00:00:00 | 00:00:00 | 00:00:00 | |
| OM5KV | 2026-09-03 00:17:26 | 49.22272 | 17.72982 | 155° | 18km/h | 21818m | 5.3m/s | -52.9°C | 1.0% | 0hPa | 2.6V | 00:00:00 | 00:00:00 | 00:00:00 | |
| PETON7-10 | 2026-09-03 00:17:24 | 49.22280 | 17.72977 | 163° | 16km/h | 21807m | 6.8m/s | -52.8°C | 3.9% | 0hPa | 2.6V | 00:00:00 | 00:00:00 | 00:00:00 | |
| OK1ALN | 2026-09-03 00:17:22 | 49.22288 | 17.72972 | 152° | 18km/h | 21795m | 5.1m/s | -52.8°C | 1.0% | 0hPa | 2.6V | 00:00:00 | 00:00:00 | 00:00:00 | |
| POL1PZ | 2026-09-03 00:17:20 | 49.22293 | 17.72968 | 140° | 18km/h | 21789m | 7.0m/s | -52.8°C | 1.0% | 0hPa | 2.6V | 00:00:00 | 00:00:00 | 00:00:00 | |
| NBG1-10 | 2026-09-03 00:17:18 | 49.22300 | 17.72951 | 116° | 22km/h | 21773m | 6.5m/s | 0°C | 0% | 0hPa | 2.6V | 00:00:00 | 01:31:46 | 00:00:00 | |
| OE5MMP-10 | 2026-09-03 00:17:16 | 49.22303 | 17.72943 | 132° | 15km/h | 21762m | 4.9m/s | -52.6°C | 3.9% | 0hPa | 2.6V | 00:00:00 | 01:31:44 | 08:30:00 | |
| OM5KV | 2026-09-03 00:17:15 | 49.22303 | 17.72943 | 133° | 13km/h | 21762m | 5.0m/s | -52.6°C | 1.0% | 0hPa | 2.6V | 00:00:00 | 00:00:00 | 00:00:00 | |
| OE5DRO-10 | 2026-09-03 00:17:12 | 49.22313 | 17.72923 | 121° | 16km/h | 21739m | 4.4m/s | -52.5°C | 3.8% | 0hPa | 2.6V | 00:00:00 | 00:00:00 | 00:00:00 | |
| PG1ADW-2 | 2026-09-03 00:17:10 | 49.22318 | 17.72912 | 132° | 18km/h | 21728m | 6.3m/s | -52.5°C | 3.8% | 0hPa | 2.6V | 00:00:00 | 00:00:00 | 08:30:00 | |
| PETON7-10 | 2026-09-03 00:17:09 | 49.22320 | 17.72909 | 145° | 16km/h | 21722m | 5.8m/s | -52.5°C | 3.8% | 0hPa | 2.6V | 00:00:00 | 01:31:37 | 00:00:00 | |
| OM5KV | 2026-09-03 00:17:08 | 49.22323 | 17.72907 | 152° | 13km/h | 21717m | 5.1m/s | -52.5°C | 1.0% | 0hPa | 2.6V | 00:00:00 | 00:00:00 | 00:00:00 | |
| OE5DXL-15 | 2026-09-03 00:17:06 | 49.22329 | 17.72900 | 141° | 20km/h | 21705m | 6.5m/s | -52.4°C | 3.8% | 0hPa | 2.6V | 00:00:00 | 00:00:00 | 00:00:00 | |
| OM5KV | 2026-09-03 00:17:03 | 49.22336 | 17.72890 | 136° | 18km/h | 21694m | 5.9m/s | -52.4°C | 1.0% | 0hPa | 2.6V | 00:00:00 | 00:00:00 | 00:00:00 | |
| OE5MMP-10 | 2026-09-03 00:17:02 | 49.22341 | 17.72881 | 128° | 18km/h | 21682m | 5.0m/s | -52.3°C | 3.7% | 0hPa | 2.6V | 00:00:00 | 01:31:30 | 00:00:00 | |
| POL1PZ | 2026-09-03 00:17:00 | 49.22346 | 17.72871 | 123° | 18km/h | 21670m | 6.6m/s | -52.3°C | 1.0% | 0hPa | 2.6V | 00:00:00 | 00:00:00 | 00:00:00 | |
| DO3MHA-11 | 2026-09-03 00:16:56 | 49.22357 | 17.72851 | 150° | 20km/h | 21648m | 4.0m/s | -52.2°C | 3.7% | 0hPa | 2.6V | 00:00:00 | 01:31:24 | 00:00:00 | |
| OM5KV | 2026-09-03 00:16:55 | 49.22358 | 17.72851 | 151° | 18km/h | 21648m | 4.0m/s | -52.2°C | 0.9% | 0hPa | 2.7V | 00:00:00 | 00:00:00 | 00:00:00 | |
| PETON7-10 | 2026-09-03 00:16:54 | 49.22367 | 17.72843 | 151° | 20km/h | 21636m | 6.4m/s | -52.1°C | 3.7% | 0hPa | 2.7V | 00:00:00 | 00:00:00 | 00:00:00 | |
| OE5DRO-10 | 2026-09-03 00:16:53 | 49.22372 | 17.72838 | 151° | 20km/h | 21631m | 4.5m/s | -52.1°C | 3.7% | 0hPa | 2.7V | 00:00:00 | 00:00:00 | 00:00:00 | |
| OE5MMP-10 | 2026-09-03 00:16:52 | 49.22377 | 17.72834 | 151° | 18km/h | 21625m | 6.2m/s | -52.1°C | 3.7% | 0hPa | 2.6V | 00:00:00 | 01:31:20 | 00:00:00 | |
| OM5KV | 2026-09-03 00:16:51 | 49.22377 | 17.72834 | 151° | 24km/h | 21625m | 6.3m/s | -52.2°C | 1.0% | 0hPa | 2.6V | 00:00:00 | 00:00:00 | 00:00:00 | |
| PG1ADW-2 | 2026-09-03 00:16:50 | 49.22386 | 17.72826 | 145° | 20km/h | 21614m | 4.7m/s | -52.2°C | 3.7% | 0hPa | 2.6V | 00:00:00 | 00:00:00 | 00:00:00 | |
| OM5KV | 2026-09-03 00:16:49 | 49.22386 | 17.72826 | 145° | 18km/h | 21614m | 4.7m/s | -52.2°C | 1.0% | 0hPa | 2.6V | 00:00:00 | 00:00:00 | 00:00:00 | |
| DO3MHA-11 | 2026-09-03 00:16:46 | 49.22400 | 17.72806 | 137° | 20km/h | 21590m | 6.8m/s | -52.4°C | 3.8% | 0hPa | 2.6V | 00:00:00 | 01:31:14 | 00:00:00 | |
| OE5MMP-10 | 2026-09-03 00:16:42 | 49.22416 | 17.72793 | 163° | 20km/h | 21567m | 5.9m/s | -52.3°C | 3.6% | 0hPa | 2.6V | 00:00:00 | 01:31:10 | 00:00:00 | |
| PETON7-10 | 2026-09-03 00:16:39 | 49.22432 | 17.72789 | 178° | 24km/h | 21549m | 5.1m/s | -52.5°C | 3.7% | 0hPa | 2.6V | 00:00:00 | 00:00:00 | 00:00:00 | |
| POL1PZ | 2026-09-03 00:16:38 | 49.22433 | 17.72789 | 179° | 20km/h | 21549m | 5.2m/s | -52.5°C | 1.0% | 0hPa | 2.6V | 00:00:00 | 00:00:00 | 00:00:00 | |
| S52SK | 2026-09-03 00:16:37 | 49.22438 | 17.72788 | 175° | 20km/h | 21544m | 4.7m/s | -52.6°C | 1.0% | 0hPa | 2.6V | 00:00:00 | 00:00:00 | 00:00:00 | |
| OE5DXL-15 | 2026-09-03 00:16:36 | 49.22447 | 17.72785 | 158° | 22km/h | 21532m | 5.5m/s | -52.6°C | 3.7% | 0hPa | 2.6V | 00:00:00 | 00:00:00 | 00:00:00 | |
| OE5DRO-10 | 2026-09-03 00:16:34 | 49.22454 | 17.72778 | 144° | 24km/h | 21521m | 6.5m/s | -52.7°C | 3.7% | 0hPa | 2.6V | 00:00:00 | 00:00:00 | 00:00:00 | |
| OE5MMP-10 | 2026-09-03 00:16:32 | 49.22460 | 17.72769 | 132° | 27km/h | 21510m | 6.1m/s | -52.8°C | 3.7% | 0hPa | 2.6V | 00:00:00 | 01:31:00 | 00:00:00 | |
| PG1ADW-2 | 2026-09-03 00:16:30 | 49.22469 | 17.72755 | 138° | 24km/h | 21498m | 4.2m/s | -52.9°C | 3.8% | 0hPa | 2.6V | 00:00:00 | 00:00:00 | 00:00:00 | |
| OE3OSB-13 | 2026-09-03 00:16:29 | 49.22481 | 17.72742 | 146° | 27km/h | 21487m | 6.5m/s | -53.1°C | 0.9% | -1.0hPa | 2.6V | 00:00:00 | 00:00:00 | 00:00:00 | |
| DO3MHA-11 | 2026-09-03 00:16:25 | 49.22499 | 17.72723 | 146° | 26km/h | 21472m | 6.7m/s | -53.1°C | 3.9% | 0hPa | 2.6V | 00:00:00 | 01:30:53 | 08:30:00 | |
| PETON7-10 | 2026-09-03 00:16:24 | 49.22506 | 17.72717 | 144° | 22km/h | 21466m | 4.2m/s | -53.1°C | 3.9% | 0hPa | 2.6V | 00:00:00 | 01:30:52 | 00:00:00 | |
| OE5MMP-10 | 2026-09-03 00:16:22 | 49.22516 | 17.72704 | 140° | 20km/h | 21456m | 6.5m/s | -53.1°C | 3.9% | 0hPa | 2.6V | 00:00:00 | 01:30:50 | 00:00:00 | |
| OM5KV | 2026-09-03 00:16:20 | 49.22520 | 17.72699 | 131° | 18km/h | 21450m | 4.6m/s | -53.1°C | 1.0% | 0hPa | 2.6V | 00:00:00 | 00:00:00 | 00:00:00 | |
| OK1ALN | 2026-09-03 00:16:18 | 49.22525 | 17.72685 | 113° | 22km/h | 21438m | 6.9m/s | -53.2°C | 1.0% | 0hPa | 2.6V | 00:00:00 | 00:00:00 | 00:00:00 | |
| OM5KV | 2026-09-03 00:16:17 | 49.22527 | 17.72677 | 108° | 22km/h | 21433m | 3.9m/s | -53.2°C | 1.0% | 0hPa | 2.6V | 00:00:00 | 00:00:00 | 00:00:00 | |
| NBG1-10 | 2026-09-03 00:16:15 | 49.22530 | 17.72656 | 111° | 15km/h | 21416m | 4.7m/s | 0°C | 0% | 0hPa | 2.6V | 00:00:00 | 01:30:43 | 00:00:00 | |
| OE5MMP-10 | 2026-09-03 00:16:12 | 49.22538 | 17.72636 | 128° | 15km/h | 21399m | 4.7m/s | -53.5°C | 3.9% | 0hPa | 2.6V | 00:00:00 | 01:30:40 | 00:00:00 | |
| PG1ADW-2 | 2026-09-03 00:16:10 | 49.22545 | 17.72624 | 134° | 13km/h | 21389m | 5.7m/s | -53.5°C | 4.0% | 0hPa | 2.6V | 00:00:00 | 01:30:38 | 00:00:00 | |
| PETON7-10 | 2026-09-03 00:16:09 | 49.22548 | 17.72619 | 130° | 11km/h | 21383m | 5.2m/s | -53.6°C | 4.0% | 0hPa | 2.7V | 00:00:00 | 00:00:00 | 08:30:00 | |
| OM5KV | 2026-09-03 00:16:07 | 49.22551 | 17.72614 | 123° | 15km/h | 21377m | 6.1m/s | -53.6°C | 1.1% | 0hPa | 2.6V | 00:00:00 | 00:00:00 | 00:00:00 | |
| OE5DXL-15 | 2026-09-03 00:16:06 | 49.22554 | 17.72603 | 107° | 11km/h | 21367m | 4.0m/s | -53.5°C | 4.0% | 0hPa | 2.6V | 00:00:00 | 00:00:00 | 08:30:00 | |
| OM5KV | 2026-09-03 00:16:04 | 49.22555 | 17.72598 | 105° | 13km/h | 21362m | 5.2m/s | -53.6°C | 1.0% | 0hPa | 2.6V | 00:00:00 | 00:00:00 | 00:00:00 | |
| OE3OSB-13 | 2026-09-03 00:15:58 | 49.22569 | 17.72574 | 147° | 7km/h | 21316m | 5.7m/s | -53.4°C | 0.9% | -1.0hPa | 2.6V | 00:00:00 | 00:00:00 | 00:00:00 | |
| OK1ALN | 2026-09-03 00:15:57 | 49.22567 | 17.72577 | 141° | 11km/h | 21323m | 6.8m/s | -53.4°C | 1.0% | 0hPa | 2.6V | 00:00:00 | 00:00:00 | 00:00:00 | |
| OE5DRO-10 | 2026-09-03 00:15:56 | 49.22571 | 17.72573 | 153° | 11km/h | 21311m | 5.5m/s | -53.3°C | 4.0% | 0hPa | 2.6V | 00:00:00 | 00:00:00 | 08:30:00 | |
| PETON7-10 | 2026-09-03 00:15:54 | 49.22575 | 17.72570 | 176° | 11km/h | 21299m | 4.6m/s | -53.3°C | 4.0% | 0hPa | 2.7V | 00:00:00 | 00:00:00 | 00:00:00 | |
| OM5KV | 2026-09-03 00:15:53 | 49.22576 | 17.72570 | 177° | 13km/h | 21299m | 4.7m/s | -53.4°C | 1.0% | 0hPa | 2.7V | 00:00:00 | 00:00:00 | 00:00:00 | |
| OE5MMP-10 | 2026-09-03 00:15:52 | 49.22582 | 17.72572 | 204° | 13km/h | 21289m | 6.6m/s | -53.4°C | 4.0% | 0hPa | 2.7V | 00:00:00 | 01:30:20 | 00:00:00 | |
| PG1ADW-2 | 2026-09-03 00:15:50 | 49.22587 | 17.72577 | 208° | 13km/h | 21278m | 4.4m/s | -53.4°C | 4.0% | 0hPa | 2.7V | 00:00:00 | 00:00:00 | 00:00:00 | |
| OE5MMP-10 | 2026-09-03 00:15:42 | 49.22611 | 17.72574 | 151° | 9km/h | 21235m | 6.7m/s | -53.0°C | 3.9% | 0hPa | 2.7V | 00:00:00 | 01:30:10 | 08:30:00 | |
| DO3MHA-11 | 2026-09-03 00:15:41 | 49.22613 | 17.72572 | 153° | 13km/h | 21229m | 5.0m/s | -53.0°C | 3.9% | 0hPa | 2.6V | 00:00:00 | 01:30:09 | 00:00:00 | |
| PETON7-10 | 2026-09-03 00:15:39 | 49.22618 | 17.72571 | 193° | 15km/h | 21219m | 6.7m/s | -52.9°C | 3.9% | 0hPa | 2.6V | 00:00:00 | 01:30:07 | 00:00:00 | |
| OE5DRO-10 | 2026-09-03 00:15:37 | 49.22623 | 17.72575 | 211° | 15km/h | 21208m | 4.9m/s | -52.9°C | 3.9% | 0hPa | 2.6V | 00:00:00 | 00:00:00 | 00:00:00 | |
| OE5DXL-15 | 2026-09-03 00:15:36 | 49.22626 | 17.72577 | 201° | 15km/h | 21202m | 6.7m/s | -52.8°C | 3.8% | 0hPa | 2.6V | 00:00:00 | 00:00:00 | 00:00:00 | |
| OM5KV | 2026-09-03 00:15:35 | 49.22626 | 17.72577 | 202° | 15km/h | 21202m | 6.8m/s | -52.9°C | 1.0% | 0hPa | 2.6V | 00:00:00 | 00:00:00 | 00:00:00 | |
| OE5MMP-10 | 2026-09-03 00:15:32 | 49.22641 | 17.72582 | 191° | 15km/h | 21179m | 4.9m/s | -52.8°C | 3.8% | 0hPa | 2.6V | 00:00:00 | 01:30:00 | 00:00:00 | |
| PG1ADW-2 | 2026-09-03 00:15:30 | 49.22648 | 17.72582 | 168° | 15km/h | 21168m | 6.8m/s | -52.9°C | 3.9% | 0hPa | 2.6V | 00:00:00 | 00:00:00 | 00:00:00 | |
| DO3MHA-11 | 2026-09-03 00:15:29 | 49.22651 | 17.72580 | 160° | 13km/h | 21162m | 5.3m/s | -52.9°C | 3.9% | 0hPa | 2.6V | 00:00:00 | 01:29:57 | 00:00:00 | |
| OM5KV | 2026-09-03 00:15:28 | 49.22655 | 17.72579 | 166° | 15km/h | 21157m | 4.8m/s | -52.9°C | 1.0% | 0hPa | 2.6V | 00:00:00 | 00:00:00 | 00:00:00 | |
| OE3OSB-13 | 2026-09-03 00:15:27 | 49.22663 | 17.72578 | 194° | 13km/h | 21144m | 6.2m/s | -53.0°C | 0.9% | -1.0hPa | 2.6V | 00:00:00 | 00:00:00 | 00:00:00 | |
| PETON7-10 | 2026-09-03 00:15:24 | 49.22669 | 17.72582 | 198° | 15km/h | 21134m | 6.3m/s | -53.1°C | 4.0% | 0hPa | 2.6V | 00:00:00 | 00:00:00 | 00:00:00 | |
| OM5KV | 2026-09-03 00:15:23 | 49.22669 | 17.72582 | 198° | 15km/h | 21134m | 6.3m/s | -53.1°C | 1.1% | 0hPa | 2.6V | 00:00:00 | 00:00:00 | 00:00:00 | |
| OE5MMP-10 | 2026-09-03 00:15:22 | 49.22677 | 17.72583 | 176° | 15km/h | 21122m | 4.8m/s | -53.0°C | 3.9% | 0hPa | 2.6V | 00:00:00 | 01:29:50 | 00:00:00 | |
| OM5KV | 2026-09-03 00:15:20 | 49.22680 | 17.72583 | 175° | 11km/h | 21117m | 5.7m/s | -53.0°C | 1.0% | 0hPa | 2.6V | 00:00:00 | 00:00:00 | 00:00:00 | |
| DO3MHA-11 | 2026-09-03 00:15:18 | 49.22688 | 17.72582 | 173° | 18km/h | 21100m | 4.7m/s | -52.9°C | 3.9% | 0hPa | 2.6V | 00:00:00 | 01:29:46 | 00:00:00 | |
| OK1ALN | 2026-09-03 00:15:17 | 49.22691 | 17.72581 | 164° | 16km/h | 21094m | 7.0m/s | -52.9°C | 1.0% | 0hPa | 2.7V | 00:00:00 | 00:00:00 | 00:00:00 | |
| OM5KV | 2026-09-03 00:15:16 | 49.22695 | 17.72579 | 157° | 20km/h | 21087m | 5.9m/s | -52.9°C | 1.0% | 0hPa | 2.7V | 00:00:00 | 00:00:00 | 00:00:00 | |
| POL1PZ | 2026-09-03 00:15:14 | 49.22700 | 17.72575 | 156° | 22km/h | 21082m | 4.2m/s | -52.9°C | 1.0% | 0hPa | 2.7V | 00:00:00 | 00:00:00 | 00:00:00 | |
| OE5MMP-10 | 2026-09-03 00:15:12 | 49.22713 | 17.72568 | 165° | 15km/h | 21066m | 5.0m/s | -53.0°C | 3.9% | 0hPa | 2.7V | 00:00:00 | 01:29:40 | 00:00:00 | |
| OM5KV | 2026-09-03 00:15:11 | 49.22713 | 17.72568 | 166° | 15km/h | 21066m | 5.1m/s | -53.0°C | 1.1% | 0hPa | 2.6V | 00:00:00 | 00:00:00 | 00:00:00 | |
| PG1ADW-2 | 2026-09-03 00:15:10 | 49.22720 | 17.72564 | 161° | 20km/h | 21056m | 5.9m/s | -53.0°C | 3.9% | 0hPa | 2.6V | 00:00:00 | 00:00:00 | 00:00:00 | |
| PETON7-10 | 2026-09-03 00:15:09 | 49.22724 | 17.72562 | 156° | 22km/h | 21050m | 6.0m/s | -52.9°C | 3.9% | 0hPa | 2.7V | 00:00:00 | 00:00:00 | 00:00:00 | |
| OE5DXL-15 | 2026-09-03 00:15:06 | 49.22737 | 17.72553 | 163° | 22km/h | 21035m | 6.1m/s | -52.9°C | 3.9% | 0hPa | 2.7V | 00:00:00 | 00:00:00 | 00:00:00 | |
| OM5KV | 2026-09-03 00:15:05 | 49.22738 | 17.72553 | 164° | 16km/h | 21035m | 6.1m/s | -53.0°C | 1.0% | 0hPa | 2.7V | 00:00:00 | 00:00:00 | 00:00:00 | |
| OE3OSB-13 | 2026-09-03 00:14:56 | 49.22777 | 17.72486 | 138° | 24km/h | 20975m | 6.0m/s | -53.1°C | 0.9% | -1.0hPa | 2.7V | 00:00:00 | 00:00:00 | 00:00:00 | |
| PETON7-10 | 2026-09-03 00:14:54 | 49.22781 | 17.72480 | 134° | 22km/h | 20969m | 4.8m/s | -53.0°C | 3.9% | 0hPa | 2.7V | 00:00:00 | 01:29:22 | 00:00:00 | |
| OM5KV | 2026-09-03 00:14:53 | 49.22781 | 17.72480 | 134° | 20km/h | 20969m | 4.8m/s | -53.0°C | 1.0% | 0hPa | 2.7V | 00:00:00 | 00:00:00 | 00:00:00 | |
| DO3MHA-11 | 2026-09-03 00:14:52 | 49.22787 | 17.72469 | 130° | 26km/h | 20958m | 6.4m/s | -52.9°C | 3.8% | 0hPa | 2.7V | 00:00:00 | 01:29:20 | 00:00:00 | |
| PG1ADW-2 | 2026-09-03 00:14:50 | 49.22791 | 17.72459 | 107° | 20km/h | 20948m | 5.0m/s | -52.9°C | 3.8% | 0hPa | 2.7V | 00:00:00 | 01:29:18 | 00:00:00 | |
| OM5KV | 2026-09-03 00:14:47 | 49.22793 | 17.72443 | 101° | 27km/h | 20936m | 5.2m/s | -52.9°C | 1.0% | 0hPa | 2.7V | 00:00:00 | 00:00:00 | 00:00:00 | |
| OM5KV | 2026-09-03 00:14:46 | 49.22794 | 17.72432 | 105° | 31km/h | 20931m | 4.5m/s | -52.9°C | 1.0% | 0hPa | 2.7V | 00:00:00 | 00:00:00 | 00:00:00 | |
| OE5MMP-10 | 2026-09-03 00:14:42 | 49.22812 | 17.72382 | 121° | 15km/h | 20903m | 6.3m/s | -53.3°C | 3.9% | 0hPa | 2.7V | 00:00:00 | 01:29:10 | 00:00:00 | |
| OM5KV | 2026-09-03 00:14:41 | 49.22812 | 17.72382 | 122° | 24km/h | 20903m | 6.4m/s | -53.3°C | 1.0% | 0hPa | 2.6V | 00:00:00 | 00:00:00 | 00:00:00 | |
| OE5DRO-10 | 2026-09-03 00:14:40 | 49.22816 | 17.72370 | 122° | 15km/h | 20892m | 5.6m/s | -53.2°C | 3.9% | 0hPa | 2.6V | 00:00:00 | 00:00:00 | 00:00:00 | |
| PETON7-10 | 2026-09-03 00:14:39 | 49.22818 | 17.72366 | 131° | 15km/h | 20886m | 6.4m/s | -53.2°C | 3.9% | 0hPa | 2.6V | 00:00:00 | 00:00:00 | 00:00:00 | |
| POL1PZ | 2026-09-03 00:14:34 | 49.22822 | 17.72349 | 93° | 15km/h | 20863m | 4.2m/s | -53.2°C | 1.1% | 0hPa | 2.6V | 00:00:00 | 00:00:00 | 00:00:00 | |
| OK1ALN | 2026-09-03 00:14:33 | 49.22823 | 17.72343 | 100° | 16km/h | 20858m | 6.3m/s | -53.2°C | 1.1% | 0hPa | 2.6V | 00:00:00 | 00:00:00 | 00:00:00 | |
| OE5MMP-10 | 2026-09-03 00:14:32 | 49.22825 | 17.72330 | 109° | 16km/h | 20847m | 4.0m/s | -53.2°C | 4.0% | 0hPa | 2.6V | 00:00:00 | 01:29:00 | 00:00:00 | |
| OM5KV | 2026-09-03 00:14:31 | 49.22825 | 17.72330 | 109° | 20km/h | 20847m | 4.0m/s | -53.3°C | 1.1% | 0hPa | 2.6V | 00:00:00 | 00:00:00 | 00:00:00 | |
| PG1ADW-2 | 2026-09-03 00:14:30 | 49.22828 | 17.72314 | 102° | 15km/h | 20837m | 5.7m/s | -53.4°C | 4.0% | 0hPa | 2.6V | 00:00:00 | 00:00:00 | 00:00:00 | |
| OM5KV | 2026-09-03 00:14:29 | 49.22828 | 17.72314 | 102° | 20km/h | 20837m | 5.8m/s | -53.5°C | 1.1% | 0hPa | 2.6V | 00:00:00 | 00:00:00 | 00:00:00 | |
| OM5KV | 2026-09-03 00:14:26 | 49.22831 | 17.72295 | 114° | 13km/h | 20820m | 5.1m/s | -53.4°C | 1.1% | 0hPa | 2.6V | 00:00:00 | 00:00:00 | 00:00:00 | |
| S52SK | 2026-09-03 00:14:25 | 49.22832 | 17.72291 | 110° | 11km/h | 20815m | 4.2m/s | -53.4°C | 1.1% | 0hPa | 2.6V | 00:00:00 | 00:00:00 | 00:00:00 | |
| PETON7-10 | 2026-09-03 00:14:24 | 49.22832 | 17.72282 | 76° | 13km/h | 20804m | 5.7m/s | -53.4°C | 4.0% | 0hPa | 2.6V | 00:00:00 | 00:00:00 | 00:00:00 | |
| OE5DRO-10 | 2026-09-03 00:14:21 | 49.22829 | 17.72266 | 85° | 15km/h | 20789m | 6.5m/s | -53.3°C | 4.0% | 0hPa | 2.6V | 00:00:00 | 00:00:00 | 00:00:00 | |
| OM5KV | 2026-09-03 00:14:18 | 49.22830 | 17.72256 | 99° | 15km/h | 20779m | 4.9m/s | -53.3°C | 1.1% | 0hPa | 2.6V | 00:00:00 | 00:00:00 | 00:00:00 | |
| OM5KV | 2026-09-03 00:14:15 | 49.22832 | 17.72238 | 109° | 15km/h | 20763m | 5.6m/s | -53.3°C | 1.1% | 0hPa | 2.6V | 00:00:00 | 00:00:00 | 00:00:00 | |
| POL1PZ | 2026-09-03 00:14:13 | 49.22835 | 17.72230 | 131° | 11km/h | 20752m | 4.8m/s | -53.4°C | 1.1% | 0hPa | 2.6V | 00:00:00 | 00:00:00 | 00:00:00 | |
| OE5MMP-10 | 2026-09-03 00:14:12 | 49.22838 | 17.72222 | 104° | 15km/h | 20742m | 6.1m/s | -53.2°C | 3.9% | 0hPa | 2.6V | 00:00:00 | 01:28:40 | 08:30:00 | |
| PG1ADW-2 | 2026-09-03 00:14:10 | 49.22838 | 17.72213 | 100° | 22km/h | 20732m | 4.2m/s | -53.2°C | 3.9% | 0hPa | 2.6V | 00:00:00 | 00:00:00 | 08:30:00 | |
| PETON7-10 | 2026-09-03 00:14:09 | 49.22839 | 17.72208 | 114° | 20km/h | 20727m | 5.8m/s | -53.2°C | 3.9% | 0hPa | 2.6V | 00:00:00 | 01:28:37 | 00:00:00 | |
| OE5DXL-15 | 2026-09-03 00:14:07 | 49.22846 | 17.72195 | 132° | 29km/h | 20712m | 5.6m/s | -53.1°C | 3.8% | 0hPa | 2.6V | 00:00:00 | 00:00:00 | 00:00:00 | |
| OM5KV | 2026-09-03 00:14:03 | 49.22851 | 17.72185 | 125° | 16km/h | 20700m | 4.9m/s | -53.1°C | 1.0% | 0hPa | 2.6V | 00:00:00 | 00:00:00 | 00:00:00 | |
| OE5MMP-10 | 2026-09-03 00:14:02 | 49.22857 | 17.72175 | 138° | 31km/h | 20689m | 6.8m/s | -53.0°C | 3.8% | 0hPa | 2.6V | 00:00:00 | 01:28:30 | 00:00:00 | |
| HA6NAB-11 | 2026-09-03 00:14:00 | 49.22861 | 17.72170 | 139° | 20km/h | 20684m | 4.0m/s | -53.1°C | 1.0% | 0hPa | 2.6V | 00:00:00 | 00:00:00 | 00:00:00 | |
| OM5KV | 2026-09-03 00:13:58 | 49.22867 | 17.72158 | 122° | 20km/h | 20674m | 7.4m/s | -53.3°C | 1.0% | 0hPa | 2.6V | 00:00:00 | 00:00:00 | 00:00:00 | |
| PETON7-10 | 2026-09-03 00:13:54 | 49.22881 | 17.72116 | 121° | 35km/h | 20643m | 5.8m/s | -53.3°C | 3.8% | 0hPa | 2.6V | 00:00:00 | 00:00:00 | 08:30:00 | |
| OM5KV | 2026-09-03 00:13:53 | 49.22881 | 17.72116 | 122° | 29km/h | 20643m | 5.8m/s | -53.4°C | 1.1% | 0hPa | 2.6V | 00:00:00 | 00:00:00 | 00:00:00 | |
| OK1ALN | 2026-09-03 00:13:52 | 49.22885 | 17.72105 | 117° | 33km/h | 20636m | 7.8m/s | -53.4°C | 1.0% | 0hPa | 2.6V | 00:00:00 | 00:00:00 | 00:00:00 | |
| PG1ADW-2 | 2026-09-03 00:13:50 | 49.22894 | 17.72072 | 117° | 35km/h | 20619m | 6.8m/s | -53.5°C | 3.9% | 0hPa | 2.6V | 00:00:00 | 00:00:00 | 00:00:00 | |
| HA6NAB-11 | 2026-09-03 00:13:48 | 49.22898 | 17.72063 | 123° | 26km/h | 20613m | 4.9m/s | -53.7°C | 1.1% | 0hPa | 2.6V | 00:00:00 | 00:00:00 | 00:00:00 | |
| OM5KV | 2026-09-03 00:13:47 | 49.22901 | 17.72054 | 124° | 26km/h | 20609m | 3.4m/s | -53.7°C | 1.0% | 0hPa | 2.6V | 00:00:00 | 00:00:00 | 00:00:00 | |
| OE5DRO-10 | 2026-09-03 00:13:43 | 49.22923 | 17.72004 | 125° | 38km/h | 20584m | 3.8m/s | -53.8°C | 3.9% | 0hPa | 2.6V | 00:00:00 | 00:00:00 | 00:00:00 | |
| OE5MMP-10 | 2026-09-03 00:13:42 | 49.22929 | 17.71990 | 120° | 38km/h | 20580m | 4.2m/s | -54.0°C | 3.9% | 0hPa | 2.6V | 00:00:00 | 01:28:10 | 00:00:00 | |
| PETON7-10 | 2026-09-03 00:13:39 | 49.22940 | 17.71941 | 100° | 35km/h | 20565m | 3.9m/s | -54.3°C | 4.1% | 0hPa | 2.6V | 00:00:00 | 00:00:00 | 00:00:00 | |
| OM5KV | 2026-09-03 00:13:38 | 49.22940 | 17.71941 | 100° | 42km/h | 20565m | 4.0m/s | -54.3°C | 1.1% | 0hPa | 2.6V | 00:00:00 | 00:00:00 | 00:00:00 | |
| HA6NAB-11 | 2026-09-03 00:13:37 | 49.22942 | 17.71925 | 99° | 38km/h | 20561m | 5.0m/s | -54.3°C | 1.1% | 0hPa | 2.6V | 00:00:00 | 00:00:00 | 00:00:00 | |
| OE5DXL-15 | 2026-09-03 00:13:36 | 49.22945 | 17.71899 | 105° | 35km/h | 20551m | 4.7m/s | -54.3°C | 4.1% | 0hPa | 2.6V | 00:00:00 | 00:00:00 | 00:00:00 | |
| OE5MMP-10 | 2026-09-03 00:13:32 | 49.22955 | 17.71853 | 109° | 37km/h | 20531m | 4.1m/s | -54.5°C | 4.1% | 0hPa | 2.6V | 00:00:00 | 01:28:00 | 00:00:00 | |
| OK1ALN | 2026-09-03 00:13:31 | 49.22955 | 17.71853 | 110° | 33km/h | 20531m | 4.2m/s | -54.5°C | 1.1% | 0hPa | 2.6V | 00:00:00 | 00:00:00 | 00:00:00 | |
| PG1ADW-2 | 2026-09-03 00:13:30 | 49.22961 | 17.71830 | 119° | 35km/h | 20520m | 5.7m/s | -54.6°C | 4.1% | 0hPa | 2.6V | 00:00:00 | 01:27:58 | 00:00:00 | |
| OM5KV | 2026-09-03 00:13:26 | 49.22972 | 17.71791 | 108° | 40km/h | 20504m | 5.6m/s | -54.7°C | 1.2% | 0hPa | 2.6V | 00:00:00 | 00:00:00 | 00:00:00 | |
| OM5KV | 2026-09-03 00:13:25 | 49.22975 | 17.71776 | 106° | 42km/h | 20499m | 4.2m/s | -54.7°C | 1.1% | 0hPa | 2.6V | 00:00:00 | 00:00:00 | 00:00:00 | |
| PETON7-10 | 2026-09-03 00:13:24 | 49.22980 | 17.71746 | 106° | 33km/h | 20488m | 4.3m/s | -54.7°C | 4.2% | 0hPa | 2.6V | 00:00:00 | 01:27:52 | 00:00:00 | |
| OE5MMP-10 | 2026-09-03 00:13:22 | 49.22984 | 17.71719 | 98° | 31km/h | 20479m | 6.4m/s | -54.8°C | 4.2% | 0hPa | 2.6V | 00:00:00 | 01:27:50 | 00:00:00 | |
| OM5KV | 2026-09-03 00:13:20 | 49.22986 | 17.71693 | 99° | 31km/h | 20469m | 4.6m/s | -54.9°C | 1.2% | 0hPa | 2.6V | 00:00:00 | 00:00:00 | 00:00:00 | |
| DO3MHA-11 | 2026-09-03 00:13:19 | 49.22988 | 17.71682 | 105° | 33km/h | 20463m | 6.4m/s | -54.9°C | 4.2% | 0hPa | 2.6V | 00:00:00 | 01:27:47 | 00:00:00 | |
| OM5KV | 2026-09-03 00:13:14 | 49.22998 | 17.71642 | 113° | 31km/h | 20441m | 4.4m/s | -55.0°C | 1.2% | 0hPa | 2.6V | 00:00:00 | 00:00:00 | 00:00:00 | |
| OE5MMP-10 | 2026-09-03 00:13:12 | 49.23008 | 17.71606 | 108° | 31km/h | 20426m | 3.8m/s | -55.0°C | 4.2% | 0hPa | 2.6V | 00:00:00 | 01:27:40 | 00:00:00 | |
| PG1ADW-2 | 2026-09-03 00:13:10 | 49.23012 | 17.71578 | 99° | 29km/h | 20416m | 5.5m/s | -55.0°C | 4.2% | 0hPa | 2.6V | 00:00:00 | 00:00:00 | 00:00:00 | |
| PETON7-10 | 2026-09-03 00:13:09 | 49.23013 | 17.71563 | 98° | 29km/h | 20411m | 3.7m/s | -55.1°C | 4.2% | 0hPa | 2.6V | 00:00:00 | 00:00:00 | 00:00:00 | |
| GYPAP8-17 | 2026-09-03 00:13:07 | 49.23014 | 17.71548 | 101° | 37km/h | 20406m | 6.1m/s | 0°C | 0% | 0hPa | 2.7V | 00:00:00 | 00:00:00 | 00:00:00 | |
| OE5DXL-15 | 2026-09-03 00:13:06 | 49.23018 | 17.71525 | 106° | 26km/h | 20395m | 4.7m/s | -55.2°C | 4.3% | 0hPa | 2.7V | 00:00:00 | 00:00:00 | 00:00:00 | |
| OE5DRO-10 | 2026-09-03 00:13:05 | 49.23020 | 17.71516 | 102° | 26km/h | 20390m | 5.4m/s | -55.5°C | 4.4% | 0hPa | 2.6V | 00:00:00 | 00:00:00 | 08:30:00 | |
| OM5KV | 2026-09-03 00:13:03 | 49.23021 | 17.71507 | 95° | 20km/h | 20384m | 5.7m/s | -55.5°C | 1.2% | 0hPa | 2.6V | 00:00:00 | 00:00:00 | 00:00:00 | |
| OM5KV | 2026-09-03 00:13:02 | 49.23021 | 17.71500 | 92° | 18km/h | 20379m | 5.3m/s | -55.5°C | 1.2% | 0hPa | 2.6V | 00:00:00 | 00:00:00 | 00:00:00 | |
| OE3OSB-13 | 2026-09-03 00:12:51 | 49.23024 | 17.71366 | 77° | 18km/h | 20314m | 6.5m/s | -55.4°C | 1.1% | -1.0hPa | 2.6V | 00:00:00 | 00:00:00 | 00:00:00 | |
| PG1ADW-2 | 2026-09-03 00:12:50 | 49.23022 | 17.71358 | 72° | 20km/h | 20308m | 5.1m/s | -55.3°C | 4.4% | 0hPa | 2.6V | 00:00:00 | 00:00:00 | 00:00:00 | |
| DO3MHA-11 | 2026-09-03 00:12:49 | 49.23021 | 17.71350 | 75° | 24km/h | 20303m | 4.1m/s | -55.2°C | 4.3% | 0hPa | 2.6V | 00:00:00 | 01:27:17 | 00:00:00 | |
| S52SK | 2026-09-03 00:12:48 | 49.23020 | 17.71342 | 83° | 22km/h | 20299m | 5.2m/s | -55.3°C | 1.2% | 0hPa | 2.6V | 00:00:00 | 00:00:00 | 00:00:00 | |
| GYPAP8-17 | 2026-09-03 00:12:47 | 49.23020 | 17.71342 | 83° | 22km/h | 20299m | 5.2m/s | 0°C | 0% | 0hPa | 2.6V | 00:00:00 | 00:00:00 | 00:00:00 | |
| OE5DRO-10 | 2026-09-03 00:12:46 | 49.23020 | 17.71326 | 102° | 20km/h | 20286m | 5.6m/s | -55.2°C | 4.3% | 0hPa | 2.6V | 00:00:00 | 00:00:00 | 00:00:00 | |
| OE5MMP-10 | 2026-09-03 00:12:42 | 49.23021 | 17.71290 | 83° | 22km/h | 20263m | 4.9m/s | -55.3°C | 4.3% | 0hPa | 2.6V | 00:00:00 | 01:27:10 | 00:00:00 | |
| S52SK | 2026-09-03 00:12:41 | 49.23022 | 17.71290 | 83° | 29km/h | 20263m | 5.0m/s | -55.3°C | 1.2% | 0hPa | 2.6V | 00:00:00 | 00:00:00 | 00:00:00 | |
| OM5KV | 2026-09-03 00:12:40 | 49.23021 | 17.71279 | 84° | 27km/h | 20259m | 3.9m/s | -55.4°C | 1.2% | 0hPa | 2.6V | 00:00:00 | 00:00:00 | 00:00:00 | |
| PETON7-10 | 2026-09-03 00:12:39 | 49.23020 | 17.71259 | 95° | 16km/h | 20247m | 6.2m/s | -55.4°C | 4.3% | 0hPa | 2.6V | 00:00:00 | 01:27:07 | 00:00:00 | |
| OE5DXL-15 | 2026-09-03 00:12:36 | 49.23022 | 17.71235 | 96° | 13km/h | 20229m | 6.2m/s | -55.4°C | 4.4% | 0hPa | 2.6V | 00:00:00 | 00:00:00 | 00:00:00 | |
| OM5KV | 2026-09-03 00:12:35 | 49.23022 | 17.71235 | 97° | 16km/h | 20229m | 6.3m/s | -55.5°C | 1.2% | 0hPa | 2.6V | 00:00:00 | 00:00:00 | 00:00:00 | |
| OE5MMP-10 | 2026-09-03 00:12:32 | 49.23028 | 17.71214 | 131° | 16km/h | 20205m | 4.6m/s | -55.4°C | 4.4% | 0hPa | 2.6V | 00:00:00 | 01:27:00 | 08:30:00 | |
| POL1PZ | 2026-09-03 00:12:31 | 49.23029 | 17.71214 | 132° | 16km/h | 20205m | 4.7m/s | -55.4°C | 1.2% | 0hPa | 2.6V | 00:00:00 | 00:00:00 | 00:00:00 | |
| PG1ADW-2 | 2026-09-03 00:12:30 | 49.23033 | 17.71203 | 108° | 11km/h | 20194m | 6.4m/s | -55.3°C | 4.4% | 0hPa | 2.6V | 00:00:00 | 00:00:00 | 00:00:00 | |
| DO3MHA-11 | 2026-09-03 00:12:29 | 49.23034 | 17.71197 | 97° | 13km/h | 20188m | 4.8m/s | -55.2°C | 4.4% | 0hPa | 2.6V | 00:00:00 | 01:26:57 | 00:00:00 | |
| OM5KV | 2026-09-03 00:12:28 | 49.23034 | 17.71197 | 98° | 16km/h | 20188m | 4.9m/s | -55.3°C | 1.2% | 0hPa | 2.6V | 00:00:00 | 00:00:00 | 00:00:00 | |
| OE5DRO-10 | 2026-09-03 00:12:27 | 49.23034 | 17.71185 | 92° | 11km/h | 20177m | 6.0m/s | -55.2°C | 4.4% | 0hPa | 2.6V | 00:00:00 | 00:00:00 | 00:00:00 | |
| OE5MMP-10 | 2026-09-03 00:12:22 | 49.23037 | 17.71162 | 119° | 13km/h | 20148m | 6.4m/s | -55.0°C | 4.4% | 0hPa | 2.6V | 00:00:00 | 01:26:50 | 00:00:00 | |
| OE3OSB-13 | 2026-09-03 00:12:20 | 49.23039 | 17.71156 | 126° | 7km/h | 20137m | 4.9m/s | -55.0°C | 1.1% | -1.0hPa | 2.6V | 00:00:00 | 00:00:00 | 00:00:00 | |
| DO3MHA-11 | 2026-09-03 00:12:19 | 49.23040 | 17.71153 | 112° | 9km/h | 20131m | 6.9m/s | -55.0°C | 4.3% | 0hPa | 2.6V | 00:00:00 | 01:26:47 | 00:00:00 | |
| OM5KV | 2026-09-03 00:12:12 | 49.23037 | 17.71141 | 57° | 9km/h | 20097m | 6.7m/s | -54.8°C | 1.2% | 0hPa | 2.6V | 00:00:00 | 00:00:00 | 00:00:00 | |
| PG1ADW-2 | 2026-09-03 00:12:10 | 49.23035 | 17.71126 | 96° | 15km/h | 20080m | 6.6m/s | -54.7°C | 4.3% | 0hPa | 2.6V | 00:00:00 | 01:26:38 | 00:00:00 | |
| PETON7-10 | 2026-09-03 00:12:09 | 49.23036 | 17.71120 | 112° | 15km/h | 20074m | 6.0m/s | -54.6°C | 4.3% | 0hPa | 2.6V | 00:00:00 | 00:00:00 | 00:00:00 | |
| OE5DRO-10 | 2026-09-03 00:12:08 | 49.23037 | 17.71116 | 123° | 15km/h | 20068m | 4.7m/s | -54.6°C | 4.3% | 0hPa | 2.6V | 00:00:00 | 00:00:00 | 00:00:00 | |
| OE5MMP-10 | 2026-09-03 00:12:06 | 49.23041 | 17.71105 | 117° | 15km/h | 20057m | 6.4m/s | -54.5°C | 4.3% | 0hPa | 2.6V | 00:00:00 | 01:26:34 | 00:00:00 | |
| OM5KV | 2026-09-03 00:12:00 | 49.23053 | 17.71079 | 121° | 15km/h | 20029m | 5.4m/s | -54.5°C | 1.1% | 0hPa | 2.6V | 00:00:00 | 00:00:00 | 00:00:00 | |
| DO3MHA-11 | 2026-09-03 00:11:59 | 49.23055 | 17.71069 | 93° | 13km/h | 20017m | 4.9m/s | -54.4°C | 4.2% | 0hPa | 2.6V | 00:00:00 | 01:26:27 | 00:00:00 | |
| OM5KV | 2026-09-03 00:11:56 | 49.23056 | 17.71059 | 103° | 11km/h | 20005m | 6.4m/s | -54.5°C | 1.2% | 0hPa | 2.6V | 00:00:00 | 00:00:00 | 00:00:00 | |
| PETON7-10 | 2026-09-03 00:11:54 | 49.23057 | 17.71045 | 89° | 16km/h | 19988m | 6.1m/s | -54.4°C | 4.1% | 0hPa | 2.6V | 00:00:00 | 01:26:22 | 00:00:00 | |
| OM5KV | 2026-09-03 00:11:53 | 49.23057 | 17.71045 | 90° | 13km/h | 19988m | 6.1m/s | -54.4°C | 1.1% | 0hPa | 2.6V | 00:00:00 | 00:00:00 | 00:00:00 | |
| PG1ADW-2 | 2026-09-03 00:11:50 | 49.23062 | 17.71025 | 129° | 18km/h | 19966m | 4.6m/s | -54.2°C | 4.2% | 0hPa | 2.6V | 00:00:00 | 00:00:00 | 00:00:00 | |
| DO3MHA-11 | 2026-09-03 00:11:49 | 49.23065 | 17.71019 | 124° | 18km/h | 19960m | 6.7m/s | -54.2°C | 4.2% | 0hPa | 2.6V | 00:00:00 | 01:26:17 | 00:00:00 | |
| OK1ALN | 2026-09-03 00:11:48 | 49.23065 | 17.71019 | 124° | 20km/h | 19960m | 6.7m/s | -54.2°C | 0% | 0hPa | 2.6V | 00:00:00 | 00:00:00 | 00:00:00 | |
| OE5MMP-10 | 2026-09-03 00:11:46 | 49.23072 | 17.70999 | 117° | 16km/h | 19943m | 6.6m/s | -54.1°C | 4.1% | 0hPa | 2.6V | 00:00:00 | 01:26:14 | 00:00:00 | |
| OM5KV | 2026-09-03 00:11:41 | 49.23074 | 17.70966 | 83° | 16km/h | 19916m | 5.1m/s | -53.9°C | 1.1% | 0hPa | 2.6V | 00:00:00 | 00:00:00 | 00:00:00 | |
| OM5KV | 2026-09-03 00:11:40 | 49.23073 | 17.70960 | 94° | 13km/h | 19910m | 6.7m/s | -53.9°C | 1.1% | 0hPa | 2.6V | 00:00:00 | 00:00:00 | 00:00:00 | |
| DO3MHA-11 | 2026-09-03 00:11:39 | 49.23074 | 17.70956 | 111° | 18km/h | 19904m | 5.3m/s | -53.8°C | 4.1% | 0hPa | 2.6V | 00:00:00 | 01:26:07 | 00:00:00 | |
| OE5MMP-10 | 2026-09-03 00:11:36 | 49.23079 | 17.70941 | 111° | 20km/h | 19887m | 6.0m/s | -53.8°C | 4.1% | 0hPa | 2.6V | 00:00:00 | 01:26:04 | 00:00:00 | |
| OM5KV | 2026-09-03 00:11:34 | 49.23082 | 17.70928 | 115° | 18km/h | 19876m | 6.6m/s | -53.8°C | 1.1% | 0hPa | 2.6V | 00:00:00 | 00:00:00 | 00:00:00 | |
| PG1ADW-2 | 2026-09-03 00:11:30 | 49.23085 | 17.70896 | 86° | 18km/h | 19854m | 4.8m/s | -53.6°C | 4.1% | 0hPa | 2.6V | 00:00:00 | 00:00:00 | 00:00:00 | |
| DO3MHA-11 | 2026-09-03 00:11:29 | 49.23085 | 17.70887 | 87° | 16km/h | 19849m | 4.3m/s | -53.5°C | 4.1% | 0hPa | 2.6V | 00:00:00 | 01:25:57 | 00:00:00 | |
| OM5KV | 2026-09-03 00:11:27 | 49.23084 | 17.70878 | 94° | 20km/h | 19844m | 6.3m/s | -53.6°C | 1.1% | 0hPa | 2.6V | 00:00:00 | 00:00:00 | 00:00:00 | |
| OE5MMP-10 | 2026-09-03 00:11:26 | 49.23087 | 17.70864 | 113° | 16km/h | 19832m | 5.6m/s | -53.5°C | 4.0% | 0hPa | 2.6V | 00:00:00 | 01:25:54 | 00:00:00 | |
| PETON7-10 | 2026-09-03 00:11:24 | 49.23090 | 17.70854 | 114° | 16km/h | 19820m | 5.1m/s | -53.4°C | 4.1% | 0hPa | 2.7V | 00:00:00 | 00:00:00 | 00:00:00 | |
| DO3MHA-11 | 2026-09-03 00:11:19 | 49.23093 | 17.70828 | 72° | 16km/h | 19794m | 6.9m/s | -53.2°C | 4.0% | 0hPa | 2.7V | 00:00:00 | 01:25:47 | 00:00:00 | |
| OE3OSB-13 | 2026-09-03 00:11:18 | 49.23091 | 17.70821 | 63° | 22km/h | 19787m | 6.7m/s | -53.3°C | 1.0% | -1.0hPa | 2.7V | 00:00:00 | 00:00:00 | 00:00:00 | |
| OE5MMP-10 | 2026-09-03 00:11:16 | 49.23085 | 17.70804 | 66° | 13km/h | 19775m | 7.0m/s | -53.1°C | 4.0% | 0hPa | 2.7V | 00:00:00 | 01:25:44 | 00:00:00 | |
| OE5DRO-10 | 2026-09-03 00:11:11 | 49.23077 | 17.70775 | 63° | 15km/h | 19746m | 5.3m/s | -52.9°C | 3.9% | 0hPa | 2.7V | 00:00:00 | 00:00:00 | 00:00:00 | |
| PG1ADW-2 | 2026-09-03 00:11:10 | 49.23076 | 17.70773 | 84° | 15km/h | 19740m | 6.9m/s | -52.8°C | 4.0% | 0hPa | 2.6V | 00:00:00 | 00:00:00 | 08:30:00 | |
| PETON7-10 | 2026-09-03 00:11:09 | 49.23076 | 17.70770 | 109° | 16km/h | 19734m | 4.3m/s | -52.8°C | 3.9% | 0hPa | 2.6V | 00:00:00 | 01:25:37 | 00:00:00 | |
| OE5MMP-10 | 2026-09-03 00:11:06 | 49.23075 | 17.70758 | 64° | 18km/h | 19719m | 6.3m/s | -52.6°C | 3.9% | 0hPa | 2.6V | 00:00:00 | 01:25:34 | 00:00:00 | |
| OM5KV | 2026-09-03 00:11:05 | 49.23075 | 17.70758 | 64° | 16km/h | 19719m | 6.4m/s | -52.7°C | 1.1% | 0hPa | 2.6V | 00:00:00 | 00:00:00 | 00:00:00 | |
| OE3OSB-13 | 2026-09-03 00:10:47 | 49.23051 | 17.70651 | 54° | 16km/h | 19616m | 5.0m/s | -51.9°C | 0.9% | -1.0hPa | 2.6V | 00:00:00 | 00:00:00 | 00:00:00 | |
| OK1ALN | 2026-09-03 00:10:45 | 49.23049 | 17.70645 | 69° | 15km/h | 19611m | 4.7m/s | 0°C | 0% | 0hPa | 2.6V | 00:00:00 | 00:00:00 | 00:00:00 | |
| S52SK | 2026-09-03 00:10:43 | 49.23049 | 17.70635 | 100° | 15km/h | 19599m | 6.1m/s | -51.8°C | 1.0% | 0hPa | 2.6V | 00:00:00 | 00:00:00 | 00:00:00 | |
| PETON7-10 | 2026-09-03 00:10:39 | 49.23049 | 17.70616 | 58° | 9km/h | 19572m | 4.4m/s | -51.7°C | 3.7% | 0hPa | 2.6V | 00:00:00 | 00:00:00 | 00:00:00 | |
| S52SK | 2026-09-03 00:10:37 | 49.23048 | 17.70612 | 73° | 11km/h | 19567m | 5.8m/s | -51.7°C | 1.0% | 0hPa | 2.6V | 00:00:00 | 00:00:00 | 00:00:00 | |
| OE5DXL-15 | 2026-09-03 00:10:36 | 49.23048 | 17.70604 | 105° | 11km/h | 19557m | 3.8m/s | -51.6°C | 3.7% | 0hPa | 2.6V | 00:00:00 | 00:00:00 | 00:00:00 | |
| HA6NAB-11 | 2026-09-03 00:10:34 | 49.23049 | 17.70601 | 113° | 9km/h | 19552m | 5.6m/s | -51.6°C | 1.0% | 0hPa | 2.6V | 00:00:00 | 00:00:00 | 00:00:00 | |
| OE5DRO-10 | 2026-09-03 00:10:33 | 49.23051 | 17.70596 | 139° | 11km/h | 19541m | 5.0m/s | -51.5°C | 3.7% | 0hPa | 2.6V | 00:00:00 | 00:00:00 | 00:00:00 | |
| OM5KV | 2026-09-03 00:10:32 | 49.23053 | 17.70593 | 146° | 11km/h | 19536m | 6.3m/s | -51.5°C | 1.0% | 0hPa | 2.6V | 00:00:00 | 00:00:00 | 00:00:00 | |
| PG1ADW-2 | 2026-09-03 00:10:30 | 49.23058 | 17.70588 | 145° | 9km/h | 19525m | 4.4m/s | -51.4°C | 3.6% | 0hPa | 2.6V | 00:00:00 | 00:00:00 | 00:00:00 | |
| HA6NAB-11 | 2026-09-03 00:10:29 | 49.23058 | 17.70588 | 146° | 11km/h | 19525m | 4.4m/s | -51.5°C | 1.0% | 0hPa | 2.6V | 00:00:00 | 00:00:00 | 00:00:00 | |
| POL1PZ | 2026-09-03 00:10:28 | 49.23059 | 17.70586 | 137° | 7km/h | 19519m | 6.5m/s | -51.4°C | 1.0% | 0hPa | 2.6V | 00:00:00 | 00:00:00 | 00:00:00 | |
| OM5KV | 2026-09-03 00:10:26 | 49.23060 | 17.70582 | 59° | 7km/h | 19508m | 4.5m/s | -51.4°C | 1.0% | 0hPa | 2.6V | 00:00:00 | 00:00:00 | 00:00:00 | |
| OK1ALN | 2026-09-03 00:10:25 | 49.23059 | 17.70580 | 66° | 9km/h | 19503m | 5.8m/s | 0°C | 0% | 0hPa | 2.6V | 00:00:00 | 00:00:00 | 00:00:00 | |
| PETON7-10 | 2026-09-03 00:10:24 | 49.23058 | 17.70571 | 93° | 11km/h | 19491m | 4.1m/s | -51.2°C | 3.5% | 0hPa | 2.6V | 00:00:00 | 01:24:52 | 00:00:00 | |
| OE5MMP-10 | 2026-09-03 00:10:23 | 49.23058 | 17.70567 | 99° | 11km/h | 19487m | 4.4m/s | -51.2°C | 3.5% | 0hPa | 2.6V | 00:00:00 | 01:24:51 | 00:00:00 | |
| GYPAP8-17 | 2026-09-03 00:10:21 | 49.23059 | 17.70563 | 109° | 9km/h | 19482m | 5.5m/s | 0°C | 0% | 0hPa | 2.6V | 00:00:00 | 00:00:00 | 00:00:00 | |
| OM5KV | 2026-09-03 00:10:20 | 49.23060 | 17.70560 | 140° | 9km/h | 19477m | 4.9m/s | -51.2°C | 1.0% | 0hPa | 2.6V | 00:00:00 | 00:00:00 | 00:00:00 | |
| HA6NAB-11 | 2026-09-03 00:10:17 | 49.23071 | 17.70555 | 175° | 18km/h | 19461m | 4.5m/s | -51.2°C | 1.0% | 0hPa | 2.6V | 00:00:00 | 00:00:00 | 00:00:00 | |
| OE3OSB-13 | 2026-09-03 00:10:16 | 49.23079 | 17.70555 | 184° | 13km/h | 19451m | 6.5m/s | -51.1°C | 0.8% | -1.0hPa | 2.6V | 00:00:00 | 00:00:00 | 00:00:00 | |
| OE5DRO-10 | 2026-09-03 00:10:14 | 49.23082 | 17.70556 | 202° | 16km/h | 19441m | 3.4m/s | -51.1°C | 3.5% | 0hPa | 2.6V | 00:00:00 | 00:00:00 | 08:30:00 | |
| OE5MMP-10 | 2026-09-03 00:10:13 | 49.23083 | 17.70556 | 115° | 15km/h | 19436m | 5.2m/s | -51.2°C | 3.5% | 0hPa | 2.6V | 00:00:00 | 01:24:41 | 00:00:00 | |
| HA6NAB-11 | 2026-09-03 00:10:12 | 49.23083 | 17.70556 | 116° | 2km/h | 19436m | 5.3m/s | -51.3°C | 1.0% | 0hPa | 2.7V | 00:00:00 | 00:00:00 | 00:00:00 | |
| PG1ADW-2 | 2026-09-03 00:10:10 | 49.23086 | 17.70547 | 123° | 22km/h | 19420m | 4.9m/s | -51.2°C | 3.6% | 0hPa | 2.7V | 00:00:00 | 00:00:00 | 00:00:00 | |
| PETON7-10 | 2026-09-03 00:10:09 | 49.23088 | 17.70543 | 129° | 20km/h | 19414m | 6.5m/s | -51.2°C | 3.5% | 0hPa | 2.7V | 00:00:00 | 00:00:00 | 00:00:00 | |
| POL1PZ | 2026-09-03 00:10:07 | 49.23090 | 17.70538 | 134° | 16km/h | 19409m | 4.5m/s | -51.3°C | 1.0% | 0hPa | 2.6V | 00:00:00 | 00:00:00 | 00:00:00 | |
| OE5DXL-15 | 2026-09-03 00:10:06 | 49.23097 | 17.70528 | 135° | 29km/h | 19398m | 6.9m/s | -51.2°C | 3.6% | 0hPa | 2.6V | 00:00:00 | 00:00:00 | 00:00:00 | |
| OE3JTB-15 | 2026-09-03 00:10:04 | 49.23105 | 17.70516 | 146° | 35km/h | 19386m | 6.2m/s | -51.5°C | 3.6% | 0hPa | 2.7V | 00:00:00 | 01:24:32 | 00:00:00 | |
| OE5MMP-10 | 2026-09-03 00:10:03 | 49.23110 | 17.70512 | 155° | 20km/h | 19379m | 5.3m/s | -51.6°C | 3.7% | 0hPa | 2.7V | 00:00:00 | 01:24:31 | 00:00:00 | |
| OE3OSB-13 | 2026-09-03 00:09:45 | 49.23183 | 17.70364 | 109° | 29km/h | 19283m | 4.8m/s | -51.5°C | 0.9% | -1.0hPa | 2.7V | 00:00:00 | 00:00:00 | 00:00:00 | |
| OE5MMP-10 | 2026-09-03 00:09:43 | 49.23189 | 17.70343 | 121° | 38km/h | 19271m | 4.8m/s | -51.4°C | 3.5% | 0hPa | 2.7V | 00:00:00 | 01:24:11 | 00:00:00 | |
| PETON7-10 | 2026-09-03 00:09:39 | 49.23205 | 17.70287 | 105° | 42km/h | 19249m | 4.9m/s | -51.4°C | 3.4% | 0hPa | 2.7V | 00:00:00 | 01:24:07 | 00:00:00 | |
| DO3MHA-11 | 2026-09-03 00:09:37 | 49.23209 | 17.70254 | 98° | 40km/h | 19238m | 6.6m/s | -51.5°C | 3.4% | 0hPa | 2.7V | 00:00:00 | 01:24:05 | 08:30:00 | |
| OE5DXL-15 | 2026-09-03 00:09:36 | 49.23211 | 17.70239 | 99° | 42km/h | 19232m | 4.9m/s | -51.6°C | 3.4% | 0hPa | 2.7V | 00:00:00 | 00:00:00 | 00:00:00 | |
| OM5KV | 2026-09-03 00:09:35 | 49.23211 | 17.70239 | 100° | 37km/h | 19232m | 5.0m/s | -51.6°C | 1.0% | 0hPa | 2.7V | 00:00:00 | 00:00:00 | 00:00:00 | |
| OE5MMP-10 | 2026-09-03 00:09:33 | 49.23218 | 17.70199 | 109° | 44km/h | 19218m | 5.2m/s | -52.0°C | 3.6% | 0hPa | 2.7V | 00:00:00 | 01:24:01 | 00:00:00 | |
| OE3JTB-15 | 2026-09-03 00:09:31 | 49.23224 | 17.70167 | 107° | 42km/h | 19208m | 4.7m/s | -52.2°C | 3.6% | 0hPa | 2.7V | 00:00:00 | 00:00:00 | 00:00:00 | |
| PG1ADW-2 | 2026-09-03 00:09:30 | 49.23227 | 17.70151 | 106° | 44km/h | 19203m | 5.3m/s | -52.3°C | 3.7% | 0hPa | 2.7V | 00:00:00 | 01:23:58 | 00:00:00 | |
| OM5KV | 2026-09-03 00:09:29 | 49.23227 | 17.70151 | 107° | 42km/h | 19203m | 5.4m/s | -52.4°C | 1.0% | 0hPa | 2.7V | 00:00:00 | 00:00:00 | 00:00:00 | |
| DO3MHA-11 | 2026-09-03 00:09:27 | 49.23235 | 17.70103 | 103° | 46km/h | 19187m | 6.1m/s | -52.6°C | 3.7% | 0hPa | 2.7V | 00:00:00 | 01:23:55 | 00:00:00 | |
| POL1PZ | 2026-09-03 00:09:26 | 49.23235 | 17.70103 | 104° | 44km/h | 19187m | 6.1m/s | -52.6°C | 1.0% | 0hPa | 2.7V | 00:00:00 | 00:00:00 | 00:00:00 | |
| PETON7-10 | 2026-09-03 00:09:24 | 49.23239 | 17.70049 | 90° | 44km/h | 19173m | 5.1m/s | -52.7°C | 3.8% | 0hPa | 2.7V | 00:00:00 | 00:00:00 | 08:30:00 | |
| OE5MMP-10 | 2026-09-03 00:09:23 | 49.23239 | 17.70031 | 86° | 44km/h | 19168m | 4.8m/s | -52.7°C | 3.8% | 0hPa | 2.7V | 00:00:00 | 01:23:51 | 00:00:00 | |
| OM5KV | 2026-09-03 00:09:19 | 49.23238 | 17.69982 | 95° | 44km/h | 19155m | 4.9m/s | -52.8°C | 1.1% | 0hPa | 2.7V | 00:00:00 | 00:00:00 | 00:00:00 | |
| DO3MHA-11 | 2026-09-03 00:09:18 | 49.23240 | 17.69928 | 92° | 40km/h | 19141m | 5.1m/s | -52.9°C | 3.8% | 0hPa | 2.7V | 00:00:00 | 01:23:45 | 00:00:00 | |
| OE5DRO-10 | 2026-09-03 00:09:17 | 49.23240 | 17.69928 | 92° | 38km/h | 19141m | 5.1m/s | -52.9°C | 3.8% | 0hPa | 2.7V | 00:00:00 | 00:00:00 | 00:00:00 | |
| OE3OSB-13 | 2026-09-03 00:09:14 | 49.23241 | 17.69878 | 94° | 40km/h | 19125m | 4.8m/s | -53.0°C | 1.0% | -1.0hPa | 2.6V | 00:00:00 | 00:00:00 | 00:00:00 | |
| OE5MMP-10 | 2026-09-03 00:09:13 | 49.23242 | 17.69862 | 98° | 37km/h | 19120m | 5.8m/s | -52.9°C | 3.8% | 0hPa | 2.6V | 00:00:00 | 01:23:41 | 08:30:00 | |
| OM5KV | 2026-09-03 00:09:12 | 49.23242 | 17.69862 | 99° | 42km/h | 19120m | 5.9m/s | -53.0°C | 1.1% | 0hPa | 2.7V | 00:00:00 | 00:00:00 | 00:00:00 | |
| PG1ADW-2 | 2026-09-03 00:09:10 | 49.23246 | 17.69814 | 94° | 38km/h | 19105m | 6.3m/s | -52.9°C | 3.8% | 0hPa | 2.7V | 00:00:00 | 00:00:00 | 00:00:00 | |
| PETON7-10 | 2026-09-03 00:09:09 | 49.23247 | 17.69800 | 94° | 38km/h | 19100m | 4.5m/s | -52.9°C | 3.8% | 0hPa | 2.6V | 00:00:00 | 00:00:00 | 00:00:00 | |
| OE5DXL-15 | 2026-09-03 00:09:06 | 49.23251 | 17.69757 | 105° | 38km/h | 19084m | 4.5m/s | -53.1°C | 3.9% | 0hPa | 2.6V | 00:00:00 | 00:00:00 | 00:00:00 | |
| POL1PZ | 2026-09-03 00:09:05 | 49.23251 | 17.69757 | 106° | 38km/h | 19084m | 4.6m/s | -53.1°C | 1.1% | 0hPa | 2.6V | 00:00:00 | 00:00:00 | 00:00:00 | |
| OE3JTB-15 | 2026-09-03 00:09:02 | 49.23265 | 17.69708 | 124° | 38km/h | 19063m | 6.0m/s | -53.2°C | 4.0% | 0hPa | 2.6V | 00:00:00 | 00:00:00 | 00:00:00 | |
| OM5KV | 2026-09-03 00:09:01 | 49.23265 | 17.69708 | 125° | 35km/h | 19063m | 6.1m/s | -53.3°C | 1.2% | 0hPa | 2.6V | 00:00:00 | 00:00:00 | 00:00:00 | |
| OE5MMP-10 | 2026-09-03 00:09:00 | 49.23276 | 17.69684 | 125° | 40km/h | 19052m | 3.8m/s | -53.2°C | 4.0% | 0hPa | 2.6V | 00:00:00 | 01:23:28 | 00:00:00 | |
| OE5DRO-10 | 2026-09-03 00:08:58 | 49.23286 | 17.69659 | 118° | 38km/h | 19042m | 4.9m/s | -53.2°C | 4.0% | 0hPa | 2.6V | 00:00:00 | 00:00:00 | 00:00:00 | |
| DO3MHA-11 | 2026-09-03 00:08:56 | 49.23293 | 17.69632 | 108° | 42km/h | 19032m | 6.4m/s | -53.1°C | 3.9% | 0hPa | 2.6V | 00:00:00 | 01:23:24 | 00:00:00 | |
| PETON7-10 | 2026-09-03 00:08:54 | 49.23298 | 17.69599 | 99° | 38km/h | 19021m | 5.2m/s | -53.1°C | 3.9% | 0hPa | 2.6V | 00:00:00 | 01:23:22 | 00:00:00 | |
| HA6NAB-11 | 2026-09-03 00:08:53 | 49.23298 | 17.69599 | 99° | 42km/h | 19021m | 5.2m/s | -53.1°C | 1.1% | 0hPa | 2.6V | 00:00:00 | 00:00:00 | 00:00:00 | |
| PG1ADW-2 | 2026-09-03 00:08:50 | 49.23305 | 17.69534 | 103° | 38km/h | 19000m | 5.3m/s | -53.0°C | 3.9% | 0hPa | 2.6V | 00:00:00 | 00:00:00 | 00:00:00 | |
| OM5KV | 2026-09-03 00:08:49 | 49.23305 | 17.69535 | 104° | 46km/h | 19000m | 5.3m/s | -53.0°C | 1.1% | 0hPa | 2.6V | 00:00:00 | 00:00:00 | 00:00:00 | |
| HA6NAB-11 | 2026-09-03 00:08:48 | 49.23307 | 17.69518 | 106° | 46km/h | 18996m | 4.1m/s | -53.0°C | 1.1% | 0hPa | 2.6V | 00:00:00 | 00:00:00 | 00:00:00 | |
| POL1PZ | 2026-09-03 00:08:46 | 49.23315 | 17.69472 | 104° | 37km/h | 18981m | 4.6m/s | -53.0°C | 1.1% | 0hPa | 2.6V | 00:00:00 | 00:00:00 | 00:00:00 | |
| OM5KV | 2026-09-03 00:08:45 | 49.23315 | 17.69472 | 104° | 37km/h | 18981m | 4.6m/s | -53.0°C | 1.1% | 0hPa | 2.6V | 00:00:00 | 00:00:00 | 00:00:00 | |
| OM5KV | 2026-09-03 00:08:44 | 49.23317 | 17.69459 | 105° | 35km/h | 18976m | 5.1m/s | -53.0°C | 1.1% | 0hPa | 2.6V | 00:00:00 | 00:00:00 | 00:00:00 | |
| HA6NAB-11 | 2026-09-03 00:08:42 | 49.23322 | 17.69432 | 110° | 37km/h | 18964m | 5.0m/s | -52.9°C | 1.1% | 0hPa | 2.6V | 00:00:00 | 00:00:00 | 00:00:00 | |
| OE5MMP-10 | 2026-09-03 00:08:40 | 49.23331 | 17.69395 | 109° | 40km/h | 18949m | 5.7m/s | -53.0°C | 3.8% | 0hPa | 2.6V | 00:00:00 | 01:23:08 | 00:00:00 | |
| PETON7-10 | 2026-09-03 00:08:39 | 49.23333 | 17.69384 | 105° | 44km/h | 18944m | 4.2m/s | -53.1°C | 3.8% | 0hPa | 2.6V | 00:00:00 | 00:00:00 | 00:00:00 | |
| HA6NAB-11 | 2026-09-03 00:08:37 | 49.23335 | 17.69371 | 104° | 35km/h | 18939m | 5.2m/s | -53.2°C | 1.1% | 0hPa | 2.7V | 00:00:00 | 00:00:00 | 00:00:00 | |
| OE5DXL-15 | 2026-09-03 00:08:36 | 49.23340 | 17.69342 | 106° | 46km/h | 18928m | 4.8m/s | -53.3°C | 3.9% | 0hPa | 2.7V | 00:00:00 | 00:00:00 | 00:00:00 | |
| OE3JTB-15 | 2026-09-03 00:08:33 | 49.23351 | 17.69294 | 116° | 46km/h | 18912m | 5.5m/s | -53.3°C | 3.9% | 0hPa | 2.6V | 00:00:00 | 01:23:01 | 00:00:00 | |
| HA6NAB-11 | 2026-09-03 00:08:32 | 49.23351 | 17.69294 | 116° | 42km/h | 18912m | 5.5m/s | -53.4°C | 1.1% | 0hPa | 2.6V | 00:00:00 | 00:00:00 | 00:00:00 | |
| OM5KV | 2026-09-03 00:08:31 | 49.23356 | 17.69279 | 120° | 42km/h | 18907m | 4.9m/s | -53.4°C | 1.1% | 0hPa | 2.6V | 00:00:00 | 00:00:00 | 00:00:00 | |
| OE5MMP-10 | 2026-09-03 00:08:30 | 49.23368 | 17.69250 | 124° | 49km/h | 18896m | 6.4m/s | -53.4°C | 3.9% | 0hPa | 2.6V | 00:00:00 | 01:22:58 | 00:00:00 | |
| DO3MHA-11 | 2026-09-03 00:08:26 | 49.23398 | 17.69186 | 127° | 46km/h | 18872m | 5.2m/s | -53.4°C | 3.9% | 0hPa | 2.6V | 00:00:00 | 01:22:54 | 00:00:00 | |
| OM5KV | 2026-09-03 00:08:25 | 49.23398 | 17.69186 | 127° | 47km/h | 18872m | 5.2m/s | -53.4°C | 1.1% | 0hPa | 2.6V | 00:00:00 | 00:00:00 | 00:00:00 | |
| PETON7-10 | 2026-09-03 00:08:24 | 49.23412 | 17.69155 | 124° | 46km/h | 18861m | 6.4m/s | -53.4°C | 3.9% | 0hPa | 2.6V | 00:00:00 | 00:00:00 | 00:00:00 | |
| SQ9EZE-14 | 2026-09-03 00:08:23 | 49.23412 | 17.69155 | 124° | 49km/h | 18861m | 6.4m/s | 0°C | 0% | 0hPa | 2.6V | 00:00:00 | 00:00:00 | 00:00:00 | |
| OE5MMP-10 | 2026-09-03 00:08:20 | 49.23436 | 17.69095 | 120° | 46km/h | 18839m | 4.9m/s | -53.5°C | 3.9% | 0hPa | 2.6V | 00:00:00 | 01:22:48 | 00:00:00 | |
| OM5KV | 2026-09-03 00:08:19 | 49.23436 | 17.69095 | 121° | 40km/h | 18839m | 5.0m/s | -53.5°C | 1.1% | 0hPa | 2.6V | 00:00:00 | 00:00:00 | 00:00:00 | |
| DO3MHA-11 | 2026-09-03 00:08:16 | 49.23455 | 17.69036 | 116° | 46km/h | 18817m | 5.8m/s | -53.5°C | 3.9% | 0hPa | 2.6V | 00:00:00 | 01:22:44 | 00:00:00 | |
| OM5KV | 2026-09-03 00:08:15 | 49.23460 | 17.69020 | 117° | 46km/h | 18811m | 6.2m/s | -53.7°C | 1.1% | 0hPa | 2.6V | 00:00:00 | 00:00:00 | 00:00:00 | |
| OE3OSB-13 | 2026-09-03 00:08:12 | 49.23479 | 17.68953 | 111° | 51km/h | 18789m | 5.2m/s | -53.7°C | 1.0% | -1.0hPa | 2.6V | 00:00:00 | 00:00:00 | 00:00:00 | |
| OE5MMP-10 | 2026-09-03 00:08:10 | 49.23484 | 17.68935 | 112° | 40km/h | 18785m | 5.0m/s | -53.6°C | 3.9% | 0hPa | 2.6V | 00:00:00 | 01:22:38 | 00:00:00 | |
| PETON7-10 | 2026-09-03 00:08:09 | 49.23488 | 17.68918 | 114° | 42km/h | 18779m | 6.3m/s | -53.6°C | 3.9% | 0hPa | 2.6V | 00:00:00 | 01:22:37 | 00:00:00 | |
| OM5KV | 2026-09-03 00:08:08 | 49.23488 | 17.68918 | 114° | 46km/h | 18779m | 6.4m/s | -53.7°C | 1.1% | 0hPa | 2.6V | 00:00:00 | 00:00:00 | 00:00:00 | |
| OE5DXL-15 | 2026-09-03 00:08:06 | 49.23499 | 17.68874 | 106° | 40km/h | 18762m | 6.8m/s | -53.8°C | 3.9% | 0hPa | 2.6V | 00:00:00 | 00:00:00 | 00:00:00 | |
| OE3JTB-15 | 2026-09-03 00:08:04 | 49.23504 | 17.68845 | 104° | 38km/h | 18751m | 6.3m/s | -53.8°C | 3.9% | 0hPa | 2.6V | 00:00:00 | 00:00:00 | 08:30:00 | |
| OM5KV | 2026-09-03 00:08:02 | 49.23506 | 17.68832 | 105° | 37km/h | 18745m | 6.1m/s | -53.9°C | 1.2% | 0hPa | 2.7V | 00:00:00 | 00:00:00 | 00:00:00 | |
| OE5DRO-10 | 2026-09-03 00:08:01 | 49.23510 | 17.68803 | 101° | 40km/h | 18733m | 6.8m/s | -54.0°C | 4.0% | 0hPa | 2.7V | 00:00:00 | 00:00:00 | 00:00:00 | |
| OE5MMP-10 | 2026-09-03 00:08:00 | 49.23512 | 17.68786 | 99° | 44km/h | 18727m | 4.7m/s | -54.1°C | 4.1% | 0hPa | 2.7V | 00:00:00 | 01:22:28 | 00:00:00 | |
| DO3MHA-11 | 2026-09-03 00:07:56 | 49.23518 | 17.68717 | 95° | 46km/h | 18706m | 5.2m/s | -54.3°C | 4.2% | 0hPa | 2.7V | 00:00:00 | 01:22:24 | 00:00:00 | |
| OM5KV | 2026-09-03 00:07:55 | 49.23518 | 17.68717 | 96° | 46km/h | 18706m | 5.3m/s | -54.3°C | 1.2% | 0hPa | 2.7V | 00:00:00 | 00:00:00 | 00:00:00 | |
| PETON7-10 | 2026-09-03 00:07:54 | 49.23518 | 17.68682 | 84° | 38km/h | 18694m | 5.0m/s | -54.2°C | 4.2% | 0hPa | 2.7V | 00:00:00 | 00:00:00 | 00:00:00 | |
| HA6NAB-11 | 2026-09-03 00:07:51 | 49.23515 | 17.68650 | 79° | 38km/h | 18684m | 6.6m/s | -54.2°C | 1.2% | 0hPa | 2.7V | 00:00:00 | 00:00:00 | 00:00:00 | |
| OE5MMP-10 | 2026-09-03 00:07:50 | 49.23512 | 17.68625 | 86° | 33km/h | 18673m | 4.2m/s | -54.1°C | 4.1% | 0hPa | 2.7V | 00:00:00 | 01:22:18 | 00:00:00 | |
| HA6NAB-11 | 2026-09-03 00:07:46 | 49.23510 | 17.68569 | 86° | 42km/h | 18651m | 5.1m/s | -54.1°C | 1.2% | 0hPa | 2.7V | 00:00:00 | 00:00:00 | 00:00:00 | |
| OM5KV | 2026-09-03 00:07:44 | 49.23509 | 17.68553 | 84° | 40km/h | 18646m | 5.9m/s | -54.1°C | 1.2% | 0hPa | 2.7V | 00:00:00 | 00:00:00 | 00:00:00 | |
| OE5DRO-10 | 2026-09-03 00:07:42 | 49.23505 | 17.68510 | 84° | 35km/h | 18628m | 4.9m/s | -54.0°C | 3.9% | 0hPa | 2.7V | 00:00:00 | 00:00:00 | 00:00:00 | |
| OE3OSB-13 | 2026-09-03 00:07:41 | 49.23504 | 17.68482 | 89° | 38km/h | 18616m | 5.8m/s | -54.0°C | 1.0% | -1.0hPa | 2.7V | 00:00:00 | 00:00:00 | 00:00:00 | |
| OE5MMP-10 | 2026-09-03 00:07:40 | 49.23504 | 17.68482 | 90° | 35km/h | 18616m | 5.7m/s | -53.9°C | 3.9% | 0hPa | 2.7V | 00:00:00 | 01:22:08 | 08:30:00 | |
| PETON7-10 | 2026-09-03 00:07:39 | 49.23503 | 17.68466 | 91° | 35km/h | 18610m | 5.3m/s | -53.9°C | 3.9% | 0hPa | 2.6V | 00:00:00 | 00:00:00 | 00:00:00 | |
| OM5KV | 2026-09-03 00:07:38 | 49.23503 | 17.68466 | 91° | 40km/h | 18610m | 5.3m/s | -53.9°C | 1.2% | 0hPa | 2.6V | 00:00:00 | 00:00:00 | 00:00:00 | |
| OE5DXL-15 | 2026-09-03 00:07:36 | 49.23504 | 17.68423 | 95° | 35km/h | 18591m | 6.0m/s | -54.1°C | 4.0% | 0hPa | 2.6V | 00:00:00 | 00:00:00 | 00:00:00 | |
| OE3JTB-15 | 2026-09-03 00:07:35 | 49.23505 | 17.68410 | 100° | 35km/h | 18584m | 7.2m/s | -54.1°C | 4.1% | 0hPa | 2.6V | 00:00:00 | 00:00:00 | 00:00:00 | |
| HA6NAB-11 | 2026-09-03 00:07:34 | 49.23505 | 17.68410 | 100° | 35km/h | 18584m | 7.2m/s | -54.2°C | 1.2% | 0hPa | 2.6V | 00:00:00 | 00:00:00 | 00:00:00 | |
| OM5KV | 2026-09-03 00:07:33 | 49.23507 | 17.68396 | 105° | 37km/h | 18578m | 5.8m/s | -54.2°C | 1.2% | 0hPa | 2.6V | 00:00:00 | 00:00:00 | 00:00:00 | |
| PG1ADW-2 | 2026-09-03 00:07:30 | 49.23517 | 17.68349 | 108° | 35km/h | 18556m | 4.6m/s | -54.4°C | 4.2% | 0hPa | 2.6V | 00:00:00 | 00:00:00 | 00:00:00 | |
| HA6NAB-11 | 2026-09-03 00:07:28 | 49.23519 | 17.68338 | 109° | 31km/h | 18551m | 5.2m/s | -54.4°C | 1.2% | 0hPa | 2.6V | 00:00:00 | 00:00:00 | 00:00:00 | |
| OM5KV | 2026-09-03 00:07:27 | 49.23522 | 17.68326 | 109° | 35km/h | 18545m | 6.6m/s | -54.5°C | 1.3% | 0hPa | 2.6V | 00:00:00 | 00:00:00 | 00:00:00 | |
| PETON7-10 | 2026-09-03 00:07:24 | 49.23532 | 17.68271 | 107° | 33km/h | 18522m | 6.1m/s | -54.5°C | 4.2% | 0hPa | 2.6V | 00:00:00 | 01:21:52 | 00:00:00 | |
| OE5DRO-10 | 2026-09-03 00:07:23 | 49.23535 | 17.68258 | 109° | 35km/h | 18516m | 6.2m/s | -54.5°C | 4.3% | 0hPa | 2.6V | 00:00:00 | 00:00:00 | 08:30:00 | |
| HA6NAB-11 | 2026-09-03 00:07:22 | 49.23535 | 17.68258 | 110° | 33km/h | 18516m | 6.3m/s | -54.6°C | 1.3% | 0hPa | 2.6V | 00:00:00 | 00:00:00 | 00:00:00 | |
| OE5MMP-10 | 2026-09-03 00:07:20 | 49.23545 | 17.68223 | 116° | 33km/h | 18498m | 4.2m/s | -54.6°C | 4.2% | 0hPa | 2.6V | 00:00:00 | 01:21:48 | 00:00:00 | |
| DO3MHA-11 | 2026-09-03 00:07:19 | 49.23548 | 17.68211 | 116° | 33km/h | 18493m | 6.1m/s | -54.6°C | 4.2% | 0hPa | 2.6V | 00:00:00 | 01:21:47 | 00:00:00 | |
| OM5KV | 2026-09-03 00:07:16 | 49.23554 | 17.68190 | 110° | 29km/h | 18481m | 5.3m/s | -54.6°C | 1.2% | 0hPa | 2.6V | 00:00:00 | 00:00:00 | 00:00:00 | |
| OM5KV | 2026-09-03 00:07:15 | 49.23556 | 17.68179 | 107° | 31km/h | 18475m | 5.4m/s | -54.6°C | 1.2% | 0hPa | 2.6V | 00:00:00 | 00:00:00 | 00:00:00 | |
| OE3OSB-13 | 2026-09-03 00:07:10 | 49.23572 | 17.68085 | 105° | 37km/h | 18432m | 6.3m/s | -54.5°C | 1.1% | -1.0hPa | 2.6V | 00:00:00 | 00:00:00 | 00:00:00 | |
| PETON7-10 | 2026-09-03 00:07:09 | 49.23572 | 17.68085 | 106° | 35km/h | 18432m | 6.3m/s | -54.4°C | 4.2% | 0hPa | 2.6V | 00:00:00 | 00:00:00 | 08:30:00 | |
| OE3JTB-15 | 2026-09-03 00:07:06 | 49.23579 | 17.68043 | 103° | 35km/h | 18414m | 4.9m/s | -54.4°C | 4.2% | 0hPa | 2.7V | 00:00:00 | 01:21:34 | 00:00:00 | |
| OE5DRO-10 | 2026-09-03 00:07:04 | 49.23584 | 17.68018 | 108° | 35km/h | 18404m | 7.1m/s | -54.4°C | 4.3% | 0hPa | 2.7V | 00:00:00 | 00:00:00 | 00:00:00 | |
| POL1PZ | 2026-09-03 00:07:02 | 49.23586 | 17.68004 | 110° | 38km/h | 18397m | 6.1m/s | -54.4°C | 1.3% | 0hPa | 2.7V | 00:00:00 | 00:00:00 | 00:00:00 | |
| OE5MMP-10 | 2026-09-03 00:07:00 | 49.23594 | 17.67964 | 102° | 33km/h | 18379m | 5.7m/s | -54.3°C | 4.2% | 0hPa | 2.7V | 00:00:00 | 01:21:28 | 00:00:00 | |
| DO3MHA-11 | 2026-09-03 00:06:59 | 49.23596 | 17.67952 | 100° | 33km/h | 18374m | 5.1m/s | -54.2°C | 4.2% | 0hPa | 2.7V | 00:00:00 | 01:21:27 | 00:00:00 | |
| PETON7-10 | 2026-09-03 00:06:54 | 49.23606 | 17.67889 | 106° | 37km/h | 18345m | 6.5m/s | -54.1°C | 4.1% | 0hPa | 2.6V | 00:00:00 | 00:00:00 | 00:00:00 | |
| OM5KV | 2026-09-03 00:06:53 | 49.23606 | 17.67888 | 106° | 29km/h | 18345m | 6.6m/s | -54.1°C | 1.2% | 0hPa | 2.6V | 00:00:00 | 00:00:00 | 00:00:00 | |
| PG1ADW-2 | 2026-09-03 00:06:50 | 49.23613 | 17.67841 | 107° | 38km/h | 18321m | 4.4m/s | -54.0°C | 4.1% | 0hPa | 2.6V | 00:00:00 | 01:21:18 | 00:00:00 | |
| DO3MHA-11 | 2026-09-03 00:06:49 | 49.23616 | 17.67829 | 111° | 38km/h | 18315m | 6.9m/s | -54.0°C | 4.1% | 0hPa | 2.6V | 00:00:00 | 01:21:17 | 00:00:00 | |
| OM5KV | 2026-09-03 00:06:48 | 49.23616 | 17.67829 | 112° | 35km/h | 18315m | 6.9m/s | -54.0°C | 1.2% | 0hPa | 2.6V | 00:00:00 | 00:00:00 | 00:00:00 | |
| OE5DRO-10 | 2026-09-03 00:06:45 | 49.23631 | 17.67778 | 113° | 40km/h | 18290m | 6.0m/s | -54.0°C | 4.1% | 0hPa | 2.6V | 00:00:00 | 00:00:00 | 00:00:00 | |
| OM5KV | 2026-09-03 00:06:43 | 49.23635 | 17.67764 | 114° | 38km/h | 18283m | 6.2m/s | -54.0°C | 1.2% | 0hPa | 2.6V | 00:00:00 | 00:00:00 | 00:00:00 | |
| POL1PZ | 2026-09-03 00:06:41 | 49.23642 | 17.67736 | 111° | 37km/h | 18271m | 4.9m/s | -54.0°C | 1.2% | 0hPa | 2.6V | 00:00:00 | 00:00:00 | 00:00:00 | |
| OE5MMP-10 | 2026-09-03 00:06:40 | 49.23647 | 17.67708 | 105° | 40km/h | 18258m | 6.7m/s | -53.9°C | 4.2% | 0hPa | 2.6V | 00:00:00 | 01:21:08 | 00:00:00 | |
| PETON7-10 | 2026-09-03 00:06:39 | 49.23650 | 17.67693 | 106° | 40km/h | 18253m | 4.9m/s | -53.9°C | 4.2% | 0hPa | 2.6V | 00:00:00 | 01:21:07 | 00:00:00 | |
| OE3OSB-13 | 2026-09-03 00:06:38 | 49.23653 | 17.67679 | 108° | 38km/h | 18247m | 7.0m/s | -53.9°C | 1.1% | -1.0hPa | 2.6V | 00:00:00 | 00:00:00 | 00:00:00 | |
| OE3JTB-15 | 2026-09-03 00:06:37 | 49.23656 | 17.67665 | 112° | 38km/h | 18240m | 5.5m/s | -53.8°C | 4.1% | 0hPa | 2.6V | 00:00:00 | 00:00:00 | 00:00:00 | |
| OE5DXL-15 | 2026-09-03 00:06:36 | 49.23659 | 17.67652 | 112° | 37km/h | 18235m | 5.0m/s | -53.8°C | 4.1% | 0hPa | 2.7V | 00:00:00 | 00:00:00 | 00:00:00 | |
| OM5KV | 2026-09-03 00:06:31 | 49.23675 | 17.67593 | 116° | 42km/h | 18210m | 6.5m/s | -53.8°C | 1.2% | 0hPa | 2.7V | 00:00:00 | 00:00:00 | 00:00:00 | |
| OE5MMP-10 | 2026-09-03 00:06:30 | 49.23683 | 17.67564 | 112° | 37km/h | 18200m | 5.6m/s | -53.7°C | 4.0% | 0hPa | 2.7V | 00:00:00 | 01:20:58 | 00:00:00 | |
| DO3MHA-11 | 2026-09-03 00:06:28 | 49.23689 | 17.67533 | 104° | 37km/h | 18187m | 5.4m/s | -53.6°C | 4.0% | 0hPa | 2.7V | 00:00:00 | 01:20:56 | 08:30:00 | |
| OE5DRO-10 | 2026-09-03 00:06:26 | 49.23693 | 17.67503 | 103° | 35km/h | 18175m | 6.8m/s | -53.5°C | 4.0% | 0hPa | 2.6V | 00:00:00 | 00:00:00 | 00:00:00 | |
| PETON7-10 | 2026-09-03 00:06:24 | 49.23697 | 17.67477 | 102° | 37km/h | 18163m | 5.4m/s | -53.5°C | 4.0% | 0hPa | 2.6V | 00:00:00 | 00:00:00 | 00:00:00 | |
| POL1PZ | 2026-09-03 00:06:21 | 49.23701 | 17.67451 | 104° | 35km/h | 18151m | 4.9m/s | -53.5°C | 1.2% | 0hPa | 2.6V | 00:00:00 | 00:00:00 | 00:00:00 | |
| OE5MMP-10 | 2026-09-03 00:06:20 | 49.23706 | 17.67426 | 112° | 37km/h | 18140m | 6.8m/s | -53.4°C | 4.0% | 0hPa | 2.6V | 00:00:00 | 01:20:48 | 00:00:00 | |
| DO3MHA-11 | 2026-09-03 00:06:18 | 49.23712 | 17.67401 | 111° | 37km/h | 18129m | 6.2m/s | -53.4°C | 4.0% | 0hPa | 2.6V | 00:00:00 | 01:20:46 | 00:00:00 | |
| OM5KV | 2026-09-03 00:06:14 | 49.23719 | 17.67358 | 100° | 38km/h | 18111m | 6.7m/s | -53.5°C | 1.2% | 0hPa | 2.6V | 00:00:00 | 00:00:00 | 00:00:00 | |
| PG1ADW-2 | 2026-09-03 00:06:10 | 49.23719 | 17.67286 | 83° | 31km/h | 18082m | 6.7m/s | -53.4°C | 4.0% | 0hPa | 2.6V | 00:00:00 | 00:00:00 | 00:00:00 | |
| PETON7-10 | 2026-09-03 00:06:09 | 49.23718 | 17.67273 | 82° | 31km/h | 18076m | 5.8m/s | -53.4°C | 4.1% | 0hPa | 2.6V | 00:00:00 | 00:00:00 | 00:00:00 | |
| DO3MHA-11 | 2026-09-03 00:06:08 | 49.23717 | 17.67262 | 81° | 33km/h | 18071m | 4.0m/s | -53.3°C | 4.0% | 0hPa | 2.6V | 00:00:00 | 01:20:36 | 00:00:00 | |
| OE5DRO-10 | 2026-09-03 00:06:07 | 49.23715 | 17.67250 | 81° | 31km/h | 18065m | 6.5m/s | -53.3°C | 4.1% | 0hPa | 2.6V | 00:00:00 | 00:00:00 | 00:00:00 | |
| OM5KV | 2026-09-03 00:06:03 | 49.23712 | 17.67212 | 87° | 33km/h | 18048m | 7.4m/s | -53.4°C | 1.2% | 0hPa | 2.6V | 00:00:00 | 00:00:00 | 00:00:00 | |
| POL1PZ | 2026-09-03 00:06:00 | 49.23712 | 17.67173 | 90° | 37km/h | 18031m | 6.3m/s | -53.3°C | 1.2% | 0hPa | 2.6V | 00:00:00 | 00:00:00 | 00:00:00 | |
| DO3MHA-11 | 2026-09-03 00:05:58 | 49.23710 | 17.67134 | 83° | 29km/h | 18014m | 5.3m/s | -53.2°C | 4.0% | 0hPa | 2.6V | 00:00:00 | 01:20:26 | 00:00:00 | |
| PETON7-10 | 2026-09-03 00:05:54 | 49.23705 | 17.67092 | 80° | 26km/h | 17992m | 6.5m/s | -53.0°C | 4.0% | 0hPa | 2.6V | 00:00:00 | 01:20:22 | 00:00:00 | |
| OE5MMP-10 | 2026-09-03 00:05:52 | 49.23704 | 17.67072 | 91° | 27km/h | 17982m | 4.1m/s | -52.9°C | 3.9% | 0hPa | 2.6V | 00:00:00 | 01:20:20 | 00:00:00 | |
| OM5KV | 2026-09-03 00:05:51 | 49.23704 | 17.67072 | 92° | 27km/h | 17982m | 4.1m/s | -53.0°C | 1.2% | 0hPa | 2.6V | 00:00:00 | 00:00:00 | 00:00:00 | |
| PG1ADW-2 | 2026-09-03 00:05:50 | 49.23704 | 17.67049 | 92° | 29km/h | 17970m | 5.2m/s | -52.8°C | 3.9% | 0hPa | 2.6V | 00:00:00 | 00:00:00 | 00:00:00 | |
| OE5DRO-10 | 2026-09-03 00:05:48 | 49.23705 | 17.67024 | 94° | 29km/h | 17960m | 7.0m/s | -52.7°C | 3.9% | 0hPa | 2.6V | 00:00:00 | 00:00:00 | 00:00:00 | |
| OM5KV | 2026-09-03 00:05:47 | 49.23705 | 17.67024 | 94° | 31km/h | 17960m | 7.0m/s | -52.8°C | 1.1% | 0hPa | 2.6V | 00:00:00 | 00:00:00 | 00:00:00 | |
| OM5KV | 2026-09-03 00:05:46 | 49.23705 | 17.67013 | 95° | 27km/h | 17954m | 5.0m/s | -52.8°C | 1.2% | 0hPa | 2.6V | 00:00:00 | 00:00:00 | 00:00:00 | |
| OE5MMP-10 | 2026-09-03 00:05:42 | 49.23706 | 17.66967 | 93° | 31km/h | 17926m | 5.5m/s | -52.6°C | 3.8% | 0hPa | 2.6V | 00:00:00 | 01:20:10 | 00:00:00 | |
| OM5KV | 2026-09-03 00:05:40 | 49.23707 | 17.66960 | 91° | 18km/h | 17921m | 4.1m/s | -52.6°C | 1.1% | 0hPa | 2.6V | 00:00:00 | 00:00:00 | 00:00:00 | |
| PETON7-10 | 2026-09-03 00:05:39 | 49.23706 | 17.66943 | 88° | 26km/h | 17910m | 5.7m/s | -52.5°C | 3.8% | 0hPa | 2.6V | 00:00:00 | 00:00:00 | 00:00:00 | |
| DO3MHA-11 | 2026-09-03 00:05:38 | 49.23706 | 17.66932 | 91° | 33km/h | 17904m | 5.9m/s | -52.5°C | 3.8% | 0hPa | 2.7V | 00:00:00 | 01:20:06 | 00:00:00 | |
| OE5DXL-15 | 2026-09-03 00:05:36 | 49.23707 | 17.66906 | 96° | 24km/h | 17892m | 5.1m/s | -52.5°C | 3.9% | 0hPa | 2.7V | 00:00:00 | 00:00:00 | 00:00:00 | |
| OE5MMP-10 | 2026-09-03 00:05:32 | 49.23714 | 17.66845 | 104° | 33km/h | 17873m | 3.8m/s | -52.5°C | 3.8% | 0hPa | 2.6V | 00:00:00 | 01:20:00 | 00:00:00 | |
| PG1ADW-2 | 2026-09-03 00:05:30 | 49.23718 | 17.66823 | 112° | 20km/h | 17862m | 5.4m/s | -52.6°C | 3.8% | 0hPa | 2.7V | 00:00:00 | 01:19:58 | 00:00:00 | |
| OE5DRO-10 | 2026-09-03 00:05:29 | 49.23720 | 17.66817 | 129° | 20km/h | 17856m | 6.3m/s | -52.6°C | 3.9% | 0hPa | 2.7V | 00:00:00 | 00:00:00 | 00:00:00 | |
| DO3MHA-11 | 2026-09-03 00:05:28 | 49.23722 | 17.66815 | 153° | 22km/h | 17851m | 5.2m/s | -52.7°C | 3.8% | 0hPa | 2.6V | 00:00:00 | 01:19:56 | 00:00:00 | |
| OM5KV | 2026-09-03 00:05:27 | 49.23722 | 17.66815 | 154° | 7km/h | 17851m | 5.3m/s | -52.8°C | 1.1% | 0hPa | 2.6V | 00:00:00 | 00:00:00 | 00:00:00 | |
| OM5KV | 2026-09-03 00:05:25 | 49.23725 | 17.66812 | 113° | 7km/h | 17840m | 3.6m/s | -52.8°C | 1.1% | 0hPa | 2.6V | 00:00:00 | 00:00:00 | 00:00:00 | |
| PETON7-10 | 2026-09-03 00:05:24 | 49.23725 | 17.66803 | 82° | 24km/h | 17830m | 6.9m/s | -52.7°C | 3.8% | 0hPa | 2.6V | 00:00:00 | 00:00:00 | 00:00:00 | |
| OE5MMP-10 | 2026-09-03 00:05:21 | 49.23723 | 17.66778 | 91° | 24km/h | 17811m | 5.9m/s | -52.5°C | 3.8% | 0hPa | 2.6V | 00:00:00 | 01:19:49 | 00:00:00 | |
| POL1PZ | 2026-09-03 00:05:19 | 49.23723 | 17.66768 | 105° | 24km/h | 17805m | 6.1m/s | -52.5°C | 1.2% | 0hPa | 2.6V | 00:00:00 | 00:00:00 | 00:00:00 | |
| OM5KV | 2026-09-03 00:05:16 | 49.23732 | 17.66746 | 132° | 22km/h | 17788m | 4.5m/s | -52.5°C | 1.1% | 0hPa | 2.6V | 00:00:00 | 00:00:00 | 00:00:00 | |
| OE5DRO-10 | 2026-09-03 00:05:10 | 49.23745 | 17.66685 | 113° | 29km/h | 17751m | 5.9m/s | -52.3°C | 3.8% | 0hPa | 2.6V | 00:00:00 | 00:00:00 | 00:00:00 | |
| PETON7-10 | 2026-09-03 00:05:09 | 49.23747 | 17.66677 | 117° | 31km/h | 17746m | 4.4m/s | -52.3°C | 3.8% | 0hPa | 2.6V | 00:00:00 | 01:19:37 | 00:00:00 | |
| OE5DXL-15 | 2026-09-03 00:05:06 | 49.23754 | 17.66650 | 105° | 35km/h | 17728m | 6.1m/s | -52.2°C | 3.8% | 0hPa | 2.6V | 00:00:00 | 00:00:00 | 00:00:00 | |
| DO3MHA-11 | 2026-09-03 00:05:05 | 49.23756 | 17.66638 | 105° | 33km/h | 17723m | 3.8m/s | -52.2°C | 3.8% | 0hPa | 2.6V | 00:00:00 | 01:19:33 | 00:00:00 | |
| OM5KV | 2026-09-03 00:05:02 | 49.23760 | 17.66615 | 111° | 31km/h | 17711m | 6.8m/s | -52.2°C | 1.2% | 0hPa | 2.6V | 00:00:00 | 00:00:00 | 00:00:00 | |
| OE5MMP-10 | 2026-09-03 00:04:59 | 49.23774 | 17.66568 | 114° | 31km/h | 17690m | 4.3m/s | 0°C | 0% | 0hPa | 2.6V | 00:00:00 | 01:19:27 | 00:00:00 | |
| POL1PZ | 2026-09-03 00:04:58 | 49.23774 | 17.66567 | 114° | 37km/h | 17690m | 4.3m/s | -52.2°C | 1.1% | 0hPa | 2.6V | 00:00:00 | 00:00:00 | 00:00:00 | |
| DO3MHA-11 | 2026-09-03 00:04:55 | 49.23784 | 17.66521 | 97° | 33km/h | 17670m | 6.0m/s | -52.1°C | 3.7% | 0hPa | 2.6V | 00:00:00 | 01:19:23 | 00:00:00 | |
| PETON7-10 | 2026-09-03 00:04:54 | 49.23784 | 17.66509 | 92° | 35km/h | 17665m | 4.9m/s | -52.2°C | 3.7% | 0hPa | 2.6V | 00:00:00 | 00:00:00 | 08:30:00 | |
| OM5KV | 2026-09-03 00:04:53 | 49.23784 | 17.66509 | 92° | 31km/h | 17665m | 4.9m/s | -52.2°C | 1.1% | 0hPa | 2.7V | 00:00:00 | 00:00:00 | 00:00:00 | |
| S52SK | 2026-09-03 00:04:52 | 49.23784 | 17.66497 | 91° | 29km/h | 17660m | 6.2m/s | -52.2°C | 0% | 0hPa | 2.7V | 00:00:00 | 00:00:00 | 00:00:00 | |
| OE5DRO-10 | 2026-09-03 00:04:51 | 49.23785 | 17.66475 | 95° | 37km/h | 17650m | 3.9m/s | -52.2°C | 3.7% | 0hPa | 2.7V | 00:00:00 | 00:00:00 | 00:00:00 | |
| PG1ADW-2 | 2026-09-03 00:04:50 | 49.23786 | 17.66463 | 97° | 37km/h | 17645m | 5.6m/s | -52.2°C | 3.7% | 0hPa | 2.7V | 00:00:00 | 00:00:00 | 00:00:00 | |
| OM5KV | 2026-09-03 00:04:49 | 49.23786 | 17.66450 | 101° | 35km/h | 17640m | 4.7m/s | -52.2°C | 1.1% | 0hPa | 2.7V | 00:00:00 | 00:00:00 | 00:00:00 | |
| S52SK | 2026-09-03 00:04:47 | 49.23791 | 17.66423 | 110° | 35km/h | 17630m | 5.6m/s | -52.2°C | 0% | 0hPa | 2.7V | 00:00:00 | 00:00:00 | 00:00:00 | |
| DO3MHA-11 | 2026-09-03 00:04:46 | 49.23798 | 17.66397 | 113° | 38km/h | 17620m | 5.5m/s | -52.2°C | 3.7% | 0hPa | 2.7V | 00:00:00 | 01:19:13 | 08:30:00 | |
| OM5KV | 2026-09-03 00:04:44 | 49.23806 | 17.66370 | 115° | 38km/h | 17611m | 3.7m/s | -52.2°C | 1.1% | 0hPa | 2.7V | 00:00:00 | 00:00:00 | 00:00:00 | |
| OE3JTB-15 | 2026-09-03 00:04:42 | 49.23814 | 17.66343 | 117° | 38km/h | 17602m | 4.1m/s | -52.1°C | 3.7% | 0hPa | 2.7V | 00:00:00 | 00:00:00 | 00:00:00 | |
| PETON7-10 | 2026-09-03 00:04:40 | 49.23822 | 17.66316 | 112° | 37km/h | 17592m | 5.2m/s | -52.1°C | 3.8% | 0hPa | 2.7V | 00:00:00 | 00:00:00 | 00:00:00 | |
| OM5KV | 2026-09-03 00:04:38 | 49.23825 | 17.66301 | 109° | 40km/h | 17588m | 3.6m/s | -52.2°C | 1.1% | 0hPa | 2.7V | 00:00:00 | 00:00:00 | 00:00:00 | |
| OE5DXL-15 | 2026-09-03 00:04:36 | 49.23831 | 17.66273 | 107° | 38km/h | 17579m | 4.9m/s | -52.2°C | 3.7% | 0hPa | 2.7V | 00:00:00 | 00:00:00 | 00:00:00 | |
| DO3MHA-11 | 2026-09-03 00:04:35 | 49.23834 | 17.66260 | 107° | 37km/h | 17575m | 3.4m/s | -52.2°C | 3.7% | 0hPa | 2.7V | 00:00:00 | 01:19:03 | 00:00:00 | |
| OE3OSB-13 | 2026-09-03 00:04:34 | 49.23837 | 17.66247 | 107° | 37km/h | 17571m | 4.9m/s | -52.3°C | 1.0% | -1.0hPa | 2.7V | 00:00:00 | 00:00:00 | 00:00:00 | |
| OM5KV | 2026-09-03 00:04:32 | 49.23842 | 17.66219 | 113° | 37km/h | 17561m | 4.0m/s | -52.3°C | 1.1% | 0hPa | 2.7V | 00:00:00 | 00:00:00 | 00:00:00 | |
| PG1ADW-2 | 2026-09-03 00:04:31 | 49.23850 | 17.66195 | 118° | 38km/h | 17552m | 3.8m/s | -52.4°C | 3.8% | 0hPa | 2.7V | 00:00:00 | 00:00:00 | 00:00:00 | |
| OM5KV | 2026-09-03 00:04:28 | 49.23857 | 17.66170 | 113° | 37km/h | 17544m | 5.7m/s | -52.6°C | 1.2% | 0hPa | 2.7V | 00:00:00 | 00:00:00 | 00:00:00 | |
| DO3MHA-11 | 2026-09-03 00:04:25 | 49.23864 | 17.66127 | 95° | 40km/h | 17529m | 5.8m/s | -52.5°C | 3.9% | 0hPa | 2.7V | 00:00:00 | 01:18:53 | 00:00:00 | |
| PETON7-10 | 2026-09-03 00:04:24 | 49.23864 | 17.66112 | 89° | 40km/h | 17524m | 4.5m/s | -52.6°C | 3.8% | 0hPa | 2.7V | 00:00:00 | 01:18:52 | 00:00:00 | |
| OM5KV | 2026-09-03 00:04:21 | 49.23863 | 17.66080 | 85° | 44km/h | 17513m | 4.5m/s | -52.6°C | 1.2% | 0hPa | 2.7V | 00:00:00 | 00:00:00 | 00:00:00 | |
| POL1PZ | 2026-09-03 00:04:17 | 49.23859 | 17.66003 | 95° | 40km/h | 17489m | 5.4m/s | -52.5°C | 1.2% | 0hPa | 2.7V | 00:00:00 | 00:00:00 | 00:00:00 | |
| DO3MHA-11 | 2026-09-03 00:04:16 | 49.23862 | 17.65973 | 102° | 37km/h | 17478m | 6.2m/s | -52.4°C | 3.9% | 0hPa | 2.7V | 00:00:00 | 01:18:43 | 00:00:00 | |
| OE5DRO-10 | 2026-09-03 00:04:14 | 49.23867 | 17.65945 | 104° | 37km/h | 17469m | 4.0m/s | -52.4°C | 3.8% | 0hPa | 2.6V | 00:00:00 | 00:00:00 | 00:00:00 | |
| OE3JTB-15 | 2026-09-03 00:04:12 | 49.23868 | 17.65930 | 100° | 37km/h | 17464m | 5.4m/s | -52.3°C | 3.8% | 0hPa | 2.6V | 00:00:00 | 01:18:40 | 00:00:00 | |
| OM5KV | 2026-09-03 00:04:11 | 49.23870 | 17.65886 | 90° | 35km/h | 17450m | 5.6m/s | -52.3°C | 1.1% | 0hPa | 2.6V | 00:00:00 | 00:00:00 | 00:00:00 | |
| OE5MMP-10 | 2026-09-03 00:04:10 | 49.23870 | 17.65873 | 87° | 33km/h | 17445m | 4.8m/s | 0°C | 0% | 0hPa | 2.6V | 00:00:00 | 01:18:36 | 00:00:00 | |
| OE5DXL-15 | 2026-09-03 00:04:07 | 49.23869 | 17.65847 | 87° | 37km/h | 17435m | 5.6m/s | -52.3°C | 3.8% | 0hPa | 2.6V | 00:00:00 | 00:00:00 | 00:00:00 | |
| OM5KV | 2026-09-03 00:04:06 | 49.23869 | 17.65847 | 88° | 35km/h | 17435m | 5.6m/s | -52.3°C | 1.2% | 0hPa | 2.6V | 00:00:00 | 00:00:00 | 00:00:00 | |
| DO3MHA-11 | 2026-09-03 00:04:05 | 49.23869 | 17.65834 | 91° | 35km/h | 17430m | 3.6m/s | -52.3°C | 3.8% | 0hPa | 2.6V | 00:00:00 | 01:18:33 | 00:00:00 | |
| OE5MMP-10 | 2026-09-03 00:03:58 | 49.23884 | 17.65745 | 107° | 37km/h | 17395m | 6.1m/s | 0°C | 0% | 0hPa | 2.6V | 00:00:00 | 01:18:26 | 00:00:00 | |
| HA6NAB-11 | 2026-09-03 00:03:57 | 49.23883 | 17.65745 | 108° | 38km/h | 17395m | 6.1m/s | -52.1°C | 1.2% | 0hPa | 2.6V | 00:00:00 | 00:00:00 | 00:00:00 | |
| DO3MHA-11 | 2026-09-03 00:03:55 | 49.23890 | 17.65701 | 99° | 35km/h | 17380m | 5.4m/s | -52.1°C | 3.7% | 0hPa | 2.6V | 00:00:00 | 01:18:23 | 00:00:00 | |
| PETON7-10 | 2026-09-03 00:03:54 | 49.23891 | 17.65685 | 97° | 37km/h | 17375m | 4.5m/s | -52.2°C | 3.7% | 0hPa | 2.6V | 00:00:00 | 00:00:00 | 00:00:00 | |
| HA6NAB-11 | 2026-09-03 00:03:51 | 49.23894 | 17.65657 | 101° | 33km/h | 17364m | 4.7m/s | -52.4°C | 0% | 0hPa | 2.6V | 00:00:00 | 00:00:00 | 00:00:00 | |
| PG1ADW-2 | 2026-09-03 00:03:50 | 49.23898 | 17.65634 | 112° | 37km/h | 17357m | 5.1m/s | -52.4°C | 3.7% | 0hPa | 2.6V | 00:00:00 | 00:00:00 | 00:00:00 | |
| OE5MMP-10 | 2026-09-03 00:03:48 | 49.23905 | 17.65611 | 118° | 40km/h | 17346m | 4.1m/s | 0°C | 0% | 0hPa | 2.6V | 00:00:00 | 01:18:16 | 00:00:00 | |
| DO3MHA-11 | 2026-09-03 00:03:45 | 49.23918 | 17.65576 | 121° | 40km/h | 17332m | 4.3m/s | -52.6°C | 3.8% | 0hPa | 2.6V | 00:00:00 | 01:18:13 | 00:00:00 | |
| OE3JTB-15 | 2026-09-03 00:03:43 | 49.23928 | 17.65548 | 114° | 37km/h | 17321m | 5.3m/s | -52.6°C | 3.9% | 0hPa | 2.7V | 00:00:00 | 00:00:00 | 08:30:00 | |
| OM5KV | 2026-09-03 00:03:42 | 49.23932 | 17.65532 | 111° | 47km/h | 17317m | 3.9m/s | -52.7°C | 1.2% | 0hPa | 2.7V | 00:00:00 | 00:00:00 | 00:00:00 | |
| PETON7-10 | 2026-09-03 00:03:40 | 49.23942 | 17.65484 | 104° | 38km/h | 17303m | 3.6m/s | -52.6°C | 3.9% | 0hPa | 2.7V | 00:00:00 | 01:18:07 | 00:00:00 | |
| OE5MMP-10 | 2026-09-03 00:03:39 | 49.23946 | 17.65455 | 104° | 37km/h | 17293m | 5.3m/s | 0°C | 0% | 0hPa | 2.7V | 00:00:00 | 01:18:05 | 00:00:00 | |
| OE5DXL-15 | 2026-09-03 00:03:38 | 49.23948 | 17.65441 | 104° | 35km/h | 17288m | 4.3m/s | -52.6°C | 3.9% | 0hPa | 2.7V | 00:00:00 | 00:00:00 | 00:00:00 | |
| POL1PZ | 2026-09-03 00:03:36 | 49.23950 | 17.65429 | 104° | 31km/h | 17283m | 6.0m/s | -52.6°C | 1.2% | 0hPa | 2.7V | 00:00:00 | 00:00:00 | 00:00:00 | |
| OM5KV | 2026-09-03 00:03:35 | 49.23950 | 17.65429 | 104° | 31km/h | 17283m | 6.0m/s | -52.6°C | 1.2% | 0hPa | 2.7V | 00:00:00 | 00:00:00 | 00:00:00 | |
| HA6NAB-11 | 2026-09-03 00:03:33 | 49.23952 | 17.65417 | 103° | 29km/h | 17278m | 4.2m/s | -52.6°C | 0% | 0hPa | 2.7V | 00:00:00 | 00:00:00 | 00:00:00 | |
| OE3OSB-13 | 2026-09-03 00:03:32 | 49.23955 | 17.65393 | 105° | 35km/h | 17268m | 5.5m/s | -52.6°C | 1.0% | -1.0hPa | 2.7V | 00:00:00 | 00:00:00 | 00:00:00 | |
| PG1ADW-2 | 2026-09-03 00:03:30 | 49.23961 | 17.65365 | 109° | 37km/h | 17260m | 3.2m/s | -52.6°C | 3.8% | 0hPa | 2.7V | 00:00:00 | 00:00:00 | 00:00:00 | |
| OM5KV | 2026-09-03 00:03:29 | 49.23961 | 17.65365 | 109° | 40km/h | 17260m | 3.2m/s | -52.7°C | 1.2% | 0hPa | 2.7V | 00:00:00 | 00:00:00 | 00:00:00 | |
| OE5MMP-10 | 2026-09-03 00:03:27 | 49.23971 | 17.65320 | 108° | 37km/h | 17246m | 4.1m/s | 0°C | 0% | 0hPa | 2.7V | 00:00:00 | 01:17:55 | 00:00:00 | |
| DO3MHA-11 | 2026-09-03 00:03:25 | 49.23977 | 17.65289 | 104° | 35km/h | 17236m | 4.0m/s | -52.7°C | 3.9% | 0hPa | 2.7V | 00:00:00 | 01:17:53 | 00:00:00 | |
| PETON7-10 | 2026-09-03 00:03:24 | 49.23979 | 17.65273 | 98° | 33km/h | 17232m | 4.5m/s | -52.7°C | 3.8% | 0hPa | 2.7V | 00:00:00 | 00:00:00 | 00:00:00 | |
| OM5KV | 2026-09-03 00:03:23 | 49.23978 | 17.65273 | 99° | 40km/h | 17232m | 4.6m/s | -52.8°C | 1.2% | 0hPa | 2.6V | 00:00:00 | 00:00:00 | 00:00:00 | |
| OE5MMP-10 | 2026-09-03 00:03:17 | 49.23979 | 17.65182 | 100° | 29km/h | 17197m | 5.3m/s | 0°C | 0% | 0hPa | 2.6V | 00:00:00 | 01:17:45 | 00:00:00 | |
| DO3MHA-11 | 2026-09-03 00:03:16 | 49.23982 | 17.65161 | 111° | 29km/h | 17187m | 6.0m/s | -52.7°C | 3.9% | 0hPa | 2.6V | 00:00:00 | 01:17:43 | 08:30:00 | |
| OE3JTB-15 | 2026-09-03 00:03:14 | 49.23985 | 17.65149 | 112° | 29km/h | 17181m | 5.5m/s | -52.6°C | 3.8% | 0hPa | 2.6V | 00:00:00 | 00:00:00 | 00:00:00 | |
| OM5KV | 2026-09-03 00:03:12 | 49.23988 | 17.65137 | 111° | 35km/h | 17177m | 3.4m/s | -52.7°C | 1.2% | 0hPa | 2.6V | 00:00:00 | 00:00:00 | 00:00:00 | |
| PG1ADW-2 | 2026-09-03 00:03:10 | 49.23994 | 17.65101 | 96° | 27km/h | 17162m | 3.8m/s | -52.6°C | 3.8% | 0hPa | 2.6V | 00:00:00 | 00:00:00 | 00:00:00 | |
| PETON7-10 | 2026-09-03 00:03:09 | 49.23995 | 17.65090 | 92° | 29km/h | 17158m | 4.2m/s | -52.6°C | 3.8% | 0hPa | 2.7V | 00:00:00 | 00:00:00 | 00:00:00 | |
| OE5DXL-15 | 2026-09-03 00:03:07 | 49.23995 | 17.65062 | 95° | 29km/h | 17142m | 5.5m/s | -52.6°C | 3.9% | 0hPa | 2.7V | 00:00:00 | 00:00:00 | 00:00:00 | |
| DO3MHA-11 | 2026-09-03 00:03:05 | 49.23996 | 17.65054 | 104° | 31km/h | 17138m | 3.5m/s | -52.6°C | 3.9% | 0hPa | 2.7V | 00:00:00 | 01:17:33 | 00:00:00 | |
| OM5KV | 2026-09-03 00:03:02 | 49.24095 | 17.64718 | 124° | 40km/h | 16984m | 5.3m/s | -52.5°C | 1.2% | 0hPa | 2.7V | 00:00:00 | 00:00:00 | 00:00:00 | |
| OE3OSB-13 | 2026-09-03 00:03:00 | 49.24123 | 17.64650 | 118° | 44km/h | 16958m | 4.3m/s | -52.5°C | 1.1% | -1.0hPa | 2.7V | 00:00:00 | 00:00:00 | 00:00:00 | |
| OE5MMP-10 | 2026-09-03 00:02:59 | 49.24123 | 17.64650 | 119° | 42km/h | 16958m | 4.2m/s | 0°C | 0% | 0hPa | 2.7V | 00:00:00 | 01:16:57 | 00:00:00 | |
| OM5KV | 2026-09-03 00:02:56 | 49.24128 | 17.64635 | 118° | 42km/h | 16954m | 4.3m/s | -52.5°C | 1.2% | 0hPa | 2.7V | 00:00:00 | 00:00:00 | 00:00:00 | |
| OM5KV | 2026-09-03 00:02:55 | 49.24133 | 17.64621 | 119° | 40km/h | 16948m | 5.7m/s | -52.6°C | 1.2% | 0hPa | 2.7V | 00:00:00 | 00:00:00 | 00:00:00 | |
| PETON7-10 | 2026-09-03 00:02:51 | 49.24146 | 17.64580 | 116° | 46km/h | 16935m | 5.7m/s | -52.8°C | 3.9% | 0hPa | 2.7V | 00:00:00 | 00:00:00 | 00:00:00 | |
| DO3MHA-11 | 2026-09-03 00:02:48 | 49.24158 | 17.64534 | 106° | 46km/h | 16921m | 5.3m/s | -52.8°C | 3.9% | 0hPa | 2.7V | 00:00:00 | 01:16:49 | 00:00:00 | |
| OM5KV | 2026-09-03 00:02:45 | 49.24158 | 17.64534 | 107° | 44km/h | 16921m | 5.3m/s | -52.8°C | 1.2% | 0hPa | 2.7V | 00:00:00 | 00:00:00 | 00:00:00 | |
| OE5MMP-10 | 2026-09-03 00:02:42 | 49.24163 | 17.64500 | 102° | 46km/h | 16912m | 5.1m/s | 0°C | 0% | 0hPa | 2.7V | 00:00:00 | 01:16:47 | 00:00:00 | |
| OM5KV | 2026-09-03 00:02:39 | 49.24168 | 17.64464 | 105° | 49km/h | 16902m | 3.8m/s | -52.7°C | 1.3% | 0hPa | 2.7V | 00:00:00 | 00:00:00 | 00:00:00 | |
| OE3JTB-15 | 2026-09-03 00:02:38 | 49.24177 | 17.64413 | 106° | 44km/h | 16889m | 3.6m/s | -52.7°C | 3.9% | 0hPa | 2.7V | 00:00:00 | 00:00:00 | 00:00:00 | |
| POL1PZ | 2026-09-03 00:02:34 | 49.24180 | 17.64397 | 109° | 44km/h | 16884m | 4.5m/s | -52.7°C | 1.2% | 0hPa | 2.6V | 00:00:00 | 00:00:00 | 00:00:00 | |
| OM5KV | 2026-09-03 00:02:33 | 49.24183 | 17.64381 | 111° | 46km/h | 16880m | 5.2m/s | -52.7°C | 1.2% | 0hPa | 2.6V | 00:00:00 | 00:00:00 | 00:00:00 | |
| PG1ADW-2 | 2026-09-03 00:02:32 | 49.24192 | 17.64347 | 110° | 44km/h | 16871m | 3.3m/s | -52.7°C | 3.9% | 0hPa | 2.6V | 00:00:00 | 00:00:00 | 08:30:00 | |
| PETON7-10 | 2026-09-03 00:02:30 | 49.24195 | 17.64330 | 108° | 44km/h | 16866m | 5.4m/s | -52.7°C | 3.9% | 0hPa | 2.7V | 00:00:00 | 01:16:37 | 00:00:00 | |
| OM5KV | 2026-09-03 00:02:29 | 49.24195 | 17.64330 | 108° | 46km/h | 16866m | 5.4m/s | -52.7°C | 1.2% | 0hPa | 2.7V | 00:00:00 | 00:00:00 | 00:00:00 | |
| OE5DXL-15 | 2026-09-03 00:02:27 | 49.24204 | 17.64283 | 106° | 44km/h | 16852m | 5.8m/s | -52.7°C | 3.9% | 0hPa | 2.7V | 00:00:00 | 00:00:00 | 00:00:00 | |
| OM5KV | 2026-09-03 00:02:26 | 49.24204 | 17.64283 | 106° | 42km/h | 16852m | 5.9m/s | -52.7°C | 1.2% | 0hPa | 2.7V | 00:00:00 | 00:00:00 | 00:00:00 | |
| OE5MMP-10 | 2026-09-03 00:02:25 | 49.24206 | 17.64267 | 105° | 44km/h | 16847m | 4.3m/s | 0°C | 0% | 0hPa | 2.7V | 00:00:00 | 00:00:00 | 00:00:00 | |
| OM5KV | 2026-09-03 00:02:22 | 49.24211 | 17.64236 | 102° | 40km/h | 16837m | 5.2m/s | -52.8°C | 1.2% | 0hPa | 2.7V | 00:00:00 | 00:00:00 | 00:00:00 | |
| DO3MHA-11 | 2026-09-03 00:02:20 | 49.24216 | 17.64204 | 104° | 46km/h | 16827m | 5.3m/s | -52.8°C | 4.0% | 0hPa | 2.7V | 00:00:00 | 01:16:29 | 00:00:00 | |
| OM5KV | 2026-09-03 00:02:19 | 49.24216 | 17.64204 | 105° | 44km/h | 16827m | 5.4m/s | -52.9°C | 1.3% | 0hPa | 2.7V | 00:00:00 | 00:00:00 | 00:00:00 | |
| OE5DRO-10 | 2026-09-03 00:02:18 | 49.24219 | 17.64188 | 107° | 44km/h | 16822m | 5.1m/s | -52.8°C | 4.0% | 0hPa | 2.7V | 00:00:00 | 00:00:00 | 00:00:00 | |
| OE3OSB-13 | 2026-09-03 00:02:17 | 49.24315 | 17.63880 | 117° | 46km/h | 16723m | 4.1m/s | -52.4°C | 1.1% | -1.0hPa | 2.7V | 00:00:00 | 00:00:00 | 00:00:00 | |
| OM5KV | 2026-09-03 00:02:13 | 49.24230 | 17.64136 | 113° | 46km/h | 16808m | 4.0m/s | -52.9°C | 1.3% | 0hPa | 2.7V | 00:00:00 | 00:00:00 | 00:00:00 | |
| OM5KV | 2026-09-03 00:02:12 | 49.24235 | 17.64119 | 115° | 47km/h | 16803m | 4.1m/s | -52.8°C | 1.3% | 0hPa | 2.7V | 00:00:00 | 00:00:00 | 00:00:00 | |
| OE5MMP-10 | 2026-09-03 00:02:11 | 49.24240 | 17.64103 | 116° | 49km/h | 16798m | 5.7m/s | 0°C | 0% | 0hPa | 2.7V | 00:00:00 | 01:16:23 | 00:00:00 | |
| PETON7-10 | 2026-09-03 00:02:10 | 49.24245 | 17.64086 | 117° | 44km/h | 16794m | 4.3m/s | -52.7°C | 4.0% | 0hPa | 2.7V | 00:00:00 | 00:00:00 | 00:00:00 | |
| POL1PZ | 2026-09-03 00:02:09 | 49.24255 | 17.64054 | 116° | 42km/h | 16784m | 5.2m/s | -52.7°C | 1.3% | 0hPa | 2.6V | 00:00:00 | 00:00:00 | 00:00:00 | |
| DO3MHA-11 | 2026-09-03 00:02:07 | 49.24260 | 17.64040 | 116° | 42km/h | 16780m | 4.0m/s | -52.7°C | 3.9% | 0hPa | 2.6V | 00:00:00 | 01:16:19 | 00:00:00 | |
| PG1ADW-2 | 2026-09-03 00:02:03 | 49.24264 | 17.64027 | 118° | 44km/h | 16775m | 5.2m/s | -52.6°C | 3.9% | 0hPa | 2.6V | 00:00:00 | 00:00:00 | 00:00:00 | |
| OE3JTB-15 | 2026-09-03 00:01:59 | 49.24292 | 17.63942 | 119° | 47km/h | 16744m | 6.0m/s | -52.4°C | 3.9% | 0hPa | 2.6V | 00:00:00 | 00:00:00 | 00:00:00 | |
| OM5KV | 2026-09-03 00:01:57 | 49.24298 | 17.63927 | 122° | 46km/h | 16739m | 5.0m/s | -52.4°C | 1.2% | 0hPa | 2.6V | 00:00:00 | 00:00:00 | 00:00:00 | |
| OE5DRO-10 | 2026-09-03 00:01:56 | 49.24309 | 17.63896 | 120° | 46km/h | 16729m | 5.9m/s | -52.3°C | 3.9% | 0hPa | 2.6V | 00:00:00 | 00:00:00 | 08:30:00 | |
| DO3MHA-11 | 2026-09-03 00:01:55 | 49.24309 | 17.63896 | 120° | 47km/h | 16729m | 5.9m/s | -52.3°C | 3.9% | 0hPa | 2.7V | 00:00:00 | 01:16:09 | 00:00:00 | |
| PETON7-10 | 2026-09-03 00:01:52 | 49.24321 | 17.63864 | 118° | 46km/h | 16719m | 4.2m/s | -52.3°C | 3.9% | 0hPa | 2.7V | 00:00:00 | 00:00:00 | 00:00:00 | |
| OM5KV | 2026-09-03 00:01:50 | 49.24321 | 17.63864 | 119° | 49km/h | 16719m | 4.3m/s | -52.4°C | 1.2% | 0hPa | 2.7V | 00:00:00 | 00:00:00 | 00:00:00 | |
| OE5DXL-15 | 2026-09-03 00:01:49 | 49.24339 | 17.63813 | 118° | 47km/h | 16704m | 5.2m/s | -52.5°C | 3.9% | 0hPa | 2.7V | 00:00:00 | 00:00:00 | 00:00:00 | |
| OM5KV | 2026-09-03 00:01:46 | 49.24353 | 17.63766 | 116° | 42km/h | 16690m | 4.5m/s | -52.6°C | 1.3% | 0hPa | 2.7V | 00:00:00 | 00:00:00 | 00:00:00 | |
| OM5KV | 2026-09-03 00:01:45 | 49.24358 | 17.63752 | 119° | 40km/h | 16685m | 5.4m/s | -52.6°C | 1.3% | 0hPa | 2.7V | 00:00:00 | 00:00:00 | 00:00:00 | |
| OE5MMP-10 | 2026-09-03 00:01:42 | 49.24373 | 17.63709 | 117° | 47km/h | 16671m | 5.0m/s | 0°C | 0% | 0hPa | 2.7V | 00:00:00 | 01:15:57 | 00:00:00 | |
| OE3OSB-13 | 2026-09-03 00:01:41 | 49.24384 | 17.63678 | 117° | 44km/h | 16661m | 5.3m/s | -52.7°C | 1.2% | -1.0hPa | 2.7V | 00:00:00 | 00:00:00 | 00:00:00 | |
| OM5KV | 2026-09-03 00:01:37 | 49.24389 | 17.63663 | 121° | 46km/h | 16656m | 5.1m/s | -52.7°C | 1.3% | 0hPa | 2.7V | 00:00:00 | 00:00:00 | 00:00:00 | |
| OE5DRO-10 | 2026-09-03 00:01:34 | 49.24410 | 17.63597 | 111° | 47km/h | 16638m | 4.5m/s | -52.5°C | 4.0% | 0hPa | 2.7V | 00:00:00 | 00:00:00 | 00:00:00 | |
| DO3MHA-11 | 2026-09-03 00:01:33 | 49.24414 | 17.63578 | 112° | 49km/h | 16632m | 6.0m/s | -52.5°C | 3.9% | 0hPa | 2.7V | 00:00:00 | 01:15:49 | 00:00:00 | |
| OM5KV | 2026-09-03 00:01:29 | 49.24419 | 17.63560 | 114° | 51km/h | 16627m | 4.5m/s | -52.5°C | 1.3% | 0hPa | 2.7V | 00:00:00 | 00:00:00 | 00:00:00 | |
| OE5MMP-10 | 2026-09-03 00:01:28 | 49.24425 | 17.63542 | 113° | 57km/h | 16623m | 4.1m/s | 0°C | 0% | 0hPa | 2.7V | 00:00:00 | 01:15:47 | 00:00:00 | |
| OE3JTB-15 | 2026-09-03 00:01:26 | 49.24446 | 17.63466 | 118° | 49km/h | 16602m | 5.3m/s | -52.4°C | 3.9% | 0hPa | 2.7V | 00:00:00 | 01:15:43 | 00:00:00 | |
| HA6NAB-11 | 2026-09-03 00:01:18 | 49.24471 | 17.63390 | 120° | 40km/h | 16576m | 5.4m/s | -52.3°C | 0% | 0hPa | 2.7V | 00:00:00 | 00:00:00 | 00:00:00 | |
| PETON7-10 | 2026-09-03 00:01:17 | 49.24476 | 17.63376 | 118° | 47km/h | 16571m | 4.1m/s | -52.3°C | 3.9% | 0hPa | 2.7V | 00:00:00 | 00:00:00 | 00:00:00 | |
| OM5KV | 2026-09-03 00:01:15 | 49.24476 | 17.63376 | 119° | 44km/h | 16571m | 4.2m/s | -52.3°C | 1.3% | 0hPa | 2.6V | 00:00:00 | 00:00:00 | 00:00:00 | |
| OM5KV | 2026-09-03 00:01:13 | 49.24481 | 17.63361 | 116° | 46km/h | 16566m | 5.8m/s | -52.3°C | 1.3% | 0hPa | 2.6V | 00:00:00 | 00:00:00 | 00:00:00 | |
| OE5DXL-15 | 2026-09-03 00:01:11 | 49.24491 | 17.63327 | 114° | 55km/h | 16556m | 5.5m/s | -52.3°C | 3.9% | 0hPa | 2.6V | 00:00:00 | 00:00:00 | 00:00:00 | |
| OE5DRO-10 | 2026-09-03 00:01:08 | 49.24506 | 17.63274 | 112° | 53km/h | 16540m | 5.9m/s | -52.3°C | 3.9% | 0hPa | 2.6V | 00:00:00 | 00:00:00 | 00:00:00 | |
| HA6NAB-11 | 2026-09-03 00:01:07 | 49.24510 | 17.63256 | 116° | 49km/h | 16535m | 4.4m/s | -52.4°C | 0% | 0hPa | 2.6V | 00:00:00 | 00:00:00 | 00:00:00 | |
| DO3MHA-11 | 2026-09-03 00:01:06 | 49.24516 | 17.63240 | 120° | 47km/h | 16530m | 6.2m/s | -52.4°C | 3.9% | 0hPa | 2.6V | 00:00:00 | 01:15:29 | 00:00:00 | |
| OM5KV | 2026-09-03 00:00:59 | 49.24536 | 17.63198 | 132° | 44km/h | 16513m | 6.4m/s | -52.5°C | 1.2% | 0hPa | 2.6V | 00:00:00 | 00:00:00 | 00:00:00 | |
| OE3OSB-13 | 2026-09-03 00:00:58 | 49.24550 | 17.63171 | 122° | 46km/h | 16503m | 2.8m/s | -52.5°C | 1.2% | -1.0hPa | 2.6V | 00:00:00 | 00:00:00 | 00:00:00 | |
| HA6NAB-11 | 2026-09-03 00:00:57 | 49.24544 | 17.63185 | 129° | 46km/h | 16507m | 5.1m/s | -52.5°C | 0% | 0hPa | 2.6V | 00:00:00 | 00:00:00 | 00:00:00 | |
| OM5KV | 2026-09-03 00:00:56 | 49.24550 | 17.63171 | 124° | 47km/h | 16503m | 2.8m/s | -52.5°C | 1.3% | 0hPa | 2.6V | 00:00:00 | 00:00:00 | 00:00:00 | |
| PETON7-10 | 2026-09-03 00:00:54 | 49.24563 | 17.63138 | 118° | 58km/h | 16494m | 6.4m/s | -52.6°C | 4.0% | 0hPa | 2.6V | 00:00:00 | 00:00:00 | 00:00:00 | |
| OM5KV | 2026-09-03 00:00:52 | 49.24569 | 17.63120 | 116° | 55km/h | 16488m | 5.6m/s | -52.6°C | 1.3% | 0hPa | 2.6V | 00:00:00 | 00:00:00 | 00:00:00 | |
| OM5KV | 2026-09-03 00:00:51 | 49.24581 | 17.63081 | 118° | 58km/h | 16477m | 5.7m/s | -52.7°C | 1.3% | 0hPa | 2.6V | 00:00:00 | 00:00:00 | 00:00:00 | |
| HA6NAB-11 | 2026-09-03 00:00:50 | 49.24588 | 17.63061 | 117° | 58km/h | 16471m | 5.0m/s | -52.7°C | 0% | 0hPa | 2.6V | 00:00:00 | 00:00:00 | 00:00:00 | |
| OM5KV | 2026-09-03 00:00:49 | 49.24610 | 17.62975 | 110° | 60km/h | 16447m | 7.0m/s | -52.6°C | 1.3% | 0hPa | 2.6V | 00:00:00 | 00:00:00 | 00:00:00 | |
| HA6NAB-11 | 2026-09-03 00:00:48 | 49.24620 | 17.62931 | 110° | 60km/h | 16437m | 3.2m/s | -52.5°C | 0% | 0hPa | 2.6V | 00:00:00 | 00:00:00 | 00:00:00 | |
| OE5MMP-10 | 2026-09-03 00:00:47 | 49.24629 | 17.62886 | 105° | 60km/h | 16427m | 6.2m/s | 0°C | 0% | 0hPa | 2.6V | 00:00:00 | 01:15:10 | 00:00:00 | |
| OM5KV | 2026-09-03 00:00:46 | 49.24636 | 17.62841 | 106° | 60km/h | 16416m | 6.1m/s | -52.6°C | 1.2% | 0hPa | 2.6V | 00:00:00 | 00:00:00 | 00:00:00 | |
| PETON7-10 | 2026-09-03 00:00:45 | 49.24640 | 17.62819 | 108° | 55km/h | 16410m | 4.7m/s | -52.6°C | 3.9% | 0hPa | 2.6V | 00:00:00 | 01:15:07 | 00:00:00 | |
| OE5DXL-15 | 2026-09-03 00:00:43 | 49.24654 | 17.62751 | 106° | 55km/h | 16395m | 4.4m/s | -52.7°C | 3.9% | 0hPa | 2.6V | 00:00:00 | 00:00:00 | 00:00:00 | |
| HA6NAB-11 | 2026-09-03 00:00:42 | 49.24654 | 17.62751 | 107° | 62km/h | 16395m | 4.5m/s | -52.7°C | 0% | 0hPa | 2.6V | 00:00:00 | 00:00:00 | 00:00:00 | |
| OM5KV | 2026-09-03 00:00:40 | 49.24658 | 17.62729 | 108° | 60km/h | 16389m | 6.1m/s | -52.8°C | 1.3% | 0hPa | 2.6V | 00:00:00 | 00:00:00 | 00:00:00 | |
| OE5MMP-10 | 2026-09-03 00:00:36 | 49.24671 | 17.62664 | 105° | 55km/h | 16372m | 5.9m/s | 0°C | 0% | 0hPa | 2.6V | 00:00:00 | 01:15:00 | 00:00:00 | |
| DO3MHA-11 | 2026-09-03 00:00:35 | 49.24675 | 17.62644 | 103° | 51km/h | 16367m | 3.8m/s | -52.9°C | 4.1% | 0hPa | 2.6V | 00:00:00 | 01:14:59 | 00:00:00 | |
| PG1ADW-2 | 2026-09-03 00:00:34 | 49.24677 | 17.62625 | 104° | 53km/h | 16363m | 5.7m/s | -52.9°C | 4.1% | 0hPa | 2.6V | 00:00:00 | 00:00:00 | 00:00:00 | |
| POL1PZ | 2026-09-03 00:00:33 | 49.24680 | 17.62607 | 105° | 47km/h | 16357m | 5.3m/s | -52.9°C | 1.3% | 0hPa | 2.6V | 00:00:00 | 00:00:00 | 00:00:00 | |
| OM5KV | 2026-09-03 00:00:32 | 49.24683 | 17.62589 | 104° | 47km/h | 16352m | 5.1m/s | -52.9°C | 1.3% | 0hPa | 2.6V | 00:00:00 | 00:00:00 | 00:00:00 | |
| OM5KV | 2026-09-03 00:00:31 | 49.24686 | 17.62571 | 104° | 49km/h | 16346m | 5.3m/s | -52.9°C | 1.4% | 0hPa | 2.6V | 00:00:00 | 00:00:00 | 00:00:00 | |
| OE3OSB-13 | 2026-09-03 00:00:30 | 49.24693 | 17.62533 | 108° | 51km/h | 16337m | 6.1m/s | -52.8°C | 1.2% | -1.0hPa | 2.6V | 00:00:00 | 00:00:00 | 00:00:00 | |
| OE5DRO-10 | 2026-09-03 00:00:29 | 49.24693 | 17.62533 | 109° | 55km/h | 16337m | 6.0m/s | -52.8°C | 4.0% | 0hPa | 2.6V | 00:00:00 | 00:00:00 | 00:00:00 | |
| OM5KV | 2026-09-03 00:00:25 | 49.24706 | 17.62474 | 108° | 55km/h | 16321m | 5.7m/s | -52.7°C | 1.3% | 0hPa | 2.6V | 00:00:00 | 00:00:00 | 00:00:00 | |
| OM5KV | 2026-09-03 00:00:23 | 49.24709 | 17.62454 | 107° | 53km/h | 16316m | 4.2m/s | -52.7°C | 1.3% | 0hPa | 2.6V | 00:00:00 | 00:00:00 | 00:00:00 | |
| OE3JTB-15 | 2026-09-03 00:00:18 | 49.24737 | 17.62323 | 110° | 66km/h | 16279m | 4.9m/s | -52.6°C | 3.9% | 0hPa | 2.6V | 00:00:00 | 00:00:00 | 00:00:00 | |
| OM5KV | 2026-09-03 00:00:17 | 49.24728 | 17.62361 | 109° | 53km/h | 16290m | 4.7m/s | -52.6°C | 1.3% | 0hPa | 2.6V | 00:00:00 | 00:00:00 | 00:00:00 | |
| OM5KV | 2026-09-03 00:00:15 | 49.24732 | 17.62342 | 110° | 53km/h | 16285m | 5.7m/s | -52.6°C | 1.3% | 0hPa | 2.6V | 00:00:00 | 00:00:00 | 00:00:00 | |
| PG1ADW-2 | 2026-09-03 00:00:11 | 49.24755 | 17.62237 | 108° | 64km/h | 16259m | 4.7m/s | -52.7°C | 3.9% | 0hPa | 2.6V | 00:00:00 | 01:14:38 | 00:00:00 | |
| PETON7-10 | 2026-09-03 00:00:10 | 49.24759 | 17.62215 | 108° | 64km/h | 16254m | 6.0m/s | -52.6°C | 3.9% | 0hPa | 2.6V | 00:00:00 | 00:00:00 | 00:00:00 | |
| POL1PZ | 2026-09-03 00:00:09 | 49.24759 | 17.62215 | 109° | 58km/h | 16254m | 6.1m/s | -52.7°C | 1.3% | 0hPa | 2.6V | 00:00:00 | 00:00:00 | 00:00:00 | |
| OE5DXL-15 | 2026-09-03 00:00:08 | 49.24772 | 17.62152 | 106° | 68km/h | 16238m | 5.9m/s | -52.6°C | 3.8% | 0hPa | 2.6V | 00:00:00 | 00:00:00 | 00:00:00 | |
| DO3MHA-11 | 2026-09-03 00:00:01 | 49.24799 | 17.62047 | 115° | 71km/h | 16214m | 5.7m/s | -52.7°C | 3.9% | 0hPa | 2.6V | 00:00:00 | 01:14:29 | 00:00:00 | |
| HA6NAB-11 | 2026-09-02 23:59:57 | 49.24826 | 17.61942 | 110° | 73km/h | 16193m | 4.8m/s | -52.8°C | 0% | 0hPa | 2.6V | 00:00:00 | 00:00:00 | 00:00:00 | |
| OE3OSB-13 | 2026-09-02 23:59:55 | 49.24840 | 17.61862 | 101° | 69km/h | 16178m | 4.4m/s | -52.9°C | 1.2% | -1.0hPa | 2.6V | 00:00:00 | 00:00:00 | 00:00:00 | |
| PETON7-10 | 2026-09-02 23:59:54 | 49.24840 | 17.61862 | 102° | 66km/h | 16178m | 4.3m/s | -52.8°C | 3.9% | 0hPa | 2.6V | 00:00:00 | 01:14:22 | 00:00:00 | |
| DO3MHA-11 | 2026-09-02 23:59:51 | 49.24852 | 17.61788 | 110° | 66km/h | 16164m | 4.2m/s | -53.0°C | 3.8% | 0hPa | 2.6V | 00:00:00 | 01:14:19 | 08:30:00 | |
| PG1ADW-2 | 2026-09-02 23:59:50 | 49.24858 | 17.61764 | 112° | 68km/h | 16159m | 5.1m/s | -53.1°C | 3.9% | 0hPa | 2.6V | 00:00:00 | 00:00:00 | 00:00:00 | |
| POL1PZ | 2026-09-02 23:59:48 | 49.24864 | 17.61740 | 114° | 69km/h | 16154m | 4.6m/s | -53.2°C | 1.3% | 0hPa | 2.6V | 00:00:00 | 00:00:00 | 00:00:00 | |
| OE3JTB-15 | 2026-09-02 23:59:47 | 49.24888 | 17.61645 | 107° | 66km/h | 16135m | 4.6m/s | -53.4°C | 4.1% | 0hPa | 2.6V | 00:00:00 | 01:14:13 | 00:00:00 | |
| OE5DRO-10 | 2026-09-02 23:59:46 | 49.24883 | 17.61668 | 111° | 66km/h | 16140m | 5.6m/s | -53.4°C | 4.0% | 0hPa | 2.6V | 00:00:00 | 00:00:00 | 00:00:00 | |
| DO3MHA-11 | 2026-09-02 23:59:41 | 49.24899 | 17.61543 | 97° | 69km/h | 16114m | 5.3m/s | -53.4°C | 4.1% | 0hPa | 2.7V | 00:00:00 | 01:14:09 | 00:00:00 | |
| PETON7-10 | 2026-09-02 23:59:39 | 49.24903 | 17.61488 | 95° | 64km/h | 16104m | 6.4m/s | -53.5°C | 4.1% | 0hPa | 2.7V | 00:00:00 | 00:00:00 | 00:00:00 | |
| OM5KV | 2026-09-02 23:59:38 | 49.24903 | 17.61488 | 95° | 71km/h | 16104m | 6.4m/s | -53.5°C | 1.4% | 0hPa | 2.7V | 00:00:00 | 00:00:00 | 00:00:00 | |
| OE5DXL-15 | 2026-09-02 23:59:34 | 49.24913 | 17.61354 | 99° | 64km/h | 16080m | 5.8m/s | -53.5°C | 4.1% | 0hPa | 2.7V | 00:00:00 | 00:00:00 | 00:00:00 | |
| DO3MHA-11 | 2026-09-02 23:59:31 | 49.24921 | 17.61282 | 101° | 64km/h | 16065m | 5.2m/s | -53.5°C | 4.1% | 0hPa | 2.6V | 00:00:00 | 01:13:59 | 00:00:00 | |
| PG1ADW-2 | 2026-09-02 23:59:30 | 49.24923 | 17.61259 | 102° | 64km/h | 16061m | 4.6m/s | -53.5°C | 4.1% | 0hPa | 2.6V | 00:00:00 | 00:00:00 | 00:00:00 | |
| OE5DRO-10 | 2026-09-02 23:59:27 | 49.24930 | 17.61190 | 96° | 64km/h | 16047m | 5.1m/s | -53.6°C | 4.2% | 0hPa | 2.6V | 00:00:00 | 00:00:00 | 00:00:00 | |
| OM5KV | 2026-09-02 23:59:26 | 49.24930 | 17.61190 | 97° | 58km/h | 16047m | 5.1m/s | -53.6°C | 1.4% | 0hPa | 2.6V | 00:00:00 | 00:00:00 | 00:00:00 | |
| PETON7-10 | 2026-09-02 23:59:24 | 49.24932 | 17.61117 | 89° | 64km/h | 16031m | 4.8m/s | -53.5°C | 4.2% | 0hPa | 2.6V | 00:00:00 | 00:00:00 | 00:00:00 | |
| OM5KV | 2026-09-02 23:59:23 | 49.24932 | 17.61117 | 90° | 68km/h | 16031m | 4.8m/s | -53.5°C | 1.4% | 0hPa | 2.6V | 00:00:00 | 00:00:00 | 00:00:00 | |
| DO3MHA-11 | 2026-09-02 23:59:21 | 49.24929 | 17.61039 | 87° | 64km/h | 16016m | 3.7m/s | -53.4°C | 4.1% | 0hPa | 2.6V | 00:00:00 | 01:13:49 | 00:00:00 | |
| OE3JTB-15 | 2026-09-02 23:59:18 | 49.24930 | 17.60915 | 92° | 58km/h | 15991m | 3.8m/s | -53.3°C | 4.1% | 0hPa | 2.6V | 00:00:00 | 00:00:00 | 08:30:00 | |
| OM5KV | 2026-09-02 23:59:14 | 49.24930 | 17.60892 | 93° | 60km/h | 15987m | 5.2m/s | -53.3°C | 1.3% | 0hPa | 2.7V | 00:00:00 | 00:00:00 | 00:00:00 | |
| OM5KV | 2026-09-02 23:59:13 | 49.24930 | 17.60868 | 92° | 64km/h | 15982m | 5.3m/s | -53.3°C | 1.4% | 0hPa | 2.7V | 00:00:00 | 00:00:00 | 00:00:00 | |
| DO3MHA-11 | 2026-09-02 23:59:11 | 49.24928 | 17.60795 | 85° | 60km/h | 15966m | 4.3m/s | -53.2°C | 4.1% | 0hPa | 2.7V | 00:00:00 | 01:13:39 | 00:00:00 | |
| PG1ADW-2 | 2026-09-02 23:59:10 | 49.24927 | 17.60770 | 85° | 60km/h | 15961m | 4.7m/s | -53.2°C | 4.1% | 0hPa | 2.7V | 00:00:00 | 00:00:00 | 08:30:00 | |
| PETON7-10 | 2026-09-02 23:59:09 | 49.24925 | 17.60745 | 87° | 60km/h | 15956m | 6.1m/s | -53.2°C | 4.1% | 0hPa | 2.6V | 00:00:00 | 01:13:37 | 00:00:00 | |
| OE5DRO-10 | 2026-09-02 23:59:08 | 49.24924 | 17.60720 | 89° | 60km/h | 15951m | 4.2m/s | -53.1°C | 4.0% | 0hPa | 2.6V | 00:00:00 | 00:00:00 | 00:00:00 | |
| POL1PZ | 2026-09-02 23:59:06 | 49.24924 | 17.60695 | 90° | 64km/h | 15946m | 4.6m/s | -53.2°C | 1.3% | 0hPa | 2.6V | 00:00:00 | 00:00:00 | 00:00:00 | |
| OE5DXL-15 | 2026-09-02 23:59:04 | 49.24923 | 17.60626 | 90° | 58km/h | 15931m | 4.4m/s | -53.0°C | 4.0% | 0hPa | 2.6V | 00:00:00 | 00:00:00 | 00:00:00 | |
| OM5KV | 2026-09-02 23:59:02 | 49.24924 | 17.60605 | 91° | 57km/h | 15926m | 6.0m/s | -53.0°C | 1.3% | 0hPa | 2.6V | 00:00:00 | 00:00:00 | 00:00:00 | |
| OE3OSB-13 | 2026-09-02 23:58:52 | 49.24904 | 17.60356 | 85° | 60km/h | 15871m | 6.1m/s | -52.6°C | 1.2% | -1.0hPa | 2.6V | 00:00:00 | 00:00:00 | 00:00:00 | |
| DO3MHA-11 | 2026-09-02 23:58:51 | 49.24903 | 17.60332 | 90° | 57km/h | 15866m | 4.5m/s | -52.5°C | 3.9% | 0hPa | 2.6V | 00:00:00 | 01:13:19 | 00:00:00 | |
| PG1ADW-2 | 2026-09-02 23:58:50 | 49.24903 | 17.60309 | 90° | 58km/h | 15862m | 3.7m/s | -52.5°C | 3.9% | 0hPa | 2.7V | 00:00:00 | 01:13:18 | 00:00:00 | |
| OE5DRO-10 | 2026-09-02 23:58:49 | 49.24903 | 17.60287 | 88° | 58km/h | 15857m | 5.5m/s | -52.5°C | 3.8% | 0hPa | 2.7V | 00:00:00 | 00:00:00 | 08:30:00 | |
| POL1PZ | 2026-09-02 23:58:45 | 49.24899 | 17.60223 | 85° | 55km/h | 15842m | 5.3m/s | -52.6°C | 1.3% | 0hPa | 2.6V | 00:00:00 | 00:00:00 | 00:00:00 | |
| OM5KV | 2026-09-02 23:58:43 | 49.24896 | 17.60180 | 86° | 58km/h | 15833m | 3.8m/s | 0°C | 0% | 0hPa | 2.6V | 00:00:00 | 00:00:00 | 00:00:00 | |
| DO3MHA-11 | 2026-09-02 23:58:41 | 49.24892 | 17.60112 | 85° | 58km/h | 15819m | 4.2m/s | -52.6°C | 4.0% | 0hPa | 2.6V | 00:00:00 | 01:13:09 | 00:00:00 | |
| PETON7-10 | 2026-09-02 23:58:39 | 49.24890 | 17.60065 | 91° | 55km/h | 15808m | 4.9m/s | -52.7°C | 4.0% | 0hPa | 2.6V | 00:00:00 | 00:00:00 | 00:00:00 | |
| OM5KV | 2026-09-02 23:58:37 | 49.24890 | 17.60040 | 92° | 62km/h | 15804m | 3.5m/s | -52.8°C | 1.3% | 0hPa | 2.6V | 00:00:00 | 00:00:00 | 00:00:00 | |
| OM5KV | 2026-09-02 23:58:36 | 49.24890 | 17.60016 | 90° | 62km/h | 15799m | 5.6m/s | 0°C | 0% | 0hPa | 2.6V | 00:00:00 | 00:00:00 | 00:00:00 | |
| OE5DXL-15 | 2026-09-02 23:58:34 | 49.24887 | 17.59948 | 86° | 51km/h | 15784m | 5.4m/s | -52.6°C | 4.1% | 0hPa | 2.6V | 00:00:00 | 00:00:00 | 00:00:00 | |
| DO3MHA-11 | 2026-09-02 23:58:31 | 49.24885 | 17.59886 | 88° | 49km/h | 15769m | 6.2m/s | -52.6°C | 4.0% | 0hPa | 2.6V | 00:00:00 | 01:12:59 | 00:00:00 | |
| OE5DRO-10 | 2026-09-02 23:58:30 | 49.24884 | 17.59868 | 87° | 51km/h | 15764m | 4.2m/s | -52.5°C | 4.1% | 0hPa | 2.6V | 00:00:00 | 00:00:00 | 00:00:00 | |
| OM5KV | 2026-09-02 23:58:26 | 49.24884 | 17.59814 | 91° | 51km/h | 15750m | 4.6m/s | -52.5°C | 0% | 0hPa | 2.6V | 00:00:00 | 00:00:00 | 00:00:00 | |
| OM5KV | 2026-09-02 23:58:25 | 49.24884 | 17.59794 | 89° | 53km/h | 15745m | 4.5m/s | 0°C | 0% | 0hPa | 2.6V | 00:00:00 | 00:00:00 | 00:00:00 | |
| PETON7-10 | 2026-09-02 23:58:24 | 49.24882 | 17.59753 | 86° | 51km/h | 15735m | 4.5m/s | -52.3°C | 3.9% | 0hPa | 2.6V | 00:00:00 | 01:12:52 | 00:00:00 | |
| DO3MHA-11 | 2026-09-02 23:58:21 | 49.24880 | 17.59692 | 91° | 51km/h | 15720m | 4.0m/s | -52.2°C | 3.9% | 0hPa | 2.6V | 00:00:00 | 01:12:49 | 08:30:00 | |
| OM5KV | 2026-09-02 23:58:20 | 49.24880 | 17.59692 | 91° | 53km/h | 15720m | 4.1m/s | -52.3°C | 0% | 0hPa | 2.6V | 00:00:00 | 00:00:00 | 00:00:00 | |
| OE3JTB-15 | 2026-09-02 23:58:17 | 49.24881 | 17.59574 | 98° | 47km/h | 15691m | 4.2m/s | -52.1°C | 3.9% | 0hPa | 2.6V | 00:00:00 | 01:12:43 | 00:00:00 | |
| OM5KV | 2026-09-02 23:58:15 | 49.24881 | 17.59574 | 99° | 49km/h | 15691m | 4.2m/s | -52.2°C | 0% | 0hPa | 2.6V | 00:00:00 | 00:00:00 | 00:00:00 | |
| OM5KV | 2026-09-02 23:58:13 | 49.24883 | 17.59555 | 98° | 49km/h | 15686m | 5.5m/s | 0°C | 0% | 0hPa | 2.6V | 00:00:00 | 00:00:00 | 00:00:00 | |
| OE5DRO-10 | 2026-09-02 23:58:11 | 49.24887 | 17.59499 | 97° | 47km/h | 15671m | 5.5m/s | -52.0°C | 3.8% | 0hPa | 2.6V | 00:00:00 | 00:00:00 | 00:00:00 | |
| PG1ADW-2 | 2026-09-02 23:58:10 | 49.24888 | 17.59479 | 97° | 47km/h | 15666m | 5.1m/s | -51.9°C | 3.9% | 0hPa | 2.6V | 00:00:00 | 00:00:00 | 00:00:00 | |
| PETON7-10 | 2026-09-02 23:58:09 | 49.24890 | 17.59459 | 96° | 47km/h | 15661m | 4.8m/s | -51.9°C | 3.9% | 0hPa | 2.6V | 00:00:00 | 00:00:00 | 08:30:00 | |
| OM5KV | 2026-09-02 23:58:08 | 49.24890 | 17.59459 | 97° | 53km/h | 15661m | 4.9m/s | -52.0°C | 0% | 0hPa | 2.6V | 00:00:00 | 00:00:00 | 00:00:00 | |
| OE5DXL-15 | 2026-09-02 23:58:04 | 49.24894 | 17.59367 | 99° | 47km/h | 15634m | 3.8m/s | -51.8°C | 3.8% | 0hPa | 2.6V | 00:00:00 | 00:00:00 | 08:30:00 | |
| OM5KV | 2026-09-02 23:58:02 | 49.24896 | 17.59349 | 99° | 44km/h | 15630m | 5.2m/s | -51.8°C | 0% | 0hPa | 2.7V | 00:00:00 | 00:00:00 | 00:00:00 | |
| DO3MHA-11 | 2026-09-02 23:58:00 | 49.24901 | 17.59298 | 102° | 47km/h | 15614m | 5.7m/s | -51.8°C | 3.8% | 0hPa | 2.7V | 00:00:00 | 01:12:28 | 00:00:00 | |
| OM5KV | 2026-09-02 23:57:56 | 49.24907 | 17.59242 | 97° | 49km/h | 15600m | 4.2m/s | -51.8°C | 0% | 0hPa | 2.7V | 00:00:00 | 00:00:00 | 00:00:00 | |
| PETON7-10 | 2026-09-02 23:57:54 | 49.24913 | 17.59186 | 102° | 47km/h | 15584m | 4.5m/s | -51.7°C | 3.7% | 0hPa | 2.7V | 00:00:00 | 00:00:00 | 00:00:00 | |
| OE5DRO-10 | 2026-09-02 23:57:52 | 49.24917 | 17.59152 | 101° | 49km/h | 15573m | 5.1m/s | -51.7°C | 3.7% | 0hPa | 2.7V | 00:00:00 | 00:00:00 | 00:00:00 | |
| DO3MHA-11 | 2026-09-02 23:57:50 | 49.24922 | 17.59120 | 108° | 46km/h | 15563m | 5.5m/s | -51.6°C | 3.7% | 0hPa | 2.7V | 00:00:00 | 01:12:18 | 00:00:00 | |
| OE3JTB-15 | 2026-09-02 23:57:48 | 49.24933 | 17.59071 | 108° | 53km/h | 15548m | 5.4m/s | -51.6°C | 3.7% | 0hPa | 2.6V | 00:00:00 | 00:00:00 | 00:00:00 | |
| POL1PZ | 2026-09-02 23:57:44 | 49.24940 | 17.59034 | 109° | 51km/h | 15537m | 6.3m/s | -51.7°C | 1.3% | 0hPa | 2.6V | 00:00:00 | 00:00:00 | 00:00:00 | |
| PETON7-10 | 2026-09-02 23:57:39 | 49.24964 | 17.58920 | 111° | 51km/h | 15507m | 5.6m/s | -52.0°C | 3.8% | 0hPa | 2.6V | 00:00:00 | 01:12:07 | 00:00:00 | |
| OE5DXL-15 | 2026-09-02 23:57:34 | 49.24988 | 17.58834 | 120° | 58km/h | 15480m | 5.4m/s | -52.1°C | 3.8% | 0hPa | 2.6V | 00:00:00 | 00:00:00 | 00:00:00 | |
| OE5DRO-10 | 2026-09-02 23:57:33 | 49.24994 | 17.58817 | 119° | 55km/h | 15475m | 5.1m/s | -52.1°C | 3.8% | 0hPa | 2.6V | 00:00:00 | 00:00:00 | 00:00:00 | |
| PG1ADW-2 | 2026-09-02 23:57:30 | 49.25012 | 17.58762 | 117° | 58km/h | 15460m | 5.3m/s | -52.2°C | 3.9% | 0hPa | 2.6V | 00:00:00 | 01:11:58 | 00:00:00 | |
| DO3MHA-11 | 2026-09-02 23:57:27 | 49.25032 | 17.58706 | 118° | 57km/h | 15446m | 4.2m/s | -52.4°C | 3.9% | 0hPa | 2.6V | 00:00:00 | 01:11:55 | 00:00:00 | |
| PETON7-10 | 2026-09-02 23:57:24 | 49.25049 | 17.58648 | 115° | 60km/h | 15431m | 5.3m/s | -52.6°C | 3.9% | 0hPa | 2.6V | 00:00:00 | 00:00:00 | 00:00:00 | |
| POL1PZ | 2026-09-02 23:57:23 | 49.25049 | 17.58648 | 116° | 58km/h | 15431m | 5.4m/s | -52.6°C | 1.4% | 0hPa | 2.7V | 00:00:00 | 00:00:00 | 00:00:00 | |
| OE3OSB-13 | 2026-09-02 23:57:19 | 49.25079 | 17.58550 | 111° | 53km/h | 15406m | 3.7m/s | -52.8°C | 1.3% | -1.0hPa | 2.7V | 00:00:00 | 00:00:00 | 00:00:00 | |
| OE3JTB-15 | 2026-09-02 23:57:18 | 49.25090 | 17.58511 | 116° | 64km/h | 15396m | 4.5m/s | -52.8°C | 4.1% | 0hPa | 2.7V | 00:00:00 | 00:00:00 | 00:00:00 | |
| DO3MHA-11 | 2026-09-02 23:57:16 | 49.25097 | 17.58490 | 116° | 68km/h | 15391m | 4.2m/s | -52.8°C | 4.0% | 0hPa | 2.7V | 00:00:00 | 01:11:44 | 00:00:00 | |
| OE5DRO-10 | 2026-09-02 23:57:14 | 49.25109 | 17.58446 | 112° | 66km/h | 15381m | 4.9m/s | -52.8°C | 4.1% | 0hPa | 2.7V | 00:00:00 | 00:00:00 | 00:00:00 | |
| PG1ADW-2 | 2026-09-02 23:57:10 | 49.25134 | 17.58347 | 112° | 64km/h | 15363m | 3.8m/s | -52.8°C | 4.0% | 0hPa | 2.7V | 00:00:00 | 00:00:00 | 00:00:00 | |
| PETON7-10 | 2026-09-02 23:57:09 | 49.25140 | 17.58322 | 110° | 64km/h | 15358m | 6.0m/s | -52.9°C | 4.1% | 0hPa | 2.7V | 00:00:00 | 00:00:00 | 00:00:00 | |
| DO3MHA-11 | 2026-09-02 23:57:05 | 49.25164 | 17.58227 | 114° | 64km/h | 15338m | 4.4m/s | -52.9°C | 4.1% | 0hPa | 2.7V | 00:00:00 | 01:11:33 | 00:00:00 | |
| OE5DXL-15 | 2026-09-02 23:57:04 | 49.25171 | 17.58205 | 115° | 60km/h | 15334m | 4.5m/s | -52.9°C | 4.1% | 0hPa | 2.6V | 00:00:00 | 00:00:00 | 00:00:00 | |
| POL1PZ | 2026-09-02 23:57:03 | 49.25171 | 17.58205 | 115° | 62km/h | 15334m | 4.5m/s | -52.9°C | 1.5% | 0hPa | 2.6V | 00:00:00 | 00:00:00 | 00:00:00 | |
| OE3OSB-13 | 2026-09-02 23:56:48 | 49.25247 | 17.57837 | 107° | 57km/h | 15257m | 3.8m/s | -52.8°C | 1.3% | -1.0hPa | 2.6V | 00:00:00 | 00:00:00 | 00:00:00 | |
| DO3MHA-11 | 2026-09-02 23:56:45 | 49.25262 | 17.57771 | 111° | 55km/h | 15243m | 4.4m/s | -52.8°C | 4.1% | 0hPa | 2.6V | 00:00:00 | 01:11:13 | 00:00:00 | |
| POL1PZ | 2026-09-02 23:56:43 | 49.25267 | 17.57749 | 111° | 60km/h | 15238m | 5.4m/s | -52.8°C | 1.4% | 0hPa | 2.6V | 00:00:00 | 00:00:00 | 00:00:00 | |
| OE5MMP-10 | 2026-09-02 23:56:40 | 49.25284 | 17.57666 | 105° | 51km/h | 15218m | 4.1m/s | 0°C | 0% | 0hPa | 2.6V | 00:00:00 | 01:11:08 | 00:00:00 | |
| PETON7-10 | 2026-09-02 23:56:39 | 49.25288 | 17.57646 | 105° | 51km/h | 15214m | 4.1m/s | -52.8°C | 4.1% | 0hPa | 2.6V | 00:00:00 | 00:00:00 | 00:00:00 | |
| S52SK | 2026-09-02 23:56:38 | 49.25288 | 17.57646 | 105° | 53km/h | 15214m | 4.1m/s | -52.8°C | 0% | 0hPa | 2.7V | 00:00:00 | 00:00:00 | 00:00:00 | |
| OE5DRO-10 | 2026-09-02 23:56:36 | 49.25297 | 17.57590 | 105° | 47km/h | 15199m | 5.4m/s | -52.9°C | 4.1% | 0hPa | 2.7V | 00:00:00 | 00:00:00 | 00:00:00 | |
| DO3MHA-11 | 2026-09-02 23:56:35 | 49.25300 | 17.57571 | 105° | 53km/h | 15194m | 4.9m/s | -52.9°C | 4.1% | 0hPa | 2.7V | 00:00:00 | 01:11:03 | 08:30:00 | |
| OE5DXL-15 | 2026-09-02 23:56:34 | 49.25303 | 17.57551 | 102° | 44km/h | 15189m | 5.0m/s | -52.9°C | 4.0% | 0hPa | 2.6V | 00:00:00 | 00:00:00 | 00:00:00 | |
| S52SK | 2026-09-02 23:56:33 | 49.25303 | 17.57551 | 103° | 53km/h | 15189m | 5.0m/s | -52.9°C | 0% | 0hPa | 2.7V | 00:00:00 | 00:00:00 | 00:00:00 | |
| PG1ADW-2 | 2026-09-02 23:56:30 | 49.25312 | 17.57467 | 98° | 46km/h | 15169m | 3.2m/s | -52.9°C | 4.1% | 0hPa | 2.7V | 00:00:00 | 00:00:00 | 00:00:00 | |
| S52SK | 2026-09-02 23:56:27 | 49.25315 | 17.57425 | 96° | 51km/h | 15161m | 5.6m/s | -52.9°C | 0% | 0hPa | 2.7V | 00:00:00 | 00:00:00 | 00:00:00 | |
| DO3MHA-11 | 2026-09-02 23:56:25 | 49.25317 | 17.57373 | 95° | 44km/h | 15147m | 5.7m/s | -52.7°C | 4.3% | 0hPa | 2.7V | 00:00:00 | 01:10:53 | 00:00:00 | |
| PETON7-10 | 2026-09-02 23:56:24 | 49.25318 | 17.57357 | 97° | 44km/h | 15142m | 4.5m/s | -52.7°C | 4.2% | 0hPa | 2.7V | 00:00:00 | 00:00:00 | 00:00:00 | |
| POL1PZ | 2026-09-02 23:56:23 | 49.25319 | 17.57357 | 97° | 40km/h | 15142m | 4.5m/s | -52.7°C | 1.5% | 0hPa | 2.7V | 00:00:00 | 00:00:00 | 00:00:00 | |
| OE3JTB-15 | 2026-09-02 23:56:20 | 49.25322 | 17.57294 | 96° | 40km/h | 15123m | 3.4m/s | -52.6°C | 4.1% | 0hPa | 2.7V | 00:00:00 | 00:00:00 | 00:00:00 | |
| OE5DRO-10 | 2026-09-02 23:56:17 | 49.25330 | 17.57242 | 110° | 38km/h | 15110m | 4.2m/s | -52.4°C | 4.0% | 0hPa | 2.7V | 00:00:00 | 00:00:00 | 00:00:00 | |
| DO3MHA-11 | 2026-09-02 23:56:15 | 49.25338 | 17.57207 | 108° | 37km/h | 15100m | 4.8m/s | -52.4°C | 4.0% | 0hPa | 2.7V | 00:00:00 | 01:10:43 | 00:00:00 | |
| PG1ADW-2 | 2026-09-02 23:56:10 | 49.25347 | 17.57126 | 94° | 38km/h | 15076m | 3.9m/s | -52.1°C | 4.0% | 0hPa | 2.7V | 00:00:00 | 01:10:38 | 08:30:00 | |
| PETON7-10 | 2026-09-02 23:56:09 | 49.25347 | 17.57112 | 92° | 38km/h | 15071m | 5.7m/s | -52.1°C | 4.0% | 0hPa | 2.7V | 00:00:00 | 01:10:37 | 00:00:00 | |
| OE5DXL-15 | 2026-09-02 23:56:04 | 49.25350 | 17.57045 | 102° | 40km/h | 15048m | 4.2m/s | -51.9°C | 3.9% | 0hPa | 2.7V | 00:00:00 | 00:00:00 | 00:00:00 | |
| POL1PZ | 2026-09-02 23:56:02 | 49.25352 | 17.57032 | 103° | 33km/h | 15043m | 5.5m/s | -52.0°C | 1.4% | 0hPa | 2.7V | 00:00:00 | 00:00:00 | 00:00:00 | |
| OE3OSB-13 | 2026-09-02 23:55:46 | 49.25379 | 17.56777 | 111° | 42km/h | 14954m | 5.0m/s | -51.9°C | 1.3% | -1.0hPa | 2.7V | 00:00:00 | 00:00:00 | 00:00:00 | |
| POL1PZ | 2026-09-02 23:55:42 | 49.25388 | 17.56728 | 104° | 44km/h | 14939m | 4.4m/s | -51.8°C | 1.5% | 0hPa | 2.7V | 00:00:00 | 00:00:00 | 00:00:00 | |
| HA6NAB-11 | 2026-09-02 23:55:41 | 49.25390 | 17.56712 | 105° | 42km/h | 14935m | 5.1m/s | -51.9°C | 0% | 0hPa | 2.7V | 00:00:00 | 00:00:00 | 00:00:00 | |
| PETON7-10 | 2026-09-02 23:55:39 | 49.25396 | 17.56665 | 97° | 46km/h | 14920m | 4.2m/s | -51.8°C | 4.0% | 0hPa | 2.7V | 00:00:00 | 00:00:00 | 00:00:00 | |
| HA6NAB-11 | 2026-09-02 23:55:35 | 49.25402 | 17.56618 | 109° | 44km/h | 14906m | 3.9m/s | -51.7°C | 0% | 0hPa | 2.7V | 00:00:00 | 00:00:00 | 00:00:00 | |
| OE5DXL-15 | 2026-09-02 23:55:34 | 49.25410 | 17.56585 | 111° | 51km/h | 14896m | 5.2m/s | -51.7°C | 4.0% | 0hPa | 2.7V | 00:00:00 | 00:00:00 | 00:00:00 | |
| PG1ADW-2 | 2026-09-02 23:55:30 | 49.25431 | 17.56514 | 114° | 49km/h | 14877m | 5.2m/s | -51.9°C | 4.0% | 0hPa | 2.7V | 00:00:00 | 00:00:00 | 00:00:00 | |
| DO3MHA-11 | 2026-09-02 23:55:29 | 49.25436 | 17.56495 | 110° | 47km/h | 14872m | 4.8m/s | -51.9°C | 3.9% | 0hPa | 2.7V | 00:00:00 | 01:09:57 | 00:00:00 | |
| PETON7-10 | 2026-09-02 23:55:24 | 49.25454 | 17.56412 | 113° | 51km/h | 14852m | 4.3m/s | -51.9°C | 4.0% | 0hPa | 2.7V | 00:00:00 | 01:09:52 | 00:00:00 | |
| OE3JTB-15 | 2026-09-02 23:55:22 | 49.25463 | 17.56380 | 115° | 51km/h | 14842m | 4.9m/s | -51.9°C | 4.1% | 0hPa | 2.7V | 00:00:00 | 01:09:50 | 00:00:00 | |
| POL1PZ | 2026-09-02 23:55:21 | 49.25463 | 17.56380 | 116° | 47km/h | 14842m | 4.9m/s | -51.9°C | 1.6% | 0hPa | 2.7V | 00:00:00 | 00:00:00 | 00:00:00 | |
| OE5DRO-10 | 2026-09-02 23:55:20 | 49.25475 | 17.56346 | 120° | 53km/h | 14833m | 4.1m/s | -51.9°C | 4.1% | 0hPa | 2.7V | 00:00:00 | 00:00:00 | 00:00:00 | |
| DO3MHA-11 | 2026-09-02 23:55:19 | 49.25482 | 17.56329 | 124° | 53km/h | 14829m | 5.5m/s | 0°C | 0% | 0hPa | 2.7V | 00:00:00 | 01:09:47 | 00:00:00 | |
| HA6NAB-11 | 2026-09-02 23:55:18 | 49.25482 | 17.56329 | 125° | 51km/h | 14829m | 5.6m/s | 0°C | 0% | 0hPa | 2.7V | 00:00:00 | 00:00:00 | 00:00:00 | |
| OE3OSB-13 | 2026-09-02 23:55:15 | 49.25510 | 17.56265 | 120° | 49km/h | 14810m | 4.6m/s | -51.9°C | 1.4% | -1.0hPa | 2.7V | 00:00:00 | 00:00:00 | 00:00:00 | |
| HA6NAB-11 | 2026-09-02 23:55:13 | 49.25516 | 17.56248 | 121° | 49km/h | 14804m | 6.2m/s | 0°C | 0% | 0hPa | 2.7V | 00:00:00 | 00:00:00 | 00:00:00 | |
| OM5KV | 2026-09-02 23:55:12 | 49.25522 | 17.56231 | 119° | 51km/h | 14799m | 3.8m/s | -51.9°C | 1.6% | 0hPa | 2.7V | 00:00:00 | 00:00:00 | 00:00:00 | |
| PG1ADW-2 | 2026-09-02 23:55:10 | 49.25541 | 17.56173 | 116° | 53km/h | 14784m | 4.1m/s | -52.0°C | 4.0% | 0hPa | 2.7V | 00:00:00 | 00:00:00 | 00:00:00 | |
| PETON7-10 | 2026-09-02 23:55:09 | 49.25548 | 17.56152 | 118° | 51km/h | 14779m | 5.9m/s | -52.2°C | 4.1% | 0hPa | 2.6V | 00:00:00 | 00:00:00 | 00:00:00 | |
| HA6NAB-11 | 2026-09-02 23:55:07 | 49.25556 | 17.56131 | 123° | 60km/h | 14774m | 4.8m/s | 0°C | 0% | 0hPa | 2.6V | 00:00:00 | 00:00:00 | 00:00:00 | |
| S52SK | 2026-09-02 23:55:05 | 49.25572 | 17.56093 | 124° | 57km/h | 14766m | 4.9m/s | -52.4°C | 0% | 0hPa | 2.6V | 00:00:00 | 00:00:00 | 00:00:00 | |
| OE5DXL-15 | 2026-09-02 23:55:04 | 49.25585 | 17.56057 | 115° | 55km/h | 14756m | 4.1m/s | -52.3°C | 4.3% | 0hPa | 2.6V | 00:00:00 | 00:00:00 | 00:00:00 | |
| OE5DRO-10 | 2026-09-02 23:55:01 | 49.25596 | 17.56012 | 107° | 55km/h | 14741m | 4.4m/s | -52.2°C | 4.2% | 0hPa | 2.7V | 00:00:00 | 00:00:00 | 00:00:00 | |
| DO3MHA-11 | 2026-09-02 23:54:59 | 49.25600 | 17.55986 | 100° | 55km/h | 14734m | 4.0m/s | 0°C | 0% | 0hPa | 2.6V | 00:00:00 | 01:09:27 | 08:30:00 | |
| PETON7-10 | 2026-09-02 23:54:54 | 49.25616 | 17.55880 | 108° | 60km/h | 14703m | 6.5m/s | -52.1°C | 4.3% | 0hPa | 2.6V | 00:00:00 | 00:00:00 | 00:00:00 | |
| OE3JTB-15 | 2026-09-02 23:54:53 | 49.25621 | 17.55858 | 110° | 58km/h | 14698m | 4.4m/s | -52.1°C | 4.3% | 0hPa | 2.6V | 00:00:00 | 00:00:00 | 08:30:00 | |
| PG1ADW-2 | 2026-09-02 23:54:50 | 49.25632 | 17.55798 | 99° | 58km/h | 14680m | 7.0m/s | -52.0°C | 4.1% | 0hPa | 2.7V | 00:00:00 | 01:09:18 | 00:00:00 | |
| DO3MHA-11 | 2026-09-02 23:54:49 | 49.25634 | 17.55780 | 97° | 64km/h | 14675m | 3.8m/s | 0°C | 0% | 0hPa | 2.7V | 00:00:00 | 01:09:17 | 00:00:00 | |
| OM5KV | 2026-09-02 23:54:46 | 49.25638 | 17.55745 | 110° | 49km/h | 14665m | 6.5m/s | -52.2°C | 1.6% | 0hPa | 2.7V | 00:00:00 | 00:00:00 | 00:00:00 | |
| OE3OSB-13 | 2026-09-02 23:54:44 | 49.25676 | 17.55664 | 128° | 71km/h | 14634m | 12.1m/s | -52.6°C | 1.5% | -1.0hPa | 2.7V | 00:00:00 | 00:00:00 | 00:00:00 | |
| OE5DRO-10 | 2026-09-02 23:54:42 | 49.25687 | 17.55641 | 127° | 60km/h | 14624m | 8.9m/s | -52.6°C | 4.2% | 0hPa | 2.7V | 00:00:00 | 00:00:00 | 00:00:00 | |
| OM5KV | 2026-09-02 23:54:41 | 49.25687 | 17.55641 | 128° | 77km/h | 14624m | 8.9m/s | -52.7°C | 1.7% | 0hPa | 2.7V | 00:00:00 | 00:00:00 | 00:00:00 | |
| POL1PZ | 2026-09-02 23:54:40 | 49.25698 | 17.55617 | 124° | 77km/h | 14616m | 5.8m/s | -52.7°C | 1.7% | 0hPa | 2.7V | 00:00:00 | 00:00:00 | 00:00:00 | |
| PETON7-10 | 2026-09-02 23:54:39 | 49.25717 | 17.55569 | 122° | 57km/h | 14604m | 4.7m/s | -52.9°C | 4.5% | 0hPa | 2.7V | 00:00:00 | 01:09:07 | 00:00:00 | |
| OM5KV | 2026-09-02 23:54:36 | 49.25733 | 17.55528 | 119° | 58km/h | 14592m | 8.8m/s | -53.0°C | 1.8% | 0hPa | 2.7V | 00:00:00 | 00:00:00 | 00:00:00 | |
| OE5DXL-15 | 2026-09-02 23:54:34 | 49.25751 | 17.55475 | 122° | 62km/h | 14573m | 4.1m/s | -52.8°C | 4.5% | 0hPa | 2.7V | 00:00:00 | 00:00:00 | 00:00:00 | |
| PG1ADW-2 | 2026-09-02 23:54:30 | 49.25780 | 17.55406 | 125° | 62km/h | 14549m | 8.9m/s | -52.9°C | 4.5% | 0hPa | 2.7V | 00:00:00 | 00:00:00 | 00:00:00 | |
| HA6NAB-11 | 2026-09-02 23:54:29 | 49.25789 | 17.55387 | 126° | 58km/h | 14542m | 6.1m/s | 0°C | 0% | 0hPa | 2.7V | 00:00:00 | 00:00:00 | 00:00:00 | |
| PETON7-10 | 2026-09-02 23:54:24 | 49.25822 | 17.55286 | 116° | 64km/h | 14506m | 6.0m/s | -52.9°C | 4.5% | 0hPa | 2.7V | 00:00:00 | 00:00:00 | 00:00:00 | |
| OE5DRO-10 | 2026-09-02 23:54:23 | 49.25829 | 17.55264 | 118° | 64km/h | 14499m | 8.6m/s | -52.8°C | 4.4% | 0hPa | 2.7V | 00:00:00 | 00:00:00 | 00:00:00 | |
| POL1PZ | 2026-09-02 23:54:19 | 49.25858 | 17.55202 | 132° | 69km/h | 14478m | 5.9m/s | -52.9°C | 1.7% | 0hPa | 2.7V | 00:00:00 | 00:00:00 | 00:00:00 | |
| OE3OSB-13 | 2026-09-02 23:54:13 | 49.25945 | 17.55050 | 122° | 57km/h | 14420m | 5.2m/s | -53.0°C | 1.6% | -1.0hPa | 2.7V | 00:00:00 | 00:00:00 | 00:00:00 | |
| PG1ADW-2 | 2026-09-02 23:54:10 | 49.25959 | 17.55010 | 116° | 69km/h | 14407m | 6.3m/s | -52.9°C | 4.4% | 0hPa | 2.7V | 00:00:00 | 00:00:00 | 00:00:00 | |
| PETON7-10 | 2026-09-02 23:54:09 | 49.25966 | 17.54988 | 116° | 69km/h | 14401m | 4.2m/s | -52.8°C | 4.5% | 0hPa | 2.7V | 00:00:00 | 00:00:00 | 00:00:00 | |
| OE5DXL-15 | 2026-09-02 23:54:04 | 49.26008 | 17.54877 | 122° | 68km/h | 14369m | 10.0m/s | -53.0°C | 4.4% | 0hPa | 2.7V | 00:00:00 | 00:00:00 | 00:00:00 | |
| DO3MHA-11 | 2026-09-02 23:53:59 | 49.26053 | 17.54752 | 116° | 69km/h | 14327m | 7.6m/s | 0°C | 0% | 0hPa | 2.7V | 00:00:00 | 01:08:27 | 00:00:00 | |
| POL1PZ | 2026-09-02 23:53:58 | 49.26053 | 17.54752 | 117° | 71km/h | 14327m | 7.7m/s | -53.2°C | 1.8% | 0hPa | 2.7V | 00:00:00 | 00:00:00 | 00:00:00 | |
| OE3JTB-15 | 2026-09-02 23:53:55 | 49.26081 | 17.54651 | 114° | 60km/h | 14298m | 4.7m/s | -53.1°C | 4.6% | 0hPa | 2.7V | 00:00:00 | 01:08:23 | 00:00:00 | |
| PETON7-10 | 2026-09-02 23:53:54 | 49.26088 | 17.54627 | 114° | 66km/h | 14291m | 7.1m/s | -53.1°C | 4.5% | 0hPa | 2.7V | 00:00:00 | 01:08:22 | 00:00:00 | |
| PG1ADW-2 | 2026-09-02 23:53:50 | 49.26119 | 17.54530 | 121° | 60km/h | 14265m | 5.3m/s | -53.1°C | 4.6% | 0hPa | 2.7V | 00:00:00 | 00:00:00 | 00:00:00 | |
| DO3MHA-11 | 2026-09-02 23:53:49 | 49.26127 | 17.54508 | 121° | 64km/h | 14258m | 8.1m/s | 0°C | 0% | 0hPa | 2.7V | 00:00:00 | 01:08:17 | 00:00:00 | |
| OE5DRO-10 | 2026-09-02 23:53:45 | 49.26158 | 17.54418 | 117° | 58km/h | 14230m | 5.7m/s | -53.0°C | 4.5% | 0hPa | 2.7V | 00:00:00 | 00:00:00 | 00:00:00 | |
| OE3OSB-13 | 2026-09-02 23:53:42 | 49.26182 | 17.54332 | 115° | 64km/h | 14200m | 4.6m/s | -53.0°C | 1.6% | -1.0hPa | 2.7V | 00:00:00 | 00:00:00 | 00:00:00 | |
| PETON7-10 | 2026-09-02 23:53:39 | 49.26197 | 17.54286 | 116° | 55km/h | 14189m | 5.7m/s | -52.9°C | 4.5% | 0hPa | 2.7V | 00:00:00 | 00:00:00 | 08:30:00 | |
| POL1PZ | 2026-09-02 23:53:38 | 49.26197 | 17.54286 | 117° | 68km/h | 14189m | 5.7m/s | -52.9°C | 1.8% | 0hPa | 2.7V | 00:00:00 | 00:00:00 | 00:00:00 | |
| S52SK | 2026-09-02 23:53:33 | 49.26235 | 17.54188 | 125° | 49km/h | 14154m | 4.7m/s | -52.8°C | 0% | 0hPa | 2.7V | 00:00:00 | 00:00:00 | 00:00:00 | |
| PG1ADW-2 | 2026-09-02 23:53:30 | 49.26260 | 17.54119 | 113° | 57km/h | 14127m | 7.9m/s | -52.7°C | 4.5% | 0hPa | 2.7V | 00:00:00 | 01:07:58 | 00:00:00 | |
| DO3MHA-11 | 2026-09-02 23:53:29 | 49.26265 | 17.54100 | 114° | 57km/h | 14120m | 5.3m/s | 0°C | 0% | 0hPa | 2.7V | 00:00:00 | 01:07:57 | 00:00:00 | |
| S52SK | 2026-09-02 23:53:27 | 49.26271 | 17.54082 | 117° | 53km/h | 14113m | 8.7m/s | -52.6°C | 0% | 0hPa | 2.7V | 00:00:00 | 00:00:00 | 00:00:00 | |
| OE3JTB-15 | 2026-09-02 23:53:26 | 49.26284 | 17.54045 | 123° | 60km/h | 14100m | 4.5m/s | -52.5°C | 4.5% | 0hPa | 2.7V | 00:00:00 | 00:00:00 | 00:00:00 | |
| PETON7-10 | 2026-09-02 23:53:24 | 49.26299 | 17.54009 | 124° | 58km/h | 14085m | 7.6m/s | -52.4°C | 4.4% | 0hPa | 2.7V | 00:00:00 | 00:00:00 | 00:00:00 | |
| DO3MHA-11 | 2026-09-02 23:53:19 | 49.26339 | 17.53914 | 123° | 62km/h | 14048m | 5.8m/s | 0°C | 0% | 0hPa | 2.7V | 00:00:00 | 01:07:47 | 00:00:00 | |
| POL1PZ | 2026-09-02 23:53:17 | 49.26347 | 17.53893 | 123° | 62km/h | 14040m | 9.3m/s | -52.3°C | 1.8% | 0hPa | 2.7V | 00:00:00 | 00:00:00 | 00:00:00 | |
| OM5KV | 2026-09-02 23:53:15 | 49.26364 | 17.53855 | 125° | 57km/h | 14027m | 6.7m/s | -52.2°C | 1.7% | 0hPa | 2.7V | 00:00:00 | 00:00:00 | 00:00:00 | |
| OE3OSB-13 | 2026-09-02 23:53:11 | 49.26416 | 17.53744 | 123° | 62km/h | 13983m | 6.4m/s | -51.9°C | 1.6% | -1.0hPa | 2.7V | 00:00:00 | 00:00:00 | 00:00:00 | |
| OM5KV | 2026-09-02 23:53:10 | 49.26416 | 17.53744 | 124° | 62km/h | 13983m | 6.4m/s | -51.9°C | 1.7% | 0hPa | 2.7V | 00:00:00 | 00:00:00 | 00:00:00 | |
| PETON7-10 | 2026-09-02 23:53:09 | 49.26424 | 17.53723 | 120° | 62km/h | 13977m | 5.3m/s | -51.8°C | 4.3% | 0hPa | 2.7V | 00:00:00 | 01:07:37 | 00:00:00 | |
| OE5DRO-10 | 2026-09-02 23:53:07 | 49.26438 | 17.53679 | 112° | 64km/h | 13964m | 5.2m/s | -51.7°C | 4.2% | 0hPa | 2.7V | 00:00:00 | 00:00:00 | 08:30:00 | |
| OE5DXL-15 | 2026-09-02 23:53:04 | 49.26458 | 17.53613 | 118° | 66km/h | 13943m | 8.1m/s | -51.6°C | 4.2% | 0hPa | 2.7V | 00:00:00 | 00:00:00 | 00:00:00 | |
| OE3JTB-15 | 2026-09-02 23:52:57 | 49.26514 | 17.53473 | 121° | 68km/h | 13901m | 7.4m/s | -51.4°C | 4.1% | 0hPa | 2.7V | 00:00:00 | 00:00:00 | 00:00:00 | |
| POL1PZ | 2026-09-02 23:52:56 | 49.26514 | 17.53473 | 121° | 62km/h | 13901m | 7.5m/s | -51.4°C | 1.7% | 0hPa | 2.7V | 00:00:00 | 00:00:00 | 00:00:00 | |
| PETON7-10 | 2026-09-02 23:52:54 | 49.26536 | 17.53406 | 114° | 66km/h | 13878m | 11.1m/s | -51.3°C | 4.1% | 0hPa | 2.7V | 00:00:00 | 00:00:00 | 00:00:00 | |
| PG1ADW-2 | 2026-09-02 23:52:50 | 49.26560 | 17.53309 | 112° | 69km/h | 13847m | 8.1m/s | -51.2°C | 4.1% | 0hPa | 2.7V | 00:00:00 | 00:00:00 | 00:00:00 | |
| OE5DRO-10 | 2026-09-02 23:52:48 | 49.26573 | 17.53262 | 117° | 69km/h | 13835m | 8.3m/s | -51.2°C | 4.0% | 0hPa | 2.7V | 00:00:00 | 00:00:00 | 00:00:00 | |
| OE3OSB-13 | 2026-09-02 23:52:40 | 49.26646 | 17.53060 | 111° | 66km/h | 13776m | 4.3m/s | -51.0°C | 1.5% | -1.0hPa | 2.7V | 00:00:00 | 00:00:00 | 00:00:00 | |
| PETON7-10 | 2026-09-02 23:52:39 | 49.26646 | 17.53060 | 112° | 71km/h | 13776m | 4.2m/s | -50.9°C | 4.1% | 0hPa | 2.7V | 00:00:00 | 00:00:00 | 00:00:00 | |
| OM5KV | 2026-09-02 23:52:37 | 49.26653 | 17.53036 | 112° | 69km/h | 13770m | 7.8m/s | -51.0°C | 1.6% | 0hPa | 2.7V | 00:00:00 | 00:00:00 | 00:00:00 | |
| POL1PZ | 2026-09-02 23:52:36 | 49.26658 | 17.53010 | 109° | 73km/h | 13764m | 5.8m/s | -50.9°C | 1.6% | 0hPa | 2.7V | 00:00:00 | 00:00:00 | 00:00:00 | |
| OE5DXL-15 | 2026-09-02 23:52:34 | 49.26676 | 17.52929 | 111° | 68km/h | 13745m | 6.6m/s | -50.8°C | 4.0% | 0hPa | 2.7V | 00:00:00 | 00:00:00 | 00:00:00 | |
| OM5KV | 2026-09-02 23:52:31 | 49.26690 | 17.52876 | 113° | 73km/h | 13734m | 5.3m/s | -50.8°C | 1.6% | 0hPa | 2.7V | 00:00:00 | 00:00:00 | 00:00:00 | |
| PG1ADW-2 | 2026-09-02 23:52:30 | 49.26703 | 17.52825 | 110° | 66km/h | 13722m | 4.0m/s | -50.7°C | 3.9% | 0hPa | 2.7V | 00:00:00 | 00:00:00 | 00:00:00 | |
| OE5DRO-10 | 2026-09-02 23:52:29 | 49.26708 | 17.52800 | 110° | 66km/h | 13716m | 9.1m/s | -50.6°C | 3.9% | 0hPa | 2.7V | 00:00:00 | 00:00:00 | 00:00:00 | |
| OE3JTB-15 | 2026-09-02 23:52:28 | 49.26714 | 17.52775 | 109° | 68km/h | 13708m | 7.0m/s | -50.6°C | 3.9% | 0hPa | 2.7V | 00:00:00 | 01:06:56 | 00:00:00 | |
| PETON7-10 | 2026-09-02 23:52:24 | 49.26737 | 17.52669 | 113° | 62km/h | 13680m | 6.2m/s | -50.4°C | 4.0% | 0hPa | 2.7V | 00:00:00 | 01:06:52 | 00:00:00 | |
| OM5KV | 2026-09-02 23:52:20 | 49.26757 | 17.52605 | 118° | 62km/h | 13662m | 6.4m/s | -50.4°C | 1.6% | 0hPa | 2.7V | 00:00:00 | 00:00:00 | 00:00:00 | |
| POL1PZ | 2026-09-02 23:52:15 | 49.26793 | 17.52503 | 120° | 62km/h | 13631m | 6.6m/s | -50.3°C | 1.6% | 0hPa | 2.7V | 00:00:00 | 00:00:00 | 00:00:00 | |
| PG1ADW-2 | 2026-09-02 23:52:10 | 49.26830 | 17.52362 | 105° | 71km/h | 13588m | 6.4m/s | -50.0°C | 3.8% | 0hPa | 2.7V | 00:00:00 | 01:06:38 | 00:00:00 | |
| OE3OSB-13 | 2026-09-02 23:52:09 | 49.26838 | 17.52309 | 104° | 69km/h | 13573m | 6.0m/s | -50.0°C | 1.4% | -1.0hPa | 2.7V | 00:00:00 | 00:00:00 | 00:00:00 | |
| OE5DXL-15 | 2026-09-02 23:52:04 | 49.26867 | 17.52205 | 123° | 71km/h | 13544m | 6.1m/s | -49.8°C | 3.8% | 0hPa | 2.7V | 00:00:00 | 00:00:00 | 00:00:00 | |
| OM5KV | 2026-09-02 23:52:03 | 49.26867 | 17.52205 | 123° | 71km/h | 13544m | 6.2m/s | -49.8°C | 1.6% | 0hPa | 2.7V | 00:00:00 | 00:00:00 | 00:00:00 | |
| OE3JTB-15 | 2026-09-02 23:51:59 | 49.26911 | 17.52095 | 116° | 71km/h | 13510m | 7.0m/s | -49.8°C | 3.7% | 0hPa | 2.7V | 00:00:00 | 00:00:00 | 00:00:00 | |
| POL1PZ | 2026-09-02 23:51:55 | 49.26931 | 17.52024 | 113° | 73km/h | 13492m | 6.6m/s | -50.0°C | 1.6% | 0hPa | 2.7V | 00:00:00 | 00:00:00 | 00:00:00 | |
| PETON7-10 | 2026-09-02 23:51:54 | 49.26944 | 17.51971 | 112° | 73km/h | 13477m | 5.0m/s | -50.0°C | 3.8% | 0hPa | 2.7V | 00:00:00 | 00:00:00 | 00:00:00 | |
| S52SK | 2026-09-02 23:51:51 | 49.26969 | 17.51894 | 124° | 71km/h | 13456m | 8.3m/s | -50.2°C | 0% | 0hPa | 2.7V | 00:00:00 | 00:00:00 | 00:00:00 | |
| PG1ADW-2 | 2026-09-02 23:51:50 | 49.26979 | 17.51873 | 128° | 69km/h | 13449m | 4.6m/s | -50.2°C | 3.9% | 0hPa | 2.7V | 00:00:00 | 00:00:00 | 00:00:00 | |
| OM5KV | 2026-09-02 23:51:46 | 49.27011 | 17.51811 | 128° | 68km/h | 13428m | 8.3m/s | -50.2°C | 1.7% | 0hPa | 2.7V | 00:00:00 | 00:00:00 | 00:00:00 | |
| S52SK | 2026-09-02 23:51:44 | 49.27032 | 17.51767 | 127° | 73km/h | 13413m | 9.9m/s | -50.3°C | 0% | 0hPa | 2.7V | 00:00:00 | 00:00:00 | 00:00:00 | |
| OM5KV | 2026-09-02 23:51:40 | 49.27077 | 17.51667 | 123° | 78km/h | 13381m | 6.5m/s | -50.7°C | 1.7% | 0hPa | 2.7V | 00:00:00 | 00:00:00 | 00:00:00 | |
| PETON7-10 | 2026-09-02 23:51:39 | 49.27098 | 17.51617 | 122° | 68km/h | 13367m | 5.7m/s | -50.8°C | 4.1% | 0hPa | 2.7V | 00:00:00 | 01:06:07 | 00:00:00 | |
| OE3OSB-13 | 2026-09-02 23:51:37 | 49.27117 | 17.51569 | 122° | 66km/h | 13352m | 6.5m/s | -50.9°C | 1.6% | -1.0hPa | 2.7V | 00:00:00 | 00:00:00 | 00:00:00 | |
| OE5DXL-15 | 2026-09-02 23:51:34 | 49.27142 | 17.51508 | 122° | 73km/h | 13332m | 6.0m/s | -50.8°C | 4.1% | 0hPa | 2.7V | 00:00:00 | 00:00:00 | 00:00:00 | |
| OE5DRO-10 | 2026-09-02 23:51:32 | 49.27158 | 17.51467 | 122° | 73km/h | 13318m | 7.0m/s | -50.8°C | 4.1% | 0hPa | 2.7V | 00:00:00 | 00:00:00 | 00:00:00 | |
| DO3MHA-11 | 2026-09-02 23:51:31 | 49.27168 | 17.51444 | 124° | 73km/h | 13310m | 9.5m/s | 0°C | 0% | 0hPa | 2.7V | 00:00:00 | 01:05:59 | 00:00:00 | |
| OE3JTB-15 | 2026-09-02 23:51:28 | 49.27197 | 17.51373 | 121° | 69km/h | 13286m | 7.5m/s | -50.6°C | 4.0% | 0hPa | 2.7V | 00:00:00 | 00:00:00 | 00:00:00 | |
| PETON7-10 | 2026-09-02 23:51:24 | 49.27232 | 17.51281 | 124° | 73km/h | 13254m | 7.9m/s | -50.6°C | 4.0% | 0hPa | 2.7V | 00:00:00 | 00:00:00 | 08:30:00 | |
| OM5KV | 2026-09-02 23:51:17 | 49.27301 | 17.51156 | 135° | 88km/h | 13215m | 6.6m/s | -50.8°C | 1.7% | 0hPa | 2.7V | 00:00:00 | 00:00:00 | 00:00:00 | |
| OE5DRO-10 | 2026-09-02 23:51:13 | 49.27367 | 17.51036 | 124° | 75km/h | 13180m | 7.8m/s | -50.9°C | 4.2% | 0hPa | 2.7V | 00:00:00 | 00:00:00 | 00:00:00 | |
| OM5KV | 2026-09-02 23:51:12 | 49.27367 | 17.51036 | 124° | 68km/h | 13180m | 7.8m/s | -50.9°C | 1.8% | 0hPa | 2.7V | 00:00:00 | 00:00:00 | 00:00:00 | |
| PG1ADW-2 | 2026-09-02 23:51:10 | 49.27392 | 17.50969 | 119° | 78km/h | 13159m | 5.1m/s | -51.1°C | 4.2% | 0hPa | 2.7V | 00:00:00 | 00:00:00 | 00:00:00 | |
| PETON7-10 | 2026-09-02 23:51:09 | 49.27400 | 17.50945 | 119° | 78km/h | 13152m | 6.8m/s | -51.1°C | 4.3% | 0hPa | 2.7V | 00:00:00 | 00:00:00 | 00:00:00 | |
| OM5KV | 2026-09-02 23:51:06 | 49.27419 | 17.50896 | 123° | 77km/h | 13141m | 7.2m/s | -51.2°C | 1.8% | 0hPa | 2.7V | 00:00:00 | 00:00:00 | 00:00:00 | |
| OE5DXL-15 | 2026-09-02 23:51:04 | 49.27451 | 17.50817 | 125° | 80km/h | 13120m | 6.1m/s | -51.0°C | 4.1% | 0hPa | 2.7V | 00:00:00 | 00:00:00 | 00:00:00 | |
| OM5KV | 2026-09-02 23:51:00 | 49.27486 | 17.50739 | 127° | 80km/h | 13100m | 7.1m/s | -50.9°C | 1.7% | 0hPa | 2.7V | 00:00:00 | 00:00:00 | 00:00:00 | |
| OE3JTB-15 | 2026-09-02 23:50:58 | 49.27523 | 17.50670 | 132° | 80km/h | 13081m | 3.5m/s | -50.8°C | 4.0% | 0hPa | 2.7V | 00:00:00 | 01:05:26 | 00:00:00 | |
| PETON7-10 | 2026-09-02 23:50:54 | 49.27574 | 17.50577 | 129° | 80km/h | 13057m | 7.0m/s | -50.6°C | 3.9% | 0hPa | 2.7V | 00:00:00 | 01:05:22 | 00:00:00 | |
| POL1PZ | 2026-09-02 23:50:52 | 49.27587 | 17.50552 | 129° | 82km/h | 13051m | 5.1m/s | -50.6°C | 1.7% | 0hPa | 2.7V | 00:00:00 | 00:00:00 | 00:00:00 | |
| PG1ADW-2 | 2026-09-02 23:50:50 | 49.27625 | 17.50480 | 131° | 80km/h | 13034m | 3.5m/s | -50.7°C | 4.1% | 0hPa | 2.7V | 00:00:00 | 01:05:18 | 00:00:00 | |
| OM5KV | 2026-09-02 23:50:43 | 49.27703 | 17.50336 | 134° | 75km/h | 13001m | 5.9m/s | -51.0°C | 1.8% | 0hPa | 2.7V | 00:00:00 | 00:00:00 | 00:00:00 | |
| PETON7-10 | 2026-09-02 23:50:39 | 49.27773 | 17.50229 | 134° | 80km/h | 12972m | 6.8m/s | -50.8°C | 4.0% | 0hPa | 2.7V | 00:00:00 | 00:00:00 | 00:00:00 | |
| OM5KV | 2026-09-02 23:50:37 | 49.27788 | 17.50204 | 134° | 89km/h | 12965m | 7.1m/s | -50.9°C | 1.8% | 0hPa | 2.7V | 00:00:00 | 00:00:00 | 00:00:00 | |
| OE5DRO-10 | 2026-09-02 23:50:35 | 49.27831 | 17.50128 | 127° | 78km/h | 12945m | 5.0m/s | -50.8°C | 4.1% | 0hPa | 2.7V | 00:00:00 | 00:00:00 | 00:00:00 | |
| OE5DXL-15 | 2026-09-02 23:50:34 | 49.27843 | 17.50103 | 125° | 77km/h | 12941m | 4.1m/s | -50.7°C | 4.1% | 0hPa | 2.7V | 00:00:00 | 00:00:00 | 00:00:00 | |
| POL1PZ | 2026-09-02 23:50:31 | 49.27865 | 17.50053 | 127° | 78km/h | 12927m | 5.6m/s | -50.8°C | 1.7% | 0hPa | 2.7V | 00:00:00 | 00:00:00 | 00:00:00 | |
| PG1ADW-2 | 2026-09-02 23:50:30 | 49.27890 | 17.50002 | 130° | 75km/h | 12913m | 4.4m/s | -50.8°C | 4.0% | 0hPa | 2.7V | 00:00:00 | 00:00:00 | 00:00:00 | |
| OE3JTB-15 | 2026-09-02 23:50:29 | 49.27905 | 17.49977 | 132° | 77km/h | 12908m | 6.6m/s | -50.9°C | 4.0% | 0hPa | 2.7V | 00:00:00 | 00:00:00 | 08:30:00 | |
| PETON7-10 | 2026-09-02 23:50:24 | 49.27959 | 17.49865 | 116° | 73km/h | 12874m | 6.5m/s | -50.9°C | 4.1% | 0hPa | 2.7V | 00:00:00 | 00:00:00 | 00:00:00 | |
| OM5KV | 2026-09-02 23:50:20 | 49.27980 | 17.49796 | 118° | 78km/h | 12858m | 5.5m/s | -51.0°C | 1.8% | 0hPa | 2.7V | 00:00:00 | 00:00:00 | 00:00:00 | |
| OE5DRO-10 | 2026-09-02 23:50:16 | 49.28039 | 17.49654 | 124° | 77km/h | 12822m | 5.5m/s | -51.4°C | 4.1% | 0hPa | 2.7V | 00:00:00 | 00:00:00 | 08:30:00 | |
| OM5KV | 2026-09-02 23:50:14 | 49.28050 | 17.49629 | 126° | 75km/h | 12815m | 9.3m/s | -51.4°C | 1.7% | 0hPa | 2.7V | 00:00:00 | 00:00:00 | 00:00:00 | |
| S52SK | 2026-09-02 23:50:12 | 49.28069 | 17.49586 | 124° | 62km/h | 12800m | 8.0m/s | 0°C | 0% | 0hPa | 2.7V | 00:00:00 | 00:00:00 | 00:00:00 | |
| POL1PZ | 2026-09-02 23:50:11 | 49.28077 | 17.49566 | 125° | 60km/h | 12793m | 6.7m/s | -51.4°C | 1.8% | 0hPa | 2.7V | 00:00:00 | 00:00:00 | 00:00:00 | |
| PG1ADW-2 | 2026-09-02 23:50:10 | 49.28096 | 17.49524 | 123° | 78km/h | 12780m | 6.9m/s | -51.4°C | 4.2% | 0hPa | 2.7V | 00:00:00 | 00:00:00 | 08:30:00 | |
| PETON7-10 | 2026-09-02 23:50:09 | 49.28106 | 17.49499 | 121° | 78km/h | 12774m | 5.0m/s | -51.3°C | 4.1% | 0hPa | 2.7V | 00:00:00 | 01:04:37 | 00:00:00 | |
| OM5KV | 2026-09-02 23:50:08 | 49.28106 | 17.49499 | 121° | 80km/h | 12774m | 5.1m/s | -51.4°C | 1.8% | 0hPa | 2.7V | 00:00:00 | 00:00:00 | 00:00:00 | |
| OE5DXL-15 | 2026-09-02 23:50:04 | 49.28162 | 17.49353 | 124° | 78km/h | 12742m | 4.4m/s | -51.1°C | 4.2% | 0hPa | 2.7V | 00:00:00 | 00:00:00 | 00:00:00 | |
| OE3JTB-15 | 2026-09-02 23:50:00 | 49.28203 | 17.49249 | 121° | 78km/h | 12717m | 5.8m/s | -51.0°C | 4.1% | 0hPa | 2.7V | 00:00:00 | 00:00:00 | 00:00:00 | |
| OE5DRO-10 | 2026-09-02 23:49:57 | 49.28230 | 17.49180 | 120° | 80km/h | 12696m | 7.5m/s | -50.9°C | 4.1% | 0hPa | 2.7V | 00:00:00 | 00:00:00 | 00:00:00 | |
| PETON7-10 | 2026-09-02 23:49:54 | 49.28254 | 17.49108 | 116° | 82km/h | 12674m | 4.3m/s | -50.9°C | 4.2% | 0hPa | 2.7V | 00:00:00 | 00:00:00 | 00:00:00 | |
| PG1ADW-2 | 2026-09-02 23:49:50 | 49.28298 | 17.48999 | 126° | 80km/h | 12648m | 8.3m/s | -50.9°C | 4.1% | 0hPa | 2.7V | 00:00:00 | 00:00:00 | 00:00:00 | |
| OM5KV | 2026-09-02 23:49:44 | 49.28365 | 17.48879 | 134° | 77km/h | 12612m | 4.5m/s | -50.9°C | 1.9% | 0hPa | 2.7V | 00:00:00 | 00:00:00 | 00:00:00 | |
| PETON7-10 | 2026-09-02 23:49:39 | 49.28431 | 17.48720 | 119° | 78km/h | 12572m | 6.1m/s | -50.6°C | 4.1% | 0hPa | 2.7V | 00:00:00 | 00:00:00 | 00:00:00 | |
| OE5DRO-10 | 2026-09-02 23:49:38 | 49.28442 | 17.48690 | 121° | 77km/h | 12566m | 6.7m/s | -50.6°C | 4.1% | 0hPa | 2.7V | 00:00:00 | 00:00:00 | 00:00:00 | |
| OE3OSB-13 | 2026-09-02 23:49:33 | 49.28501 | 17.48566 | 129° | 73km/h | 12528m | 9.1m/s | -50.7°C | 1.7% | -1.0hPa | 2.7V | 00:00:00 | 00:00:00 | 00:00:00 | |
| OM5KV | 2026-09-02 23:49:32 | 49.28501 | 17.48566 | 131° | 73km/h | 12529m | 9.1m/s | -50.7°C | 1.9% | 0hPa | 2.7V | 00:00:00 | 00:00:00 | 00:00:00 | |
| POL1PZ | 2026-09-02 23:49:31 | 49.28523 | 17.48522 | 126° | 73km/h | 12513m | 5.2m/s | -50.6°C | 1.9% | 0hPa | 2.7V | 00:00:00 | 00:00:00 | 00:00:00 | |
| PG1ADW-2 | 2026-09-02 23:49:30 | 49.28534 | 17.48498 | 125° | 75km/h | 12506m | 8.8m/s | -50.5°C | 4.2% | 0hPa | 2.7V | 00:00:00 | 01:03:58 | 00:00:00 | |
| PETON7-10 | 2026-09-02 23:49:24 | 49.28595 | 17.48343 | 117° | 75km/h | 12463m | 5.0m/s | -50.3°C | 4.2% | 0hPa | 2.7V | 00:00:00 | 01:03:52 | 00:00:00 | |
| OM5KV | 2026-09-02 23:49:21 | 49.28611 | 17.48294 | 121° | 69km/h | 12450m | 6.8m/s | -50.3°C | 2.0% | 0hPa | 2.7V | 00:00:00 | 00:00:00 | 00:00:00 | |
| OE5DRO-10 | 2026-09-02 23:49:19 | 49.28642 | 17.48227 | 129° | 77km/h | 12433m | 6.1m/s | -50.1°C | 4.2% | 0hPa | 2.7V | 00:00:00 | 00:00:00 | 00:00:00 | |
| OM5KV | 2026-09-02 23:49:15 | 49.28674 | 17.48160 | 123° | 73km/h | 12410m | 6.2m/s | -50.1°C | 2.0% | 0hPa | 2.7V | 00:00:00 | 00:00:00 | 00:00:00 | |
| PG1ADW-2 | 2026-09-02 23:49:10 | 49.28740 | 17.48012 | 131° | 80km/h | 12368m | 6.1m/s | -49.8°C | 4.2% | 0hPa | 2.7V | 00:00:00 | 00:00:00 | 00:00:00 | |
| PETON7-10 | 2026-09-02 23:49:09 | 49.28753 | 17.47989 | 132° | 82km/h | 12361m | 9.0m/s | -49.8°C | 4.2% | 0hPa | 2.7V | 00:00:00 | 00:00:00 | 08:30:00 | |
| OM5KV | 2026-09-02 23:49:08 | 49.28753 | 17.47989 | 132° | 78km/h | 12361m | 9.1m/s | -49.9°C | 2.0% | 0hPa | 2.7V | 00:00:00 | 00:00:00 | 00:00:00 | |
| OE5DXL-15 | 2026-09-02 23:49:04 | 49.28812 | 17.47880 | 130° | 88km/h | 12327m | 5.7m/s | -49.7°C | 4.3% | 0hPa | 2.7V | 00:00:00 | 00:00:00 | 08:30:00 | |
| OE3JTB-15 | 2026-09-02 23:49:02 | 49.28838 | 17.47832 | 132° | 86km/h | 12315m | 6.2m/s | -49.6°C | 4.4% | 0hPa | 2.7V | 00:00:00 | 00:00:00 | 00:00:00 | |
| OE5DRO-10 | 2026-09-02 23:49:00 | 49.28870 | 17.47780 | 135° | 88km/h | 12304m | 6.6m/s | -49.6°C | 4.4% | 0hPa | 2.7V | 00:00:00 | 00:00:00 | 00:00:00 | |
| OM5KV | 2026-09-02 23:48:56 | 49.28918 | 17.47707 | 139° | 86km/h | 12286m | 7.0m/s | -49.6°C | 2.2% | 0hPa | 2.7V | 00:00:00 | 00:00:00 | 00:00:00 | |
| PETON7-10 | 2026-09-02 23:48:54 | 49.28965 | 17.47641 | 135° | 88km/h | 12265m | 4.9m/s | -49.8°C | 4.4% | 0hPa | 2.7V | 00:00:00 | 00:00:00 | 00:00:00 | |
| OE5DRO-10 | 2026-09-02 23:48:41 | 49.29153 | 17.47306 | 138° | 97km/h | 12186m | 5.2m/s | -50.4°C | 5.2% | 0hPa | 2.7V | 00:00:00 | 00:00:00 | 00:00:00 | |
| PETON7-10 | 2026-09-02 23:48:39 | 49.29185 | 17.47258 | 132° | 97km/h | 12174m | 6.1m/s | -50.6°C | 5.3% | 0hPa | 2.7V | 00:00:00 | 01:03:07 | 00:00:00 | |
| OE5DXL-15 | 2026-09-02 23:48:34 | 49.29255 | 17.47133 | 132° | 102km/h | 12146m | 6.3m/s | -51.2°C | 5.9% | 0hPa | 2.7V | 00:00:00 | 00:00:00 | 00:00:00 | |
| OM5KV | 2026-09-02 23:48:33 | 49.29255 | 17.47133 | 132° | 89km/h | 12146m | 6.3m/s | -51.2°C | 3.3% | 0hPa | 2.7V | 00:00:00 | 00:00:00 | 00:00:00 | |
| OE3JTB-15 | 2026-09-02 23:48:32 | 49.29286 | 17.47079 | 131° | 100km/h | 12134m | 6.0m/s | -51.3°C | 6.1% | 0hPa | 2.7V | 00:00:00 | 00:00:00 | 00:00:00 | |
| OE3OSB-13 | 2026-09-02 23:48:31 | 49.29302 | 17.47049 | 129° | 102km/h | 12128m | 6.7m/s | -51.5°C | 3.4% | -1.0hPa | 2.7V | 00:00:00 | 00:00:00 | 00:00:00 | |
| PG1ADW-2 | 2026-09-02 23:48:30 | 49.29319 | 17.47018 | 130° | 106km/h | 12123m | 3.5m/s | -51.6°C | 6.4% | 0hPa | 2.7V | 00:00:00 | 00:00:00 | 00:00:00 | |
| POL1PZ | 2026-09-02 23:48:28 | 49.29336 | 17.46985 | 131° | 110km/h | 12118m | 5.4m/s | -51.7°C | 3.8% | 0hPa | 2.7V | 00:00:00 | 00:00:00 | 00:00:00 | |
| PETON7-10 | 2026-09-02 23:48:24 | 49.29430 | 17.46832 | 137° | 104km/h | 12088m | 8.1m/s | -51.7°C | 7.1% | 0hPa | 2.7V | 00:00:00 | 00:00:00 | 00:00:00 | |
| S52SK | 2026-09-02 23:48:23 | 49.29430 | 17.46832 | 138° | 108km/h | 12088m | 8.1m/s | 0°C | 0% | 0hPa | 2.7V | 00:00:00 | 00:00:00 | 00:00:00 | |
| OE5DRO-10 | 2026-09-02 23:48:22 | 49.29469 | 17.46777 | 139° | 102km/h | 12076m | 6.8m/s | -51.7°C | 7.3% | 0hPa | 2.7V | 00:00:00 | 00:00:00 | 00:00:00 | |
| OM5KV | 2026-09-02 23:48:17 | 49.29542 | 17.46676 | 139° | 95km/h | 12050m | 6.9m/s | -51.9°C | 4.8% | 0hPa | 2.7V | 00:00:00 | 00:00:00 | 00:00:00 | |
| PG1ADW-2 | 2026-09-02 23:48:10 | 49.29705 | 17.46456 | 136° | 100km/h | 12000m | 8.6m/s | -52.3°C | 8.9% | 0hPa | 2.7V | 00:00:00 | 01:02:38 | 00:00:00 | |
| PETON7-10 | 2026-09-02 23:48:09 | 49.29722 | 17.46430 | 135° | 104km/h | 11992m | 7.0m/s | -52.4°C | 9.2% | 0hPa | 2.7V | 00:00:00 | 00:00:00 | 00:00:00 | |
| OE5DXL-15 | 2026-09-02 23:48:04 | 49.29808 | 17.46301 | 140° | 102km/h | 11964m | 6.6m/s | -52.7°C | 10.3% | 0hPa | 2.7V | 00:00:00 | 00:00:00 | 00:00:00 | |
| OE5DRO-10 | 2026-09-02 23:48:03 | 49.29829 | 17.46273 | 141° | 104km/h | 11958m | 5.7m/s | -52.7°C | 10.5% | 0hPa | 2.7V | 00:00:00 | 00:00:00 | 00:00:00 | |
| OE3OSB-13 | 2026-09-02 23:48:00 | 49.29895 | 17.46190 | 139° | 111km/h | 11941m | 3.7m/s | -52.8°C | 7.2% | -1.0hPa | 2.7V | 00:00:00 | 00:00:00 | 00:00:00 | |
| PETON7-10 | 2026-09-02 23:47:54 | 49.30015 | 17.46031 | 141° | 99km/h | 11903m | 5.0m/s | -52.5°C | 11.3% | 0hPa | 2.7V | 00:00:00 | 01:02:22 | 00:00:00 | |
| OE3JTB-15 | 2026-09-02 23:47:52 | 49.30067 | 17.45971 | 143° | 102km/h | 11884m | 5.4m/s | -52.4°C | 11.9% | 0hPa | 2.7V | 00:00:00 | 01:02:19 | 00:00:00 | |
| PG1ADW-2 | 2026-09-02 23:47:50 | 49.30086 | 17.45947 | 141° | 104km/h | 11879m | 5.2m/s | -52.4°C | 12.0% | 0hPa | 2.7V | 00:00:00 | 00:00:00 | 00:00:00 | |
| POL1PZ | 2026-09-02 23:47:46 | 49.30145 | 17.45863 | 136° | 113km/h | 11859m | 7.3m/s | -52.6°C | 8.9% | 0hPa | 2.7V | 00:00:00 | 00:00:00 | 00:00:00 | |
| OE5DRO-10 | 2026-09-02 23:47:44 | 49.30204 | 17.45774 | 137° | 102km/h | 11841m | 6.9m/s | -52.5°C | 13.2% | 0hPa | 2.7V | 00:00:00 | 00:00:00 | 00:00:00 | |
| OM5KV | 2026-09-02 23:47:43 | 49.30203 | 17.45774 | 138° | 102km/h | 11841m | 6.9m/s | -52.6°C | 9.4% | 0hPa | 2.7V | 00:00:00 | 00:00:00 | 00:00:00 | |
| PETON7-10 | 2026-09-02 23:47:39 | 49.30299 | 17.45656 | 141° | 102km/h | 11809m | 3.2m/s | -52.7°C | 14.8% | 0hPa | 2.7V | 00:00:00 | 00:00:00 | 00:00:00 | |
| OM5KV | 2026-09-02 23:47:37 | 49.30318 | 17.45632 | 141° | 102km/h | 11804m | 6.6m/s | -52.8°C | 10.7% | 0hPa | 2.7V | 00:00:00 | 00:00:00 | 00:00:00 | |
| OE5DXL-15 | 2026-09-02 23:47:34 | 49.30404 | 17.45529 | 145° | 108km/h | 11776m | 7.7m/s | -53.0°C | 15.4% | 0hPa | 2.7V | 00:00:00 | 00:00:00 | 00:00:00 | |
| PG1ADW-2 | 2026-09-02 23:47:30 | 49.30490 | 17.45439 | 145° | 110km/h | 11752m | 4.9m/s | -53.4°C | 16.5% | 0hPa | 2.7V | 00:00:00 | 00:00:00 | 00:00:00 | |
| OE3OSB-13 | 2026-09-02 23:47:29 | 49.30511 | 17.45416 | 142° | 97km/h | 11747m | 4.9m/s | -53.5°C | 12.0% | -1.0hPa | 2.7V | 00:00:00 | 00:00:00 | 00:00:00 | |
| OM5KV | 2026-09-02 23:47:26 | 49.30549 | 17.45368 | 141° | 100km/h | 11736m | 5.3m/s | -53.5°C | 12.4% | 0hPa | 2.7V | 00:00:00 | 00:00:00 | 00:00:00 | |
| OE5DRO-10 | 2026-09-02 23:47:25 | 49.30588 | 17.45316 | 137° | 111km/h | 11724m | 7.1m/s | -53.5°C | 16.9% | 0hPa | 2.7V | 00:00:00 | 00:00:00 | 08:30:00 | |
| OM5KV | 2026-09-02 23:47:20 | 49.30659 | 17.45198 | 131° | 100km/h | 11699m | 7.1m/s | -54.0°C | 12.9% | 0hPa | 2.7V | 00:00:00 | 00:00:00 | 00:00:00 | |
| OM5KV | 2026-09-02 23:47:13 | 49.30804 | 17.44982 | 139° | 130km/h | 11655m | 5.4m/s | -53.8°C | 13.0% | 0hPa | 2.7V | 00:00:00 | 00:00:00 | 00:00:00 | |
| PG1ADW-2 | 2026-09-02 23:47:10 | 49.30888 | 17.44849 | 131° | 110km/h | 11633m | 7.2m/s | -53.7°C | 17.7% | 0hPa | 2.7V | 00:00:00 | 00:00:00 | 08:30:00 | |
| PETON7-10 | 2026-09-02 23:47:09 | 49.30905 | 17.44817 | 130° | 113km/h | 11626m | 6.8m/s | -53.7°C | 17.8% | 0hPa | 2.7V | 00:00:00 | 01:01:37 | 00:00:00 | |
| OM5KV | 2026-09-02 23:47:07 | 49.30922 | 17.44786 | 132° | 104km/h | 11618m | 8.0m/s | -53.8°C | 13.2% | 0hPa | 2.7V | 00:00:00 | 00:00:00 | 00:00:00 | |
| OE5DRO-10 | 2026-09-02 23:47:06 | 49.30958 | 17.44727 | 135° | 108km/h | 11604m | 5.7m/s | -53.8°C | 18.0% | 0hPa | 2.7V | 00:00:00 | 00:00:00 | 00:00:00 | |
| OE5DXL-15 | 2026-09-02 23:47:04 | 49.30997 | 17.44668 | 136° | 104km/h | 11592m | 6.6m/s | -53.7°C | 17.9% | 0hPa | 2.7V | 00:00:00 | 00:00:00 | 00:00:00 | |
| OE3OSB-13 | 2026-09-02 23:46:58 | 49.31121 | 17.44470 | 130° | 119km/h | 11556m | 7.3m/s | -53.7°C | 13.7% | -1.0hPa | 2.7V | 00:00:00 | 00:00:00 | 00:00:00 | |
| OM5KV | 2026-09-02 23:46:57 | 49.31140 | 17.44435 | 132° | 117km/h | 11549m | 7.0m/s | -53.7°C | 14.2% | 0hPa | 2.7V | 00:00:00 | 00:00:00 | 00:00:00 | |
| OE3JTB-15 | 2026-09-02 23:46:52 | 49.31254 | 17.44223 | 126° | 93km/h | 11503m | 6.4m/s | -54.4°C | 22.0% | 0hPa | 2.7V | 00:00:00 | 00:00:00 | 00:00:00 | |
| PG1ADW-2 | 2026-09-02 23:46:50 | 49.31254 | 17.44223 | 126° | 99km/h | 11503m | 6.4m/s | -54.4°C | 22.0% | 0hPa | 2.7V | 00:00:00 | 01:01:18 | 00:00:00 | |
| OE5DRO-10 | 2026-09-02 23:46:47 | 49.31299 | 17.44125 | 127° | 99km/h | 11486m | 6.8m/s | -54.6°C | 22.6% | 0hPa | 2.7V | 00:00:00 | 00:00:00 | 00:00:00 | |
| S52SK | 2026-09-02 23:46:44 | 49.31334 | 17.44055 | 129° | 115km/h | 11477m | 6.7m/s | 0°C | 0% | 0hPa | 2.7V | 00:00:00 | 00:00:00 | 00:00:00 | |
| POL1PZ | 2026-09-02 23:46:43 | 49.31352 | 17.44021 | 130° | 111km/h | 11469m | 7.6m/s | -54.6°C | 17.3% | 0hPa | 2.7V | 00:00:00 | 00:00:00 | 00:00:00 | |
| PETON7-10 | 2026-09-02 23:46:39 | 49.31427 | 17.43885 | 134° | 93km/h | 11433m | 8.2m/s | -54.7°C | 24.5% | 0hPa | 2.7V | 00:00:00 | 00:00:00 | 00:00:00 | |
| OE5DXL-15 | 2026-09-02 23:46:34 | 49.31507 | 17.43752 | 130° | 93km/h | 11400m | 8.5m/s | -54.8°C | 25.2% | 0hPa | 2.7V | 00:00:00 | 00:00:00 | 00:00:00 | |
| PG1ADW-2 | 2026-09-02 23:46:30 | 49.31567 | 17.43629 | 127° | 91km/h | 11372m | 7.5m/s | -54.8°C | 26.1% | 0hPa | 2.7V | 00:00:00 | 00:00:00 | 00:00:00 | |
| OE5DRO-10 | 2026-09-02 23:46:28 | 49.31595 | 17.43573 | 132° | 93km/h | 11358m | 6.4m/s | -55.2°C | 27.0% | 0hPa | 2.7V | 00:00:00 | 00:00:00 | 00:00:00 | |
| OE3OSB-13 | 2026-09-02 23:46:27 | 49.31626 | 17.43525 | 136° | 82km/h | 11345m | 8.0m/s | -55.2°C | 20.7% | -1.0hPa | 2.7V | 00:00:00 | 00:00:00 | 00:00:00 | |
| PETON7-10 | 2026-09-02 23:46:24 | 49.31657 | 17.43481 | 137° | 93km/h | 11334m | 5.2m/s | -55.1°C | 27.7% | 0hPa | 2.7V | 00:00:00 | 01:00:52 | 00:00:00 | |
| POL1PZ | 2026-09-02 23:46:22 | 49.31672 | 17.43457 | 135° | 88km/h | 11328m | 5.9m/s | -55.1°C | 21.4% | 0hPa | 2.7V | 00:00:00 | 00:00:00 | 00:00:00 | |
| OM5KV | 2026-09-02 23:46:11 | 49.31842 | 17.43153 | 139° | 99km/h | 11261m | 3.9m/s | -55.0°C | 21.9% | 0hPa | 2.7V | 00:00:00 | 00:00:00 | 00:00:00 | |
| PG1ADW-2 | 2026-09-02 23:46:10 | 49.31879 | 17.43101 | 136° | 91km/h | 11251m | 5.3m/s | -54.9°C | 28.6% | 0hPa | 2.7V | 00:00:00 | 00:00:00 | 00:00:00 | |
| PETON7-10 | 2026-09-02 23:46:09 | 49.31896 | 17.43074 | 134° | 91km/h | 11246m | 4.7m/s | -54.9°C | 28.9% | 0hPa | 2.7V | 00:00:00 | 00:00:00 | 00:00:00 | |
| HA6NAB-11 | 2026-09-02 23:46:07 | 49.31912 | 17.43047 | 133° | 95km/h | 11241m | 5.1m/s | 0°C | 0% | 0hPa | 2.7V | 00:00:00 | 00:00:00 | 00:00:00 | |
| OM5KV | 2026-09-02 23:46:05 | 49.31942 | 17.42991 | 128° | 95km/h | 11231m | 6.3m/s | -54.9°C | 22.2% | 0hPa | 2.7V | 00:00:00 | 00:00:00 | 00:00:00 | |
| OE5DXL-15 | 2026-09-02 23:46:04 | 49.31970 | 17.42931 | 126° | 89km/h | 11221m | 5.2m/s | -54.9°C | 29.3% | 0hPa | 2.7V | 00:00:00 | 00:00:00 | 00:00:00 | |
| OE3OSB-13 | 2026-09-02 23:45:56 | 49.32110 | 17.42698 | 135° | 88km/h | 11161m | 6.7m/s | -55.0°C | 22.7% | -1.0hPa | 2.7V | 00:00:00 | 00:00:00 | 00:00:00 | |
| PETON7-10 | 2026-09-02 23:45:54 | 49.32126 | 17.42675 | 139° | 86km/h | 11155m | 5.1m/s | -55.0°C | 29.6% | 0hPa | 2.7V | 00:00:00 | 00:00:00 | 00:00:00 | |
| OE3JTB-15 | 2026-09-02 23:45:53 | 49.32176 | 17.42612 | 141° | 84km/h | 11138m | 5.6m/s | -54.8°C | 29.5% | 0hPa | 2.7V | 00:00:00 | 00:00:00 | 08:30:00 | |
| OE5DRO-10 | 2026-09-02 23:45:50 | 49.32192 | 17.42591 | 138° | 89km/h | 11132m | 7.3m/s | -54.8°C | 29.5% | 0hPa | 2.7V | 00:00:00 | 00:00:00 | 00:00:00 | |
| OM5KV | 2026-09-02 23:45:43 | 49.32274 | 17.42442 | 130° | 89km/h | 11097m | 7.1m/s | -54.6°C | 22.7% | 0hPa | 2.7V | 00:00:00 | 00:00:00 | 00:00:00 | |
| POL1PZ | 2026-09-02 23:45:41 | 49.32303 | 17.42389 | 132° | 88km/h | 11082m | 6.8m/s | -54.5°C | 22.7% | 0hPa | 2.7V | 00:00:00 | 00:00:00 | 00:00:00 | |
| PETON7-10 | 2026-09-02 23:45:39 | 49.32349 | 17.42315 | 136° | 93km/h | 11063m | 6.2m/s | -54.3°C | 28.9% | 0hPa | 2.7V | 00:00:00 | 01:00:07 | 00:00:00 | |
| OM5KV | 2026-09-02 23:45:37 | 49.32365 | 17.42290 | 135° | 95km/h | 11056m | 7.1m/s | -54.3°C | 22.7% | 0hPa | 2.7V | 00:00:00 | 00:00:00 | 00:00:00 | |
| OE5DXL-15 | 2026-09-02 23:45:34 | 49.32432 | 17.42180 | 133° | 88km/h | 11030m | 5.8m/s | -54.2°C | 30.3% | 0hPa | 2.7V | 00:00:00 | 00:00:00 | 00:00:00 | |
| OE5DRO-10 | 2026-09-02 23:45:31 | 49.32478 | 17.42098 | 129° | 88km/h | 11011m | 7.0m/s | -54.1°C | 30.0% | 0hPa | 2.7V | 00:00:00 | 00:00:00 | 00:00:00 | |
| PG1ADW-2 | 2026-09-02 23:45:30 | 49.32492 | 17.42070 | 127° | 88km/h | 11004m | 6.4m/s | -54.1°C | 30.0% | 0hPa | 2.7V | 00:00:00 | 00:59:58 | 00:00:00 | |
| OE3OSB-13 | 2026-09-02 23:45:25 | 49.32558 | 17.41929 | 129° | 82km/h | 10972m | 8.3m/s | -54.2°C | 23.8% | -1.0hPa | 2.7V | 00:00:00 | 00:00:00 | 00:00:00 | |
| PETON7-10 | 2026-09-02 23:45:24 | 49.32571 | 17.41905 | 132° | 88km/h | 10965m | 6.6m/s | -54.2°C | 30.8% | 0hPa | 2.7V | 00:00:00 | 00:00:00 | 00:00:00 | |
| POL1PZ | 2026-09-02 23:45:22 | 49.32599 | 17.41859 | 133° | 82km/h | 10952m | 5.9m/s | -54.2°C | 24.6% | 0hPa | 2.7V | 00:00:00 | 00:00:00 | 00:00:00 | |
| OM5KV | 2026-09-02 23:45:18 | 49.32645 | 17.41783 | 135° | 97km/h | 10930m | 8.5m/s | -54.1°C | 24.4% | 0hPa | 2.7V | 00:00:00 | 00:00:00 | 00:00:00 | |
| OE5DRO-10 | 2026-09-02 23:45:12 | 49.32753 | 17.41608 | 133° | 84km/h | 10881m | 8.3m/s | -53.8°C | 32.0% | 0hPa | 2.7V | 00:00:00 | 00:00:00 | 00:00:00 | |
| PG1ADW-2 | 2026-09-02 23:45:10 | 49.32784 | 17.41556 | 133° | 84km/h | 10869m | 3.6m/s | -53.7°C | 32.4% | 0hPa | 2.7V | 00:00:00 | 00:00:00 | 00:00:00 | |
| PETON7-10 | 2026-09-02 23:45:09 | 49.32801 | 17.41529 | 132° | 82km/h | 10865m | 5.3m/s | -53.7°C | 32.2% | 0hPa | 2.7V | 00:00:00 | 00:00:00 | 00:00:00 | |
| OE5DXL-15 | 2026-09-02 23:45:04 | 49.32870 | 17.41415 | 135° | 88km/h | 10834m | 7.6m/s | -53.5°C | 31.5% | 0hPa | 2.7V | 00:00:00 | 00:00:00 | 00:00:00 | |
| OE3OSB-13 | 2026-09-02 23:44:54 | 49.33032 | 17.41154 | 139° | 89km/h | 10759m | 5.4m/s | -53.4°C | 26.6% | -1.0hPa | 2.7V | 00:00:00 | 00:00:00 | 00:00:00 | |
| OE5DRO-10 | 2026-09-02 23:44:53 | 49.33032 | 17.41154 | 140° | 89km/h | 10759m | 5.3m/s | -53.3°C | 33.6% | 0hPa | 2.7V | 00:00:00 | 00:00:00 | 00:00:00 | |
| PG1ADW-2 | 2026-09-02 23:44:50 | 49.33081 | 17.41087 | 136° | 89km/h | 10738m | 7.5m/s | -53.3°C | 33.0% | 0hPa | 2.7V | 00:00:00 | 00:00:00 | 00:00:00 | |
| OM5KV | 2026-09-02 23:44:47 | 49.33108 | 17.41043 | 132° | 77km/h | 10728m | 5.5m/s | -53.3°C | 26.9% | 0hPa | 2.7V | 00:00:00 | 00:00:00 | 00:00:00 | |
| S52SK | 2026-09-02 23:44:40 | 49.33222 | 17.40869 | 137° | 100km/h | 10680m | 7.2m/s | 0°C | 0% | 0hPa | 2.7V | 00:00:00 | 00:00:00 | 00:00:00 | |
| PETON7-10 | 2026-09-02 23:44:39 | 49.33257 | 17.40816 | 136° | 93km/h | 10668m | 4.9m/s | -53.0°C | 35.4% | 0hPa | 2.7V | 00:00:00 | 00:00:00 | 08:30:00 | |
| S52SK | 2026-09-02 23:44:35 | 49.33306 | 17.40744 | 140° | 88km/h | 10650m | 6.3m/s | 0°C | 0% | 0hPa | 2.7V | 00:00:00 | 00:00:00 | 00:00:00 | |
| OE5DRO-10 | 2026-09-02 23:44:34 | 49.33340 | 17.40700 | 143° | 93km/h | 10639m | 5.4m/s | -53.0°C | 36.9% | 0hPa | 2.7V | 00:00:00 | 00:00:00 | 08:30:00 | |
| PG1ADW-2 | 2026-09-02 23:44:30 | 49.33406 | 17.40604 | 130° | 97km/h | 10614m | 7.1m/s | -53.1°C | 38.4% | 0hPa | 2.7V | 00:00:00 | 00:00:00 | 00:00:00 | |
| PETON7-10 | 2026-09-02 23:44:24 | 49.33504 | 17.40434 | 138° | 97km/h | 10574m | 7.0m/s | -52.9°C | 40.8% | 0hPa | 2.7V | 00:00:00 | 00:00:00 | 00:00:00 | |
| OE3OSB-13 | 2026-09-02 23:44:23 | 49.33538 | 17.40391 | 142° | 84km/h | 10561m | 6.1m/s | -52.9°C | 33.9% | -1.0hPa | 2.7V | 00:00:00 | 00:00:00 | 00:00:00 | |
| OM5KV | 2026-09-02 23:44:19 | 49.33573 | 17.40351 | 142° | 86km/h | 10548m | 6.2m/s | -52.9°C | 35.8% | 0hPa | 2.7V | 00:00:00 | 00:00:00 | 00:00:00 | |
| POL1PZ | 2026-09-02 23:44:18 | 49.33590 | 17.40329 | 139° | 89km/h | 10543m | 4.3m/s | -52.8°C | 36.1% | 0hPa | 2.7V | 00:00:00 | 00:00:00 | 00:00:00 | |
| OE5DRO-10 | 2026-09-02 23:44:15 | 49.33658 | 17.40223 | 132° | 91km/h | 10515m | 6.0m/s | -52.7°C | 43.6% | 0hPa | 2.7V | 00:00:00 | 00:00:00 | 00:00:00 | |
| OE3JTB-15 | 2026-09-02 23:44:14 | 49.33675 | 17.40192 | 130° | 86km/h | 10509m | 5.9m/s | -52.6°C | 43.5% | 0hPa | 2.7V | 00:00:00 | 00:58:42 | 00:00:00 | |
| OM5KV | 2026-09-02 23:44:13 | 49.33675 | 17.40192 | 131° | 108km/h | 10509m | 6.0m/s | -52.7°C | 35.9% | 0hPa | 2.7V | 00:00:00 | 00:00:00 | 00:00:00 | |
| PG1ADW-2 | 2026-09-02 23:44:10 | 49.33742 | 17.40065 | 128° | 84km/h | 10487m | 6.2m/s | -52.5°C | 45.7% | 0hPa | 2.7V | 00:00:00 | 00:58:38 | 08:30:00 | |
| PETON7-10 | 2026-09-02 23:44:09 | 49.33756 | 17.40036 | 127° | 86km/h | 10480m | 7.1m/s | -52.4°C | 45.9% | 0hPa | 2.7V | 00:00:00 | 00:58:37 | 00:00:00 | |
| OM5KV | 2026-09-02 23:44:07 | 49.33769 | 17.40010 | 126° | 80km/h | 10473m | 7.3m/s | -52.4°C | 38.3% | 0hPa | 2.7V | 00:00:00 | 00:00:00 | 00:00:00 | |
| OE5DXL-15 | 2026-09-02 23:44:04 | 49.33820 | 17.39914 | 134° | 77km/h | 10446m | 5.1m/s | -52.3°C | 47.2% | 0hPa | 2.7V | 00:00:00 | 00:00:00 | 00:00:00 | |
| OE3OSB-13 | 2026-09-02 23:43:52 | 49.33998 | 17.39587 | 129° | 82km/h | 10369m | 5.2m/s | -52.0°C | 42.9% | -1.0hPa | 2.7V | 00:00:00 | 00:00:00 | 00:00:00 | |
| PG1ADW-2 | 2026-09-02 23:43:50 | 49.34011 | 17.39562 | 129° | 69km/h | 10363m | 6.6m/s | -52.0°C | 51.8% | 0hPa | 2.7V | 00:00:00 | 00:00:00 | 00:00:00 | |
| PETON7-10 | 2026-09-02 23:43:39 | 49.34131 | 17.39303 | 122° | 68km/h | 10295m | 4.9m/s | -52.1°C | 54.7% | 0hPa | 2.7V | 00:00:00 | 00:00:00 | 00:00:00 | |
| OE5DRO-10 | 2026-09-02 23:43:37 | 49.34148 | 17.39263 | 126° | 69km/h | 10285m | 4.8m/s | -52.0°C | 54.6% | 0hPa | 2.7V | 00:00:00 | 00:00:00 | 00:00:00 | |
| POL1PZ | 2026-09-02 23:43:36 | 49.34148 | 17.39263 | 126° | 58km/h | 10285m | 4.9m/s | -52.1°C | 45.8% | 0hPa | 2.7V | 00:00:00 | 00:00:00 | 00:00:00 | |
| OE5DXL-15 | 2026-09-02 23:43:34 | 49.34175 | 17.39213 | 137° | 69km/h | 10265m | 6.4m/s | -51.9°C | 56.6% | 0hPa | 2.7V | 00:00:00 | 00:00:00 | 00:00:00 | |
| OM5KV | 2026-09-02 23:43:33 | 49.34175 | 17.39213 | 137° | 58km/h | 10265m | 6.4m/s | -51.9°C | 47.6% | 0hPa | 2.7V | 00:00:00 | 00:00:00 | 00:00:00 | |
| PG1ADW-2 | 2026-09-02 23:43:30 | 49.34231 | 17.39151 | 147° | 71km/h | 10240m | 5.6m/s | -51.8°C | 58.9% | 0hPa | 2.7V | 00:00:00 | 00:00:00 | 00:00:00 | |
| OM5KV | 2026-09-02 23:43:27 | 49.34261 | 17.39114 | 138° | 75km/h | 10228m | 6.2m/s | -51.8°C | 48.2% | 0hPa | 2.7V | 00:00:00 | 00:00:00 | 00:00:00 | |
| PETON7-10 | 2026-09-02 23:43:24 | 49.34309 | 17.39031 | 136° | 69km/h | 10198m | 8.9m/s | -51.6°C | 56.6% | 0hPa | 2.7V | 00:00:00 | 00:57:52 | 00:00:00 | |
| OE3OSB-13 | 2026-09-02 23:43:21 | 49.34368 | 17.38966 | 150° | 69km/h | 10167m | 6.4m/s | -51.5°C | 48.0% | -1.0hPa | 2.7V | 00:00:00 | 00:00:00 | 00:00:00 | |
| OE5DRO-10 | 2026-09-02 23:43:18 | 49.34399 | 17.38942 | 155° | 68km/h | 10156m | 4.4m/s | -51.4°C | 57.1% | 0hPa | 2.7V | 00:00:00 | 00:00:00 | 00:00:00 | |
| POL1PZ | 2026-09-02 23:43:16 | 49.34413 | 17.38931 | 155° | 58km/h | 10151m | 5.8m/s | -51.4°C | 47.9% | 0hPa | 2.7V | 00:00:00 | 00:00:00 | 00:00:00 | |
| OM5KV | 2026-09-02 23:43:15 | 49.34425 | 17.38921 | 152° | 57km/h | 10146m | 3.3m/s | -51.4°C | 48.0% | 0hPa | 2.7V | 00:00:00 | 00:00:00 | 00:00:00 | |
| PG1ADW-2 | 2026-09-02 23:43:10 | 49.34514 | 17.38827 | 144° | 71km/h | 10112m | 7.6m/s | -51.1°C | 54.0% | 0hPa | 2.7V | 00:00:00 | 00:00:00 | 00:00:00 | |
| PETON7-10 | 2026-09-02 23:43:09 | 49.34530 | 17.38808 | 144° | 69km/h | 10104m | 7.9m/s | -51.0°C | 54.7% | 0hPa | 2.9V | 00:00:00 | 00:00:00 | 00:00:00 | |
| OE5DXL-15 | 2026-09-02 23:43:04 | 49.34601 | 17.38748 | 155° | 75km/h | 10079m | 5.0m/s | -50.8°C | 54.8% | 0hPa | 2.9V | 00:00:00 | 00:00:00 | 00:00:00 | |
| OM5KV | 2026-09-02 23:43:03 | 49.34601 | 17.38748 | 155° | 64km/h | 10079m | 5.1m/s | -50.9°C | 46.2% | 0hPa | 2.9V | 00:00:00 | 00:00:00 | 00:00:00 | |
| OE3OSB-13 | 2026-09-02 23:42:50 | 49.34834 | 17.38512 | 142° | 71km/h | 9993m | 7.1m/s | -50.0°C | 41.7% | -1.0hPa | 2.9V | 00:00:00 | 00:00:00 | 00:00:00 | |
| OM5KV | 2026-09-02 23:42:42 | 49.34936 | 17.38420 | 157° | 73km/h | 9960m | 4.2m/s | -49.7°C | 42.1% | 0hPa | 2.9V | 00:00:00 | 00:00:00 | 00:00:00 | |
| OE5DRO-10 | 2026-09-02 23:42:40 | 49.34984 | 17.38389 | 156° | 77km/h | 9947m | 5.6m/s | -49.6°C | 49.7% | 0hPa | 2.9V | 00:00:00 | 00:00:00 | 00:00:00 | |
| PETON7-10 | 2026-09-02 23:42:39 | 49.35001 | 17.38377 | 152° | 77km/h | 9941m | 6.2m/s | -49.5°C | 49.6% | 0hPa | 2.9V | 00:00:00 | 00:57:07 | 00:00:00 | |
| OM5KV | 2026-09-02 23:42:36 | 49.35034 | 17.38344 | 145° | 82km/h | 9930m | 6.4m/s | -49.5°C | 40.6% | 0hPa | 2.9V | 00:00:00 | 00:00:00 | 00:00:00 | |
| POL1PZ | 2026-09-02 23:42:35 | 49.35051 | 17.38324 | 142° | 84km/h | 9925m | 4.9m/s | -49.4°C | 40.7% | 0hPa | 2.9V | 00:00:00 | 00:00:00 | 00:00:00 | |
| OE5DXL-15 | 2026-09-02 23:42:34 | 49.35085 | 17.38283 | 143° | 78km/h | 9915m | 3.9m/s | -49.3°C | 48.4% | 0hPa | 2.9V | 00:00:00 | 00:00:00 | 00:00:00 | |
| PG1ADW-2 | 2026-09-02 23:42:30 | 49.35154 | 17.38208 | 146° | 78km/h | 9890m | 8.0m/s | -49.0°C | 46.5% | 0hPa | 2.9V | 00:00:00 | 00:00:00 | 00:00:00 | |
| PETON7-10 | 2026-09-02 23:42:24 | 49.35246 | 17.38135 | 151° | 82km/h | 9852m | 3.6m/s | -48.7°C | 46.5% | 0hPa | 2.9V | 00:00:00 | 00:00:00 | 08:30:00 | |
| OM5KV | 2026-09-02 23:42:23 | 49.35247 | 17.38135 | 151° | 71km/h | 9852m | 3.6m/s | -48.8°C | 39.3% | 0hPa | 2.9V | 00:00:00 | 00:00:00 | 00:00:00 | |
| OE5DRO-10 | 2026-09-02 23:42:21 | 49.35293 | 17.38088 | 146° | 82km/h | 9833m | 7.3m/s | -48.5°C | 46.5% | 0hPa | 2.9V | 00:00:00 | 00:00:00 | 00:00:00 | |
| OE3OSB-13 | 2026-09-02 23:42:18 | 49.35343 | 17.38042 | 153° | 78km/h | 9813m | 5.1m/s | -48.4°C | 39.8% | -1.0hPa | 2.9V | 00:00:00 | 00:00:00 | 00:00:00 | |
| POL1PZ | 2026-09-02 23:42:14 | 49.35400 | 17.37998 | 153° | 89km/h | 9796m | 6.6m/s | -48.3°C | 38.4% | 0hPa | 2.9V | 00:00:00 | 00:00:00 | 00:00:00 | |
| OM5KV | 2026-09-02 23:42:13 | 49.35420 | 17.37981 | 151° | 95km/h | 9790m | 6.3m/s | -48.2°C | 38.3% | 0hPa | 2.9V | 00:00:00 | 00:00:00 | 00:00:00 | |
| PG1ADW-2 | 2026-09-02 23:42:10 | 49.35500 | 17.37908 | 152° | 77km/h | 9770m | 5.4m/s | -48.0°C | 45.6% | 0hPa | 2.9V | 00:00:00 | 00:00:00 | 00:00:00 | |
| PETON7-10 | 2026-09-02 23:42:09 | 49.35518 | 17.37893 | 154° | 77km/h | 9764m | 5.1m/s | -47.9°C | 44.6% | 0hPa | 2.9V | 00:00:00 | 00:00:00 | 00:00:00 | |
| OM5KV | 2026-09-02 23:42:07 | 49.35536 | 17.37879 | 154° | 77km/h | 9758m | 8.1m/s | -47.9°C | 36.9% | 0hPa | 2.9V | 00:00:00 | 00:00:00 | 00:00:00 | |
| OE5DXL-15 | 2026-09-02 23:42:04 | 49.35602 | 17.37819 | 147° | 77km/h | 9725m | 6.4m/s | -47.5°C | 44.1% | 0hPa | 2.9V | 00:00:00 | 00:00:00 | 00:00:00 | |
| OE3OSB-13 | 2026-09-02 23:41:47 | 49.35898 | 17.37600 | 150° | 82km/h | 9629m | 6.5m/s | -46.7°C | 34.5% | -1.0hPa | 2.9V | 00:00:00 | 00:00:00 | 00:00:00 | |
| OE5DRO-10 | 2026-09-02 23:41:43 | 49.35972 | 17.37543 | 152° | 78km/h | 9606m | 5.2m/s | -46.4°C | 40.0% | 0hPa | 2.9V | 00:00:00 | 00:00:00 | 08:30:00 | |
| PETON7-10 | 2026-09-02 23:41:39 | 49.36038 | 17.37482 | 152° | 78km/h | 9587m | 4.2m/s | -46.2°C | 39.6% | 0hPa | 2.7V | 00:00:00 | 00:00:00 | 00:00:00 | |
| OM5KV | 2026-09-02 23:41:37 | 49.36055 | 17.37469 | 156° | 73km/h | 9583m | 3.7m/s | -46.3°C | 33.3% | 0hPa | 2.9V | 00:00:00 | 00:00:00 | 00:00:00 | |
| OE5DXL-15 | 2026-09-02 23:41:34 | 49.36127 | 17.37418 | 155° | 78km/h | 9564m | 3.8m/s | -46.0°C | 39.0% | 0hPa | 2.9V | 00:00:00 | 00:00:00 | 00:00:00 | |
| POL1PZ | 2026-09-02 23:41:33 | 49.36126 | 17.37418 | 155° | 80km/h | 9564m | 3.8m/s | -46.1°C | 33.1% | 0hPa | 2.9V | 00:00:00 | 00:00:00 | 00:00:00 | |
| OM5KV | 2026-09-02 23:41:31 | 49.36164 | 17.37391 | 157° | 82km/h | 9555m | 5.4m/s | -46.0°C | 33.3% | 0hPa | 2.9V | 00:00:00 | 00:00:00 | 00:00:00 | |
| PG1ADW-2 | 2026-09-02 23:41:30 | 49.36201 | 17.37365 | 155° | 77km/h | 9546m | 4.5m/s | -45.9°C | 39.4% | 0hPa | 2.9V | 00:00:00 | 00:55:58 | 00:00:00 | |
| OM5KV | 2026-09-02 23:41:25 | 49.36275 | 17.37308 | 157° | 77km/h | 9527m | 5.3m/s | -45.7°C | 33.6% | 0hPa | 2.9V | 00:00:00 | 00:00:00 | 00:00:00 | |
| PETON7-10 | 2026-09-02 23:41:24 | 49.36308 | 17.37286 | 158° | 77km/h | 9518m | 6.0m/s | -45.6°C | 38.2% | 0hPa | 2.9V | 00:00:00 | 00:00:00 | 00:00:00 | |
| OM5KV | 2026-09-02 23:41:20 | 49.36349 | 17.37257 | 155° | 57km/h | 9505m | 5.4m/s | -45.5°C | 32.9% | 0hPa | 2.9V | 00:00:00 | 00:00:00 | 00:00:00 | |
| OE3OSB-13 | 2026-09-02 23:41:16 | 49.36431 | 17.37194 | 151° | 82km/h | 9473m | 8.1m/s | -45.2°C | 31.6% | -1.0hPa | 2.9V | 00:00:00 | 00:00:00 | 00:00:00 | |
| OM5KV | 2026-09-02 23:41:14 | 49.36450 | 17.37178 | 152° | 86km/h | 9465m | 7.1m/s | -45.2°C | 31.8% | 0hPa | 2.9V | 00:00:00 | 00:00:00 | 00:00:00 | |
| POL1PZ | 2026-09-02 23:41:13 | 49.36469 | 17.37161 | 150° | 88km/h | 9459m | 6.3m/s | -45.1°C | 31.9% | 0hPa | 2.9V | 00:00:00 | 00:00:00 | 00:00:00 | |
| PG1ADW-2 | 2026-09-02 23:41:10 | 49.36549 | 17.37097 | 158° | 77km/h | 9439m | 4.5m/s | -44.9°C | 37.0% | 0hPa | 2.9V | 00:00:00 | 00:00:00 | 08:30:00 | |
| PETON7-10 | 2026-09-02 23:41:09 | 49.36568 | 17.37085 | 158° | 77km/h | 9434m | 5.1m/s | -44.8°C | 36.2% | 0hPa | 2.7V | 00:00:00 | 00:55:37 | 00:00:00 | |
| OE5DRO-10 | 2026-09-02 23:41:05 | 49.36647 | 17.37033 | 158° | 73km/h | 9403m | 7.3m/s | -44.5°C | 35.3% | 0hPa | 2.7V | 00:00:00 | 00:00:00 | 00:00:00 | |
| OE5DXL-15 | 2026-09-02 23:41:04 | 49.36667 | 17.37020 | 158° | 69km/h | 9397m | 4.6m/s | -44.5°C | 35.9% | 0hPa | 2.7V | 00:00:00 | 00:00:00 | 00:00:00 | |
| OE3OSB-13 | 2026-09-02 23:40:45 | 49.36963 | 17.36769 | 151° | 57km/h | 9282m | 8.8m/s | -43.6°C | 30.4% | -1.0hPa | 2.7V | 00:00:00 | 00:00:00 | 00:00:00 | |
| OM5KV | 2026-09-02 23:40:44 | 49.36963 | 17.36769 | 153° | 58km/h | 9282m | 8.8m/s | -43.6°C | 30.6% | 0hPa | 2.7V | 00:00:00 | 00:00:00 | 00:00:00 | |
| OM5KV | 2026-09-02 23:40:39 | 49.37058 | 17.36695 | 156° | 75km/h | 9243m | 7.8m/s | -43.3°C | 30.5% | 0hPa | 2.7V | 00:00:00 | 00:00:00 | 00:00:00 | |
| OE5DXL-15 | 2026-09-02 23:40:34 | 49.37137 | 17.36657 | 163° | 69km/h | 9213m | 5.1m/s | 0°C | 0% | 0hPa | 2.7V | 00:00:00 | 00:55:02 | 00:00:00 | |
| POL1PZ | 2026-09-02 23:40:32 | 49.37169 | 17.36642 | 163° | 68km/h | 9199m | 8.6m/s | -42.9°C | 29.1% | 0hPa | 2.7V | 00:00:00 | 00:00:00 | 00:00:00 | |
| PG1ADW-2 | 2026-09-02 23:40:30 | 49.37203 | 17.36624 | 161° | 69km/h | 9183m | 7.5m/s | -42.7°C | 34.0% | 0hPa | 2.7V | 00:00:00 | 00:00:00 | 00:00:00 | |
| OE5DRO-10 | 2026-09-02 23:40:27 | 49.37256 | 17.36597 | 162° | 68km/h | 9164m | 4.9m/s | 0°C | 0% | 0hPa | 2.7V | 00:00:00 | 00:00:00 | 00:00:00 | |
| PETON7-10 | 2026-09-02 23:40:24 | 49.37299 | 17.36572 | 154° | 69km/h | 9148m | 4.8m/s | !°C | 34.1% | 0hPa | 2.7V | 00:00:00 | 00:54:52 | 00:00:00 | |
| OM5KV | 2026-09-02 23:40:18 | 49.37368 | 17.36509 | 144° | 84km/h | 9103m | 7.9m/s | -42.3°C | 27.3% | 0hPa | 2.7V | 00:00:00 | 00:00:00 | 00:00:00 | |
| OE3OSB-13 | 2026-09-02 23:40:14 | 49.37449 | 17.36406 | 140° | 68km/h | 9067m | 8.5m/s | -42.0°C | 26.8% | -1.0hPa | 2.7V | 00:00:00 | 00:00:00 | 00:00:00 | |
| OM5KV | 2026-09-02 23:40:12 | 49.37462 | 17.36390 | 144° | 62km/h | 9057m | 10.4m/s | -41.8°C | 26.8% | 0hPa | 2.7V | 00:00:00 | 00:00:00 | 00:00:00 | |
| POL1PZ | 2026-09-02 23:40:11 | 49.37474 | 17.36377 | 149° | 58km/h | 9048m | 8.7m/s | -41.7°C | 26.7% | 0hPa | 2.7V | 00:00:00 | 00:00:00 | 00:00:00 | |
| PG1ADW-2 | 2026-09-02 23:40:10 | 49.37501 | 17.36356 | 156° | 66km/h | 9032m | 6.9m/s | -41.5°C | 31.0% | 0hPa | 2.7V | 00:00:00 | 00:54:38 | 00:00:00 | |
| PETON7-10 | 2026-09-02 23:40:09 | 49.37515 | 17.36346 | 156° | 66km/h | 9025m | 6.8m/s | -41.5°C | 31.1% | 0hPa | 2.7V | 00:00:00 | 00:00:00 | 08:30:00 | |
| OE5DRO-10 | 2026-09-02 23:40:08 | 49.37531 | 17.36335 | 156° | 64km/h | 9019m | 5.0m/s | 0°C | 0% | 0hPa | 2.9V | 00:00:00 | 00:00:00 | 00:00:00 | |
| OM5KV | 2026-09-02 23:40:06 | 49.37547 | 17.36324 | 157° | 71km/h | 9014m | 4.7m/s | -41.5°C | 26.4% | 0hPa | 2.9V | 00:00:00 | 00:00:00 | 00:00:00 | |
| OE5DXL-15 | 2026-09-02 23:40:04 | 49.37595 | 17.36289 | 154° | 66km/h | 8998m | 6.1m/s | 0°C | 0% | 0hPa | 2.9V | 00:00:00 | 00:00:00 | 00:00:00 | |
| OM5KV | 2026-09-02 23:40:00 | 49.37639 | 17.36256 | 156° | 66km/h | 8978m | 7.3m/s | -41.2°C | 25.1% | 0hPa | 2.9V | 00:00:00 | 00:00:00 | 00:00:00 | |
| PETON7-10 | 2026-09-02 23:39:54 | 49.37730 | 17.36152 | 128° | 60km/h | 8934m | 5.6m/s | -40.8°C | 30.0% | 0hPa | 2.9V | 00:00:00 | 00:00:00 | 00:00:00 | |
| PG1ADW-2 | 2026-09-02 23:39:50 | 49.37764 | 17.36076 | 123° | 60km/h | 8913m | 4.0m/s | 0°C | 0% | 0hPa | 2.9V | 00:00:00 | 00:00:00 | 00:00:00 | |
| OE5DRO-10 | 2026-09-02 23:39:49 | 49.37771 | 17.36058 | 122° | 62km/h | 8909m | 5.1m/s | 0°C | 0% | 0hPa | 2.9V | 00:00:00 | 00:00:00 | 00:00:00 | |
| OE3OSB-13 | 2026-09-02 23:39:43 | 49.37822 | 17.35947 | 129° | 60km/h | 8867m | 7.2m/s | -40.3°C | 22.6% | -1.0hPa | 2.9V | 00:00:00 | 00:00:00 | 00:00:00 | |
| PETON7-10 | 2026-09-02 23:39:39 | 49.37864 | 17.35875 | 133° | 64km/h | 8844m | 4.9m/s | -40.1°C | 25.6% | 0hPa | 2.9V | 00:00:00 | 00:54:07 | 00:00:00 | |
| S52SK | 2026-09-02 23:39:38 | 49.37864 | 17.35875 | 134° | 60km/h | 8844m | 5.0m/s | 0°C | 0% | 0hPa | 2.9V | 00:00:00 | 00:00:00 | 00:00:00 | |
| S52SK | 2026-09-02 23:39:32 | 49.37929 | 17.35779 | 140° | 71km/h | 8812m | 5.3m/s | 0°C | 0% | 0hPa | 2.9V | 00:00:00 | 00:00:00 | 00:00:00 | |
| OE5DRO-10 | 2026-09-02 23:39:30 | 49.37969 | 17.35722 | 137° | 66km/h | 8799m | 3.8m/s | 0°C | 0% | 0hPa | 2.9V | 00:00:00 | 00:00:00 | 00:00:00 | |
| PETON7-10 | 2026-09-02 23:39:24 | 49.38043 | 17.35623 | 133° | 71km/h | 8762m | 4.8m/s | -39.3°C | 24.1% | 0hPa | 2.9V | 00:00:00 | 00:00:00 | 00:00:00 | |
| OM5KV | 2026-09-02 23:39:14 | 49.38167 | 17.35449 | 137° | 62km/h | 8704m | 5.3m/s | -38.8°C | 19.7% | 0hPa | 2.9V | 00:00:00 | 00:00:00 | 00:00:00 | |
| OE3OSB-13 | 2026-09-02 23:39:12 | 49.38194 | 17.35390 | 114° | 64km/h | 8686m | 4.2m/s | -38.7°C | 19.4% | -1.0hPa | 2.9V | 00:00:00 | 00:00:00 | 00:00:00 | |
| PG1ADW-2 | 2026-09-02 23:39:10 | 49.38207 | 17.35342 | 115° | 71km/h | 8677m | 4.4m/s | 0°C | 0% | 0hPa | 2.9V | 00:00:00 | 00:00:00 | 00:00:00 | |
| PETON7-10 | 2026-09-02 23:39:09 | 49.38215 | 17.35317 | 117° | 71km/h | 8672m | 3.7m/s | -38.5°C | 22.8% | 0hPa | 2.9V | 00:00:00 | 00:00:00 | 00:00:00 | |
| OM5KV | 2026-09-02 23:39:02 | 49.38279 | 17.35172 | 137° | 66km/h | 8635m | 6.0m/s | -38.3°C | 20.8% | 0hPa | 2.9V | 00:00:00 | 00:00:00 | 00:00:00 | |
| PETON7-10 | 2026-09-02 23:38:54 | 49.38396 | 17.35018 | 133° | 68km/h | 8587m | 7.8m/s | -37.9°C | 25.8% | 0hPa | 2.9V | 00:00:00 | 00:53:22 | 00:00:00 | |
| OM5KV | 2026-09-02 23:38:51 | 49.38422 | 17.34974 | 132° | 77km/h | 8571m | 8.1m/s | -37.8°C | 21.9% | 0hPa | 2.9V | 00:00:00 | 00:00:00 | 00:00:00 | |
| PG1ADW-2 | 2026-09-02 23:38:49 | 49.38456 | 17.34911 | 126° | 69km/h | 8549m | 5.6m/s | 0°C | 0% | 0hPa | 2.9V | 00:00:00 | 00:53:17 | 00:00:00 | |
| OE5DRO-10 | 2026-09-02 23:38:43 | 49.38508 | 17.34796 | 119° | 62km/h | 8516m | 7.7m/s | 0°C | 0% | 0hPa | 2.9V | 00:00:00 | 00:00:00 | 00:00:00 | |
| OE3OSB-13 | 2026-09-02 23:38:41 | 49.38531 | 17.34719 | 113° | 73km/h | 8492m | 7.0m/s | -37.1°C | 19.6% | -1.0hPa | 2.9V | 00:00:00 | 00:00:00 | 00:00:00 | |
| PETON7-10 | 2026-09-02 23:38:39 | 49.38538 | 17.34693 | 117° | 69km/h | 8486m | 5.2m/s | -37.0°C | 23.2% | 0hPa | 2.9V | 00:00:00 | 00:00:00 | 00:00:00 | |
| OM5KV | 2026-09-02 23:38:36 | 49.38557 | 17.34647 | 128° | 66km/h | 8473m | 5.7m/s | -36.9°C | 20.0% | 0hPa | 2.9V | 00:00:00 | 00:00:00 | 00:00:00 | |
| POL1PZ | 2026-09-02 23:38:28 | 49.38653 | 17.34492 | 132° | 77km/h | 8432m | 7.6m/s | -36.5°C | 18.9% | 0hPa | 2.9V | 00:00:00 | 00:00:00 | 00:00:00 | |
| PG1ADW-2 | 2026-09-02 23:38:27 | 49.38679 | 17.34449 | 134° | 60km/h | 8416m | 7.6m/s | 0°C | 0% | 0hPa | 2.9V | 00:00:00 | 00:00:00 | 00:00:00 | |
| OM5KV | 2026-09-02 23:38:26 | 49.38679 | 17.34449 | 135° | 75km/h | 8416m | 7.6m/s | -36.4°C | 18.7% | 0hPa | 2.9V | 00:00:00 | 00:00:00 | 00:00:00 | |
| PETON7-10 | 2026-09-02 23:38:24 | 49.38712 | 17.34389 | 125° | 68km/h | 8397m | 4.7m/s | -36.2°C | 21.9% | 0hPa | 2.9V | 00:00:00 | 00:00:00 | 00:00:00 | |
| S52SK | 2026-09-02 23:38:17 | 49.38769 | 17.34263 | 134° | 78km/h | 8367m | 5.3m/s | 0°C | 0% | 0hPa | 2.9V | 00:00:00 | 00:00:00 | 00:00:00 | |
| OM5KV | 2026-09-02 23:38:15 | 49.38797 | 17.34219 | 136° | 78km/h | 8357m | 6.2m/s | -35.8°C | 19.6% | 0hPa | 2.9V | 00:00:00 | 00:00:00 | 00:00:00 | |
| S52SK | 2026-09-02 23:38:11 | 49.38837 | 17.34134 | 116° | 60km/h | 8331m | 8.8m/s | 0°C | 0% | 0hPa | 2.9V | 00:00:00 | 00:00:00 | 00:00:00 | |
| OE3OSB-13 | 2026-09-02 23:38:10 | 49.38854 | 17.34066 | 111° | 62km/h | 8311m | 6.4m/s | -35.4°C | 20.9% | -1.0hPa | 2.9V | 00:00:00 | 00:00:00 | 00:00:00 | |
| PETON7-10 | 2026-09-02 23:38:09 | 49.38854 | 17.34066 | 112° | 62km/h | 8311m | 6.4m/s | -35.4°C | 24.1% | 0hPa | 2.9V | 00:00:00 | 00:52:37 | 00:00:00 | |
| POL1PZ | 2026-09-02 23:38:07 | 49.38861 | 17.34044 | 120° | 62km/h | 8305m | 5.7m/s | -35.4°C | 21.1% | 0hPa | 2.9V | 00:00:00 | 00:00:00 | 00:00:00 | |
| OM5KV | 2026-09-02 23:37:59 | 49.38938 | 17.33893 | 124° | 71km/h | 8249m | 6.7m/s | -34.8°C | 19.9% | 0hPa | 2.9V | 00:00:00 | 00:00:00 | 00:00:00 | |
| PETON7-10 | 2026-09-02 23:37:54 | 49.38979 | 17.33763 | 109° | 69km/h | 8221m | 2.8m/s | -34.5°C | 21.7% | 0hPa | 2.9V | 00:00:00 | 00:00:00 | 08:30:00 | |
| OM5KV | 2026-09-02 23:37:48 | 49.39009 | 17.33659 | 123° | 73km/h | 8194m | 7.8m/s | -34.3°C | 18.6% | 0hPa | 2.9V | 00:00:00 | 00:00:00 | 00:00:00 | |
| POL1PZ | 2026-09-02 23:37:47 | 49.39021 | 17.33634 | 126° | 82km/h | 8186m | 7.1m/s | -34.3°C | 18.7% | 0hPa | 2.9V | 00:00:00 | 00:00:00 | 00:00:00 | |
| OE3JTB-15 | 2026-09-02 23:37:42 | 49.39092 | 17.33487 | 123° | 58km/h | 8147m | 7.2m/s | -33.9°C | 22.9% | 0hPa | 2.9V | 00:00:00 | 00:00:00 | 00:00:00 | |
| PETON7-10 | 2026-09-02 23:37:39 | 49.39111 | 17.33421 | 108° | 66km/h | 8128m | 5.7m/s | -33.8°C | 22.7% | 0hPa | 2.7V | 00:00:00 | 00:00:00 | 00:00:00 | |
| OM5KV | 2026-09-02 23:37:35 | 49.39125 | 17.33354 | 114° | 55km/h | 8113m | 6.0m/s | -33.7°C | 20.0% | 0hPa | 2.7V | 00:00:00 | 00:00:00 | 00:00:00 | |
| OM5KV | 2026-09-02 23:37:28 | 49.39203 | 17.33204 | 127° | 71km/h | 8063m | 4.7m/s | -33.2°C | 20.1% | 0hPa | 2.7V | 00:00:00 | 00:00:00 | 00:00:00 | |
| POL1PZ | 2026-09-02 23:37:26 | 49.39221 | 17.33161 | 121° | 62km/h | 8051m | 7.8m/s | -33.1°C | 19.4% | 0hPa | 2.7V | 00:00:00 | 00:00:00 | 00:00:00 | |
| PETON7-10 | 2026-09-02 23:37:24 | 49.39240 | 17.33101 | 119° | 60km/h | 8032m | 5.0m/s | -32.8°C | 22.2% | 0hPa | 2.7V | 00:00:00 | 00:51:52 | 00:00:00 | |
| OM5KV | 2026-09-02 23:37:18 | 49.39282 | 17.33010 | 124° | 49km/h | 7997m | 9.0m/s | -32.5°C | 18.1% | 0hPa | 2.7V | 00:00:00 | 00:00:00 | 00:00:00 | |
| PG1ADW-2 | 2026-09-02 23:37:17 | 49.39295 | 17.32977 | 118° | 57km/h | 7983m | 5.2m/s | 0°C | 0% | 0hPa | 2.7V | 00:00:00 | 00:00:00 | 00:00:00 | |
| OE5DRO-10 | 2026-09-02 23:37:13 | 49.39323 | 17.32898 | 120° | 73km/h | 7959m | 8.1m/s | 0°C | 0% | 0hPa | 2.7V | 00:00:00 | 00:00:00 | 00:00:00 | |
| OM5KV | 2026-09-02 23:37:12 | 49.39323 | 17.32898 | 120° | 68km/h | 7959m | 8.2m/s | -32.2°C | 18.0% | 0hPa | 2.7V | 00:00:00 | 00:00:00 | 00:00:00 | |
| PETON7-10 | 2026-09-02 23:37:09 | 49.39356 | 17.32796 | 113° | 69km/h | 7931m | 5.6m/s | -31.9°C | 20.0% | 0hPa | 2.7V | 00:00:00 | 00:00:00 | 00:00:00 | |
| OE3OSB-13 | 2026-09-02 23:37:08 | 49.39369 | 17.32749 | 114° | 58km/h | 7920m | 4.4m/s | -31.8°C | 17.4% | -1.0hPa | 2.9V | 00:00:00 | 00:00:00 | 00:00:00 | |
| OE3JTB-15 | 2026-09-02 23:37:06 | 49.39375 | 17.32729 | 120° | 69km/h | 7916m | 4.9m/s | -31.7°C | 19.8% | 0hPa | 2.9V | 00:00:00 | 00:00:00 | 00:00:00 | |
| POL1PZ | 2026-09-02 23:37:05 | 49.39375 | 17.32729 | 120° | 57km/h | 7916m | 5.0m/s | -31.8°C | 17.5% | 0hPa | 2.9V | 00:00:00 | 00:00:00 | 00:00:00 | |
| OM5KV | 2026-09-02 23:37:01 | 49.39413 | 17.32657 | 134° | 66km/h | 7889m | 8.2m/s | -31.6°C | 17.5% | 0hPa | 2.9V | 00:00:00 | 00:00:00 | 00:00:00 | |
| PETON7-10 | 2026-09-02 23:36:54 | 49.39499 | 17.32459 | 117° | 71km/h | 7835m | 4.9m/s | -31.0°C | 20.4% | 0hPa | 2.9V | 00:00:00 | 00:00:00 | 00:00:00 | |
| POL1PZ | 2026-09-02 23:36:44 | 49.39585 | 17.32256 | 126° | 71km/h | 7781m | 5.2m/s | -30.6°C | 18.0% | 0hPa | 2.9V | 00:00:00 | 00:00:00 | 00:00:00 | |
| PETON7-10 | 2026-09-02 23:36:39 | 49.39657 | 17.32139 | 137° | 68km/h | 7746m | 4.3m/s | -30.2°C | 19.7% | 0hPa | 2.9V | 00:00:00 | 00:51:07 | 00:00:00 | |
| OE3OSB-13 | 2026-09-02 23:36:37 | 49.39691 | 17.32087 | 132° | 71km/h | 7729m | 7.3m/s | -30.1°C | 17.3% | -1.0hPa | 2.9V | 00:00:00 | 00:00:00 | 00:00:00 | |
| OM5KV | 2026-09-02 23:36:34 | 49.39703 | 17.32065 | 130° | 80km/h | 7723m | 5.3m/s | -30.0°C | 17.1% | 0hPa | 2.9V | 00:00:00 | 00:00:00 | 00:00:00 | |
| OM5KV | 2026-09-02 23:36:29 | 49.39777 | 17.31918 | 128° | 62km/h | 7677m | 7.0m/s | -29.6°C | 16.5% | 0hPa | 2.9V | 00:00:00 | 00:00:00 | 00:00:00 | |
| PETON7-10 | 2026-09-02 23:36:24 | 49.39811 | 17.31820 | 119° | 77km/h | 7652m | 4.2m/s | -29.3°C | 18.7% | 0hPa | 2.9V | 00:00:00 | 00:00:00 | 00:00:00 | |
| OM5KV | 2026-09-02 23:36:23 | 49.39811 | 17.31820 | 119° | 68km/h | 7652m | 4.2m/s | -29.3°C | 16.6% | 0hPa | 2.9V | 00:00:00 | 00:00:00 | 00:00:00 | |
| OM5KV | 2026-09-02 23:36:17 | 49.39886 | 17.31678 | 136° | 78km/h | 7617m | 4.0m/s | -29.0°C | 16.1% | 0hPa | 2.9V | 00:00:00 | 00:00:00 | 00:00:00 | |
| PETON7-10 | 2026-09-02 23:36:09 | 49.39977 | 17.31453 | 121° | 69km/h | 7567m | 5.3m/s | -28.5°C | 17.7% | 0hPa | 2.9V | 00:00:00 | 00:00:00 | 00:00:00 | |
| OE3OSB-13 | 2026-09-02 23:36:06 | 49.40015 | 17.31359 | 119° | 77km/h | 7540m | 7.8m/s | -28.3°C | 15.1% | -1.0hPa | 2.9V | 00:00:00 | 00:00:00 | 00:00:00 | |
| POL1PZ | 2026-09-02 23:36:01 | 49.40042 | 17.31275 | 113° | 78km/h | 7524m | 4.3m/s | -28.1°C | 14.7% | 0hPa | 2.9V | 00:00:00 | 00:00:00 | 00:00:00 | |
| OM5KV | 2026-09-02 23:36:00 | 49.40049 | 17.31247 | 113° | 75km/h | 7520m | 3.7m/s | -28.1°C | 14.8% | 0hPa | 2.9V | 00:00:00 | 00:00:00 | 00:00:00 | |
| PETON7-10 | 2026-09-02 23:35:54 | 49.40108 | 17.31107 | 138° | 75km/h | 7476m | 4.6m/s | -27.6°C | 16.3% | 0hPa | 2.9V | 00:00:00 | 00:50:22 | 00:00:00 | |
| OM5KV | 2026-09-02 23:35:47 | 49.40169 | 17.30978 | 117° | 75km/h | 7433m | 9.9m/s | -27.2°C | 13.8% | 0hPa | 2.9V | 00:00:00 | 00:00:00 | 00:00:00 | |
| PETON7-10 | 2026-09-02 23:35:39 | 49.40263 | 17.30745 | 132° | 78km/h | 7363m | 9.1m/s | -26.5°C | 15.1% | 0hPa | 2.9V | 00:00:00 | 00:00:00 | 08:30:00 | |
| OE3JTB-15 | 2026-09-02 23:35:34 | 49.40327 | 17.30615 | 117° | 71km/h | 7332m | 4.8m/s | -26.2°C | 13.9% | 0hPa | 2.9V | 00:00:00 | 00:00:00 | 00:00:00 | |
| OM5KV | 2026-09-02 23:35:31 | 49.40343 | 17.30556 | 112° | 80km/h | 7320m | 7.5m/s | -26.1°C | 12.1% | 0hPa | 2.9V | 00:00:00 | 00:00:00 | 00:00:00 | |
| OM5KV | 2026-09-02 23:35:25 | 49.40405 | 17.30409 | 135° | 68km/h | 7278m | 6.9m/s | -25.8°C | 12.4% | 0hPa | 2.9V | 00:00:00 | 00:00:00 | 00:00:00 | |
| PETON7-10 | 2026-09-02 23:35:24 | 49.40426 | 17.30373 | 128° | 66km/h | 7267m | 4.4m/s | -25.7°C | 14.1% | 0hPa | 2.9V | 00:00:00 | 00:00:00 | 00:00:00 | |
| OM5KV | 2026-09-02 23:35:20 | 49.40446 | 17.30314 | 113° | 66km/h | 7252m | 4.5m/s | -25.6°C | 12.9% | 0hPa | 2.9V | 00:00:00 | 00:00:00 | 00:00:00 | |
| POL1PZ | 2026-09-02 23:35:19 | 49.40453 | 17.30290 | 115° | 71km/h | 7246m | 7.2m/s | -25.5°C | 12.8% | 0hPa | 2.9V | 00:00:00 | 00:00:00 | 00:00:00 | |
| OM5KV | 2026-09-02 23:35:13 | 49.40519 | 17.30153 | 127° | 62km/h | 7208m | 6.6m/s | -25.1°C | 12.4% | 0hPa | 2.9V | 00:00:00 | 00:00:00 | 00:00:00 | |
| PETON7-10 | 2026-09-02 23:35:09 | 49.40549 | 17.30036 | 107° | 71km/h | 7180m | 5.1m/s | -24.8°C | 13.4% | 0hPa | 2.9V | 00:00:00 | 00:49:37 | 00:00:00 | |
| OE3OSB-13 | 2026-09-02 23:35:03 | 49.40608 | 17.29893 | 135° | 75km/h | 7145m | 8.5m/s | -24.6°C | 11.1% | -1.0hPa | 2.9V | 00:00:00 | 00:00:00 | 00:00:00 | |
| OM5KV | 2026-09-02 23:34:58 | 49.40659 | 17.29808 | 133° | 69km/h | 7120m | 8.1m/s | -24.4°C | 9.9% | 0hPa | 2.9V | 00:00:00 | 00:00:00 | 00:00:00 | |
| OE3JTB-15 | 2026-09-02 23:34:55 | 49.40699 | 17.29726 | 121° | 68km/h | 7091m | 6.4m/s | -24.1°C | 10.3% | 0hPa | 2.9V | 00:00:00 | 00:49:23 | 00:00:00 | |
| PETON7-10 | 2026-09-02 23:34:54 | 49.40708 | 17.29702 | 122° | 69km/h | 7085m | 6.1m/s | -24.0°C | 10.0% | 0hPa | 2.9V | 00:00:00 | 00:00:00 | 00:00:00 | |
| OM5KV | 2026-09-02 23:34:47 | 49.40765 | 17.29549 | 123° | 75km/h | 7055m | 6.0m/s | -23.8°C | 9.6% | 0hPa | 2.9V | 00:00:00 | 00:00:00 | 00:00:00 | |
| OM5KV | 2026-09-02 23:34:41 | 49.40833 | 17.29420 | 132° | 55km/h | 7016m | 6.1m/s | -23.6°C | 10.3% | 0hPa | 2.9V | 00:00:00 | 00:00:00 | 00:00:00 | |
| PETON7-10 | 2026-09-02 23:34:39 | 49.40856 | 17.29371 | 120° | 64km/h | 7000m | 4.8m/s | -23.4°C | 12.0% | 0hPa | 2.9V | 00:00:00 | 00:00:00 | 00:00:00 | |
| OE3OSB-13 | 2026-09-02 23:34:33 | 49.40925 | 17.29210 | 133° | 64km/h | 6955m | 8.3m/s | -23.1°C | 10.2% | -1.0hPa | 2.9V | 00:00:00 | 00:00:00 | 00:00:00 | |
| POL1PZ | 2026-09-02 23:34:29 | 49.40945 | 17.29176 | 133° | 55km/h | 6939m | 7.6m/s | -23.0°C | 10.6% | 0hPa | 2.9V | 00:00:00 | 00:00:00 | 00:00:00 | |
| OE3JTB-15 | 2026-09-02 23:34:26 | 49.40982 | 17.29108 | 131° | 69km/h | 6914m | 5.5m/s | -23.0°C | 13.7% | 0hPa | 2.9V | 00:00:00 | 00:00:00 | 08:30:00 | |
| PETON7-10 | 2026-09-02 23:34:24 | 49.40999 | 17.29073 | 124° | 68km/h | 6902m | 7.0m/s | -22.9°C | 14.0% | 0hPa | 2.7V | 00:00:00 | 00:48:52 | 00:00:00 | |
| OM5KV | 2026-09-02 23:34:18 | 49.41035 | 17.28979 | 130° | 60km/h | 6875m | 5.5m/s | -22.8°C | 12.9% | 0hPa | 2.7V | 00:00:00 | 00:00:00 | 00:00:00 | |
| OM5KV | 2026-09-02 23:34:12 | 49.41117 | 17.28847 | 132° | 77km/h | 6835m | 7.7m/s | -22.4°C | 12.6% | 0hPa | 2.7V | 00:00:00 | 00:00:00 | 00:00:00 | |
| PETON7-10 | 2026-09-02 23:34:09 | 49.41153 | 17.28760 | 115° | 68km/h | 6806m | 6.7m/s | -22.1°C | 13.6% | 0hPa | 2.7V | 00:00:00 | 00:00:00 | 00:00:00 | |
| POL1PZ | 2026-09-02 23:34:08 | 49.41153 | 17.28760 | 115° | 62km/h | 6806m | 6.7m/s | -22.2°C | 12.3% | 0hPa | 2.9V | 00:00:00 | 00:00:00 | 00:00:00 | |
| OE3OSB-13 | 2026-09-02 23:34:01 | 49.41238 | 17.28602 | 136° | 73km/h | 6753m | 6.7m/s | -21.7°C | 11.8% | -1.0hPa | 2.9V | 00:00:00 | 00:00:00 | 00:00:00 | |
| OE3JTB-15 | 2026-09-02 23:33:57 | 49.41293 | 17.28530 | 140° | 77km/h | 6728m | 4.7m/s | -21.4°C | 12.6% | 0hPa | 2.9V | 00:00:00 | 00:00:00 | 00:00:00 | |
| PETON7-10 | 2026-09-02 23:33:54 | 49.41332 | 17.28472 | 131° | 78km/h | 6712m | 5.7m/s | -21.3°C | 12.3% | 0hPa | 2.9V | 00:00:00 | 00:00:00 | 00:00:00 | |
| POL1PZ | 2026-09-02 23:33:48 | 49.41402 | 17.28346 | 133° | 89km/h | 6684m | 3.2m/s | -21.1°C | 10.9% | 0hPa | 2.9V | 00:00:00 | 00:00:00 | 00:00:00 | |
| PETON7-10 | 2026-09-02 23:33:39 | 49.41525 | 17.28127 | 139° | 77km/h | 6609m | 5.5m/s | -20.8°C | 11.8% | 0hPa | 2.9V | 00:00:00 | 00:48:07 | 00:00:00 | |
| OM5KV | 2026-09-02 23:33:32 | 49.41595 | 17.28012 | 123° | 77km/h | 6562m | 6.9m/s | -20.5°C | 9.5% | 0hPa | 2.9V | 00:00:00 | 00:00:00 | 00:00:00 | |
| OE3OSB-13 | 2026-09-02 23:33:30 | 49.41629 | 17.27932 | 125° | 84km/h | 6540m | 6.0m/s | -20.3°C | 9.1% | -1.0hPa | 2.9V | 00:00:00 | 00:00:00 | 00:00:00 | |
| OE3JTB-15 | 2026-09-02 23:33:28 | 49.41657 | 17.27882 | 134° | 69km/h | 6530m | 5.1m/s | -20.2°C | 9.8% | 0hPa | 2.9V | 00:00:00 | 00:47:56 | 00:00:00 | |
| OM5KV | 2026-09-02 23:33:26 | 49.41673 | 17.27859 | 138° | 86km/h | 6524m | 8.0m/s | -20.2°C | 8.6% | 0hPa | 2.9V | 00:00:00 | 00:00:00 | 00:00:00 | |
| PETON7-10 | 2026-09-02 23:33:24 | 49.41720 | 17.27805 | 147° | 68km/h | 6504m | 6.4m/s | -20.1°C | 9.5% | 0hPa | 2.9V | 00:00:00 | 00:00:00 | 08:30:00 | |
| OM5KV | 2026-09-02 23:33:19 | 49.41767 | 17.27747 | 132° | 57km/h | 6476m | 7.8m/s | -20.1°C | 9.7% | 0hPa | 2.9V | 00:00:00 | 00:00:00 | 00:00:00 | |
| PETON7-10 | 2026-09-02 23:33:09 | 49.41897 | 17.27527 | 121° | 62km/h | 6405m | 6.8m/s | -19.8°C | 11.7% | 0hPa | 2.9V | 00:00:00 | 00:00:00 | 00:00:00 | |
| POL1PZ | 2026-09-02 23:33:07 | 49.41904 | 17.27506 | 119° | 62km/h | 6399m | 6.5m/s | -19.8°C | 11.7% | 0hPa | 2.9V | 00:00:00 | 00:00:00 | 00:00:00 | |
| OE3JTB-15 | 2026-09-02 23:32:59 | 49.41997 | 17.27330 | 128° | 60km/h | 6338m | 7.2m/s | -19.5°C | 19.0% | 0hPa | 2.9V | 00:00:00 | 00:00:00 | 00:00:00 | |
| OM5KV | 2026-09-02 23:32:57 | 49.42003 | 17.27315 | 119° | 49km/h | 6330m | 8.2m/s | -19.5°C | 18.1% | 0hPa | 2.9V | 00:00:00 | 00:00:00 | 00:00:00 | |
| PETON7-10 | 2026-09-02 23:32:54 | 49.42031 | 17.27226 | 119° | 62km/h | 6304m | 5.4m/s | -19.3°C | 21.0% | 0hPa | 2.9V | 00:00:00 | 00:47:22 | 00:00:00 | |
| POL1PZ | 2026-09-02 23:32:47 | 49.42095 | 17.27091 | 126° | 60km/h | 6270m | 6.2m/s | -19.1°C | 20.9% | 0hPa | 2.9V | 00:00:00 | 00:00:00 | 00:00:00 | |
| OM5KV | 2026-09-02 23:32:40 | 49.42144 | 17.26954 | 116° | 47km/h | 6215m | 10.1m/s | -18.9°C | 23.9% | 0hPa | 2.9V | 00:00:00 | 00:00:00 | 00:00:00 | |
| PETON7-10 | 2026-09-02 23:32:39 | 49.42153 | 17.26922 | 115° | 58km/h | 6197m | 9.6m/s | -19.1°C | 32.5% | 0hPa | 2.9V | 00:00:00 | 00:00:00 | 00:00:00 | |
| OM5KV | 2026-09-02 23:32:35 | 49.42173 | 17.26879 | 133° | 53km/h | 6175m | 4.4m/s | -19.3°C | 34.1% | 0hPa | 2.9V | 00:00:00 | 00:00:00 | 00:00:00 | |
| OE3JTB-15 | 2026-09-02 23:32:30 | 49.42232 | 17.26753 | 115° | 62km/h | 6137m | 6.3m/s | -18.9°C | 36.8% | 0hPa | 2.9V | 00:00:00 | 00:00:00 | 00:00:00 | |
| OM5KV | 2026-09-02 23:32:29 | 49.42232 | 17.26753 | 115° | 73km/h | 6137m | 6.3m/s | -19.0°C | 34.5% | 0hPa | 2.9V | 00:00:00 | 00:00:00 | 00:00:00 | |
| OE3OSB-13 | 2026-09-02 23:32:28 | 49.42242 | 17.26702 | 102° | 64km/h | 6127m | 4.9m/s | -18.9°C | 34.2% | -1.0hPa | 2.9V | 00:00:00 | 00:00:00 | 00:00:00 | |
| POL1PZ | 2026-09-02 23:32:27 | 49.42245 | 17.26678 | 101° | 60km/h | 6121m | 6.1m/s | -18.8°C | 34.3% | 0hPa | 2.9V | 00:00:00 | 00:00:00 | 00:00:00 | |
| PETON7-10 | 2026-09-02 23:32:24 | 49.42255 | 17.26621 | 113° | 62km/h | 6105m | 6.0m/s | -18.6°C | 35.9% | 0hPa | 2.9V | 00:00:00 | 00:00:00 | 00:00:00 | |
| PETON7-10 | 2026-09-02 23:32:09 | 49.42341 | 17.26286 | 129° | 62km/h | 6017m | 4.9m/s | -17.8°C | 34.8% | 0hPa | 2.9V | 00:00:00 | 00:46:37 | 00:00:00 | |
| OM5KV | 2026-09-02 23:32:06 | 49.42361 | 17.26246 | 122° | 64km/h | 6006m | 6.8m/s | -17.8°C | 32.7% | 0hPa | 2.9V | 00:00:00 | 00:00:00 | 00:00:00 | |
| POL1PZ | 2026-09-02 23:32:05 | 49.42368 | 17.26224 | 114° | 64km/h | 6000m | 6.0m/s | -17.7°C | 32.8% | 0hPa | 2.9V | 00:00:00 | 00:00:00 | 00:00:00 | |
| OE3OSB-13 | 2026-09-02 23:31:57 | 49.42416 | 17.25995 | 126° | 53km/h | 5931m | 4.6m/s | -17.0°C | 31.2% | -1.0hPa | 2.9V | 00:00:00 | 00:00:00 | 00:00:00 | |
| OM5KV | 2026-09-02 23:31:55 | 49.42416 | 17.25995 | 128° | 55km/h | 5931m | 4.6m/s | -17.0°C | 31.2% | 0hPa | 2.9V | 00:00:00 | 00:00:00 | 00:00:00 | |
| PETON7-10 | 2026-09-02 23:31:54 | 49.42431 | 17.25965 | 124° | 58km/h | 5918m | 7.5m/s | -16.8°C | 32.8% | 0hPa | 2.9V | 00:00:00 | 00:00:00 | 00:00:00 | |
| POL1PZ | 2026-09-02 23:31:45 | 49.42467 | 17.25782 | 120° | 73km/h | 5865m | 4.7m/s | -16.4°C | 29.9% | 0hPa | 2.9V | 00:00:00 | 00:00:00 | 00:00:00 | |
| OM5KV | 2026-09-02 23:31:44 | 49.42477 | 17.25758 | 124° | 69km/h | 5859m | 6.4m/s | -16.3°C | 29.7% | 0hPa | 2.9V | 00:00:00 | 00:00:00 | 00:00:00 | |
| PETON7-10 | 2026-09-02 23:31:39 | 49.42515 | 17.25650 | 103° | 60km/h | 5825m | 5.9m/s | -16.0°C | 31.1% | 0hPa | 2.9V | 00:00:00 | 00:00:00 | 00:00:00 | |
| OM5KV | 2026-09-02 23:31:38 | 49.42515 | 17.25650 | 103° | 57km/h | 5825m | 5.9m/s | -16.0°C | 29.2% | 0hPa | 2.9V | 00:00:00 | 00:00:00 | 00:00:00 | |
| OE3JTB-15 | 2026-09-02 23:31:32 | 49.42560 | 17.25475 | 121° | 71km/h | 5783m | 5.2m/s | -15.6°C | 30.9% | 0hPa | 2.9V | 00:00:00 | 00:00:00 | 00:00:00 | |
| OM5KV | 2026-09-02 23:31:27 | 49.42578 | 17.25407 | 102° | 46km/h | 5760m | 4.5m/s | -15.5°C | 28.5% | 0hPa | 2.9V | 00:00:00 | 00:00:00 | 00:00:00 | |
| OE3OSB-13 | 2026-09-02 23:31:26 | 49.42583 | 17.25370 | 105° | 55km/h | 5747m | 7.2m/s | -15.4°C | 28.6% | -1.0hPa | 2.9V | 00:00:00 | 00:00:00 | 00:00:00 | |
| POL1PZ | 2026-09-02 23:31:25 | 49.42583 | 17.25370 | 107° | 57km/h | 5747m | 7.2m/s | -15.4°C | 28.7% | 0hPa | 2.9V | 00:00:00 | 00:00:00 | 00:00:00 | |
| PETON7-10 | 2026-09-02 23:31:24 | 49.42595 | 17.25324 | 116° | 68km/h | 5735m | 7.3m/s | -15.3°C | 31.1% | 0hPa | 2.9V | 00:00:00 | 00:45:52 | 00:00:00 | |
| OM5KV | 2026-09-02 23:31:15 | 49.42652 | 17.25153 | 110° | 60km/h | 5672m | 5.3m/s | -15.2°C | 40.1% | 0hPa | 2.9V | 00:00:00 | 00:00:00 | 00:00:00 | |
| PETON7-10 | 2026-09-02 23:31:09 | 49.42707 | 17.24972 | 119° | 68km/h | 5627m | 5.6m/s | -15.0°C | 48.0% | 0hPa | 2.9V | 00:00:00 | 00:00:00 | 08:30:00 | |
| POL1PZ | 2026-09-02 23:31:04 | 49.42725 | 17.24879 | 98° | 64km/h | 5604m | 6.0m/s | -15.1°C | 48.4% | 0hPa | 2.9V | 00:00:00 | 00:00:00 | 00:00:00 | |
| OE3OSB-13 | 2026-09-02 23:30:55 | 49.42798 | 17.24606 | 108° | 88km/h | 5539m | 4.7m/s | -14.8°C | 47.1% | -1.0hPa | 2.9V | 00:00:00 | 00:00:00 | 00:00:00 | |
| PETON7-10 | 2026-09-02 23:30:54 | 49.42798 | 17.24606 | 109° | 75km/h | 5539m | 4.7m/s | -14.7°C | 49.7% | 0hPa | 2.9V | 00:00:00 | 00:00:00 | 00:00:00 | |
| OE3JTB-15 | 2026-09-02 23:30:50 | 49.42817 | 17.24479 | 99° | 75km/h | 5520m | 6.0m/s | -14.5°C | 47.5% | 0hPa | 2.9V | 00:00:00 | 00:00:00 | 00:00:00 | |
| OM5KV | 2026-09-02 23:30:46 | 49.42826 | 17.24404 | 109° | 57km/h | 5502m | 5.6m/s | -14.4°C | 44.3% | 0hPa | 2.9V | 00:00:00 | 00:00:00 | 00:00:00 | |
| POL1PZ | 2026-09-02 23:30:44 | 49.42839 | 17.24364 | 123° | 60km/h | 5490m | 6.6m/s | -14.3°C | 43.4% | 0hPa | 2.9V | 00:00:00 | 00:00:00 | 00:00:00 | |
| PETON7-10 | 2026-09-02 23:30:39 | 49.42888 | 17.24208 | 105° | 69km/h | 5458m | 5.3m/s | -14.0°C | 45.0% | 0hPa | 2.9V | 00:00:00 | 00:45:07 | 00:00:00 | |
| OM5KV | 2026-09-02 23:30:32 | 49.42922 | 17.24069 | 118° | 69km/h | 5425m | 5.1m/s | -13.9°C | 41.6% | 0hPa | 2.9V | 00:00:00 | 00:00:00 | 00:00:00 | |
| OM5KV | 2026-09-02 23:30:26 | 49.42953 | 17.23908 | 103° | 68km/h | 5393m | 5.2m/s | -13.7°C | 41.5% | 0hPa | 2.9V | 00:00:00 | 00:00:00 | 00:00:00 | |
| PETON7-10 | 2026-09-02 23:30:24 | 49.42970 | 17.23832 | 118° | 64km/h | 5372m | 5.2m/s | -13.5°C | 44.9% | 0hPa | 2.9V | 00:00:00 | 00:00:00 | 00:00:00 | |
| POL1PZ | 2026-09-02 23:30:23 | 49.42970 | 17.23832 | 119° | 71km/h | 5372m | 5.3m/s | -13.6°C | 42.6% | 0hPa | 2.9V | 00:00:00 | 00:00:00 | 00:00:00 | |
| OM5KV | 2026-09-02 23:30:16 | 49.43029 | 17.23642 | 111° | 73km/h | 5323m | 6.5m/s | -14.2°C | 71.0% | 0hPa | 2.9V | 00:00:00 | 00:00:00 | 00:00:00 | |
| PETON7-10 | 2026-09-02 23:30:09 | 49.43077 | 17.23503 | 113° | 53km/h | 5286m | 5.3m/s | -14.1°C | 85.1% | 0hPa | 2.9V | 00:00:00 | 00:00:00 | 00:00:00 | |
| OE3JTB-15 | 2026-09-02 23:30:05 | 49.43092 | 17.23425 | 110° | 62km/h | 5264m | 4.5m/s | -14.3°C | 98.9% | 0hPa | 2.9V | 00:00:00 | 00:44:33 | 00:00:00 | |
| OM5KV | 2026-09-02 23:30:04 | 49.43092 | 17.23425 | 110° | 64km/h | 5264m | 4.5m/s | -14.3°C | 94.3% | 0hPa | 2.9V | 00:00:00 | 00:00:00 | 00:00:00 | |
| OE3OSB-13 | 2026-09-02 23:29:53 | 49.43146 | 17.23158 | 112° | 60km/h | 5193m | 4.2m/s | -13.7°C | 91.5% | -1.0hPa | 2.9V | 00:00:00 | 00:00:00 | 00:00:00 | |
| OM5KV | 2026-09-02 23:29:47 | 49.43157 | 17.23068 | 94° | 64km/h | 5167m | 8.7m/s | -13.4°C | 88.7% | 0hPa | 2.9V | 00:00:00 | 00:00:00 | 00:00:00 | |
| POL1PZ | 2026-09-02 23:29:42 | 49.43173 | 17.22936 | 113° | 68km/h | 5136m | 4.8m/s | -13.2°C | 88.3% | 0hPa | 2.9V | 00:00:00 | 00:00:00 | 00:00:00 | |
| PETON7-10 | 2026-09-02 23:29:39 | 49.43197 | 17.22855 | 108° | 49km/h | 5114m | 5.1m/s | -12.9°C | 91.6% | 0hPa | 2.9V | 00:00:00 | 00:00:00 | 00:00:00 | |
| OM5KV | 2026-09-02 23:29:36 | 49.43202 | 17.22821 | 98° | 46km/h | 5104m | 4.5m/s | -12.9°C | 87.0% | 0hPa | 2.9V | 00:00:00 | 00:00:00 | 00:00:00 | |
| OM5KV | 2026-09-02 23:29:30 | 49.43225 | 17.22714 | 111° | 57km/h | 5069m | 7.2m/s | -12.6°C | 85.4% | 0hPa | 2.9V | 00:00:00 | 00:00:00 | 00:00:00 | |
| PETON7-10 | 2026-09-02 23:29:24 | 49.43255 | 17.22580 | 120° | 58km/h | 5030m | 5.6m/s | -12.1°C | 87.3% | 0hPa | 2.9V | 00:00:00 | 00:00:00 | 00:00:00 | |
| POL1PZ | 2026-09-02 23:29:21 | 49.43268 | 17.22535 | 111° | 68km/h | 5020m | 5.9m/s | -12.1°C | 82.8% | 0hPa | 2.9V | 00:00:00 | 00:00:00 | 00:00:00 | |
| OM5KV | 2026-09-02 23:29:19 | 49.43276 | 17.22486 | 100° | 62km/h | 5009m | 5.7m/s | -12.0°C | 82.0% | 0hPa | 2.9V | 00:00:00 | 00:00:00 | 00:00:00 | |
| OM5KV | 2026-09-02 23:29:13 | 49.43297 | 17.22368 | 115° | 62km/h | 4977m | 4.6m/s | -11.7°C | 81.3% | 0hPa | 2.9V | 00:00:00 | 00:00:00 | 00:00:00 | |
| PETON7-10 | 2026-09-02 23:29:09 | 49.43318 | 17.22258 | 105° | 55km/h | 4948m | 7.3m/s | -11.4°C | 80.7% | 0hPa | 2.9V | 00:00:00 | 00:43:37 | 00:00:00 | |
| OE3OSB-13 | 2026-09-02 23:28:51 | 49.43393 | 17.21876 | 88° | 49km/h | 4842m | 5.7m/s | -10.4°C | 64.0% | -1.0hPa | 2.9V | 00:00:00 | 00:00:00 | 00:00:00 | |
| OE3JTB-15 | 2026-09-02 23:28:45 | 49.43395 | 17.21790 | 104° | 51km/h | 4810m | 8.4m/s | -10.0°C | 64.4% | 0hPa | 2.9V | 00:00:00 | 00:00:00 | 08:30:00 | |
| POL1PZ | 2026-09-02 23:28:41 | 49.43416 | 17.21723 | 117° | 57km/h | 4781m | 7.2m/s | -9.9°C | 0% | 0hPa | 2.9V | 00:00:00 | 00:00:00 | 00:00:00 | |
| PETON7-10 | 2026-09-02 23:28:39 | 49.43425 | 17.21681 | 100° | 53km/h | 4768m | 3.8m/s | -9.7°C | 64.4% | 0hPa | 2.9V | 00:00:00 | 00:00:00 | 00:00:00 | |
| OM5KV | 2026-09-02 23:28:38 | 49.43425 | 17.21681 | 100° | 58km/h | 4768m | 3.8m/s | -9.8°C | 61.7% | 0hPa | 2.9V | 00:00:00 | 00:00:00 | 00:00:00 | |
| OM5KV | 2026-09-02 23:28:33 | 49.43427 | 17.21576 | 99° | 44km/h | 4736m | 4.1m/s | -9.6°C | 63.7% | 0hPa | 2.9V | 00:00:00 | 00:00:00 | 00:00:00 | |
| PETON7-10 | 2026-09-02 23:28:24 | 49.43458 | 17.21386 | 101° | 46km/h | 4681m | 5.4m/s | -9.3°C | 68.2% | 0hPa | 2.9V | 00:00:00 | 00:42:52 | 00:00:00 | |
| OM5KV | 2026-09-02 23:28:22 | 49.43461 | 17.21370 | 109° | 47km/h | 4676m | 5.2m/s | -9.3°C | 65.5% | 0hPa | 2.9V | 00:00:00 | 00:00:00 | 00:00:00 | |
| POL1PZ | 2026-09-02 23:28:19 | 49.43476 | 17.21310 | 108° | 58km/h | 4660m | 5.3m/s | -9.2°C | 0% | 0hPa | 2.9V | 00:00:00 | 00:00:00 | 00:00:00 | |
| PETON7-10 | 2026-09-02 23:28:09 | 49.43490 | 17.21134 | 112° | 47km/h | 4587m | 5.5m/s | -9.2°C | 62.6% | 0hPa | 2.9V | 00:00:00 | 00:00:00 | 00:00:00 | |
| OM5KV | 2026-09-02 23:28:06 | 49.43498 | 17.21097 | 105° | 51km/h | 4577m | 4.9m/s | -9.3°C | 62.1% | 0hPa | 2.9V | 00:00:00 | 00:00:00 | 00:00:00 | |
| OE3OSB-13 | 2026-09-02 23:27:48 | 49.43553 | 17.20753 | 93° | 51km/h | 4465m | 4.4m/s | -8.8°C | 78.4% | -1.0hPa | 2.9V | 00:00:00 | 00:00:00 | 00:00:00 | |
| OM5KV | 2026-09-02 23:27:47 | 49.43553 | 17.20753 | 94° | 51km/h | 4465m | 4.4m/s | -8.8°C | 0% | 0hPa | 2.9V | 00:00:00 | 00:00:00 | 00:00:00 | |
| OM5KV | 2026-09-02 23:27:41 | 49.43571 | 17.20639 | 99° | 57km/h | 4426m | 5.5m/s | -8.5°C | 0% | 0hPa | 2.9V | 00:00:00 | 00:00:00 | 00:00:00 | |
| PETON7-10 | 2026-09-02 23:27:39 | 49.43573 | 17.20577 | 87° | 49km/h | 4410m | 5.2m/s | -8.3°C | 82.1% | 0hPa | 2.9V | 00:00:00 | 00:42:07 | 00:00:00 | |
| POL1PZ | 2026-09-02 23:27:38 | 49.43573 | 17.20577 | 88° | 44km/h | 4410m | 5.2m/s | 0°C | 0% | 0hPa | 2.9V | 00:00:00 | 00:00:00 | 00:00:00 | |
| OM5KV | 2026-09-02 23:27:35 | 49.43575 | 17.20533 | 107° | 38km/h | 4394m | 6.3m/s | -8.3°C | 0% | 0hPa | 2.9V | 00:00:00 | 00:00:00 | 00:00:00 | |
| OM5KV | 2026-09-02 23:27:30 | 49.43592 | 17.20434 | 101° | 57km/h | 4364m | 5.3m/s | -8.0°C | 0% | 0hPa | 2.9V | 00:00:00 | 00:00:00 | 00:00:00 | |
| PETON7-10 | 2026-09-02 23:27:24 | 49.43621 | 17.20300 | 103° | 57km/h | 4322m | 4.8m/s | -7.7°C | 84.0% | 0hPa | 2.9V | 00:00:00 | 00:00:00 | 00:00:00 | |
| OE3JTB-15 | 2026-09-02 23:27:21 | 49.43626 | 17.20234 | 97° | 55km/h | 4304m | 5.0m/s | -7.6°C | 86.8% | 0hPa | 2.9V | 00:00:00 | 00:00:00 | 00:00:00 | |
| POL1PZ | 2026-09-02 23:27:18 | 49.43632 | 17.20193 | 105° | 58km/h | 4292m | 7.8m/s | 0°C | 0% | 0hPa | 2.9V | 00:00:00 | 00:00:00 | 00:00:00 | |
| OE3OSB-13 | 2026-09-02 23:27:17 | 49.43640 | 17.20146 | 103° | 64km/h | 4279m | 6.8m/s | -7.5°C | 85.2% | -1.0hPa | 2.9V | 00:00:00 | 00:00:00 | 00:00:00 | |
| PETON7-10 | 2026-09-02 23:27:09 | 49.43670 | 17.19981 | 112° | 55km/h | 4231m | 6.0m/s | -7.5°C | 89.0% | 0hPa | 2.9V | 00:00:00 | 00:00:00 | 00:00:00 | |
| OE3OSB-13 | 2026-09-02 23:26:46 | 49.43770 | 17.19529 | 111° | 58km/h | 4086m | 7.5m/s | -6.2°C | 78.7% | -1.0hPa | 2.9V | 00:00:00 | 00:00:00 | 00:00:00 | |
| PETON7-10 | 2026-09-02 23:26:39 | 49.43799 | 17.19392 | 108° | 47km/h | 4043m | 7.8m/s | -6.4°C | 87.5% | 0hPa | 2.9V | 00:00:00 | 00:00:00 | 08:30:00 | |
| PETON7-10 | 2026-09-02 23:26:24 | 49.43862 | 17.19134 | 112° | 47km/h | 3952m | 6.2m/s | -5.8°C | 88.8% | 0hPa | 2.9V | 00:00:00 | 00:00:00 | 00:00:00 | |
| OE3JTB-15 | 2026-09-02 23:26:23 | 49.43867 | 17.19112 | 108° | 46km/h | 3946m | 6.6m/s | -5.8°C | 89.2% | 0hPa | 2.9V | 00:00:00 | 00:00:00 | 00:00:00 | |
| PETON7-10 | 2026-09-02 23:26:09 | 49.43922 | 17.18884 | 110° | 46km/h | 3862m | 7.1m/s | -5.2°C | 88.8% | 0hPa | 2.9V | 00:00:00 | 00:40:37 | 00:00:00 | |
| PETON7-10 | 2026-09-02 23:25:54 | 49.43995 | 17.18643 | 121° | 46km/h | 3764m | 5.9m/s | -4.4°C | 89.4% | 0hPa | 2.9V | 00:00:00 | 00:00:00 | 00:00:00 | |
| OE3JTB-15 | 2026-09-02 23:25:53 | 49.44001 | 17.18629 | 127° | 42km/h | 3758m | 5.8m/s | -4.4°C | 90.6% | 0hPa | 2.9V | 00:00:00 | 00:00:00 | 00:00:00 | |
| OE3OSB-13 | 2026-09-02 23:25:44 | 49.44052 | 17.18477 | 116° | 38km/h | 3700m | 4.9m/s | -4.9°C | 87.2% | -1.0hPa | 2.9V | 00:00:00 | 00:00:00 | 00:00:00 | |
| PETON7-10 | 2026-09-02 23:25:39 | 49.44067 | 17.18403 | 101° | 38km/h | 3666m | 8.4m/s | -4.5°C | 88.1% | 0hPa | 2.9V | 00:00:00 | 00:00:00 | 00:00:00 | |
| PETON7-10 | 2026-09-02 23:25:24 | 49.44078 | 17.18186 | 84° | 37km/h | 3570m | 5.6m/s | -3.6°C | 82.4% | 0hPa | 2.9V | 00:00:00 | 00:39:52 | 00:00:00 | |
| OE3OSB-13 | 2026-09-02 23:25:13 | 49.44099 | 17.18035 | 79° | 29km/h | 3496m | 7.4m/s | -2.9°C | 75.7% | -1.0hPa | 2.9V | 00:00:00 | 00:00:00 | 00:00:00 | |
| PETON7-10 | 2026-09-02 23:25:09 | 49.44098 | 17.17978 | 105° | 38km/h | 3470m | 5.1m/s | -2.7°C | 76.5% | 0hPa | 2.9V | 00:00:00 | 00:00:00 | 00:00:00 | |
| OE3JTB-15 | 2026-09-02 23:24:55 | 49.44125 | 17.17777 | 93° | 33km/h | 3389m | 4.9m/s | -2.4°C | 70.4% | 0hPa | 2.9V | 00:00:00 | 00:00:00 | 00:00:00 | |
| PETON7-10 | 2026-09-02 23:24:54 | 49.44124 | 17.17766 | 80° | 37km/h | 3384m | 6.2m/s | -2.3°C | 69.9% | 0hPa | 2.9V | 00:00:00 | 00:00:00 | 00:00:00 | |
| OE3OSB-13 | 2026-09-02 23:24:42 | 49.44113 | 17.17600 | 76° | 40km/h | 3302m | 5.2m/s | -2.0°C | 76.5% | -1.0hPa | 2.9V | 00:00:00 | 00:00:00 | 00:00:00 | |
| PETON7-10 | 2026-09-02 23:24:39 | 49.44104 | 17.17562 | 71° | 31km/h | 3282m | 5.2m/s | -1.8°C | 78.7% | 0hPa | 2.9V | 00:00:00 | 00:39:07 | 00:00:00 | |
| OE3JTB-15 | 2026-09-02 23:24:26 | 49.44073 | 17.17419 | 72° | 38km/h | 3195m | 8.5m/s | -1.0°C | 76.3% | 0hPa | 2.9V | 00:00:00 | 00:00:00 | 00:00:00 | |
| PETON7-10 | 2026-09-02 23:24:24 | 49.44066 | 17.17391 | 74° | 37km/h | 3181m | 6.8m/s | -0.9°C | 75.8% | 0hPa | 2.9V | 00:00:00 | 00:00:00 | 08:30:00 | |
| OE3OSB-13 | 2026-09-02 23:24:11 | 49.44037 | 17.17204 | 82° | 37km/h | 3101m | 6.2m/s | 0°C | -1.0% | -1.0hPa | 2.9V | 00:00:00 | 00:00:00 | 00:00:00 | |
| PETON7-10 | 2026-09-02 23:24:09 | 49.44032 | 17.17176 | 70° | 33km/h | 3090m | 5.8m/s | -0.1°C | 72.2% | 0hPa | 2.9V | 00:00:00 | 00:00:00 | 00:00:00 | |
| OE3JTB-15 | 2026-09-02 23:23:57 | 49.44009 | 17.17028 | 84° | 35km/h | 3020m | 6.0m/s | 0.3°C | 71.5% | 0hPa | 2.9V | 00:00:00 | 00:38:25 | 00:00:00 | |
| PETON7-10 | 2026-09-02 23:23:54 | 49.44003 | 17.16989 | 71° | 35km/h | 3003m | 5.9m/s | 0.4°C | 71.8% | 0hPa | 2.9V | 00:00:00 | 00:38:22 | 00:00:00 | |
| PETON7-10 | 2026-09-02 23:23:39 | 49.43986 | 17.16784 | 71° | 35km/h | 2910m | 6.1m/s | 1.1°C | 75.7% | 0hPa | 2.9V | 00:00:00 | 00:00:00 | 00:00:00 | |
| OE3JTB-15 | 2026-09-02 23:23:28 | 49.43974 | 17.16644 | 107° | 37km/h | 2844m | 5.2m/s | 1.6°C | 75.4% | 0hPa | 2.9V | 00:00:00 | 00:00:00 | 08:30:00 | |
| PETON7-10 | 2026-09-02 23:23:24 | 49.43979 | 17.16588 | 82° | 42km/h | 2820m | 5.7m/s | 0°C | 0% | 0hPa | 2.9V | 00:00:00 | 00:00:00 | 00:00:00 | |
| PETON7-10 | 2026-09-02 23:23:09 | 49.43945 | 17.16352 | 83° | 40km/h | 2727m | 7.4m/s | 0°C | 0% | 0hPa | 2.9V | 00:00:00 | 00:37:37 | 00:00:00 | |
| PETON7-10 | 2026-09-02 23:22:54 | 49.43934 | 17.16125 | 99° | 37km/h | 2630m | 5.7m/s | 0°C | 0% | 0hPa | 2.9V | 00:00:00 | 00:00:00 | 00:00:00 | |
| PETON7-10 | 2026-09-02 23:22:39 | 49.43949 | 17.15915 | 92° | 37km/h | 2533m | 5.9m/s | 0°C | 0% | 0hPa | 2.9V | 00:00:00 | 00:00:00 | 00:00:00 | |
| OE3JTB-15 | 2026-09-02 23:22:35 | 49.43947 | 17.15859 | 96° | 33km/h | 2509m | 4.6m/s | 3.6°C | 77.6% | 0hPa | 2.9V | 00:00:00 | 00:00:00 | 00:00:00 | |
| PETON7-10 | 2026-09-02 23:22:24 | 49.43969 | 17.15712 | 118° | 33km/h | 2452m | 7.8m/s | 0°C | 0% | 0hPa | 2.9V | 00:00:00 | 00:36:52 | 00:00:00 | |
| PETON7-10 | 2026-09-02 23:22:09 | 49.44018 | 17.15544 | 103° | 31km/h | 2367m | 6.3m/s | 0°C | 0% | 0hPa | 2.9V | 00:00:00 | 00:00:00 | 00:00:00 | |
| OE3JTB-15 | 2026-09-02 23:22:06 | 49.44021 | 17.15514 | 103° | 24km/h | 2351m | 4.9m/s | 4.5°C | 86.9% | 0hPa | 2.9V | 00:00:00 | 00:36:34 | 00:00:00 | |
| OE3JTB-15 | 2026-09-02 23:21:37 | 49.44086 | 17.15277 | 98° | 24km/h | 2182m | 5.8m/s | 5.9°C | 86.8% | 0hPa | 2.9V | 00:00:00 | 00:00:00 | 00:00:00 | |
| OE3JTB-15 | 2026-09-02 23:21:08 | 49.44162 | 17.15031 | 117° | 29km/h | 2010m | 7.0m/s | 7.3°C | 85.7% | 0hPa | 2.9V | 00:00:00 | 00:00:00 | 00:00:00 | |
| OE3JTB-15 | 2026-09-02 23:20:39 | 49.44251 | 17.14745 | 101° | 27km/h | 1849m | 4.6m/s | 8.8°C | 79.0% | 0hPa | 2.9V | 00:00:00 | 00:35:07 | 00:00:00 | |
| OE3JTB-15 | 2026-09-02 23:20:10 | 49.44310 | 17.14459 | 111° | 26km/h | 1701m | 5.7m/s | 10.2°C | 73.9% | 0hPa | 2.9V | 00:00:00 | 00:00:00 | 00:00:00 | |
| OE3JTB-15 | 2026-09-02 23:19:41 | 49.44362 | 17.14190 | 121° | 20km/h | 1545m | 6.1m/s | 11.7°C | 69.3% | 0hPa | 0V | 00:00:00 | 00:00:00 | 00:00:00 |